<?xml version="1.0" encoding="UTF-8" standalone="no" ?>
<gpx xmlns="http://www.topografix.com/GPX/1/1" xmlns:xsi="http://www.w3.org/2001/XMLSchema-instance" xsi:schemaLocation="http://www.topografix.com/GPX/1/1 http://www.topografix.com/GPX/1/1/gpx.xsd" version="1.1" creator="VisuGPX - https://www.visugpx.com">
  <metadata>
    <name>Créon - Madirac - Blésignac</name>
    <desc><![CDATA[Randonnée VTT]]></desc>
  </metadata>
  <trk>
    <name><![CDATA[Creon madirac blesignac court]]></name>
    <trkseg>
      <trkpt lat="44.77645" lon="-0.34868">
        <ele>100</ele>
        <time>2014-04-06T11:27:04Z</time>
      </trkpt>
      <trkpt lat="44.77645" lon="-0.34865">
        <ele>100</ele>
        <time>2014-04-06T11:27:13Z</time>
      </trkpt>
      <trkpt lat="44.77643" lon="-0.34867">
        <ele>100</ele>
        <time>2014-04-06T11:27:22Z</time>
      </trkpt>
      <trkpt lat="44.77644" lon="-0.34868">
        <ele>100</ele>
        <time>2014-04-06T11:27:33Z</time>
      </trkpt>
      <trkpt lat="44.77644" lon="-0.34867">
        <ele>100</ele>
        <time>2014-04-06T11:27:43Z</time>
      </trkpt>
      <trkpt lat="44.77644" lon="-0.34866">
        <ele>100</ele>
        <time>2014-04-06T11:27:53Z</time>
      </trkpt>
      <trkpt lat="44.77642" lon="-0.34868">
        <ele>100</ele>
        <time>2014-04-06T11:28:05Z</time>
      </trkpt>
      <trkpt lat="44.77642" lon="-0.34868">
        <ele>100</ele>
        <time>2014-04-06T11:28:08Z</time>
      </trkpt>
      <trkpt lat="44.77638" lon="-0.34879">
        <ele>99</ele>
        <time>2014-04-06T11:28:15Z</time>
      </trkpt>
      <trkpt lat="44.77633" lon="-0.34881">
        <ele>99</ele>
        <time>2014-04-06T11:28:19Z</time>
      </trkpt>
      <trkpt lat="44.77629" lon="-0.34863">
        <ele>100</ele>
        <time>2014-04-06T11:28:24Z</time>
      </trkpt>
      <trkpt lat="44.77631" lon="-0.34809">
        <ele>101</ele>
        <time>2014-04-06T11:28:35Z</time>
      </trkpt>
      <trkpt lat="44.7763" lon="-0.34771">
        <ele>102</ele>
        <time>2014-04-06T11:28:43Z</time>
      </trkpt>
      <trkpt lat="44.77624" lon="-0.34722">
        <ele>102</ele>
        <time>2014-04-06T11:28:53Z</time>
      </trkpt>
      <trkpt lat="44.77614" lon="-0.34693">
        <ele>103</ele>
        <time>2014-04-06T11:28:59Z</time>
      </trkpt>
      <trkpt lat="44.7759" lon="-0.34664">
        <ele>103</ele>
        <time>2014-04-06T11:29:07Z</time>
      </trkpt>
      <trkpt lat="44.77575" lon="-0.34649">
        <ele>104</ele>
        <time>2014-04-06T11:29:12Z</time>
      </trkpt>
      <trkpt lat="44.77575" lon="-0.34644">
        <ele>104</ele>
        <time>2014-04-06T11:29:13Z</time>
      </trkpt>
      <trkpt lat="44.77576" lon="-0.34639">
        <ele>104</ele>
        <time>2014-04-06T11:29:14Z</time>
      </trkpt>
      <trkpt lat="44.77578" lon="-0.34635">
        <ele>104</ele>
        <time>2014-04-06T11:29:15Z</time>
      </trkpt>
      <trkpt lat="44.77581" lon="-0.34631">
        <ele>104</ele>
        <time>2014-04-06T11:29:16Z</time>
      </trkpt>
      <trkpt lat="44.77585" lon="-0.34629">
        <ele>104</ele>
        <time>2014-04-06T11:29:17Z</time>
      </trkpt>
      <trkpt lat="44.77589" lon="-0.34628">
        <ele>104</ele>
        <time>2014-04-06T11:29:18Z</time>
      </trkpt>
      <trkpt lat="44.77594" lon="-0.34625">
        <ele>104</ele>
        <time>2014-04-06T11:29:19Z</time>
      </trkpt>
      <trkpt lat="44.77598" lon="-0.34621">
        <ele>104</ele>
        <time>2014-04-06T11:29:20Z</time>
      </trkpt>
      <trkpt lat="44.77602" lon="-0.34617">
        <ele>104</ele>
        <time>2014-04-06T11:29:21Z</time>
      </trkpt>
      <trkpt lat="44.77613" lon="-0.34604">
        <ele>104</ele>
        <time>2014-04-06T11:29:24Z</time>
      </trkpt>
      <trkpt lat="44.77622" lon="-0.3459">
        <ele>104</ele>
        <time>2014-04-06T11:29:27Z</time>
      </trkpt>
      <trkpt lat="44.77633" lon="-0.34564">
        <ele>104</ele>
        <time>2014-04-06T11:29:32Z</time>
      </trkpt>
      <trkpt lat="44.77639" lon="-0.34539">
        <ele>104</ele>
        <time>2014-04-06T11:29:36Z</time>
      </trkpt>
      <trkpt lat="44.77653" lon="-0.34465">
        <ele>104</ele>
        <time>2014-04-06T11:29:46Z</time>
      </trkpt>
      <trkpt lat="44.77669" lon="-0.344">
        <ele>101</ele>
        <time>2014-04-06T11:29:54Z</time>
      </trkpt>
      <trkpt lat="44.77691" lon="-0.34339">
        <ele>99</ele>
        <time>2014-04-06T11:30:02Z</time>
      </trkpt>
      <trkpt lat="44.77694" lon="-0.34333">
        <ele>99</ele>
        <time>2014-04-06T11:30:03Z</time>
      </trkpt>
      <trkpt lat="44.77707" lon="-0.34306">
        <ele>101</ele>
        <time>2014-04-06T11:30:07Z</time>
      </trkpt>
      <trkpt lat="44.77709" lon="-0.343">
        <ele>101</ele>
        <time>2014-04-06T11:30:08Z</time>
      </trkpt>
      <trkpt lat="44.77725" lon="-0.34269">
        <ele>102</ele>
        <time>2014-04-06T11:30:13Z</time>
      </trkpt>
      <trkpt lat="44.77727" lon="-0.34262">
        <ele>102</ele>
        <time>2014-04-06T11:30:14Z</time>
      </trkpt>
      <trkpt lat="44.77727" lon="-0.34254">
        <ele>102</ele>
        <time>2014-04-06T11:30:15Z</time>
      </trkpt>
      <trkpt lat="44.77724" lon="-0.34248">
        <ele>102</ele>
        <time>2014-04-06T11:30:16Z</time>
      </trkpt>
      <trkpt lat="44.7772" lon="-0.34243">
        <ele>102</ele>
        <time>2014-04-06T11:30:17Z</time>
      </trkpt>
      <trkpt lat="44.77716" lon="-0.3424">
        <ele>102</ele>
        <time>2014-04-06T11:30:18Z</time>
      </trkpt>
      <trkpt lat="44.77711" lon="-0.34237">
        <ele>102</ele>
        <time>2014-04-06T11:30:19Z</time>
      </trkpt>
      <trkpt lat="44.77701" lon="-0.3423">
        <ele>103</ele>
        <time>2014-04-06T11:30:21Z</time>
      </trkpt>
      <trkpt lat="44.77666" lon="-0.3421">
        <ele>104</ele>
        <time>2014-04-06T11:30:28Z</time>
      </trkpt>
      <trkpt lat="44.77662" lon="-0.34208">
        <ele>104</ele>
        <time>2014-04-06T11:30:29Z</time>
      </trkpt>
      <trkpt lat="44.77658" lon="-0.34205">
        <ele>104</ele>
        <time>2014-04-06T11:30:30Z</time>
      </trkpt>
      <trkpt lat="44.77654" lon="-0.34203">
        <ele>104</ele>
        <time>2014-04-06T11:30:31Z</time>
      </trkpt>
      <trkpt lat="44.77649" lon="-0.34201">
        <ele>104</ele>
        <time>2014-04-06T11:30:32Z</time>
      </trkpt>
      <trkpt lat="44.77645" lon="-0.34198">
        <ele>104</ele>
        <time>2014-04-06T11:30:33Z</time>
      </trkpt>
      <trkpt lat="44.77637" lon="-0.34194">
        <ele>104</ele>
        <time>2014-04-06T11:30:35Z</time>
      </trkpt>
      <trkpt lat="44.77617" lon="-0.34182">
        <ele>105</ele>
        <time>2014-04-06T11:30:41Z</time>
      </trkpt>
      <trkpt lat="44.77604" lon="-0.34174">
        <ele>105</ele>
        <time>2014-04-06T11:30:46Z</time>
      </trkpt>
      <trkpt lat="44.77588" lon="-0.34166">
        <ele>105</ele>
        <time>2014-04-06T11:30:52Z</time>
      </trkpt>
      <trkpt lat="44.77583" lon="-0.34163">
        <ele>105</ele>
        <time>2014-04-06T11:30:54Z</time>
      </trkpt>
      <trkpt lat="44.77577" lon="-0.34164">
        <ele>105</ele>
        <time>2014-04-06T11:30:57Z</time>
      </trkpt>
      <trkpt lat="44.77575" lon="-0.34166">
        <ele>105</ele>
        <time>2014-04-06T11:30:58Z</time>
      </trkpt>
      <trkpt lat="44.77574" lon="-0.34169">
        <ele>105</ele>
        <time>2014-04-06T11:31:00Z</time>
      </trkpt>
      <trkpt lat="44.77574" lon="-0.34171">
        <ele>105</ele>
        <time>2014-04-06T11:31:01Z</time>
      </trkpt>
      <trkpt lat="44.77574" lon="-0.34173">
        <ele>105</ele>
        <time>2014-04-06T11:31:02Z</time>
      </trkpt>
      <trkpt lat="44.77575" lon="-0.34175">
        <ele>105</ele>
        <time>2014-04-06T11:31:03Z</time>
      </trkpt>
      <trkpt lat="44.77574" lon="-0.34178">
        <ele>105</ele>
        <time>2014-04-06T11:31:04Z</time>
      </trkpt>
      <trkpt lat="44.77574" lon="-0.34181">
        <ele>105</ele>
        <time>2014-04-06T11:31:05Z</time>
      </trkpt>
      <trkpt lat="44.77573" lon="-0.34184">
        <ele>105</ele>
        <time>2014-04-06T11:31:06Z</time>
      </trkpt>
      <trkpt lat="44.77572" lon="-0.34187">
        <ele>105</ele>
        <time>2014-04-06T11:31:07Z</time>
      </trkpt>
      <trkpt lat="44.77571" lon="-0.3419">
        <ele>105</ele>
        <time>2014-04-06T11:31:08Z</time>
      </trkpt>
      <trkpt lat="44.77565" lon="-0.34209">
        <ele>104</ele>
        <time>2014-04-06T11:31:14Z</time>
      </trkpt>
      <trkpt lat="44.77559" lon="-0.34227">
        <ele>104</ele>
        <time>2014-04-06T11:31:20Z</time>
      </trkpt>
      <trkpt lat="44.77554" lon="-0.34242">
        <ele>104</ele>
        <time>2014-04-06T11:31:26Z</time>
      </trkpt>
      <trkpt lat="44.77544" lon="-0.34251">
        <ele>104</ele>
        <time>2014-04-06T11:31:31Z</time>
      </trkpt>
      <trkpt lat="44.77543" lon="-0.3425">
        <ele>104</ele>
        <time>2014-04-06T11:31:32Z</time>
      </trkpt>
      <trkpt lat="44.77541" lon="-0.34249">
        <ele>104</ele>
        <time>2014-04-06T11:31:33Z</time>
      </trkpt>
      <trkpt lat="44.77539" lon="-0.34248">
        <ele>105</ele>
        <time>2014-04-06T11:31:34Z</time>
      </trkpt>
      <trkpt lat="44.77536" lon="-0.34247">
        <ele>105</ele>
        <time>2014-04-06T11:31:35Z</time>
      </trkpt>
      <trkpt lat="44.77534" lon="-0.34246">
        <ele>105</ele>
        <time>2014-04-06T11:31:36Z</time>
      </trkpt>
      <trkpt lat="44.77531" lon="-0.34244">
        <ele>105</ele>
        <time>2014-04-06T11:31:37Z</time>
      </trkpt>
      <trkpt lat="44.77529" lon="-0.34243">
        <ele>105</ele>
        <time>2014-04-06T11:31:38Z</time>
      </trkpt>
      <trkpt lat="44.7751" lon="-0.3423">
        <ele>105</ele>
        <time>2014-04-06T11:31:45Z</time>
      </trkpt>
      <trkpt lat="44.77507" lon="-0.3423">
        <ele>105</ele>
        <time>2014-04-06T11:31:46Z</time>
      </trkpt>
      <trkpt lat="44.77505" lon="-0.3423">
        <ele>105</ele>
        <time>2014-04-06T11:31:47Z</time>
      </trkpt>
      <trkpt lat="44.77503" lon="-0.3423">
        <ele>105</ele>
        <time>2014-04-06T11:31:48Z</time>
      </trkpt>
      <trkpt lat="44.775" lon="-0.34229">
        <ele>105</ele>
        <time>2014-04-06T11:31:49Z</time>
      </trkpt>
      <trkpt lat="44.77497" lon="-0.34227">
        <ele>105</ele>
        <time>2014-04-06T11:31:50Z</time>
      </trkpt>
      <trkpt lat="44.77495" lon="-0.34225">
        <ele>105</ele>
        <time>2014-04-06T11:31:51Z</time>
      </trkpt>
      <trkpt lat="44.77481" lon="-0.34215">
        <ele>105</ele>
        <time>2014-04-06T11:31:56Z</time>
      </trkpt>
      <trkpt lat="44.77462" lon="-0.34204">
        <ele>105</ele>
        <time>2014-04-06T11:32:02Z</time>
      </trkpt>
      <trkpt lat="44.77444" lon="-0.34194">
        <ele>106</ele>
        <time>2014-04-06T11:32:08Z</time>
      </trkpt>
      <trkpt lat="44.77424" lon="-0.34176">
        <ele>106</ele>
        <time>2014-04-06T11:32:15Z</time>
      </trkpt>
      <trkpt lat="44.77413" lon="-0.34165">
        <ele>106</ele>
        <time>2014-04-06T11:32:20Z</time>
      </trkpt>
      <trkpt lat="44.77397" lon="-0.34144">
        <ele>106</ele>
        <time>2014-04-06T11:32:26Z</time>
      </trkpt>
      <trkpt lat="44.77376" lon="-0.34119">
        <ele>106</ele>
        <time>2014-04-06T11:32:34Z</time>
      </trkpt>
      <trkpt lat="44.77363" lon="-0.34109">
        <ele>106</ele>
        <time>2014-04-06T11:32:39Z</time>
      </trkpt>
      <trkpt lat="44.77355" lon="-0.34097">
        <ele>106</ele>
        <time>2014-04-06T11:32:43Z</time>
      </trkpt>
      <trkpt lat="44.77344" lon="-0.34083">
        <ele>106</ele>
        <time>2014-04-06T11:32:49Z</time>
      </trkpt>
      <trkpt lat="44.7734" lon="-0.34076">
        <ele>106</ele>
        <time>2014-04-06T11:32:53Z</time>
      </trkpt>
      <trkpt lat="44.77339" lon="-0.34074">
        <ele>106</ele>
        <time>2014-04-06T11:32:54Z</time>
      </trkpt>
      <trkpt lat="44.77339" lon="-0.34072">
        <ele>106</ele>
        <time>2014-04-06T11:32:55Z</time>
      </trkpt>
      <trkpt lat="44.77335" lon="-0.34066">
        <ele>106</ele>
        <time>2014-04-06T11:32:59Z</time>
      </trkpt>
      <trkpt lat="44.77321" lon="-0.34051">
        <ele>106</ele>
        <time>2014-04-06T11:33:04Z</time>
      </trkpt>
      <trkpt lat="44.77303" lon="-0.34031">
        <ele>106</ele>
        <time>2014-04-06T11:33:11Z</time>
      </trkpt>
      <trkpt lat="44.77298" lon="-0.34026">
        <ele>106</ele>
        <time>2014-04-06T11:33:13Z</time>
      </trkpt>
      <trkpt lat="44.77297" lon="-0.34023">
        <ele>106</ele>
        <time>2014-04-06T11:33:14Z</time>
      </trkpt>
      <trkpt lat="44.77295" lon="-0.34019">
        <ele>106</ele>
        <time>2014-04-06T11:33:15Z</time>
      </trkpt>
      <trkpt lat="44.77282" lon="-0.33997">
        <ele>105</ele>
        <time>2014-04-06T11:33:21Z</time>
      </trkpt>
      <trkpt lat="44.77266" lon="-0.33977">
        <ele>105</ele>
        <time>2014-04-06T11:33:28Z</time>
      </trkpt>
      <trkpt lat="44.77254" lon="-0.33951">
        <ele>105</ele>
        <time>2014-04-06T11:33:37Z</time>
      </trkpt>
      <trkpt lat="44.77249" lon="-0.33948">
        <ele>105</ele>
        <time>2014-04-06T11:33:40Z</time>
      </trkpt>
      <trkpt lat="44.77247" lon="-0.33947">
        <ele>105</ele>
        <time>2014-04-06T11:33:41Z</time>
      </trkpt>
      <trkpt lat="44.77246" lon="-0.33947">
        <ele>105</ele>
        <time>2014-04-06T11:33:42Z</time>
      </trkpt>
      <trkpt lat="44.77243" lon="-0.33947">
        <ele>105</ele>
        <time>2014-04-06T11:33:43Z</time>
      </trkpt>
      <trkpt lat="44.77242" lon="-0.33948">
        <ele>105</ele>
        <time>2014-04-06T11:33:44Z</time>
      </trkpt>
      <trkpt lat="44.77233" lon="-0.3395">
        <ele>104</ele>
        <time>2014-04-06T11:33:50Z</time>
      </trkpt>
      <trkpt lat="44.77232" lon="-0.33948">
        <ele>104</ele>
        <time>2014-04-06T11:33:51Z</time>
      </trkpt>
      <trkpt lat="44.77231" lon="-0.33946">
        <ele>104</ele>
        <time>2014-04-06T11:33:52Z</time>
      </trkpt>
      <trkpt lat="44.77231" lon="-0.33944">
        <ele>104</ele>
        <time>2014-04-06T11:33:53Z</time>
      </trkpt>
      <trkpt lat="44.77232" lon="-0.33942">
        <ele>104</ele>
        <time>2014-04-06T11:33:58Z</time>
      </trkpt>
      <trkpt lat="44.77232" lon="-0.3394">
        <ele>104</ele>
        <time>2014-04-06T11:34:09Z</time>
      </trkpt>
      <trkpt lat="44.77232" lon="-0.3394">
        <ele>104</ele>
        <time>2014-04-06T11:34:22Z</time>
      </trkpt>
      <trkpt lat="44.77232" lon="-0.33938">
        <ele>104</ele>
        <time>2014-04-06T11:34:34Z</time>
      </trkpt>
      <trkpt lat="44.77231" lon="-0.33918">
        <ele>105</ele>
        <time>2014-04-06T11:34:41Z</time>
      </trkpt>
      <trkpt lat="44.77235" lon="-0.33889">
        <ele>104</ele>
        <time>2014-04-06T11:34:47Z</time>
      </trkpt>
      <trkpt lat="44.77236" lon="-0.33858">
        <ele>104</ele>
        <time>2014-04-06T11:34:53Z</time>
      </trkpt>
      <trkpt lat="44.77236" lon="-0.33809">
        <ele>104</ele>
        <time>2014-04-06T11:35:01Z</time>
      </trkpt>
      <trkpt lat="44.77229" lon="-0.33755">
        <ele>104</ele>
        <time>2014-04-06T11:35:09Z</time>
      </trkpt>
      <trkpt lat="44.77214" lon="-0.33682">
        <ele>104</ele>
        <time>2014-04-06T11:35:20Z</time>
      </trkpt>
      <trkpt lat="44.77205" lon="-0.33653">
        <ele>104</ele>
        <time>2014-04-06T11:35:25Z</time>
      </trkpt>
      <trkpt lat="44.77205" lon="-0.33647">
        <ele>104</ele>
        <time>2014-04-06T11:35:26Z</time>
      </trkpt>
      <trkpt lat="44.77204" lon="-0.33642">
        <ele>104</ele>
        <time>2014-04-06T11:35:27Z</time>
      </trkpt>
      <trkpt lat="44.77209" lon="-0.33613">
        <ele>104</ele>
        <time>2014-04-06T11:35:33Z</time>
      </trkpt>
      <trkpt lat="44.77212" lon="-0.33612">
        <ele>104</ele>
        <time>2014-04-06T11:35:34Z</time>
      </trkpt>
      <trkpt lat="44.77215" lon="-0.33611">
        <ele>104</ele>
        <time>2014-04-06T11:35:35Z</time>
      </trkpt>
      <trkpt lat="44.77219" lon="-0.33612">
        <ele>104</ele>
        <time>2014-04-06T11:35:36Z</time>
      </trkpt>
      <trkpt lat="44.77222" lon="-0.33613">
        <ele>104</ele>
        <time>2014-04-06T11:35:37Z</time>
      </trkpt>
      <trkpt lat="44.77224" lon="-0.33613">
        <ele>104</ele>
        <time>2014-04-06T11:35:38Z</time>
      </trkpt>
      <trkpt lat="44.77226" lon="-0.33612">
        <ele>104</ele>
        <time>2014-04-06T11:35:39Z</time>
      </trkpt>
      <trkpt lat="44.77227" lon="-0.33609">
        <ele>104</ele>
        <time>2014-04-06T11:35:40Z</time>
      </trkpt>
      <trkpt lat="44.77227" lon="-0.33606">
        <ele>104</ele>
        <time>2014-04-06T11:35:41Z</time>
      </trkpt>
      <trkpt lat="44.77225" lon="-0.33604">
        <ele>104</ele>
        <time>2014-04-06T11:35:42Z</time>
      </trkpt>
      <trkpt lat="44.77223" lon="-0.33603">
        <ele>104</ele>
        <time>2014-04-06T11:35:43Z</time>
      </trkpt>
      <trkpt lat="44.77222" lon="-0.33602">
        <ele>104</ele>
        <time>2014-04-06T11:35:44Z</time>
      </trkpt>
      <trkpt lat="44.7722" lon="-0.336">
        <ele>104</ele>
        <time>2014-04-06T11:35:45Z</time>
      </trkpt>
      <trkpt lat="44.77218" lon="-0.33599">
        <ele>104</ele>
        <time>2014-04-06T11:35:46Z</time>
      </trkpt>
      <trkpt lat="44.77215" lon="-0.33599">
        <ele>104</ele>
        <time>2014-04-06T11:35:47Z</time>
      </trkpt>
      <trkpt lat="44.77213" lon="-0.33599">
        <ele>104</ele>
        <time>2014-04-06T11:35:48Z</time>
      </trkpt>
      <trkpt lat="44.77202" lon="-0.33596">
        <ele>104</ele>
        <time>2014-04-06T11:35:51Z</time>
      </trkpt>
      <trkpt lat="44.772" lon="-0.33591">
        <ele>104</ele>
        <time>2014-04-06T11:35:52Z</time>
      </trkpt>
      <trkpt lat="44.77198" lon="-0.33585">
        <ele>104</ele>
        <time>2014-04-06T11:35:53Z</time>
      </trkpt>
      <trkpt lat="44.77196" lon="-0.33578">
        <ele>105</ele>
        <time>2014-04-06T11:35:54Z</time>
      </trkpt>
      <trkpt lat="44.77195" lon="-0.33572">
        <ele>105</ele>
        <time>2014-04-06T11:35:55Z</time>
      </trkpt>
      <trkpt lat="44.77194" lon="-0.33566">
        <ele>105</ele>
        <time>2014-04-06T11:35:56Z</time>
      </trkpt>
      <trkpt lat="44.77187" lon="-0.33515">
        <ele>104</ele>
        <time>2014-04-06T11:36:04Z</time>
      </trkpt>
      <trkpt lat="44.77182" lon="-0.33463">
        <ele>104</ele>
        <time>2014-04-06T11:36:12Z</time>
      </trkpt>
      <trkpt lat="44.77183" lon="-0.33437">
        <ele>104</ele>
        <time>2014-04-06T11:36:16Z</time>
      </trkpt>
      <trkpt lat="44.77185" lon="-0.33373">
        <ele>103</ele>
        <time>2014-04-06T11:36:26Z</time>
      </trkpt>
      <trkpt lat="44.77189" lon="-0.33333">
        <ele>103</ele>
        <time>2014-04-06T11:36:32Z</time>
      </trkpt>
      <trkpt lat="44.77192" lon="-0.33288">
        <ele>103</ele>
        <time>2014-04-06T11:36:38Z</time>
      </trkpt>
      <trkpt lat="44.77191" lon="-0.33282">
        <ele>103</ele>
        <time>2014-04-06T11:36:39Z</time>
      </trkpt>
      <trkpt lat="44.77189" lon="-0.33243">
        <ele>102</ele>
        <time>2014-04-06T11:36:46Z</time>
      </trkpt>
      <trkpt lat="44.77186" lon="-0.33236">
        <ele>102</ele>
        <time>2014-04-06T11:36:51Z</time>
      </trkpt>
      <trkpt lat="44.77186" lon="-0.33233">
        <ele>102</ele>
        <time>2014-04-06T11:36:53Z</time>
      </trkpt>
      <trkpt lat="44.77186" lon="-0.33231">
        <ele>102</ele>
        <time>2014-04-06T11:36:54Z</time>
      </trkpt>
      <trkpt lat="44.77187" lon="-0.33229">
        <ele>102</ele>
        <time>2014-04-06T11:36:55Z</time>
      </trkpt>
      <trkpt lat="44.77189" lon="-0.33229">
        <ele>102</ele>
        <time>2014-04-06T11:36:56Z</time>
      </trkpt>
      <trkpt lat="44.77191" lon="-0.33228">
        <ele>102</ele>
        <time>2014-04-06T11:36:57Z</time>
      </trkpt>
      <trkpt lat="44.77194" lon="-0.33228">
        <ele>102</ele>
        <time>2014-04-06T11:36:58Z</time>
      </trkpt>
      <trkpt lat="44.77198" lon="-0.33228">
        <ele>102</ele>
        <time>2014-04-06T11:36:59Z</time>
      </trkpt>
      <trkpt lat="44.77201" lon="-0.33228">
        <ele>102</ele>
        <time>2014-04-06T11:37:00Z</time>
      </trkpt>
      <trkpt lat="44.77204" lon="-0.33228">
        <ele>102</ele>
        <time>2014-04-06T11:37:01Z</time>
      </trkpt>
      <trkpt lat="44.77207" lon="-0.33228">
        <ele>103</ele>
        <time>2014-04-06T11:37:02Z</time>
      </trkpt>
      <trkpt lat="44.77231" lon="-0.33225">
        <ele>103</ele>
        <time>2014-04-06T11:37:10Z</time>
      </trkpt>
      <trkpt lat="44.77258" lon="-0.33222">
        <ele>103</ele>
        <time>2014-04-06T11:37:18Z</time>
      </trkpt>
      <trkpt lat="44.77276" lon="-0.33222">
        <ele>103</ele>
        <time>2014-04-06T11:37:24Z</time>
      </trkpt>
      <trkpt lat="44.77302" lon="-0.33218">
        <ele>103</ele>
        <time>2014-04-06T11:37:32Z</time>
      </trkpt>
      <trkpt lat="44.77313" lon="-0.33204">
        <ele>103</ele>
        <time>2014-04-06T11:37:37Z</time>
      </trkpt>
      <trkpt lat="44.7732" lon="-0.33184">
        <ele>102</ele>
        <time>2014-04-06T11:37:44Z</time>
      </trkpt>
      <trkpt lat="44.77328" lon="-0.3316">
        <ele>102</ele>
        <time>2014-04-06T11:37:51Z</time>
      </trkpt>
      <trkpt lat="44.77333" lon="-0.33137">
        <ele>101</ele>
        <time>2014-04-06T11:37:57Z</time>
      </trkpt>
      <trkpt lat="44.77334" lon="-0.33131">
        <ele>101</ele>
        <time>2014-04-06T11:37:59Z</time>
      </trkpt>
      <trkpt lat="44.77335" lon="-0.33128">
        <ele>101</ele>
        <time>2014-04-06T11:38:00Z</time>
      </trkpt>
      <trkpt lat="44.77335" lon="-0.33125">
        <ele>100</ele>
        <time>2014-04-06T11:38:01Z</time>
      </trkpt>
      <trkpt lat="44.77335" lon="-0.33117">
        <ele>100</ele>
        <time>2014-04-06T11:38:04Z</time>
      </trkpt>
      <trkpt lat="44.77335" lon="-0.33115">
        <ele>100</ele>
        <time>2014-04-06T11:38:05Z</time>
      </trkpt>
      <trkpt lat="44.77336" lon="-0.33111">
        <ele>100</ele>
        <time>2014-04-06T11:38:06Z</time>
      </trkpt>
      <trkpt lat="44.77336" lon="-0.33108">
        <ele>100</ele>
        <time>2014-04-06T11:38:07Z</time>
      </trkpt>
      <trkpt lat="44.77337" lon="-0.33103">
        <ele>100</ele>
        <time>2014-04-06T11:38:08Z</time>
      </trkpt>
      <trkpt lat="44.7734" lon="-0.33077">
        <ele>100</ele>
        <time>2014-04-06T11:38:13Z</time>
      </trkpt>
      <trkpt lat="44.77345" lon="-0.33047">
        <ele>99</ele>
        <time>2014-04-06T11:38:19Z</time>
      </trkpt>
      <trkpt lat="44.77349" lon="-0.33024">
        <ele>98</ele>
        <time>2014-04-06T11:38:24Z</time>
      </trkpt>
      <trkpt lat="44.77357" lon="-0.33003">
        <ele>98</ele>
        <time>2014-04-06T11:38:30Z</time>
      </trkpt>
      <trkpt lat="44.77359" lon="-0.33002">
        <ele>98</ele>
        <time>2014-04-06T11:38:31Z</time>
      </trkpt>
      <trkpt lat="44.77377" lon="-0.33004">
        <ele>98</ele>
        <time>2014-04-06T11:38:37Z</time>
      </trkpt>
      <trkpt lat="44.77395" lon="-0.32999">
        <ele>98</ele>
        <time>2014-04-06T11:38:43Z</time>
      </trkpt>
      <trkpt lat="44.77414" lon="-0.32981">
        <ele>98</ele>
        <time>2014-04-06T11:38:50Z</time>
      </trkpt>
      <trkpt lat="44.77435" lon="-0.32957">
        <ele>98</ele>
        <time>2014-04-06T11:38:58Z</time>
      </trkpt>
      <trkpt lat="44.7745" lon="-0.32941">
        <ele>98</ele>
        <time>2014-04-06T11:39:05Z</time>
      </trkpt>
      <trkpt lat="44.77467" lon="-0.32922">
        <ele>98</ele>
        <time>2014-04-06T11:39:11Z</time>
      </trkpt>
      <trkpt lat="44.77485" lon="-0.32904">
        <ele>98</ele>
        <time>2014-04-06T11:39:17Z</time>
      </trkpt>
      <trkpt lat="44.77504" lon="-0.32889">
        <ele>99</ele>
        <time>2014-04-06T11:39:23Z</time>
      </trkpt>
      <trkpt lat="44.7751" lon="-0.32882">
        <ele>99</ele>
        <time>2014-04-06T11:39:25Z</time>
      </trkpt>
      <trkpt lat="44.77525" lon="-0.32868">
        <ele>99</ele>
        <time>2014-04-06T11:39:30Z</time>
      </trkpt>
      <trkpt lat="44.77529" lon="-0.32867">
        <ele>99</ele>
        <time>2014-04-06T11:39:31Z</time>
      </trkpt>
      <trkpt lat="44.77532" lon="-0.32867">
        <ele>99</ele>
        <time>2014-04-06T11:39:32Z</time>
      </trkpt>
      <trkpt lat="44.77536" lon="-0.32865">
        <ele>99</ele>
        <time>2014-04-06T11:39:33Z</time>
      </trkpt>
      <trkpt lat="44.77539" lon="-0.32863">
        <ele>99</ele>
        <time>2014-04-06T11:39:34Z</time>
      </trkpt>
      <trkpt lat="44.77543" lon="-0.32861">
        <ele>98</ele>
        <time>2014-04-06T11:39:35Z</time>
      </trkpt>
      <trkpt lat="44.77546" lon="-0.3286">
        <ele>98</ele>
        <time>2014-04-06T11:39:36Z</time>
      </trkpt>
      <trkpt lat="44.77549" lon="-0.32859">
        <ele>98</ele>
        <time>2014-04-06T11:39:37Z</time>
      </trkpt>
      <trkpt lat="44.77573" lon="-0.32852">
        <ele>98</ele>
        <time>2014-04-06T11:39:44Z</time>
      </trkpt>
      <trkpt lat="44.77592" lon="-0.32846">
        <ele>97</ele>
        <time>2014-04-06T11:39:50Z</time>
      </trkpt>
      <trkpt lat="44.77604" lon="-0.32835">
        <ele>97</ele>
        <time>2014-04-06T11:39:55Z</time>
      </trkpt>
      <trkpt lat="44.77609" lon="-0.32823">
        <ele>96</ele>
        <time>2014-04-06T11:40:01Z</time>
      </trkpt>
      <trkpt lat="44.77609" lon="-0.32823">
        <ele>96</ele>
        <time>2014-04-06T11:40:02Z</time>
      </trkpt>
      <trkpt lat="44.77609" lon="-0.32816">
        <ele>96</ele>
        <time>2014-04-06T11:40:06Z</time>
      </trkpt>
      <trkpt lat="44.77601" lon="-0.32792">
        <ele>97</ele>
        <time>2014-04-06T11:40:14Z</time>
      </trkpt>
      <trkpt lat="44.77595" lon="-0.32759">
        <ele>97</ele>
        <time>2014-04-06T11:40:21Z</time>
      </trkpt>
      <trkpt lat="44.77591" lon="-0.32733">
        <ele>96</ele>
        <time>2014-04-06T11:40:27Z</time>
      </trkpt>
      <trkpt lat="44.77589" lon="-0.32706">
        <ele>95</ele>
        <time>2014-04-06T11:40:33Z</time>
      </trkpt>
      <trkpt lat="44.77583" lon="-0.3268">
        <ele>94</ele>
        <time>2014-04-06T11:40:39Z</time>
      </trkpt>
      <trkpt lat="44.77585" lon="-0.32656">
        <ele>92</ele>
        <time>2014-04-06T11:40:44Z</time>
      </trkpt>
      <trkpt lat="44.7759" lon="-0.32629">
        <ele>91</ele>
        <time>2014-04-06T11:40:51Z</time>
      </trkpt>
      <trkpt lat="44.77587" lon="-0.32599">
        <ele>89</ele>
        <time>2014-04-06T11:40:55Z</time>
      </trkpt>
      <trkpt lat="44.77585" lon="-0.32561">
        <ele>88</ele>
        <time>2014-04-06T11:41:00Z</time>
      </trkpt>
      <trkpt lat="44.7758" lon="-0.32509">
        <ele>86</ele>
        <time>2014-04-06T11:41:06Z</time>
      </trkpt>
      <trkpt lat="44.77578" lon="-0.32484">
        <ele>85</ele>
        <time>2014-04-06T11:41:10Z</time>
      </trkpt>
      <trkpt lat="44.77568" lon="-0.32451">
        <ele>85</ele>
        <time>2014-04-06T11:41:16Z</time>
      </trkpt>
      <trkpt lat="44.77559" lon="-0.32428">
        <ele>84</ele>
        <time>2014-04-06T11:41:22Z</time>
      </trkpt>
      <trkpt lat="44.77553" lon="-0.32406">
        <ele>82</ele>
        <time>2014-04-06T11:41:29Z</time>
      </trkpt>
      <trkpt lat="44.77552" lon="-0.32393">
        <ele>82</ele>
        <time>2014-04-06T11:41:35Z</time>
      </trkpt>
      <trkpt lat="44.77552" lon="-0.3239">
        <ele>82</ele>
        <time>2014-04-06T11:41:38Z</time>
      </trkpt>
      <trkpt lat="44.77558" lon="-0.32388">
        <ele>82</ele>
        <time>2014-04-06T11:41:42Z</time>
      </trkpt>
      <trkpt lat="44.77579" lon="-0.32388">
        <ele>81</ele>
        <time>2014-04-06T11:41:49Z</time>
      </trkpt>
      <trkpt lat="44.77616" lon="-0.3239">
        <ele>80</ele>
        <time>2014-04-06T11:41:59Z</time>
      </trkpt>
      <trkpt lat="44.77648" lon="-0.32391">
        <ele>78</ele>
        <time>2014-04-06T11:42:07Z</time>
      </trkpt>
      <trkpt lat="44.77679" lon="-0.32395">
        <ele>77</ele>
        <time>2014-04-06T11:42:15Z</time>
      </trkpt>
      <trkpt lat="44.77706" lon="-0.32396">
        <ele>76</ele>
        <time>2014-04-06T11:42:23Z</time>
      </trkpt>
      <trkpt lat="44.77714" lon="-0.32391">
        <ele>75</ele>
        <time>2014-04-06T11:42:26Z</time>
      </trkpt>
      <trkpt lat="44.77723" lon="-0.32391">
        <ele>75</ele>
        <time>2014-04-06T11:42:33Z</time>
      </trkpt>
      <trkpt lat="44.7773" lon="-0.32397">
        <ele>75</ele>
        <time>2014-04-06T11:42:40Z</time>
      </trkpt>
      <trkpt lat="44.77731" lon="-0.324">
        <ele>75</ele>
        <time>2014-04-06T11:42:42Z</time>
      </trkpt>
      <trkpt lat="44.77742" lon="-0.32401">
        <ele>74</ele>
        <time>2014-04-06T11:42:50Z</time>
      </trkpt>
      <trkpt lat="44.77757" lon="-0.32402">
        <ele>74</ele>
        <time>2014-04-06T11:42:57Z</time>
      </trkpt>
      <trkpt lat="44.77768" lon="-0.32402">
        <ele>74</ele>
        <time>2014-04-06T11:43:05Z</time>
      </trkpt>
      <trkpt lat="44.77773" lon="-0.32403">
        <ele>74</ele>
        <time>2014-04-06T11:43:08Z</time>
      </trkpt>
      <trkpt lat="44.77788" lon="-0.32404">
        <ele>73</ele>
        <time>2014-04-06T11:43:16Z</time>
      </trkpt>
      <trkpt lat="44.77806" lon="-0.32405">
        <ele>73</ele>
        <time>2014-04-06T11:43:23Z</time>
      </trkpt>
      <trkpt lat="44.77816" lon="-0.32405">
        <ele>73</ele>
        <time>2014-04-06T11:43:27Z</time>
      </trkpt>
      <trkpt lat="44.77826" lon="-0.32388">
        <ele>72</ele>
        <time>2014-04-06T11:43:32Z</time>
      </trkpt>
      <trkpt lat="44.77827" lon="-0.32383">
        <ele>72</ele>
        <time>2014-04-06T11:43:33Z</time>
      </trkpt>
      <trkpt lat="44.77831" lon="-0.32354">
        <ele>71</ele>
        <time>2014-04-06T11:43:40Z</time>
      </trkpt>
      <trkpt lat="44.77834" lon="-0.32335">
        <ele>70</ele>
        <time>2014-04-06T11:43:46Z</time>
      </trkpt>
      <trkpt lat="44.77836" lon="-0.32309">
        <ele>69</ele>
        <time>2014-04-06T11:43:51Z</time>
      </trkpt>
      <trkpt lat="44.7784" lon="-0.32279">
        <ele>69</ele>
        <time>2014-04-06T11:43:56Z</time>
      </trkpt>
      <trkpt lat="44.77858" lon="-0.3227">
        <ele>67</ele>
        <time>2014-04-06T11:44:02Z</time>
      </trkpt>
      <trkpt lat="44.77887" lon="-0.32277">
        <ele>66</ele>
        <time>2014-04-06T11:44:10Z</time>
      </trkpt>
      <trkpt lat="44.77914" lon="-0.32285">
        <ele>66</ele>
        <time>2014-04-06T11:44:17Z</time>
      </trkpt>
      <trkpt lat="44.7794" lon="-0.32293">
        <ele>66</ele>
        <time>2014-04-06T11:44:24Z</time>
      </trkpt>
      <trkpt lat="44.77948" lon="-0.3228">
        <ele>65</ele>
        <time>2014-04-06T11:44:30Z</time>
      </trkpt>
      <trkpt lat="44.77962" lon="-0.32272">
        <ele>65</ele>
        <time>2014-04-06T11:44:35Z</time>
      </trkpt>
      <trkpt lat="44.77988" lon="-0.32277">
        <ele>64</ele>
        <time>2014-04-06T11:44:40Z</time>
      </trkpt>
      <trkpt lat="44.77999" lon="-0.32274">
        <ele>64</ele>
        <time>2014-04-06T11:44:44Z</time>
      </trkpt>
      <trkpt lat="44.78003" lon="-0.32252">
        <ele>63</ele>
        <time>2014-04-06T11:44:50Z</time>
      </trkpt>
      <trkpt lat="44.7801" lon="-0.32228">
        <ele>62</ele>
        <time>2014-04-06T11:44:55Z</time>
      </trkpt>
      <trkpt lat="44.78011" lon="-0.32203">
        <ele>62</ele>
        <time>2014-04-06T11:45:00Z</time>
      </trkpt>
      <trkpt lat="44.78014" lon="-0.32181">
        <ele>61</ele>
        <time>2014-04-06T11:45:06Z</time>
      </trkpt>
      <trkpt lat="44.78023" lon="-0.32159">
        <ele>60</ele>
        <time>2014-04-06T11:45:13Z</time>
      </trkpt>
      <trkpt lat="44.78024" lon="-0.32156">
        <ele>60</ele>
        <time>2014-04-06T11:45:14Z</time>
      </trkpt>
      <trkpt lat="44.78025" lon="-0.32148">
        <ele>60</ele>
        <time>2014-04-06T11:45:21Z</time>
      </trkpt>
      <trkpt lat="44.78026" lon="-0.32146">
        <ele>60</ele>
        <time>2014-04-06T11:45:28Z</time>
      </trkpt>
      <trkpt lat="44.78025" lon="-0.32146">
        <ele>60</ele>
        <time>2014-04-06T11:45:42Z</time>
      </trkpt>
      <trkpt lat="44.78025" lon="-0.32147">
        <ele>60</ele>
        <time>2014-04-06T11:45:56Z</time>
      </trkpt>
      <trkpt lat="44.78025" lon="-0.32147">
        <ele>60</ele>
        <time>2014-04-06T11:46:07Z</time>
      </trkpt>
      <trkpt lat="44.78025" lon="-0.32147">
        <ele>60</ele>
        <time>2014-04-06T11:46:19Z</time>
      </trkpt>
      <trkpt lat="44.78025" lon="-0.32146">
        <ele>60</ele>
        <time>2014-04-06T11:46:33Z</time>
      </trkpt>
      <trkpt lat="44.78025" lon="-0.32146">
        <ele>60</ele>
        <time>2014-04-06T11:46:43Z</time>
      </trkpt>
      <trkpt lat="44.78025" lon="-0.32145">
        <ele>60</ele>
        <time>2014-04-06T11:47:00Z</time>
      </trkpt>
      <trkpt lat="44.78025" lon="-0.32141">
        <ele>60</ele>
        <time>2014-04-06T11:47:17Z</time>
      </trkpt>
      <trkpt lat="44.78025" lon="-0.32141">
        <ele>60</ele>
        <time>2014-04-06T11:47:21Z</time>
      </trkpt>
      <trkpt lat="44.78017" lon="-0.32137">
        <ele>60</ele>
        <time>2014-04-06T11:47:27Z</time>
      </trkpt>
      <trkpt lat="44.77997" lon="-0.32131">
        <ele>60</ele>
        <time>2014-04-06T11:47:34Z</time>
      </trkpt>
      <trkpt lat="44.77974" lon="-0.32119">
        <ele>60</ele>
        <time>2014-04-06T11:47:41Z</time>
      </trkpt>
      <trkpt lat="44.7795" lon="-0.32103">
        <ele>61</ele>
        <time>2014-04-06T11:47:48Z</time>
      </trkpt>
      <trkpt lat="44.7795" lon="-0.32083">
        <ele>60</ele>
        <time>2014-04-06T11:47:52Z</time>
      </trkpt>
      <trkpt lat="44.77952" lon="-0.32077">
        <ele>60</ele>
        <time>2014-04-06T11:47:53Z</time>
      </trkpt>
      <trkpt lat="44.77953" lon="-0.32071">
        <ele>60</ele>
        <time>2014-04-06T11:47:54Z</time>
      </trkpt>
      <trkpt lat="44.77962" lon="-0.32021">
        <ele>60</ele>
        <time>2014-04-06T11:48:03Z</time>
      </trkpt>
      <trkpt lat="44.77961" lon="-0.32009">
        <ele>60</ele>
        <time>2014-04-06T11:48:05Z</time>
      </trkpt>
      <trkpt lat="44.77959" lon="-0.32003">
        <ele>60</ele>
        <time>2014-04-06T11:48:06Z</time>
      </trkpt>
      <trkpt lat="44.77956" lon="-0.31991">
        <ele>60</ele>
        <time>2014-04-06T11:48:08Z</time>
      </trkpt>
      <trkpt lat="44.77954" lon="-0.31985">
        <ele>60</ele>
        <time>2014-04-06T11:48:09Z</time>
      </trkpt>
      <trkpt lat="44.77932" lon="-0.31932">
        <ele>61</ele>
        <time>2014-04-06T11:48:18Z</time>
      </trkpt>
      <trkpt lat="44.77931" lon="-0.31925">
        <ele>61</ele>
        <time>2014-04-06T11:48:19Z</time>
      </trkpt>
      <trkpt lat="44.7793" lon="-0.31912">
        <ele>61</ele>
        <time>2014-04-06T11:48:21Z</time>
      </trkpt>
      <trkpt lat="44.77931" lon="-0.31905">
        <ele>61</ele>
        <time>2014-04-06T11:48:22Z</time>
      </trkpt>
      <trkpt lat="44.7794" lon="-0.31853">
        <ele>63</ele>
        <time>2014-04-06T11:48:30Z</time>
      </trkpt>
      <trkpt lat="44.7795" lon="-0.31802">
        <ele>64</ele>
        <time>2014-04-06T11:48:38Z</time>
      </trkpt>
      <trkpt lat="44.7796" lon="-0.31747">
        <ele>65</ele>
        <time>2014-04-06T11:48:47Z</time>
      </trkpt>
      <trkpt lat="44.77969" lon="-0.31697">
        <ele>67</ele>
        <time>2014-04-06T11:48:56Z</time>
      </trkpt>
      <trkpt lat="44.77974" lon="-0.3168">
        <ele>67</ele>
        <time>2014-04-06T11:49:00Z</time>
      </trkpt>
      <trkpt lat="44.77976" lon="-0.31679">
        <ele>67</ele>
        <time>2014-04-06T11:49:01Z</time>
      </trkpt>
      <trkpt lat="44.77988" lon="-0.31684">
        <ele>67</ele>
        <time>2014-04-06T11:49:05Z</time>
      </trkpt>
      <trkpt lat="44.77992" lon="-0.31686">
        <ele>67</ele>
        <time>2014-04-06T11:49:06Z</time>
      </trkpt>
      <trkpt lat="44.78" lon="-0.31689">
        <ele>67</ele>
        <time>2014-04-06T11:49:08Z</time>
      </trkpt>
      <trkpt lat="44.7804" lon="-0.31708">
        <ele>66</ele>
        <time>2014-04-06T11:49:18Z</time>
      </trkpt>
      <trkpt lat="44.7807" lon="-0.31724">
        <ele>66</ele>
        <time>2014-04-06T11:49:26Z</time>
      </trkpt>
      <trkpt lat="44.78089" lon="-0.31735">
        <ele>66</ele>
        <time>2014-04-06T11:49:33Z</time>
      </trkpt>
      <trkpt lat="44.78098" lon="-0.3174">
        <ele>66</ele>
        <time>2014-04-06T11:49:38Z</time>
      </trkpt>
      <trkpt lat="44.78101" lon="-0.31732">
        <ele>66</ele>
        <time>2014-04-06T11:49:42Z</time>
      </trkpt>
      <trkpt lat="44.78092" lon="-0.31712">
        <ele>66</ele>
        <time>2014-04-06T11:49:52Z</time>
      </trkpt>
      <trkpt lat="44.78086" lon="-0.31695">
        <ele>67</ele>
        <time>2014-04-06T11:49:59Z</time>
      </trkpt>
      <trkpt lat="44.78075" lon="-0.31667">
        <ele>67</ele>
        <time>2014-04-06T11:50:09Z</time>
      </trkpt>
      <trkpt lat="44.78066" lon="-0.31643">
        <ele>67</ele>
        <time>2014-04-06T11:50:16Z</time>
      </trkpt>
      <trkpt lat="44.78051" lon="-0.31607">
        <ele>68</ele>
        <time>2014-04-06T11:50:26Z</time>
      </trkpt>
      <trkpt lat="44.78041" lon="-0.3158">
        <ele>68</ele>
        <time>2014-04-06T11:50:33Z</time>
      </trkpt>
      <trkpt lat="44.78028" lon="-0.3154">
        <ele>68</ele>
        <time>2014-04-06T11:50:44Z</time>
      </trkpt>
      <trkpt lat="44.78019" lon="-0.31516">
        <ele>68</ele>
        <time>2014-04-06T11:50:51Z</time>
      </trkpt>
      <trkpt lat="44.78004" lon="-0.3148">
        <ele>69</ele>
        <time>2014-04-06T11:51:00Z</time>
      </trkpt>
      <trkpt lat="44.77992" lon="-0.31447">
        <ele>69</ele>
        <time>2014-04-06T11:51:08Z</time>
      </trkpt>
      <trkpt lat="44.77979" lon="-0.31414">
        <ele>70</ele>
        <time>2014-04-06T11:51:16Z</time>
      </trkpt>
      <trkpt lat="44.77966" lon="-0.3138">
        <ele>70</ele>
        <time>2014-04-06T11:51:24Z</time>
      </trkpt>
      <trkpt lat="44.77952" lon="-0.31344">
        <ele>71</ele>
        <time>2014-04-06T11:51:32Z</time>
      </trkpt>
      <trkpt lat="44.77938" lon="-0.31308">
        <ele>71</ele>
        <time>2014-04-06T11:51:40Z</time>
      </trkpt>
      <trkpt lat="44.77926" lon="-0.31276">
        <ele>70</ele>
        <time>2014-04-06T11:51:47Z</time>
      </trkpt>
      <trkpt lat="44.77908" lon="-0.31229">
        <ele>71</ele>
        <time>2014-04-06T11:51:57Z</time>
      </trkpt>
      <trkpt lat="44.77891" lon="-0.31184">
        <ele>72</ele>
        <time>2014-04-06T11:52:07Z</time>
      </trkpt>
      <trkpt lat="44.77872" lon="-0.31136">
        <ele>73</ele>
        <time>2014-04-06T11:52:17Z</time>
      </trkpt>
      <trkpt lat="44.77855" lon="-0.3109">
        <ele>75</ele>
        <time>2014-04-06T11:52:26Z</time>
      </trkpt>
      <trkpt lat="44.77836" lon="-0.3104">
        <ele>76</ele>
        <time>2014-04-06T11:52:36Z</time>
      </trkpt>
      <trkpt lat="44.7782" lon="-0.31">
        <ele>77</ele>
        <time>2014-04-06T11:52:44Z</time>
      </trkpt>
      <trkpt lat="44.77807" lon="-0.30966">
        <ele>78</ele>
        <time>2014-04-06T11:52:51Z</time>
      </trkpt>
      <trkpt lat="44.77792" lon="-0.30926">
        <ele>79</ele>
        <time>2014-04-06T11:52:59Z</time>
      </trkpt>
      <trkpt lat="44.77778" lon="-0.30892">
        <ele>80</ele>
        <time>2014-04-06T11:53:06Z</time>
      </trkpt>
      <trkpt lat="44.77766" lon="-0.30861">
        <ele>81</ele>
        <time>2014-04-06T11:53:12Z</time>
      </trkpt>
      <trkpt lat="44.7775" lon="-0.30823">
        <ele>82</ele>
        <time>2014-04-06T11:53:19Z</time>
      </trkpt>
      <trkpt lat="44.7774" lon="-0.30796">
        <ele>82</ele>
        <time>2014-04-06T11:53:24Z</time>
      </trkpt>
      <trkpt lat="44.77739" lon="-0.3079">
        <ele>82</ele>
        <time>2014-04-06T11:53:25Z</time>
      </trkpt>
      <trkpt lat="44.77724" lon="-0.30755">
        <ele>81</ele>
        <time>2014-04-06T11:53:32Z</time>
      </trkpt>
      <trkpt lat="44.77701" lon="-0.30703">
        <ele>80</ele>
        <time>2014-04-06T11:53:42Z</time>
      </trkpt>
      <trkpt lat="44.77681" lon="-0.30664">
        <ele>79</ele>
        <time>2014-04-06T11:53:49Z</time>
      </trkpt>
      <trkpt lat="44.77653" lon="-0.30618">
        <ele>78</ele>
        <time>2014-04-06T11:53:57Z</time>
      </trkpt>
      <trkpt lat="44.77623" lon="-0.30571">
        <ele>78</ele>
        <time>2014-04-06T11:54:05Z</time>
      </trkpt>
      <trkpt lat="44.77592" lon="-0.30523">
        <ele>79</ele>
        <time>2014-04-06T11:54:13Z</time>
      </trkpt>
      <trkpt lat="44.77563" lon="-0.30479">
        <ele>79</ele>
        <time>2014-04-06T11:54:21Z</time>
      </trkpt>
      <trkpt lat="44.77539" lon="-0.30442">
        <ele>79</ele>
        <time>2014-04-06T11:54:27Z</time>
      </trkpt>
      <trkpt lat="44.77501" lon="-0.30382">
        <ele>79</ele>
        <time>2014-04-06T11:54:37Z</time>
      </trkpt>
      <trkpt lat="44.77467" lon="-0.3033">
        <ele>80</ele>
        <time>2014-04-06T11:54:46Z</time>
      </trkpt>
      <trkpt lat="44.77427" lon="-0.30269">
        <ele>82</ele>
        <time>2014-04-06T11:54:57Z</time>
      </trkpt>
      <trkpt lat="44.77406" lon="-0.30235">
        <ele>83</ele>
        <time>2014-04-06T11:55:05Z</time>
      </trkpt>
      <trkpt lat="44.77401" lon="-0.30224">
        <ele>83</ele>
        <time>2014-04-06T11:55:11Z</time>
      </trkpt>
      <trkpt lat="44.774" lon="-0.30222">
        <ele>83</ele>
        <time>2014-04-06T11:55:15Z</time>
      </trkpt>
      <trkpt lat="44.77398" lon="-0.30219">
        <ele>83</ele>
        <time>2014-04-06T11:55:20Z</time>
      </trkpt>
      <trkpt lat="44.77388" lon="-0.30206">
        <ele>83</ele>
        <time>2014-04-06T11:55:26Z</time>
      </trkpt>
      <trkpt lat="44.77369" lon="-0.30179">
        <ele>83</ele>
        <time>2014-04-06T11:55:35Z</time>
      </trkpt>
      <trkpt lat="44.77354" lon="-0.30157">
        <ele>83</ele>
        <time>2014-04-06T11:55:42Z</time>
      </trkpt>
      <trkpt lat="44.77341" lon="-0.30137">
        <ele>83</ele>
        <time>2014-04-06T11:55:48Z</time>
      </trkpt>
      <trkpt lat="44.77327" lon="-0.30116">
        <ele>84</ele>
        <time>2014-04-06T11:55:54Z</time>
      </trkpt>
      <trkpt lat="44.77313" lon="-0.30094">
        <ele>84</ele>
        <time>2014-04-06T11:56:00Z</time>
      </trkpt>
      <trkpt lat="44.77295" lon="-0.30067">
        <ele>84</ele>
        <time>2014-04-06T11:56:07Z</time>
      </trkpt>
      <trkpt lat="44.77274" lon="-0.30035">
        <ele>84</ele>
        <time>2014-04-06T11:56:15Z</time>
      </trkpt>
      <trkpt lat="44.77256" lon="-0.30008">
        <ele>84</ele>
        <time>2014-04-06T11:56:23Z</time>
      </trkpt>
      <trkpt lat="44.77237" lon="-0.2998">
        <ele>84</ele>
        <time>2014-04-06T11:56:30Z</time>
      </trkpt>
      <trkpt lat="44.77215" lon="-0.29947">
        <ele>83</ele>
        <time>2014-04-06T11:56:38Z</time>
      </trkpt>
      <trkpt lat="44.77198" lon="-0.29917">
        <ele>83</ele>
        <time>2014-04-06T11:56:46Z</time>
      </trkpt>
      <trkpt lat="44.77188" lon="-0.29902">
        <ele>84</ele>
        <time>2014-04-06T11:56:51Z</time>
      </trkpt>
      <trkpt lat="44.77188" lon="-0.29899">
        <ele>84</ele>
        <time>2014-04-06T11:56:52Z</time>
      </trkpt>
      <trkpt lat="44.77188" lon="-0.29896">
        <ele>84</ele>
        <time>2014-04-06T11:56:53Z</time>
      </trkpt>
      <trkpt lat="44.77189" lon="-0.29893">
        <ele>84</ele>
        <time>2014-04-06T11:56:54Z</time>
      </trkpt>
      <trkpt lat="44.7719" lon="-0.2989">
        <ele>84</ele>
        <time>2014-04-06T11:56:55Z</time>
      </trkpt>
      <trkpt lat="44.7719" lon="-0.29887">
        <ele>84</ele>
        <time>2014-04-06T11:56:56Z</time>
      </trkpt>
      <trkpt lat="44.7719" lon="-0.29884">
        <ele>84</ele>
        <time>2014-04-06T11:56:57Z</time>
      </trkpt>
      <trkpt lat="44.77188" lon="-0.29882">
        <ele>84</ele>
        <time>2014-04-06T11:56:58Z</time>
      </trkpt>
      <trkpt lat="44.77187" lon="-0.29879">
        <ele>84</ele>
        <time>2014-04-06T11:56:59Z</time>
      </trkpt>
      <trkpt lat="44.77186" lon="-0.29876">
        <ele>84</ele>
        <time>2014-04-06T11:57:00Z</time>
      </trkpt>
      <trkpt lat="44.77185" lon="-0.29873">
        <ele>84</ele>
        <time>2014-04-06T11:57:01Z</time>
      </trkpt>
      <trkpt lat="44.77184" lon="-0.29871">
        <ele>85</ele>
        <time>2014-04-06T11:57:02Z</time>
      </trkpt>
      <trkpt lat="44.77183" lon="-0.29868">
        <ele>85</ele>
        <time>2014-04-06T11:57:03Z</time>
      </trkpt>
      <trkpt lat="44.77183" lon="-0.29866">
        <ele>85</ele>
        <time>2014-04-06T11:57:04Z</time>
      </trkpt>
      <trkpt lat="44.77182" lon="-0.29856">
        <ele>85</ele>
        <time>2014-04-06T11:57:08Z</time>
      </trkpt>
      <trkpt lat="44.77182" lon="-0.29855">
        <ele>85</ele>
        <time>2014-04-06T11:57:09Z</time>
      </trkpt>
      <trkpt lat="44.77183" lon="-0.2984">
        <ele>86</ele>
        <time>2014-04-06T11:57:17Z</time>
      </trkpt>
      <trkpt lat="44.77185" lon="-0.29833">
        <ele>86</ele>
        <time>2014-04-06T11:57:24Z</time>
      </trkpt>
      <trkpt lat="44.77187" lon="-0.29831">
        <ele>86</ele>
        <time>2014-04-06T11:57:26Z</time>
      </trkpt>
      <trkpt lat="44.7719" lon="-0.29825">
        <ele>86</ele>
        <time>2014-04-06T11:57:30Z</time>
      </trkpt>
      <trkpt lat="44.77191" lon="-0.29823">
        <ele>86</ele>
        <time>2014-04-06T11:57:31Z</time>
      </trkpt>
      <trkpt lat="44.77192" lon="-0.2982">
        <ele>87</ele>
        <time>2014-04-06T11:57:32Z</time>
      </trkpt>
      <trkpt lat="44.77192" lon="-0.29818">
        <ele>87</ele>
        <time>2014-04-06T11:57:33Z</time>
      </trkpt>
      <trkpt lat="44.77193" lon="-0.29815">
        <ele>87</ele>
        <time>2014-04-06T11:57:34Z</time>
      </trkpt>
      <trkpt lat="44.77199" lon="-0.29802">
        <ele>87</ele>
        <time>2014-04-06T11:57:40Z</time>
      </trkpt>
      <trkpt lat="44.77202" lon="-0.2979">
        <ele>88</ele>
        <time>2014-04-06T11:57:46Z</time>
      </trkpt>
      <trkpt lat="44.77203" lon="-0.29788">
        <ele>88</ele>
        <time>2014-04-06T11:57:47Z</time>
      </trkpt>
      <trkpt lat="44.77204" lon="-0.29784">
        <ele>88</ele>
        <time>2014-04-06T11:57:49Z</time>
      </trkpt>
      <trkpt lat="44.77205" lon="-0.29774">
        <ele>89</ele>
        <time>2014-04-06T11:57:53Z</time>
      </trkpt>
      <trkpt lat="44.77207" lon="-0.29763">
        <ele>89</ele>
        <time>2014-04-06T11:57:57Z</time>
      </trkpt>
      <trkpt lat="44.7721" lon="-0.29756">
        <ele>89</ele>
        <time>2014-04-06T11:58:00Z</time>
      </trkpt>
      <trkpt lat="44.77218" lon="-0.29737">
        <ele>90</ele>
        <time>2014-04-06T11:58:07Z</time>
      </trkpt>
      <trkpt lat="44.77228" lon="-0.29716">
        <ele>92</ele>
        <time>2014-04-06T11:58:15Z</time>
      </trkpt>
      <trkpt lat="44.77237" lon="-0.297">
        <ele>93</ele>
        <time>2014-04-06T11:58:23Z</time>
      </trkpt>
      <trkpt lat="44.77242" lon="-0.2969">
        <ele>94</ele>
        <time>2014-04-06T11:58:29Z</time>
      </trkpt>
      <trkpt lat="44.77245" lon="-0.29686">
        <ele>94</ele>
        <time>2014-04-06T11:58:35Z</time>
      </trkpt>
      <trkpt lat="44.77247" lon="-0.29683">
        <ele>95</ele>
        <time>2014-04-06T11:58:40Z</time>
      </trkpt>
      <trkpt lat="44.77249" lon="-0.29677">
        <ele>95</ele>
        <time>2014-04-06T11:58:45Z</time>
      </trkpt>
      <trkpt lat="44.7725" lon="-0.29674">
        <ele>95</ele>
        <time>2014-04-06T11:58:48Z</time>
      </trkpt>
      <trkpt lat="44.77251" lon="-0.29672">
        <ele>95</ele>
        <time>2014-04-06T11:58:50Z</time>
      </trkpt>
      <trkpt lat="44.77254" lon="-0.29662">
        <ele>96</ele>
        <time>2014-04-06T11:58:57Z</time>
      </trkpt>
      <trkpt lat="44.77255" lon="-0.29658">
        <ele>96</ele>
        <time>2014-04-06T11:59:03Z</time>
      </trkpt>
      <trkpt lat="44.77255" lon="-0.29653">
        <ele>97</ele>
        <time>2014-04-06T11:59:08Z</time>
      </trkpt>
      <trkpt lat="44.77258" lon="-0.29641">
        <ele>98</ele>
        <time>2014-04-06T11:59:15Z</time>
      </trkpt>
      <trkpt lat="44.77261" lon="-0.2963">
        <ele>99</ele>
        <time>2014-04-06T11:59:22Z</time>
      </trkpt>
      <trkpt lat="44.77264" lon="-0.29614">
        <ele>100</ele>
        <time>2014-04-06T11:59:30Z</time>
      </trkpt>
      <trkpt lat="44.77268" lon="-0.29602">
        <ele>101</ele>
        <time>2014-04-06T11:59:37Z</time>
      </trkpt>
      <trkpt lat="44.77272" lon="-0.29587">
        <ele>102</ele>
        <time>2014-04-06T11:59:45Z</time>
      </trkpt>
      <trkpt lat="44.77276" lon="-0.29572">
        <ele>103</ele>
        <time>2014-04-06T11:59:53Z</time>
      </trkpt>
      <trkpt lat="44.77272" lon="-0.29563">
        <ele>104</ele>
        <time>2014-04-06T12:00:01Z</time>
      </trkpt>
      <trkpt lat="44.77272" lon="-0.2956">
        <ele>104</ele>
        <time>2014-04-06T12:00:07Z</time>
      </trkpt>
      <trkpt lat="44.77269" lon="-0.29558">
        <ele>104</ele>
        <time>2014-04-06T12:00:14Z</time>
      </trkpt>
      <trkpt lat="44.77268" lon="-0.29554">
        <ele>104</ele>
        <time>2014-04-06T12:00:25Z</time>
      </trkpt>
      <trkpt lat="44.77268" lon="-0.29554">
        <ele>104</ele>
        <time>2014-04-06T12:00:43Z</time>
      </trkpt>
      <trkpt lat="44.77267" lon="-0.29555">
        <ele>104</ele>
        <time>2014-04-06T12:00:58Z</time>
      </trkpt>
      <trkpt lat="44.77267" lon="-0.29556">
        <ele>104</ele>
        <time>2014-04-06T12:01:14Z</time>
      </trkpt>
      <trkpt lat="44.77267" lon="-0.29556">
        <ele>104</ele>
        <time>2014-04-06T12:01:23Z</time>
      </trkpt>
      <trkpt lat="44.77267" lon="-0.29556">
        <ele>104</ele>
        <time>2014-04-06T12:01:32Z</time>
      </trkpt>
      <trkpt lat="44.77267" lon="-0.29557">
        <ele>104</ele>
        <time>2014-04-06T12:01:46Z</time>
      </trkpt>
      <trkpt lat="44.77267" lon="-0.29556">
        <ele>104</ele>
        <time>2014-04-06T12:01:59Z</time>
      </trkpt>
      <trkpt lat="44.77267" lon="-0.29556">
        <ele>104</ele>
        <time>2014-04-06T12:02:08Z</time>
      </trkpt>
      <trkpt lat="44.77266" lon="-0.29557">
        <ele>104</ele>
        <time>2014-04-06T12:02:11Z</time>
      </trkpt>
      <trkpt lat="44.77259" lon="-0.29556">
        <ele>103</ele>
        <time>2014-04-06T12:02:19Z</time>
      </trkpt>
      <trkpt lat="44.77257" lon="-0.29555">
        <ele>103</ele>
        <time>2014-04-06T12:02:25Z</time>
      </trkpt>
      <trkpt lat="44.77255" lon="-0.29555">
        <ele>103</ele>
        <time>2014-04-06T12:02:31Z</time>
      </trkpt>
      <trkpt lat="44.77255" lon="-0.29553">
        <ele>103</ele>
        <time>2014-04-06T12:02:44Z</time>
      </trkpt>
      <trkpt lat="44.77254" lon="-0.29554">
        <ele>103</ele>
        <time>2014-04-06T12:02:58Z</time>
      </trkpt>
      <trkpt lat="44.77257" lon="-0.29555">
        <ele>103</ele>
        <time>2014-04-06T12:03:19Z</time>
      </trkpt>
      <trkpt lat="44.77257" lon="-0.29554">
        <ele>103</ele>
        <time>2014-04-06T12:03:32Z</time>
      </trkpt>
      <trkpt lat="44.77256" lon="-0.29554">
        <ele>103</ele>
        <time>2014-04-06T12:03:46Z</time>
      </trkpt>
      <trkpt lat="44.77255" lon="-0.29554">
        <ele>103</ele>
        <time>2014-04-06T12:03:57Z</time>
      </trkpt>
      <trkpt lat="44.77255" lon="-0.29554">
        <ele>103</ele>
        <time>2014-04-06T12:04:13Z</time>
      </trkpt>
      <trkpt lat="44.77255" lon="-0.29554">
        <ele>103</ele>
        <time>2014-04-06T12:04:17Z</time>
      </trkpt>
      <trkpt lat="44.77252" lon="-0.29554">
        <ele>103</ele>
        <time>2014-04-06T12:04:23Z</time>
      </trkpt>
      <trkpt lat="44.77248" lon="-0.29554">
        <ele>103</ele>
        <time>2014-04-06T12:04:30Z</time>
      </trkpt>
      <trkpt lat="44.77245" lon="-0.29554">
        <ele>103</ele>
        <time>2014-04-06T12:04:35Z</time>
      </trkpt>
      <trkpt lat="44.77242" lon="-0.29554">
        <ele>103</ele>
        <time>2014-04-06T12:04:41Z</time>
      </trkpt>
      <trkpt lat="44.77236" lon="-0.29552">
        <ele>103</ele>
        <time>2014-04-06T12:04:47Z</time>
      </trkpt>
      <trkpt lat="44.77226" lon="-0.29549">
        <ele>103</ele>
        <time>2014-04-06T12:04:53Z</time>
      </trkpt>
      <trkpt lat="44.77208" lon="-0.29542">
        <ele>103</ele>
        <time>2014-04-06T12:05:01Z</time>
      </trkpt>
      <trkpt lat="44.77192" lon="-0.29536">
        <ele>103</ele>
        <time>2014-04-06T12:05:09Z</time>
      </trkpt>
      <trkpt lat="44.7719" lon="-0.29535">
        <ele>103</ele>
        <time>2014-04-06T12:05:10Z</time>
      </trkpt>
      <trkpt lat="44.77188" lon="-0.29534">
        <ele>103</ele>
        <time>2014-04-06T12:05:12Z</time>
      </trkpt>
      <trkpt lat="44.77183" lon="-0.2953">
        <ele>104</ele>
        <time>2014-04-06T12:05:17Z</time>
      </trkpt>
      <trkpt lat="44.7717" lon="-0.29531">
        <ele>104</ele>
        <time>2014-04-06T12:05:26Z</time>
      </trkpt>
      <trkpt lat="44.77153" lon="-0.29538">
        <ele>104</ele>
        <time>2014-04-06T12:05:34Z</time>
      </trkpt>
      <trkpt lat="44.77138" lon="-0.29544">
        <ele>103</ele>
        <time>2014-04-06T12:05:40Z</time>
      </trkpt>
      <trkpt lat="44.77123" lon="-0.29547">
        <ele>103</ele>
        <time>2014-04-06T12:05:47Z</time>
      </trkpt>
      <trkpt lat="44.77108" lon="-0.29552">
        <ele>102</ele>
        <time>2014-04-06T12:05:53Z</time>
      </trkpt>
      <trkpt lat="44.77099" lon="-0.29553">
        <ele>102</ele>
        <time>2014-04-06T12:05:57Z</time>
      </trkpt>
      <trkpt lat="44.77082" lon="-0.29558">
        <ele>101</ele>
        <time>2014-04-06T12:06:05Z</time>
      </trkpt>
      <trkpt lat="44.77066" lon="-0.29567">
        <ele>101</ele>
        <time>2014-04-06T12:06:11Z</time>
      </trkpt>
      <trkpt lat="44.77049" lon="-0.29583">
        <ele>99</ele>
        <time>2014-04-06T12:06:17Z</time>
      </trkpt>
      <trkpt lat="44.77039" lon="-0.29587">
        <ele>99</ele>
        <time>2014-04-06T12:06:22Z</time>
      </trkpt>
      <trkpt lat="44.77035" lon="-0.29589">
        <ele>99</ele>
        <time>2014-04-06T12:06:24Z</time>
      </trkpt>
      <trkpt lat="44.77031" lon="-0.29586">
        <ele>99</ele>
        <time>2014-04-06T12:06:30Z</time>
      </trkpt>
      <trkpt lat="44.77028" lon="-0.29583">
        <ele>99</ele>
        <time>2014-04-06T12:06:35Z</time>
      </trkpt>
      <trkpt lat="44.77027" lon="-0.2958">
        <ele>100</ele>
        <time>2014-04-06T12:06:41Z</time>
      </trkpt>
      <trkpt lat="44.77024" lon="-0.29574">
        <ele>100</ele>
        <time>2014-04-06T12:06:47Z</time>
      </trkpt>
      <trkpt lat="44.77022" lon="-0.29569">
        <ele>101</ele>
        <time>2014-04-06T12:06:50Z</time>
      </trkpt>
      <trkpt lat="44.77017" lon="-0.29551">
        <ele>102</ele>
        <time>2014-04-06T12:06:58Z</time>
      </trkpt>
      <trkpt lat="44.77016" lon="-0.29546">
        <ele>102</ele>
        <time>2014-04-06T12:07:00Z</time>
      </trkpt>
      <trkpt lat="44.77012" lon="-0.2953">
        <ele>104</ele>
        <time>2014-04-06T12:07:08Z</time>
      </trkpt>
      <trkpt lat="44.7701" lon="-0.29525">
        <ele>104</ele>
        <time>2014-04-06T12:07:14Z</time>
      </trkpt>
      <trkpt lat="44.77011" lon="-0.29519">
        <ele>104</ele>
        <time>2014-04-06T12:07:18Z</time>
      </trkpt>
      <trkpt lat="44.7701" lon="-0.29517">
        <ele>104</ele>
        <time>2014-04-06T12:07:25Z</time>
      </trkpt>
      <trkpt lat="44.7701" lon="-0.29514">
        <ele>104</ele>
        <time>2014-04-06T12:07:31Z</time>
      </trkpt>
      <trkpt lat="44.7701" lon="-0.29511">
        <ele>104</ele>
        <time>2014-04-06T12:07:37Z</time>
      </trkpt>
      <trkpt lat="44.77009" lon="-0.29506">
        <ele>105</ele>
        <time>2014-04-06T12:07:43Z</time>
      </trkpt>
      <trkpt lat="44.77007" lon="-0.29491">
        <ele>105</ele>
        <time>2014-04-06T12:07:51Z</time>
      </trkpt>
      <trkpt lat="44.77004" lon="-0.29486">
        <ele>105</ele>
        <time>2014-04-06T12:07:55Z</time>
      </trkpt>
      <trkpt lat="44.77" lon="-0.29472">
        <ele>106</ele>
        <time>2014-04-06T12:08:02Z</time>
      </trkpt>
      <trkpt lat="44.76997" lon="-0.29454">
        <ele>106</ele>
        <time>2014-04-06T12:08:11Z</time>
      </trkpt>
      <trkpt lat="44.76995" lon="-0.29445">
        <ele>106</ele>
        <time>2014-04-06T12:08:15Z</time>
      </trkpt>
      <trkpt lat="44.76989" lon="-0.29435">
        <ele>106</ele>
        <time>2014-04-06T12:08:21Z</time>
      </trkpt>
      <trkpt lat="44.76983" lon="-0.29421">
        <ele>106</ele>
        <time>2014-04-06T12:08:27Z</time>
      </trkpt>
      <trkpt lat="44.76979" lon="-0.2942">
        <ele>106</ele>
        <time>2014-04-06T12:08:30Z</time>
      </trkpt>
      <trkpt lat="44.76973" lon="-0.29416">
        <ele>106</ele>
        <time>2014-04-06T12:08:34Z</time>
      </trkpt>
      <trkpt lat="44.76967" lon="-0.294">
        <ele>107</ele>
        <time>2014-04-06T12:08:40Z</time>
      </trkpt>
      <trkpt lat="44.76962" lon="-0.29388">
        <ele>107</ele>
        <time>2014-04-06T12:08:44Z</time>
      </trkpt>
      <trkpt lat="44.7696" lon="-0.29381">
        <ele>107</ele>
        <time>2014-04-06T12:08:46Z</time>
      </trkpt>
      <trkpt lat="44.76953" lon="-0.29362">
        <ele>107</ele>
        <time>2014-04-06T12:08:52Z</time>
      </trkpt>
      <trkpt lat="44.76949" lon="-0.29342">
        <ele>106</ele>
        <time>2014-04-06T12:08:57Z</time>
      </trkpt>
      <trkpt lat="44.76946" lon="-0.29331">
        <ele>106</ele>
        <time>2014-04-06T12:09:00Z</time>
      </trkpt>
      <trkpt lat="44.76943" lon="-0.29306">
        <ele>106</ele>
        <time>2014-04-06T12:09:06Z</time>
      </trkpt>
      <trkpt lat="44.76941" lon="-0.29277">
        <ele>106</ele>
        <time>2014-04-06T12:09:12Z</time>
      </trkpt>
      <trkpt lat="44.7694" lon="-0.29249">
        <ele>105</ele>
        <time>2014-04-06T12:09:17Z</time>
      </trkpt>
      <trkpt lat="44.7694" lon="-0.29223">
        <ele>105</ele>
        <time>2014-04-06T12:09:22Z</time>
      </trkpt>
      <trkpt lat="44.76936" lon="-0.29205">
        <ele>105</ele>
        <time>2014-04-06T12:09:26Z</time>
      </trkpt>
      <trkpt lat="44.76925" lon="-0.29179">
        <ele>105</ele>
        <time>2014-04-06T12:09:33Z</time>
      </trkpt>
      <trkpt lat="44.76925" lon="-0.29175">
        <ele>105</ele>
        <time>2014-04-06T12:09:37Z</time>
      </trkpt>
      <trkpt lat="44.76924" lon="-0.29172">
        <ele>105</ele>
        <time>2014-04-06T12:09:48Z</time>
      </trkpt>
      <trkpt lat="44.76923" lon="-0.29171">
        <ele>105</ele>
        <time>2014-04-06T12:10:04Z</time>
      </trkpt>
      <trkpt lat="44.76923" lon="-0.29171">
        <ele>105</ele>
        <time>2014-04-06T12:10:14Z</time>
      </trkpt>
      <trkpt lat="44.76924" lon="-0.29171">
        <ele>105</ele>
        <time>2014-04-06T12:10:24Z</time>
      </trkpt>
      <trkpt lat="44.76923" lon="-0.29172">
        <ele>105</ele>
        <time>2014-04-06T12:10:33Z</time>
      </trkpt>
      <trkpt lat="44.76923" lon="-0.29171">
        <ele>105</ele>
        <time>2014-04-06T12:10:46Z</time>
      </trkpt>
      <trkpt lat="44.76924" lon="-0.2917">
        <ele>105</ele>
        <time>2014-04-06T12:10:51Z</time>
      </trkpt>
      <trkpt lat="44.76923" lon="-0.2917">
        <ele>105</ele>
        <time>2014-04-06T12:10:58Z</time>
      </trkpt>
      <trkpt lat="44.76924" lon="-0.2917">
        <ele>105</ele>
        <time>2014-04-06T12:11:08Z</time>
      </trkpt>
      <trkpt lat="44.76923" lon="-0.29168">
        <ele>105</ele>
        <time>2014-04-06T12:11:13Z</time>
      </trkpt>
      <trkpt lat="44.76923" lon="-0.29166">
        <ele>105</ele>
        <time>2014-04-06T12:11:14Z</time>
      </trkpt>
      <trkpt lat="44.7692" lon="-0.29142">
        <ele>105</ele>
        <time>2014-04-06T12:11:20Z</time>
      </trkpt>
      <trkpt lat="44.76917" lon="-0.29094">
        <ele>103</ele>
        <time>2014-04-06T12:11:27Z</time>
      </trkpt>
      <trkpt lat="44.76916" lon="-0.29057">
        <ele>103</ele>
        <time>2014-04-06T12:11:32Z</time>
      </trkpt>
      <trkpt lat="44.76915" lon="-0.2905">
        <ele>102</ele>
        <time>2014-04-06T12:11:33Z</time>
      </trkpt>
      <trkpt lat="44.76914" lon="-0.29042">
        <ele>102</ele>
        <time>2014-04-06T12:11:34Z</time>
      </trkpt>
      <trkpt lat="44.76914" lon="-0.29017">
        <ele>102</ele>
        <time>2014-04-06T12:11:38Z</time>
      </trkpt>
      <trkpt lat="44.76913" lon="-0.29011">
        <ele>102</ele>
        <time>2014-04-06T12:11:39Z</time>
      </trkpt>
      <trkpt lat="44.76913" lon="-0.29005">
        <ele>101</ele>
        <time>2014-04-06T12:11:40Z</time>
      </trkpt>
      <trkpt lat="44.76912" lon="-0.28999">
        <ele>101</ele>
        <time>2014-04-06T12:11:41Z</time>
      </trkpt>
      <trkpt lat="44.76912" lon="-0.28993">
        <ele>101</ele>
        <time>2014-04-06T12:11:42Z</time>
      </trkpt>
      <trkpt lat="44.76911" lon="-0.28947">
        <ele>99</ele>
        <time>2014-04-06T12:11:50Z</time>
      </trkpt>
      <trkpt lat="44.76918" lon="-0.2891">
        <ele>96</ele>
        <time>2014-04-06T12:11:57Z</time>
      </trkpt>
      <trkpt lat="44.76918" lon="-0.28899">
        <ele>95</ele>
        <time>2014-04-06T12:11:59Z</time>
      </trkpt>
      <trkpt lat="44.76914" lon="-0.28873">
        <ele>93</ele>
        <time>2014-04-06T12:12:03Z</time>
      </trkpt>
      <trkpt lat="44.76913" lon="-0.28865">
        <ele>93</ele>
        <time>2014-04-06T12:12:04Z</time>
      </trkpt>
      <trkpt lat="44.7691" lon="-0.28852">
        <ele>92</ele>
        <time>2014-04-06T12:12:06Z</time>
      </trkpt>
      <trkpt lat="44.76909" lon="-0.28845">
        <ele>91</ele>
        <time>2014-04-06T12:12:07Z</time>
      </trkpt>
      <trkpt lat="44.76908" lon="-0.2884">
        <ele>91</ele>
        <time>2014-04-06T12:12:08Z</time>
      </trkpt>
      <trkpt lat="44.76908" lon="-0.28822">
        <ele>90</ele>
        <time>2014-04-06T12:12:11Z</time>
      </trkpt>
      <trkpt lat="44.76909" lon="-0.28815">
        <ele>89</ele>
        <time>2014-04-06T12:12:12Z</time>
      </trkpt>
      <trkpt lat="44.76922" lon="-0.28764">
        <ele>88</ele>
        <time>2014-04-06T12:12:20Z</time>
      </trkpt>
      <trkpt lat="44.76924" lon="-0.28758">
        <ele>88</ele>
        <time>2014-04-06T12:12:21Z</time>
      </trkpt>
      <trkpt lat="44.7693" lon="-0.2874">
        <ele>88</ele>
        <time>2014-04-06T12:12:26Z</time>
      </trkpt>
      <trkpt lat="44.7693" lon="-0.28738">
        <ele>88</ele>
        <time>2014-04-06T12:12:27Z</time>
      </trkpt>
      <trkpt lat="44.76931" lon="-0.28736">
        <ele>88</ele>
        <time>2014-04-06T12:12:28Z</time>
      </trkpt>
      <trkpt lat="44.76932" lon="-0.28733">
        <ele>88</ele>
        <time>2014-04-06T12:12:29Z</time>
      </trkpt>
      <trkpt lat="44.76932" lon="-0.2873">
        <ele>88</ele>
        <time>2014-04-06T12:12:30Z</time>
      </trkpt>
      <trkpt lat="44.76932" lon="-0.28727">
        <ele>87</ele>
        <time>2014-04-06T12:12:31Z</time>
      </trkpt>
      <trkpt lat="44.76932" lon="-0.28715">
        <ele>87</ele>
        <time>2014-04-06T12:12:34Z</time>
      </trkpt>
      <trkpt lat="44.7693" lon="-0.28712">
        <ele>87</ele>
        <time>2014-04-06T12:12:35Z</time>
      </trkpt>
      <trkpt lat="44.76927" lon="-0.28708">
        <ele>87</ele>
        <time>2014-04-06T12:12:36Z</time>
      </trkpt>
      <trkpt lat="44.76925" lon="-0.28705">
        <ele>87</ele>
        <time>2014-04-06T12:12:37Z</time>
      </trkpt>
      <trkpt lat="44.76922" lon="-0.28701">
        <ele>87</ele>
        <time>2014-04-06T12:12:38Z</time>
      </trkpt>
      <trkpt lat="44.76911" lon="-0.28687">
        <ele>87</ele>
        <time>2014-04-06T12:12:43Z</time>
      </trkpt>
      <trkpt lat="44.76904" lon="-0.28676">
        <ele>87</ele>
        <time>2014-04-06T12:12:48Z</time>
      </trkpt>
      <trkpt lat="44.76892" lon="-0.28661">
        <ele>87</ele>
        <time>2014-04-06T12:12:53Z</time>
      </trkpt>
      <trkpt lat="44.7689" lon="-0.28655">
        <ele>87</ele>
        <time>2014-04-06T12:12:55Z</time>
      </trkpt>
      <trkpt lat="44.7689" lon="-0.28651">
        <ele>87</ele>
        <time>2014-04-06T12:12:56Z</time>
      </trkpt>
      <trkpt lat="44.76886" lon="-0.28628">
        <ele>87</ele>
        <time>2014-04-06T12:13:02Z</time>
      </trkpt>
      <trkpt lat="44.7688" lon="-0.28606">
        <ele>86</ele>
        <time>2014-04-06T12:13:07Z</time>
      </trkpt>
      <trkpt lat="44.76872" lon="-0.28566">
        <ele>85</ele>
        <time>2014-04-06T12:13:14Z</time>
      </trkpt>
      <trkpt lat="44.7687" lon="-0.28541">
        <ele>83</ele>
        <time>2014-04-06T12:13:20Z</time>
      </trkpt>
      <trkpt lat="44.7687" lon="-0.28533">
        <ele>82</ele>
        <time>2014-04-06T12:13:22Z</time>
      </trkpt>
      <trkpt lat="44.76868" lon="-0.28523">
        <ele>82</ele>
        <time>2014-04-06T12:13:26Z</time>
      </trkpt>
      <trkpt lat="44.76868" lon="-0.28521">
        <ele>82</ele>
        <time>2014-04-06T12:13:27Z</time>
      </trkpt>
      <trkpt lat="44.76868" lon="-0.28518">
        <ele>81</ele>
        <time>2014-04-06T12:13:28Z</time>
      </trkpt>
      <trkpt lat="44.76867" lon="-0.28516">
        <ele>81</ele>
        <time>2014-04-06T12:13:29Z</time>
      </trkpt>
      <trkpt lat="44.76866" lon="-0.28513">
        <ele>81</ele>
        <time>2014-04-06T12:13:30Z</time>
      </trkpt>
      <trkpt lat="44.76866" lon="-0.28511">
        <ele>81</ele>
        <time>2014-04-06T12:13:31Z</time>
      </trkpt>
      <trkpt lat="44.76865" lon="-0.28505">
        <ele>81</ele>
        <time>2014-04-06T12:13:33Z</time>
      </trkpt>
      <trkpt lat="44.76865" lon="-0.28502">
        <ele>80</ele>
        <time>2014-04-06T12:13:34Z</time>
      </trkpt>
      <trkpt lat="44.76866" lon="-0.28499">
        <ele>80</ele>
        <time>2014-04-06T12:13:35Z</time>
      </trkpt>
      <trkpt lat="44.76865" lon="-0.28496">
        <ele>80</ele>
        <time>2014-04-06T12:13:36Z</time>
      </trkpt>
      <trkpt lat="44.76865" lon="-0.28493">
        <ele>80</ele>
        <time>2014-04-06T12:13:37Z</time>
      </trkpt>
      <trkpt lat="44.76863" lon="-0.28479">
        <ele>79</ele>
        <time>2014-04-06T12:13:42Z</time>
      </trkpt>
      <trkpt lat="44.76863" lon="-0.28477">
        <ele>78</ele>
        <time>2014-04-06T12:13:43Z</time>
      </trkpt>
      <trkpt lat="44.76863" lon="-0.28474">
        <ele>78</ele>
        <time>2014-04-06T12:13:44Z</time>
      </trkpt>
      <trkpt lat="44.76863" lon="-0.28471">
        <ele>78</ele>
        <time>2014-04-06T12:13:45Z</time>
      </trkpt>
      <trkpt lat="44.76863" lon="-0.28468">
        <ele>78</ele>
        <time>2014-04-06T12:13:46Z</time>
      </trkpt>
      <trkpt lat="44.76864" lon="-0.28465">
        <ele>78</ele>
        <time>2014-04-06T12:13:47Z</time>
      </trkpt>
      <trkpt lat="44.76864" lon="-0.28462">
        <ele>77</ele>
        <time>2014-04-06T12:13:48Z</time>
      </trkpt>
      <trkpt lat="44.76862" lon="-0.28446">
        <ele>76</ele>
        <time>2014-04-06T12:13:54Z</time>
      </trkpt>
      <trkpt lat="44.76863" lon="-0.28433">
        <ele>75</ele>
        <time>2014-04-06T12:14:01Z</time>
      </trkpt>
      <trkpt lat="44.76864" lon="-0.28424">
        <ele>75</ele>
        <time>2014-04-06T12:14:07Z</time>
      </trkpt>
      <trkpt lat="44.76862" lon="-0.28406">
        <ele>74</ele>
        <time>2014-04-06T12:14:13Z</time>
      </trkpt>
      <trkpt lat="44.76865" lon="-0.28387">
        <ele>74</ele>
        <time>2014-04-06T12:14:19Z</time>
      </trkpt>
      <trkpt lat="44.76864" lon="-0.28383">
        <ele>74</ele>
        <time>2014-04-06T12:14:20Z</time>
      </trkpt>
      <trkpt lat="44.7686" lon="-0.28365">
        <ele>73</ele>
        <time>2014-04-06T12:14:26Z</time>
      </trkpt>
      <trkpt lat="44.76858" lon="-0.28349">
        <ele>73</ele>
        <time>2014-04-06T12:14:32Z</time>
      </trkpt>
      <trkpt lat="44.76856" lon="-0.28343">
        <ele>73</ele>
        <time>2014-04-06T12:14:34Z</time>
      </trkpt>
      <trkpt lat="44.76856" lon="-0.28341">
        <ele>73</ele>
        <time>2014-04-06T12:14:35Z</time>
      </trkpt>
      <trkpt lat="44.76852" lon="-0.28328">
        <ele>72</ele>
        <time>2014-04-06T12:14:41Z</time>
      </trkpt>
      <trkpt lat="44.76852" lon="-0.28323">
        <ele>72</ele>
        <time>2014-04-06T12:14:43Z</time>
      </trkpt>
      <trkpt lat="44.76848" lon="-0.28302">
        <ele>72</ele>
        <time>2014-04-06T12:14:50Z</time>
      </trkpt>
      <trkpt lat="44.76851" lon="-0.28295">
        <ele>71</ele>
        <time>2014-04-06T12:14:54Z</time>
      </trkpt>
      <trkpt lat="44.76852" lon="-0.28294">
        <ele>71</ele>
        <time>2014-04-06T12:14:55Z</time>
      </trkpt>
      <trkpt lat="44.76854" lon="-0.28292">
        <ele>71</ele>
        <time>2014-04-06T12:14:56Z</time>
      </trkpt>
      <trkpt lat="44.76855" lon="-0.28292">
        <ele>71</ele>
        <time>2014-04-06T12:14:57Z</time>
      </trkpt>
      <trkpt lat="44.76863" lon="-0.28291">
        <ele>72</ele>
        <time>2014-04-06T12:15:02Z</time>
      </trkpt>
      <trkpt lat="44.76865" lon="-0.28289">
        <ele>72</ele>
        <time>2014-04-06T12:15:04Z</time>
      </trkpt>
      <trkpt lat="44.76871" lon="-0.28281">
        <ele>71</ele>
        <time>2014-04-06T12:15:09Z</time>
      </trkpt>
      <trkpt lat="44.76872" lon="-0.28278">
        <ele>71</ele>
        <time>2014-04-06T12:15:10Z</time>
      </trkpt>
      <trkpt lat="44.76877" lon="-0.28265">
        <ele>71</ele>
        <time>2014-04-06T12:15:17Z</time>
      </trkpt>
      <trkpt lat="44.76882" lon="-0.28251">
        <ele>71</ele>
        <time>2014-04-06T12:15:22Z</time>
      </trkpt>
      <trkpt lat="44.76883" lon="-0.28248">
        <ele>71</ele>
        <time>2014-04-06T12:15:23Z</time>
      </trkpt>
      <trkpt lat="44.76885" lon="-0.28245">
        <ele>71</ele>
        <time>2014-04-06T12:15:24Z</time>
      </trkpt>
      <trkpt lat="44.76891" lon="-0.28232">
        <ele>70</ele>
        <time>2014-04-06T12:15:30Z</time>
      </trkpt>
      <trkpt lat="44.76893" lon="-0.28226">
        <ele>70</ele>
        <time>2014-04-06T12:15:32Z</time>
      </trkpt>
      <trkpt lat="44.76893" lon="-0.28223">
        <ele>70</ele>
        <time>2014-04-06T12:15:33Z</time>
      </trkpt>
      <trkpt lat="44.76894" lon="-0.28219">
        <ele>70</ele>
        <time>2014-04-06T12:15:34Z</time>
      </trkpt>
      <trkpt lat="44.76895" lon="-0.28215">
        <ele>70</ele>
        <time>2014-04-06T12:15:35Z</time>
      </trkpt>
      <trkpt lat="44.76897" lon="-0.2821">
        <ele>70</ele>
        <time>2014-04-06T12:15:36Z</time>
      </trkpt>
      <trkpt lat="44.76905" lon="-0.28182">
        <ele>70</ele>
        <time>2014-04-06T12:15:41Z</time>
      </trkpt>
      <trkpt lat="44.76914" lon="-0.28143">
        <ele>69</ele>
        <time>2014-04-06T12:15:47Z</time>
      </trkpt>
      <trkpt lat="44.76916" lon="-0.28115">
        <ele>69</ele>
        <time>2014-04-06T12:15:51Z</time>
      </trkpt>
      <trkpt lat="44.76916" lon="-0.28069">
        <ele>68</ele>
        <time>2014-04-06T12:15:57Z</time>
      </trkpt>
      <trkpt lat="44.76916" lon="-0.28063">
        <ele>68</ele>
        <time>2014-04-06T12:15:58Z</time>
      </trkpt>
      <trkpt lat="44.76915" lon="-0.28058">
        <ele>68</ele>
        <time>2014-04-06T12:15:59Z</time>
      </trkpt>
      <trkpt lat="44.76917" lon="-0.28041">
        <ele>68</ele>
        <time>2014-04-06T12:16:04Z</time>
      </trkpt>
      <trkpt lat="44.76926" lon="-0.28039">
        <ele>68</ele>
        <time>2014-04-06T12:16:09Z</time>
      </trkpt>
      <trkpt lat="44.76931" lon="-0.2804">
        <ele>68</ele>
        <time>2014-04-06T12:16:12Z</time>
      </trkpt>
      <trkpt lat="44.76938" lon="-0.28042">
        <ele>68</ele>
        <time>2014-04-06T12:16:19Z</time>
      </trkpt>
      <trkpt lat="44.76938" lon="-0.28042">
        <ele>68</ele>
        <time>2014-04-06T12:16:31Z</time>
      </trkpt>
      <trkpt lat="44.76938" lon="-0.28043">
        <ele>68</ele>
        <time>2014-04-06T12:16:46Z</time>
      </trkpt>
      <trkpt lat="44.76938" lon="-0.28043">
        <ele>68</ele>
        <time>2014-04-06T12:16:55Z</time>
      </trkpt>
      <trkpt lat="44.76937" lon="-0.28043">
        <ele>68</ele>
        <time>2014-04-06T12:17:08Z</time>
      </trkpt>
      <trkpt lat="44.76937" lon="-0.28042">
        <ele>68</ele>
        <time>2014-04-06T12:17:22Z</time>
      </trkpt>
      <trkpt lat="44.76937" lon="-0.2804">
        <ele>68</ele>
        <time>2014-04-06T12:17:38Z</time>
      </trkpt>
      <trkpt lat="44.76936" lon="-0.28041">
        <ele>68</ele>
        <time>2014-04-06T12:17:54Z</time>
      </trkpt>
      <trkpt lat="44.76936" lon="-0.2804">
        <ele>68</ele>
        <time>2014-04-06T12:18:11Z</time>
      </trkpt>
      <trkpt lat="44.76937" lon="-0.2804">
        <ele>68</ele>
        <time>2014-04-06T12:18:30Z</time>
      </trkpt>
      <trkpt lat="44.76938" lon="-0.28041">
        <ele>68</ele>
        <time>2014-04-06T12:18:49Z</time>
      </trkpt>
      <trkpt lat="44.76938" lon="-0.28041">
        <ele>68</ele>
        <time>2014-04-06T12:19:05Z</time>
      </trkpt>
      <trkpt lat="44.76938" lon="-0.28041">
        <ele>68</ele>
        <time>2014-04-06T12:19:24Z</time>
      </trkpt>
      <trkpt lat="44.76938" lon="-0.28041">
        <ele>68</ele>
        <time>2014-04-06T12:19:36Z</time>
      </trkpt>
      <trkpt lat="44.76938" lon="-0.28041">
        <ele>68</ele>
        <time>2014-04-06T12:19:47Z</time>
      </trkpt>
      <trkpt lat="44.76938" lon="-0.28041">
        <ele>68</ele>
        <time>2014-04-06T12:19:56Z</time>
      </trkpt>
      <trkpt lat="44.76944" lon="-0.28044">
        <ele>69</ele>
        <time>2014-04-06T12:20:01Z</time>
      </trkpt>
      <trkpt lat="44.76961" lon="-0.28049">
        <ele>69</ele>
        <time>2014-04-06T12:20:08Z</time>
      </trkpt>
      <trkpt lat="44.76987" lon="-0.28056">
        <ele>70</ele>
        <time>2014-04-06T12:20:17Z</time>
      </trkpt>
      <trkpt lat="44.77002" lon="-0.28058">
        <ele>70</ele>
        <time>2014-04-06T12:20:23Z</time>
      </trkpt>
      <trkpt lat="44.77022" lon="-0.28056">
        <ele>70</ele>
        <time>2014-04-06T12:20:31Z</time>
      </trkpt>
      <trkpt lat="44.77037" lon="-0.28059">
        <ele>71</ele>
        <time>2014-04-06T12:20:37Z</time>
      </trkpt>
      <trkpt lat="44.77059" lon="-0.28063">
        <ele>72</ele>
        <time>2014-04-06T12:20:46Z</time>
      </trkpt>
      <trkpt lat="44.77082" lon="-0.28066">
        <ele>73</ele>
        <time>2014-04-06T12:20:55Z</time>
      </trkpt>
      <trkpt lat="44.77106" lon="-0.28072">
        <ele>73</ele>
        <time>2014-04-06T12:21:05Z</time>
      </trkpt>
      <trkpt lat="44.77124" lon="-0.2808">
        <ele>73</ele>
        <time>2014-04-06T12:21:13Z</time>
      </trkpt>
      <trkpt lat="44.77133" lon="-0.28079">
        <ele>73</ele>
        <time>2014-04-06T12:21:17Z</time>
      </trkpt>
      <trkpt lat="44.77136" lon="-0.28061">
        <ele>72</ele>
        <time>2014-04-06T12:21:24Z</time>
      </trkpt>
      <trkpt lat="44.77135" lon="-0.28059">
        <ele>72</ele>
        <time>2014-04-06T12:21:25Z</time>
      </trkpt>
      <trkpt lat="44.77135" lon="-0.28036">
        <ele>72</ele>
        <time>2014-04-06T12:21:33Z</time>
      </trkpt>
      <trkpt lat="44.77134" lon="-0.28006">
        <ele>72</ele>
        <time>2014-04-06T12:21:42Z</time>
      </trkpt>
      <trkpt lat="44.77136" lon="-0.2798">
        <ele>72</ele>
        <time>2014-04-06T12:21:49Z</time>
      </trkpt>
      <trkpt lat="44.77134" lon="-0.27956">
        <ele>72</ele>
        <time>2014-04-06T12:21:56Z</time>
      </trkpt>
      <trkpt lat="44.77133" lon="-0.27923">
        <ele>71</ele>
        <time>2014-04-06T12:22:05Z</time>
      </trkpt>
      <trkpt lat="44.77135" lon="-0.27883">
        <ele>71</ele>
        <time>2014-04-06T12:22:15Z</time>
      </trkpt>
      <trkpt lat="44.77137" lon="-0.27852">
        <ele>71</ele>
        <time>2014-04-06T12:22:23Z</time>
      </trkpt>
      <trkpt lat="44.77139" lon="-0.27821">
        <ele>71</ele>
        <time>2014-04-06T12:22:31Z</time>
      </trkpt>
      <trkpt lat="44.77137" lon="-0.27795">
        <ele>71</ele>
        <time>2014-04-06T12:22:39Z</time>
      </trkpt>
      <trkpt lat="44.77137" lon="-0.27781">
        <ele>71</ele>
        <time>2014-04-06T12:22:44Z</time>
      </trkpt>
      <trkpt lat="44.77137" lon="-0.27779">
        <ele>71</ele>
        <time>2014-04-06T12:22:50Z</time>
      </trkpt>
      <trkpt lat="44.77137" lon="-0.27779">
        <ele>71</ele>
        <time>2014-04-06T12:23:00Z</time>
      </trkpt>
      <trkpt lat="44.77137" lon="-0.27779">
        <ele>71</ele>
        <time>2014-04-06T12:23:10Z</time>
      </trkpt>
      <trkpt lat="44.77137" lon="-0.27779">
        <ele>71</ele>
        <time>2014-04-06T12:23:22Z</time>
      </trkpt>
      <trkpt lat="44.77137" lon="-0.27779">
        <ele>71</ele>
        <time>2014-04-06T12:23:33Z</time>
      </trkpt>
      <trkpt lat="44.77138" lon="-0.27779">
        <ele>71</ele>
        <time>2014-04-06T12:23:47Z</time>
      </trkpt>
      <trkpt lat="44.77138" lon="-0.27777">
        <ele>71</ele>
        <time>2014-04-06T12:23:52Z</time>
      </trkpt>
      <trkpt lat="44.77147" lon="-0.27773">
        <ele>71</ele>
        <time>2014-04-06T12:23:57Z</time>
      </trkpt>
      <trkpt lat="44.7715" lon="-0.27755">
        <ele>71</ele>
        <time>2014-04-06T12:24:02Z</time>
      </trkpt>
      <trkpt lat="44.77149" lon="-0.27746">
        <ele>71</ele>
        <time>2014-04-06T12:24:04Z</time>
      </trkpt>
      <trkpt lat="44.77145" lon="-0.27713">
        <ele>70</ele>
        <time>2014-04-06T12:24:11Z</time>
      </trkpt>
      <trkpt lat="44.77144" lon="-0.27708">
        <ele>70</ele>
        <time>2014-04-06T12:24:12Z</time>
      </trkpt>
      <trkpt lat="44.77142" lon="-0.27702">
        <ele>70</ele>
        <time>2014-04-06T12:24:13Z</time>
      </trkpt>
      <trkpt lat="44.77142" lon="-0.27691">
        <ele>70</ele>
        <time>2014-04-06T12:24:15Z</time>
      </trkpt>
      <trkpt lat="44.77142" lon="-0.27685">
        <ele>70</ele>
        <time>2014-04-06T12:24:16Z</time>
      </trkpt>
      <trkpt lat="44.77142" lon="-0.27678">
        <ele>70</ele>
        <time>2014-04-06T12:24:17Z</time>
      </trkpt>
      <trkpt lat="44.77142" lon="-0.27672">
        <ele>70</ele>
        <time>2014-04-06T12:24:18Z</time>
      </trkpt>
      <trkpt lat="44.77142" lon="-0.27665">
        <ele>69</ele>
        <time>2014-04-06T12:24:19Z</time>
      </trkpt>
      <trkpt lat="44.77142" lon="-0.27659">
        <ele>69</ele>
        <time>2014-04-06T12:24:20Z</time>
      </trkpt>
      <trkpt lat="44.7714" lon="-0.27619">
        <ele>69</ele>
        <time>2014-04-06T12:24:26Z</time>
      </trkpt>
      <trkpt lat="44.77136" lon="-0.27571">
        <ele>67</ele>
        <time>2014-04-06T12:24:33Z</time>
      </trkpt>
      <trkpt lat="44.77134" lon="-0.27558">
        <ele>66</ele>
        <time>2014-04-06T12:24:35Z</time>
      </trkpt>
      <trkpt lat="44.77132" lon="-0.27552">
        <ele>66</ele>
        <time>2014-04-06T12:24:36Z</time>
      </trkpt>
      <trkpt lat="44.7713" lon="-0.27532">
        <ele>65</ele>
        <time>2014-04-06T12:24:39Z</time>
      </trkpt>
      <trkpt lat="44.77125" lon="-0.27501">
        <ele>63</ele>
        <time>2014-04-06T12:24:44Z</time>
      </trkpt>
      <trkpt lat="44.77123" lon="-0.27489">
        <ele>62</ele>
        <time>2014-04-06T12:24:46Z</time>
      </trkpt>
      <trkpt lat="44.77122" lon="-0.27483">
        <ele>62</ele>
        <time>2014-04-06T12:24:47Z</time>
      </trkpt>
      <trkpt lat="44.77121" lon="-0.27476">
        <ele>61</ele>
        <time>2014-04-06T12:24:48Z</time>
      </trkpt>
      <trkpt lat="44.7712" lon="-0.27469">
        <ele>61</ele>
        <time>2014-04-06T12:24:49Z</time>
      </trkpt>
      <trkpt lat="44.7712" lon="-0.27462">
        <ele>61</ele>
        <time>2014-04-06T12:24:50Z</time>
      </trkpt>
      <trkpt lat="44.77119" lon="-0.27455">
        <ele>60</ele>
        <time>2014-04-06T12:24:51Z</time>
      </trkpt>
      <trkpt lat="44.77113" lon="-0.27423">
        <ele>58</ele>
        <time>2014-04-06T12:24:57Z</time>
      </trkpt>
      <trkpt lat="44.77101" lon="-0.27404">
        <ele>57</ele>
        <time>2014-04-06T12:25:02Z</time>
      </trkpt>
      <trkpt lat="44.77091" lon="-0.27377">
        <ele>55</ele>
        <time>2014-04-06T12:25:08Z</time>
      </trkpt>
      <trkpt lat="44.77086" lon="-0.27358">
        <ele>55</ele>
        <time>2014-04-06T12:25:12Z</time>
      </trkpt>
      <trkpt lat="44.7709" lon="-0.27348">
        <ele>54</ele>
        <time>2014-04-06T12:25:16Z</time>
      </trkpt>
      <trkpt lat="44.77092" lon="-0.27346">
        <ele>54</ele>
        <time>2014-04-06T12:25:17Z</time>
      </trkpt>
      <trkpt lat="44.77109" lon="-0.27343">
        <ele>55</ele>
        <time>2014-04-06T12:25:25Z</time>
      </trkpt>
      <trkpt lat="44.7711" lon="-0.27342">
        <ele>55</ele>
        <time>2014-04-06T12:25:26Z</time>
      </trkpt>
      <trkpt lat="44.77124" lon="-0.27338">
        <ele>55</ele>
        <time>2014-04-06T12:25:31Z</time>
      </trkpt>
      <trkpt lat="44.77137" lon="-0.27326">
        <ele>54</ele>
        <time>2014-04-06T12:25:37Z</time>
      </trkpt>
      <trkpt lat="44.77142" lon="-0.27322">
        <ele>54</ele>
        <time>2014-04-06T12:25:42Z</time>
      </trkpt>
      <trkpt lat="44.77144" lon="-0.27315">
        <ele>54</ele>
        <time>2014-04-06T12:25:49Z</time>
      </trkpt>
      <trkpt lat="44.77144" lon="-0.27313">
        <ele>54</ele>
        <time>2014-04-06T12:25:52Z</time>
      </trkpt>
      <trkpt lat="44.77143" lon="-0.27307">
        <ele>54</ele>
        <time>2014-04-06T12:25:58Z</time>
      </trkpt>
      <trkpt lat="44.77144" lon="-0.27302">
        <ele>54</ele>
        <time>2014-04-06T12:26:03Z</time>
      </trkpt>
      <trkpt lat="44.77143" lon="-0.2729">
        <ele>54</ele>
        <time>2014-04-06T12:26:10Z</time>
      </trkpt>
      <trkpt lat="44.77142" lon="-0.27275">
        <ele>53</ele>
        <time>2014-04-06T12:26:16Z</time>
      </trkpt>
      <trkpt lat="44.77142" lon="-0.27271">
        <ele>53</ele>
        <time>2014-04-06T12:26:17Z</time>
      </trkpt>
      <trkpt lat="44.77139" lon="-0.27255">
        <ele>53</ele>
        <time>2014-04-06T12:26:22Z</time>
      </trkpt>
      <trkpt lat="44.7714" lon="-0.27236">
        <ele>53</ele>
        <time>2014-04-06T12:26:28Z</time>
      </trkpt>
      <trkpt lat="44.77133" lon="-0.27219">
        <ele>54</ele>
        <time>2014-04-06T12:26:35Z</time>
      </trkpt>
      <trkpt lat="44.77127" lon="-0.272">
        <ele>54</ele>
        <time>2014-04-06T12:26:41Z</time>
      </trkpt>
      <trkpt lat="44.7712" lon="-0.27181">
        <ele>55</ele>
        <time>2014-04-06T12:26:47Z</time>
      </trkpt>
      <trkpt lat="44.77112" lon="-0.27157">
        <ele>56</ele>
        <time>2014-04-06T12:26:54Z</time>
      </trkpt>
      <trkpt lat="44.77105" lon="-0.27136">
        <ele>57</ele>
        <time>2014-04-06T12:27:00Z</time>
      </trkpt>
      <trkpt lat="44.77095" lon="-0.27107">
        <ele>58</ele>
        <time>2014-04-06T12:27:07Z</time>
      </trkpt>
      <trkpt lat="44.77086" lon="-0.27081">
        <ele>58</ele>
        <time>2014-04-06T12:27:14Z</time>
      </trkpt>
      <trkpt lat="44.77081" lon="-0.27065">
        <ele>59</ele>
        <time>2014-04-06T12:27:19Z</time>
      </trkpt>
      <trkpt lat="44.77076" lon="-0.27058">
        <ele>59</ele>
        <time>2014-04-06T12:27:23Z</time>
      </trkpt>
      <trkpt lat="44.77075" lon="-0.27055">
        <ele>59</ele>
        <time>2014-04-06T12:27:25Z</time>
      </trkpt>
      <trkpt lat="44.77078" lon="-0.27045">
        <ele>59</ele>
        <time>2014-04-06T12:27:29Z</time>
      </trkpt>
      <trkpt lat="44.7708" lon="-0.27034">
        <ele>60</ele>
        <time>2014-04-06T12:27:34Z</time>
      </trkpt>
      <trkpt lat="44.77078" lon="-0.2703">
        <ele>60</ele>
        <time>2014-04-06T12:27:41Z</time>
      </trkpt>
      <trkpt lat="44.77078" lon="-0.27029">
        <ele>60</ele>
        <time>2014-04-06T12:27:52Z</time>
      </trkpt>
      <trkpt lat="44.77077" lon="-0.27029">
        <ele>60</ele>
        <time>2014-04-06T12:28:03Z</time>
      </trkpt>
      <trkpt lat="44.77078" lon="-0.27029">
        <ele>60</ele>
        <time>2014-04-06T12:28:11Z</time>
      </trkpt>
      <trkpt lat="44.77078" lon="-0.27028">
        <ele>60</ele>
        <time>2014-04-06T12:28:25Z</time>
      </trkpt>
      <trkpt lat="44.77077" lon="-0.27029">
        <ele>60</ele>
        <time>2014-04-06T12:28:38Z</time>
      </trkpt>
      <trkpt lat="44.77077" lon="-0.27029">
        <ele>60</ele>
        <time>2014-04-06T12:28:55Z</time>
      </trkpt>
      <trkpt lat="44.77077" lon="-0.27029">
        <ele>60</ele>
        <time>2014-04-06T12:29:10Z</time>
      </trkpt>
      <trkpt lat="44.77077" lon="-0.27029">
        <ele>60</ele>
        <time>2014-04-06T12:29:12Z</time>
      </trkpt>
      <trkpt lat="44.77076" lon="-0.27029">
        <ele>60</ele>
        <time>2014-04-06T12:29:14Z</time>
      </trkpt>
      <trkpt lat="44.77073" lon="-0.27012">
        <ele>60</ele>
        <time>2014-04-06T12:29:21Z</time>
      </trkpt>
      <trkpt lat="44.77064" lon="-0.26987">
        <ele>60</ele>
        <time>2014-04-06T12:29:27Z</time>
      </trkpt>
      <trkpt lat="44.77054" lon="-0.26952">
        <ele>61</ele>
        <time>2014-04-06T12:29:34Z</time>
      </trkpt>
      <trkpt lat="44.77045" lon="-0.26919">
        <ele>62</ele>
        <time>2014-04-06T12:29:41Z</time>
      </trkpt>
      <trkpt lat="44.77038" lon="-0.26891">
        <ele>62</ele>
        <time>2014-04-06T12:29:48Z</time>
      </trkpt>
      <trkpt lat="44.77035" lon="-0.26884">
        <ele>63</ele>
        <time>2014-04-06T12:29:50Z</time>
      </trkpt>
      <trkpt lat="44.77028" lon="-0.26861">
        <ele>63</ele>
        <time>2014-04-06T12:29:56Z</time>
      </trkpt>
      <trkpt lat="44.77016" lon="-0.2683">
        <ele>63</ele>
        <time>2014-04-06T12:30:05Z</time>
      </trkpt>
      <trkpt lat="44.77001" lon="-0.26797">
        <ele>63</ele>
        <time>2014-04-06T12:30:14Z</time>
      </trkpt>
      <trkpt lat="44.7699" lon="-0.26768">
        <ele>63</ele>
        <time>2014-04-06T12:30:22Z</time>
      </trkpt>
      <trkpt lat="44.76977" lon="-0.26735">
        <ele>63</ele>
        <time>2014-04-06T12:30:31Z</time>
      </trkpt>
      <trkpt lat="44.76968" lon="-0.26701">
        <ele>63</ele>
        <time>2014-04-06T12:30:40Z</time>
      </trkpt>
      <trkpt lat="44.76961" lon="-0.26669">
        <ele>63</ele>
        <time>2014-04-06T12:30:48Z</time>
      </trkpt>
      <trkpt lat="44.76951" lon="-0.2662">
        <ele>64</ele>
        <time>2014-04-06T12:30:59Z</time>
      </trkpt>
      <trkpt lat="44.76943" lon="-0.26587">
        <ele>64</ele>
        <time>2014-04-06T12:31:07Z</time>
      </trkpt>
      <trkpt lat="44.76935" lon="-0.26549">
        <ele>65</ele>
        <time>2014-04-06T12:31:16Z</time>
      </trkpt>
      <trkpt lat="44.76928" lon="-0.26517">
        <ele>65</ele>
        <time>2014-04-06T12:31:24Z</time>
      </trkpt>
      <trkpt lat="44.7692" lon="-0.26482">
        <ele>65</ele>
        <time>2014-04-06T12:31:33Z</time>
      </trkpt>
      <trkpt lat="44.76916" lon="-0.26455">
        <ele>66</ele>
        <time>2014-04-06T12:31:41Z</time>
      </trkpt>
      <trkpt lat="44.76911" lon="-0.26421">
        <ele>67</ele>
        <time>2014-04-06T12:31:49Z</time>
      </trkpt>
      <trkpt lat="44.76905" lon="-0.26378">
        <ele>66</ele>
        <time>2014-04-06T12:31:59Z</time>
      </trkpt>
      <trkpt lat="44.76903" lon="-0.26361">
        <ele>66</ele>
        <time>2014-04-06T12:32:05Z</time>
      </trkpt>
      <trkpt lat="44.76903" lon="-0.26357">
        <ele>66</ele>
        <time>2014-04-06T12:32:07Z</time>
      </trkpt>
      <trkpt lat="44.76903" lon="-0.2635">
        <ele>66</ele>
        <time>2014-04-06T12:32:11Z</time>
      </trkpt>
      <trkpt lat="44.76896" lon="-0.2634">
        <ele>66</ele>
        <time>2014-04-06T12:32:19Z</time>
      </trkpt>
      <trkpt lat="44.76886" lon="-0.26335">
        <ele>66</ele>
        <time>2014-04-06T12:32:25Z</time>
      </trkpt>
      <trkpt lat="44.76866" lon="-0.26331">
        <ele>66</ele>
        <time>2014-04-06T12:32:34Z</time>
      </trkpt>
      <trkpt lat="44.76863" lon="-0.26329">
        <ele>66</ele>
        <time>2014-04-06T12:32:36Z</time>
      </trkpt>
      <trkpt lat="44.76851" lon="-0.26325">
        <ele>66</ele>
        <time>2014-04-06T12:32:43Z</time>
      </trkpt>
      <trkpt lat="44.76839" lon="-0.26323">
        <ele>66</ele>
        <time>2014-04-06T12:32:50Z</time>
      </trkpt>
      <trkpt lat="44.76836" lon="-0.26319">
        <ele>66</ele>
        <time>2014-04-06T12:32:52Z</time>
      </trkpt>
      <trkpt lat="44.76832" lon="-0.26312">
        <ele>66</ele>
        <time>2014-04-06T12:32:56Z</time>
      </trkpt>
      <trkpt lat="44.76831" lon="-0.26292">
        <ele>65</ele>
        <time>2014-04-06T12:33:05Z</time>
      </trkpt>
      <trkpt lat="44.76832" lon="-0.26286">
        <ele>65</ele>
        <time>2014-04-06T12:33:07Z</time>
      </trkpt>
      <trkpt lat="44.76835" lon="-0.26268">
        <ele>64</ele>
        <time>2014-04-06T12:33:13Z</time>
      </trkpt>
      <trkpt lat="44.76836" lon="-0.26244">
        <ele>64</ele>
        <time>2014-04-06T12:33:19Z</time>
      </trkpt>
      <trkpt lat="44.76838" lon="-0.26225">
        <ele>63</ele>
        <time>2014-04-06T12:33:23Z</time>
      </trkpt>
      <trkpt lat="44.76839" lon="-0.26213">
        <ele>63</ele>
        <time>2014-04-06T12:33:25Z</time>
      </trkpt>
      <trkpt lat="44.76843" lon="-0.26159">
        <ele>61</ele>
        <time>2014-04-06T12:33:32Z</time>
      </trkpt>
      <trkpt lat="44.76845" lon="-0.26146">
        <ele>61</ele>
        <time>2014-04-06T12:33:34Z</time>
      </trkpt>
      <trkpt lat="44.76851" lon="-0.26091">
        <ele>60</ele>
        <time>2014-04-06T12:33:42Z</time>
      </trkpt>
      <trkpt lat="44.76856" lon="-0.26049">
        <ele>60</ele>
        <time>2014-04-06T12:33:49Z</time>
      </trkpt>
      <trkpt lat="44.76857" lon="-0.26043">
        <ele>60</ele>
        <time>2014-04-06T12:33:50Z</time>
      </trkpt>
      <trkpt lat="44.76872" lon="-0.25998">
        <ele>62</ele>
        <time>2014-04-06T12:33:58Z</time>
      </trkpt>
      <trkpt lat="44.76874" lon="-0.25993">
        <ele>62</ele>
        <time>2014-04-06T12:33:59Z</time>
      </trkpt>
      <trkpt lat="44.76879" lon="-0.25949">
        <ele>64</ele>
        <time>2014-04-06T12:34:07Z</time>
      </trkpt>
      <trkpt lat="44.76885" lon="-0.25906">
        <ele>66</ele>
        <time>2014-04-06T12:34:15Z</time>
      </trkpt>
      <trkpt lat="44.76892" lon="-0.25858">
        <ele>67</ele>
        <time>2014-04-06T12:34:24Z</time>
      </trkpt>
      <trkpt lat="44.76898" lon="-0.25804">
        <ele>68</ele>
        <time>2014-04-06T12:34:35Z</time>
      </trkpt>
      <trkpt lat="44.76906" lon="-0.25765">
        <ele>70</ele>
        <time>2014-04-06T12:34:44Z</time>
      </trkpt>
      <trkpt lat="44.76912" lon="-0.25731">
        <ele>71</ele>
        <time>2014-04-06T12:34:54Z</time>
      </trkpt>
      <trkpt lat="44.76914" lon="-0.25707">
        <ele>71</ele>
        <time>2014-04-06T12:35:00Z</time>
      </trkpt>
      <trkpt lat="44.76918" lon="-0.25679">
        <ele>72</ele>
        <time>2014-04-06T12:35:08Z</time>
      </trkpt>
      <trkpt lat="44.7692" lon="-0.25651">
        <ele>72</ele>
        <time>2014-04-06T12:35:16Z</time>
      </trkpt>
      <trkpt lat="44.76926" lon="-0.25626">
        <ele>72</ele>
        <time>2014-04-06T12:35:22Z</time>
      </trkpt>
      <trkpt lat="44.76926" lon="-0.25623">
        <ele>72</ele>
        <time>2014-04-06T12:35:23Z</time>
      </trkpt>
      <trkpt lat="44.76925" lon="-0.25619">
        <ele>73</ele>
        <time>2014-04-06T12:35:24Z</time>
      </trkpt>
      <trkpt lat="44.76923" lon="-0.25594">
        <ele>73</ele>
        <time>2014-04-06T12:35:30Z</time>
      </trkpt>
      <trkpt lat="44.76922" lon="-0.25577">
        <ele>73</ele>
        <time>2014-04-06T12:35:34Z</time>
      </trkpt>
      <trkpt lat="44.76922" lon="-0.25573">
        <ele>73</ele>
        <time>2014-04-06T12:35:35Z</time>
      </trkpt>
      <trkpt lat="44.76922" lon="-0.25569">
        <ele>73</ele>
        <time>2014-04-06T12:35:36Z</time>
      </trkpt>
      <trkpt lat="44.76921" lon="-0.25565">
        <ele>73</ele>
        <time>2014-04-06T12:35:37Z</time>
      </trkpt>
      <trkpt lat="44.7692" lon="-0.25562">
        <ele>74</ele>
        <time>2014-04-06T12:35:38Z</time>
      </trkpt>
      <trkpt lat="44.7692" lon="-0.25558">
        <ele>74</ele>
        <time>2014-04-06T12:35:39Z</time>
      </trkpt>
      <trkpt lat="44.7692" lon="-0.25554">
        <ele>74</ele>
        <time>2014-04-06T12:35:40Z</time>
      </trkpt>
      <trkpt lat="44.7692" lon="-0.25549">
        <ele>74</ele>
        <time>2014-04-06T12:35:41Z</time>
      </trkpt>
      <trkpt lat="44.7692" lon="-0.25525">
        <ele>74</ele>
        <time>2014-04-06T12:35:47Z</time>
      </trkpt>
      <trkpt lat="44.76916" lon="-0.25503">
        <ele>75</ele>
        <time>2014-04-06T12:35:53Z</time>
      </trkpt>
      <trkpt lat="44.76919" lon="-0.25484">
        <ele>75</ele>
        <time>2014-04-06T12:35:58Z</time>
      </trkpt>
      <trkpt lat="44.76921" lon="-0.25481">
        <ele>75</ele>
        <time>2014-04-06T12:35:59Z</time>
      </trkpt>
      <trkpt lat="44.76923" lon="-0.25477">
        <ele>75</ele>
        <time>2014-04-06T12:36:00Z</time>
      </trkpt>
      <trkpt lat="44.76928" lon="-0.25467">
        <ele>75</ele>
        <time>2014-04-06T12:36:03Z</time>
      </trkpt>
      <trkpt lat="44.7693" lon="-0.25465">
        <ele>75</ele>
        <time>2014-04-06T12:36:04Z</time>
      </trkpt>
      <trkpt lat="44.7694" lon="-0.25462">
        <ele>75</ele>
        <time>2014-04-06T12:36:08Z</time>
      </trkpt>
      <trkpt lat="44.76942" lon="-0.2546">
        <ele>74</ele>
        <time>2014-04-06T12:36:09Z</time>
      </trkpt>
      <trkpt lat="44.76945" lon="-0.25458">
        <ele>74</ele>
        <time>2014-04-06T12:36:10Z</time>
      </trkpt>
      <trkpt lat="44.76948" lon="-0.25456">
        <ele>74</ele>
        <time>2014-04-06T12:36:11Z</time>
      </trkpt>
      <trkpt lat="44.7695" lon="-0.25453">
        <ele>74</ele>
        <time>2014-04-06T12:36:12Z</time>
      </trkpt>
      <trkpt lat="44.76952" lon="-0.2545">
        <ele>74</ele>
        <time>2014-04-06T12:36:13Z</time>
      </trkpt>
      <trkpt lat="44.76955" lon="-0.25447">
        <ele>74</ele>
        <time>2014-04-06T12:36:14Z</time>
      </trkpt>
      <trkpt lat="44.76957" lon="-0.25446">
        <ele>74</ele>
        <time>2014-04-06T12:36:15Z</time>
      </trkpt>
      <trkpt lat="44.7696" lon="-0.25444">
        <ele>74</ele>
        <time>2014-04-06T12:36:16Z</time>
      </trkpt>
      <trkpt lat="44.76963" lon="-0.25442">
        <ele>74</ele>
        <time>2014-04-06T12:36:17Z</time>
      </trkpt>
      <trkpt lat="44.76966" lon="-0.2544">
        <ele>74</ele>
        <time>2014-04-06T12:36:18Z</time>
      </trkpt>
      <trkpt lat="44.76968" lon="-0.25438">
        <ele>74</ele>
        <time>2014-04-06T12:36:19Z</time>
      </trkpt>
      <trkpt lat="44.76971" lon="-0.25436">
        <ele>74</ele>
        <time>2014-04-06T12:36:20Z</time>
      </trkpt>
      <trkpt lat="44.76986" lon="-0.25427">
        <ele>73</ele>
        <time>2014-04-06T12:36:26Z</time>
      </trkpt>
      <trkpt lat="44.76998" lon="-0.25419">
        <ele>72</ele>
        <time>2014-04-06T12:36:33Z</time>
      </trkpt>
      <trkpt lat="44.77011" lon="-0.25412">
        <ele>72</ele>
        <time>2014-04-06T12:36:41Z</time>
      </trkpt>
      <trkpt lat="44.77025" lon="-0.25407">
        <ele>72</ele>
        <time>2014-04-06T12:36:49Z</time>
      </trkpt>
      <trkpt lat="44.77036" lon="-0.25402">
        <ele>71</ele>
        <time>2014-04-06T12:36:56Z</time>
      </trkpt>
      <trkpt lat="44.7705" lon="-0.25397">
        <ele>71</ele>
        <time>2014-04-06T12:37:04Z</time>
      </trkpt>
      <trkpt lat="44.77066" lon="-0.25389">
        <ele>71</ele>
        <time>2014-04-06T12:37:12Z</time>
      </trkpt>
      <trkpt lat="44.77081" lon="-0.25383">
        <ele>70</ele>
        <time>2014-04-06T12:37:20Z</time>
      </trkpt>
      <trkpt lat="44.77098" lon="-0.25375">
        <ele>70</ele>
        <time>2014-04-06T12:37:29Z</time>
      </trkpt>
      <trkpt lat="44.77113" lon="-0.25363">
        <ele>70</ele>
        <time>2014-04-06T12:37:38Z</time>
      </trkpt>
      <trkpt lat="44.77124" lon="-0.2535">
        <ele>69</ele>
        <time>2014-04-06T12:37:45Z</time>
      </trkpt>
      <trkpt lat="44.77126" lon="-0.25349">
        <ele>69</ele>
        <time>2014-04-06T12:37:46Z</time>
      </trkpt>
      <trkpt lat="44.77127" lon="-0.25348">
        <ele>69</ele>
        <time>2014-04-06T12:37:47Z</time>
      </trkpt>
      <trkpt lat="44.77129" lon="-0.25346">
        <ele>69</ele>
        <time>2014-04-06T12:37:48Z</time>
      </trkpt>
      <trkpt lat="44.7713" lon="-0.25345">
        <ele>69</ele>
        <time>2014-04-06T12:37:49Z</time>
      </trkpt>
      <trkpt lat="44.77132" lon="-0.25343">
        <ele>69</ele>
        <time>2014-04-06T12:37:50Z</time>
      </trkpt>
      <trkpt lat="44.77133" lon="-0.25341">
        <ele>69</ele>
        <time>2014-04-06T12:37:51Z</time>
      </trkpt>
      <trkpt lat="44.77135" lon="-0.25339">
        <ele>69</ele>
        <time>2014-04-06T12:37:52Z</time>
      </trkpt>
      <trkpt lat="44.77136" lon="-0.25337">
        <ele>69</ele>
        <time>2014-04-06T12:37:53Z</time>
      </trkpt>
      <trkpt lat="44.77137" lon="-0.25336">
        <ele>69</ele>
        <time>2014-04-06T12:37:54Z</time>
      </trkpt>
      <trkpt lat="44.77139" lon="-0.25334">
        <ele>69</ele>
        <time>2014-04-06T12:37:55Z</time>
      </trkpt>
      <trkpt lat="44.7714" lon="-0.25333">
        <ele>69</ele>
        <time>2014-04-06T12:37:56Z</time>
      </trkpt>
      <trkpt lat="44.77141" lon="-0.25331">
        <ele>69</ele>
        <time>2014-04-06T12:37:57Z</time>
      </trkpt>
      <trkpt lat="44.77142" lon="-0.2533">
        <ele>69</ele>
        <time>2014-04-06T12:37:58Z</time>
      </trkpt>
      <trkpt lat="44.77144" lon="-0.2533">
        <ele>69</ele>
        <time>2014-04-06T12:37:59Z</time>
      </trkpt>
      <trkpt lat="44.77155" lon="-0.25319">
        <ele>68</ele>
        <time>2014-04-06T12:38:07Z</time>
      </trkpt>
      <trkpt lat="44.77164" lon="-0.25309">
        <ele>68</ele>
        <time>2014-04-06T12:38:14Z</time>
      </trkpt>
      <trkpt lat="44.77177" lon="-0.25293">
        <ele>67</ele>
        <time>2014-04-06T12:38:23Z</time>
      </trkpt>
      <trkpt lat="44.77188" lon="-0.25279">
        <ele>67</ele>
        <time>2014-04-06T12:38:32Z</time>
      </trkpt>
      <trkpt lat="44.772" lon="-0.25264">
        <ele>66</ele>
        <time>2014-04-06T12:38:40Z</time>
      </trkpt>
      <trkpt lat="44.7721" lon="-0.25252">
        <ele>66</ele>
        <time>2014-04-06T12:38:48Z</time>
      </trkpt>
      <trkpt lat="44.77223" lon="-0.25243">
        <ele>66</ele>
        <time>2014-04-06T12:38:56Z</time>
      </trkpt>
      <trkpt lat="44.77236" lon="-0.25238">
        <ele>66</ele>
        <time>2014-04-06T12:39:04Z</time>
      </trkpt>
      <trkpt lat="44.77251" lon="-0.25231">
        <ele>66</ele>
        <time>2014-04-06T12:39:13Z</time>
      </trkpt>
      <trkpt lat="44.77257" lon="-0.25229">
        <ele>65</ele>
        <time>2014-04-06T12:39:20Z</time>
      </trkpt>
      <trkpt lat="44.77255" lon="-0.2523">
        <ele>66</ele>
        <time>2014-04-06T12:39:30Z</time>
      </trkpt>
      <trkpt lat="44.77257" lon="-0.25231">
        <ele>66</ele>
        <time>2014-04-06T12:39:42Z</time>
      </trkpt>
      <trkpt lat="44.77257" lon="-0.25231">
        <ele>66</ele>
        <time>2014-04-06T12:39:56Z</time>
      </trkpt>
      <trkpt lat="44.77257" lon="-0.25232">
        <ele>66</ele>
        <time>2014-04-06T12:40:08Z</time>
      </trkpt>
      <trkpt lat="44.77258" lon="-0.25231">
        <ele>65</ele>
        <time>2014-04-06T12:40:26Z</time>
      </trkpt>
      <trkpt lat="44.77258" lon="-0.25231">
        <ele>65</ele>
        <time>2014-04-06T12:40:38Z</time>
      </trkpt>
      <trkpt lat="44.77258" lon="-0.25231">
        <ele>65</ele>
        <time>2014-04-06T12:40:49Z</time>
      </trkpt>
      <trkpt lat="44.77258" lon="-0.25231">
        <ele>65</ele>
        <time>2014-04-06T12:40:59Z</time>
      </trkpt>
      <trkpt lat="44.77258" lon="-0.25231">
        <ele>65</ele>
        <time>2014-04-06T12:41:11Z</time>
      </trkpt>
      <trkpt lat="44.77258" lon="-0.25231">
        <ele>66</ele>
        <time>2014-04-06T12:41:28Z</time>
      </trkpt>
      <trkpt lat="44.77263" lon="-0.2523">
        <ele>65</ele>
        <time>2014-04-06T12:41:34Z</time>
      </trkpt>
      <trkpt lat="44.77279" lon="-0.25223">
        <ele>65</ele>
        <time>2014-04-06T12:41:41Z</time>
      </trkpt>
      <trkpt lat="44.77303" lon="-0.25214">
        <ele>64</ele>
        <time>2014-04-06T12:41:49Z</time>
      </trkpt>
      <trkpt lat="44.77339" lon="-0.252">
        <ele>64</ele>
        <time>2014-04-06T12:41:59Z</time>
      </trkpt>
      <trkpt lat="44.77367" lon="-0.25181">
        <ele>64</ele>
        <time>2014-04-06T12:42:07Z</time>
      </trkpt>
      <trkpt lat="44.77391" lon="-0.25159">
        <ele>64</ele>
        <time>2014-04-06T12:42:14Z</time>
      </trkpt>
      <trkpt lat="44.7741" lon="-0.25135">
        <ele>63</ele>
        <time>2014-04-06T12:42:21Z</time>
      </trkpt>
      <trkpt lat="44.77433" lon="-0.25107">
        <ele>63</ele>
        <time>2014-04-06T12:42:29Z</time>
      </trkpt>
      <trkpt lat="44.77436" lon="-0.25103">
        <ele>63</ele>
        <time>2014-04-06T12:42:30Z</time>
      </trkpt>
      <trkpt lat="44.77441" lon="-0.25094">
        <ele>63</ele>
        <time>2014-04-06T12:42:32Z</time>
      </trkpt>
      <trkpt lat="44.77451" lon="-0.25082">
        <ele>63</ele>
        <time>2014-04-06T12:42:35Z</time>
      </trkpt>
      <trkpt lat="44.7746" lon="-0.25071">
        <ele>63</ele>
        <time>2014-04-06T12:42:38Z</time>
      </trkpt>
      <trkpt lat="44.77481" lon="-0.25042">
        <ele>62</ele>
        <time>2014-04-06T12:42:45Z</time>
      </trkpt>
      <trkpt lat="44.77506" lon="-0.25013">
        <ele>61</ele>
        <time>2014-04-06T12:42:53Z</time>
      </trkpt>
      <trkpt lat="44.77526" lon="-0.24985">
        <ele>61</ele>
        <time>2014-04-06T12:43:00Z</time>
      </trkpt>
      <trkpt lat="44.77549" lon="-0.24955">
        <ele>61</ele>
        <time>2014-04-06T12:43:08Z</time>
      </trkpt>
      <trkpt lat="44.77571" lon="-0.24926">
        <ele>61</ele>
        <time>2014-04-06T12:43:16Z</time>
      </trkpt>
      <trkpt lat="44.77591" lon="-0.24902">
        <ele>61</ele>
        <time>2014-04-06T12:43:24Z</time>
      </trkpt>
      <trkpt lat="44.77603" lon="-0.24882">
        <ele>60</ele>
        <time>2014-04-06T12:43:31Z</time>
      </trkpt>
      <trkpt lat="44.77609" lon="-0.24869">
        <ele>60</ele>
        <time>2014-04-06T12:43:37Z</time>
      </trkpt>
      <trkpt lat="44.77616" lon="-0.2486">
        <ele>60</ele>
        <time>2014-04-06T12:43:42Z</time>
      </trkpt>
      <trkpt lat="44.77616" lon="-0.24858">
        <ele>60</ele>
        <time>2014-04-06T12:43:43Z</time>
      </trkpt>
      <trkpt lat="44.77617" lon="-0.24856">
        <ele>60</ele>
        <time>2014-04-06T12:43:44Z</time>
      </trkpt>
      <trkpt lat="44.77619" lon="-0.24855">
        <ele>60</ele>
        <time>2014-04-06T12:43:45Z</time>
      </trkpt>
      <trkpt lat="44.77622" lon="-0.24854">
        <ele>60</ele>
        <time>2014-04-06T12:43:46Z</time>
      </trkpt>
      <trkpt lat="44.77624" lon="-0.24853">
        <ele>60</ele>
        <time>2014-04-06T12:43:47Z</time>
      </trkpt>
      <trkpt lat="44.77627" lon="-0.24851">
        <ele>60</ele>
        <time>2014-04-06T12:43:48Z</time>
      </trkpt>
      <trkpt lat="44.77629" lon="-0.2485">
        <ele>60</ele>
        <time>2014-04-06T12:43:49Z</time>
      </trkpt>
      <trkpt lat="44.77632" lon="-0.24848">
        <ele>60</ele>
        <time>2014-04-06T12:43:50Z</time>
      </trkpt>
      <trkpt lat="44.77653" lon="-0.24833">
        <ele>60</ele>
        <time>2014-04-06T12:43:58Z</time>
      </trkpt>
      <trkpt lat="44.77672" lon="-0.24819">
        <ele>59</ele>
        <time>2014-04-06T12:44:06Z</time>
      </trkpt>
      <trkpt lat="44.77686" lon="-0.24808">
        <ele>59</ele>
        <time>2014-04-06T12:44:12Z</time>
      </trkpt>
      <trkpt lat="44.77697" lon="-0.248">
        <ele>58</ele>
        <time>2014-04-06T12:44:18Z</time>
      </trkpt>
      <trkpt lat="44.77704" lon="-0.24797">
        <ele>58</ele>
        <time>2014-04-06T12:44:25Z</time>
      </trkpt>
      <trkpt lat="44.77715" lon="-0.24789">
        <ele>58</ele>
        <time>2014-04-06T12:44:32Z</time>
      </trkpt>
      <trkpt lat="44.77732" lon="-0.24774">
        <ele>57</ele>
        <time>2014-04-06T12:44:41Z</time>
      </trkpt>
      <trkpt lat="44.77742" lon="-0.24767">
        <ele>57</ele>
        <time>2014-04-06T12:44:47Z</time>
      </trkpt>
      <trkpt lat="44.77755" lon="-0.24755">
        <ele>57</ele>
        <time>2014-04-06T12:44:54Z</time>
      </trkpt>
      <trkpt lat="44.77765" lon="-0.24746">
        <ele>56</ele>
        <time>2014-04-06T12:45:01Z</time>
      </trkpt>
      <trkpt lat="44.77772" lon="-0.24742">
        <ele>56</ele>
        <time>2014-04-06T12:45:07Z</time>
      </trkpt>
      <trkpt lat="44.77774" lon="-0.24739">
        <ele>56</ele>
        <time>2014-04-06T12:45:14Z</time>
      </trkpt>
      <trkpt lat="44.77774" lon="-0.24738">
        <ele>56</ele>
        <time>2014-04-06T12:45:24Z</time>
      </trkpt>
      <trkpt lat="44.77776" lon="-0.24736">
        <ele>56</ele>
        <time>2014-04-06T12:45:30Z</time>
      </trkpt>
      <trkpt lat="44.77777" lon="-0.24737">
        <ele>56</ele>
        <time>2014-04-06T12:45:31Z</time>
      </trkpt>
      <trkpt lat="44.7778" lon="-0.24738">
        <ele>56</ele>
        <time>2014-04-06T12:45:36Z</time>
      </trkpt>
      <trkpt lat="44.77786" lon="-0.24733">
        <ele>55</ele>
        <time>2014-04-06T12:45:43Z</time>
      </trkpt>
      <trkpt lat="44.77789" lon="-0.2473">
        <ele>55</ele>
        <time>2014-04-06T12:45:46Z</time>
      </trkpt>
      <trkpt lat="44.77793" lon="-0.24728">
        <ele>55</ele>
        <time>2014-04-06T12:45:52Z</time>
      </trkpt>
      <trkpt lat="44.77794" lon="-0.24725">
        <ele>55</ele>
        <time>2014-04-06T12:45:57Z</time>
      </trkpt>
      <trkpt lat="44.77798" lon="-0.24719">
        <ele>55</ele>
        <time>2014-04-06T12:46:04Z</time>
      </trkpt>
      <trkpt lat="44.77805" lon="-0.24713">
        <ele>54</ele>
        <time>2014-04-06T12:46:11Z</time>
      </trkpt>
      <trkpt lat="44.77806" lon="-0.24712">
        <ele>54</ele>
        <time>2014-04-06T12:46:13Z</time>
      </trkpt>
      <trkpt lat="44.77808" lon="-0.24708">
        <ele>54</ele>
        <time>2014-04-06T12:46:19Z</time>
      </trkpt>
      <trkpt lat="44.77809" lon="-0.24707">
        <ele>54</ele>
        <time>2014-04-06T12:46:23Z</time>
      </trkpt>
      <trkpt lat="44.77813" lon="-0.24698">
        <ele>54</ele>
        <time>2014-04-06T12:46:32Z</time>
      </trkpt>
      <trkpt lat="44.77814" lon="-0.24695">
        <ele>54</ele>
        <time>2014-04-06T12:46:36Z</time>
      </trkpt>
      <trkpt lat="44.77825" lon="-0.24673">
        <ele>54</ele>
        <time>2014-04-06T12:46:45Z</time>
      </trkpt>
      <trkpt lat="44.77838" lon="-0.24649">
        <ele>53</ele>
        <time>2014-04-06T12:46:53Z</time>
      </trkpt>
      <trkpt lat="44.77851" lon="-0.24621">
        <ele>53</ele>
        <time>2014-04-06T12:47:02Z</time>
      </trkpt>
      <trkpt lat="44.77853" lon="-0.24617">
        <ele>53</ele>
        <time>2014-04-06T12:47:04Z</time>
      </trkpt>
      <trkpt lat="44.77859" lon="-0.24616">
        <ele>53</ele>
        <time>2014-04-06T12:47:08Z</time>
      </trkpt>
      <trkpt lat="44.7787" lon="-0.24634">
        <ele>53</ele>
        <time>2014-04-06T12:47:16Z</time>
      </trkpt>
      <trkpt lat="44.77883" lon="-0.24654">
        <ele>53</ele>
        <time>2014-04-06T12:47:24Z</time>
      </trkpt>
      <trkpt lat="44.77898" lon="-0.24678">
        <ele>53</ele>
        <time>2014-04-06T12:47:34Z</time>
      </trkpt>
      <trkpt lat="44.77912" lon="-0.24698">
        <ele>53</ele>
        <time>2014-04-06T12:47:43Z</time>
      </trkpt>
      <trkpt lat="44.77929" lon="-0.24723">
        <ele>53</ele>
        <time>2014-04-06T12:47:53Z</time>
      </trkpt>
      <trkpt lat="44.77943" lon="-0.24743">
        <ele>52</ele>
        <time>2014-04-06T12:48:02Z</time>
      </trkpt>
      <trkpt lat="44.77951" lon="-0.24755">
        <ele>52</ele>
        <time>2014-04-06T12:48:08Z</time>
      </trkpt>
      <trkpt lat="44.77946" lon="-0.24768">
        <ele>52</ele>
        <time>2014-04-06T12:48:13Z</time>
      </trkpt>
      <trkpt lat="44.77935" lon="-0.24784">
        <ele>52</ele>
        <time>2014-04-06T12:48:20Z</time>
      </trkpt>
      <trkpt lat="44.77924" lon="-0.24799">
        <ele>52</ele>
        <time>2014-04-06T12:48:28Z</time>
      </trkpt>
      <trkpt lat="44.7791" lon="-0.24818">
        <ele>52</ele>
        <time>2014-04-06T12:48:36Z</time>
      </trkpt>
      <trkpt lat="44.77892" lon="-0.24844">
        <ele>53</ele>
        <time>2014-04-06T12:48:46Z</time>
      </trkpt>
      <trkpt lat="44.77877" lon="-0.24865">
        <ele>54</ele>
        <time>2014-04-06T12:48:54Z</time>
      </trkpt>
      <trkpt lat="44.77862" lon="-0.24888">
        <ele>54</ele>
        <time>2014-04-06T12:49:02Z</time>
      </trkpt>
      <trkpt lat="44.77845" lon="-0.24916">
        <ele>55</ele>
        <time>2014-04-06T12:49:11Z</time>
      </trkpt>
      <trkpt lat="44.77831" lon="-0.24943">
        <ele>55</ele>
        <time>2014-04-06T12:49:19Z</time>
      </trkpt>
      <trkpt lat="44.77819" lon="-0.24975">
        <ele>55</ele>
        <time>2014-04-06T12:49:27Z</time>
      </trkpt>
      <trkpt lat="44.77808" lon="-0.25003">
        <ele>54</ele>
        <time>2014-04-06T12:49:34Z</time>
      </trkpt>
      <trkpt lat="44.77794" lon="-0.25043">
        <ele>54</ele>
        <time>2014-04-06T12:49:43Z</time>
      </trkpt>
      <trkpt lat="44.77781" lon="-0.25094">
        <ele>54</ele>
        <time>2014-04-06T12:49:54Z</time>
      </trkpt>
      <trkpt lat="44.77771" lon="-0.25141">
        <ele>55</ele>
        <time>2014-04-06T12:50:04Z</time>
      </trkpt>
      <trkpt lat="44.77763" lon="-0.25179">
        <ele>56</ele>
        <time>2014-04-06T12:50:12Z</time>
      </trkpt>
      <trkpt lat="44.77754" lon="-0.25223">
        <ele>56</ele>
        <time>2014-04-06T12:50:22Z</time>
      </trkpt>
      <trkpt lat="44.77746" lon="-0.25259">
        <ele>57</ele>
        <time>2014-04-06T12:50:30Z</time>
      </trkpt>
      <trkpt lat="44.77737" lon="-0.253">
        <ele>58</ele>
        <time>2014-04-06T12:50:39Z</time>
      </trkpt>
      <trkpt lat="44.77729" lon="-0.25331">
        <ele>59</ele>
        <time>2014-04-06T12:50:46Z</time>
      </trkpt>
      <trkpt lat="44.77722" lon="-0.25366">
        <ele>60</ele>
        <time>2014-04-06T12:50:54Z</time>
      </trkpt>
      <trkpt lat="44.77722" lon="-0.25392">
        <ele>60</ele>
        <time>2014-04-06T12:51:02Z</time>
      </trkpt>
      <trkpt lat="44.77728" lon="-0.25415">
        <ele>60</ele>
        <time>2014-04-06T12:51:09Z</time>
      </trkpt>
      <trkpt lat="44.77738" lon="-0.25445">
        <ele>61</ele>
        <time>2014-04-06T12:51:15Z</time>
      </trkpt>
      <trkpt lat="44.7774" lon="-0.25451">
        <ele>61</ele>
        <time>2014-04-06T12:51:16Z</time>
      </trkpt>
      <trkpt lat="44.77743" lon="-0.25494">
        <ele>61</ele>
        <time>2014-04-06T12:51:23Z</time>
      </trkpt>
      <trkpt lat="44.77742" lon="-0.25501">
        <ele>62</ele>
        <time>2014-04-06T12:51:24Z</time>
      </trkpt>
      <trkpt lat="44.77731" lon="-0.25543">
        <ele>62</ele>
        <time>2014-04-06T12:51:31Z</time>
      </trkpt>
      <trkpt lat="44.77712" lon="-0.25581">
        <ele>62</ele>
        <time>2014-04-06T12:51:38Z</time>
      </trkpt>
      <trkpt lat="44.77694" lon="-0.25639">
        <ele>63</ele>
        <time>2014-04-06T12:51:47Z</time>
      </trkpt>
      <trkpt lat="44.77687" lon="-0.2568">
        <ele>63</ele>
        <time>2014-04-06T12:51:53Z</time>
      </trkpt>
      <trkpt lat="44.77685" lon="-0.25687">
        <ele>63</ele>
        <time>2014-04-06T12:51:54Z</time>
      </trkpt>
      <trkpt lat="44.77684" lon="-0.25694">
        <ele>63</ele>
        <time>2014-04-06T12:51:55Z</time>
      </trkpt>
      <trkpt lat="44.77684" lon="-0.25708">
        <ele>63</ele>
        <time>2014-04-06T12:51:57Z</time>
      </trkpt>
      <trkpt lat="44.77685" lon="-0.25714">
        <ele>63</ele>
        <time>2014-04-06T12:51:58Z</time>
      </trkpt>
      <trkpt lat="44.77687" lon="-0.25727">
        <ele>62</ele>
        <time>2014-04-06T12:52:00Z</time>
      </trkpt>
      <trkpt lat="44.77687" lon="-0.25735">
        <ele>62</ele>
        <time>2014-04-06T12:52:01Z</time>
      </trkpt>
      <trkpt lat="44.77687" lon="-0.25756">
        <ele>62</ele>
        <time>2014-04-06T12:52:04Z</time>
      </trkpt>
      <trkpt lat="44.77687" lon="-0.25763">
        <ele>62</ele>
        <time>2014-04-06T12:52:05Z</time>
      </trkpt>
      <trkpt lat="44.77689" lon="-0.2577">
        <ele>62</ele>
        <time>2014-04-06T12:52:06Z</time>
      </trkpt>
      <trkpt lat="44.77703" lon="-0.25833">
        <ele>61</ele>
        <time>2014-04-06T12:52:15Z</time>
      </trkpt>
      <trkpt lat="44.77705" lon="-0.25846">
        <ele>61</ele>
        <time>2014-04-06T12:52:19Z</time>
      </trkpt>
      <trkpt lat="44.77706" lon="-0.25863">
        <ele>61</ele>
        <time>2014-04-06T12:52:23Z</time>
      </trkpt>
      <trkpt lat="44.77706" lon="-0.25874">
        <ele>61</ele>
        <time>2014-04-06T12:52:25Z</time>
      </trkpt>
      <trkpt lat="44.77707" lon="-0.25892">
        <ele>60</ele>
        <time>2014-04-06T12:52:28Z</time>
      </trkpt>
      <trkpt lat="44.77708" lon="-0.25898">
        <ele>60</ele>
        <time>2014-04-06T12:52:29Z</time>
      </trkpt>
      <trkpt lat="44.77712" lon="-0.2591">
        <ele>60</ele>
        <time>2014-04-06T12:52:31Z</time>
      </trkpt>
      <trkpt lat="44.77715" lon="-0.25915">
        <ele>60</ele>
        <time>2014-04-06T12:52:32Z</time>
      </trkpt>
      <trkpt lat="44.77718" lon="-0.25919">
        <ele>60</ele>
        <time>2014-04-06T12:52:33Z</time>
      </trkpt>
      <trkpt lat="44.77752" lon="-0.2595">
        <ele>59</ele>
        <time>2014-04-06T12:52:40Z</time>
      </trkpt>
      <trkpt lat="44.7779" lon="-0.25984">
        <ele>59</ele>
        <time>2014-04-06T12:52:46Z</time>
      </trkpt>
      <trkpt lat="44.77836" lon="-0.2602">
        <ele>59</ele>
        <time>2014-04-06T12:52:53Z</time>
      </trkpt>
      <trkpt lat="44.77843" lon="-0.26023">
        <ele>59</ele>
        <time>2014-04-06T12:52:54Z</time>
      </trkpt>
      <trkpt lat="44.7785" lon="-0.26026">
        <ele>59</ele>
        <time>2014-04-06T12:52:55Z</time>
      </trkpt>
      <trkpt lat="44.77872" lon="-0.26034">
        <ele>58</ele>
        <time>2014-04-06T12:52:58Z</time>
      </trkpt>
      <trkpt lat="44.77879" lon="-0.26039">
        <ele>58</ele>
        <time>2014-04-06T12:52:59Z</time>
      </trkpt>
      <trkpt lat="44.77941" lon="-0.26087">
        <ele>55</ele>
        <time>2014-04-06T12:53:08Z</time>
      </trkpt>
      <trkpt lat="44.77991" lon="-0.26116">
        <ele>54</ele>
        <time>2014-04-06T12:53:15Z</time>
      </trkpt>
      <trkpt lat="44.77998" lon="-0.26122">
        <ele>54</ele>
        <time>2014-04-06T12:53:16Z</time>
      </trkpt>
      <trkpt lat="44.78004" lon="-0.26128">
        <ele>54</ele>
        <time>2014-04-06T12:53:17Z</time>
      </trkpt>
      <trkpt lat="44.78009" lon="-0.26136">
        <ele>53</ele>
        <time>2014-04-06T12:53:18Z</time>
      </trkpt>
      <trkpt lat="44.78013" lon="-0.26144">
        <ele>53</ele>
        <time>2014-04-06T12:53:19Z</time>
      </trkpt>
      <trkpt lat="44.78016" lon="-0.26154">
        <ele>53</ele>
        <time>2014-04-06T12:53:20Z</time>
      </trkpt>
      <trkpt lat="44.78018" lon="-0.26163">
        <ele>53</ele>
        <time>2014-04-06T12:53:21Z</time>
      </trkpt>
      <trkpt lat="44.78019" lon="-0.26173">
        <ele>53</ele>
        <time>2014-04-06T12:53:22Z</time>
      </trkpt>
      <trkpt lat="44.78028" lon="-0.2623">
        <ele>52</ele>
        <time>2014-04-06T12:53:28Z</time>
      </trkpt>
      <trkpt lat="44.78039" lon="-0.26268">
        <ele>50</ele>
        <time>2014-04-06T12:53:32Z</time>
      </trkpt>
      <trkpt lat="44.78044" lon="-0.26277">
        <ele>50</ele>
        <time>2014-04-06T12:53:33Z</time>
      </trkpt>
      <trkpt lat="44.7805" lon="-0.26285">
        <ele>49</ele>
        <time>2014-04-06T12:53:34Z</time>
      </trkpt>
      <trkpt lat="44.78056" lon="-0.26291">
        <ele>49</ele>
        <time>2014-04-06T12:53:35Z</time>
      </trkpt>
      <trkpt lat="44.78062" lon="-0.26297">
        <ele>48</ele>
        <time>2014-04-06T12:53:36Z</time>
      </trkpt>
      <trkpt lat="44.78068" lon="-0.26302">
        <ele>48</ele>
        <time>2014-04-06T12:53:37Z</time>
      </trkpt>
      <trkpt lat="44.78083" lon="-0.26317">
        <ele>46</ele>
        <time>2014-04-06T12:53:40Z</time>
      </trkpt>
      <trkpt lat="44.78088" lon="-0.26323">
        <ele>45</ele>
        <time>2014-04-06T12:53:41Z</time>
      </trkpt>
      <trkpt lat="44.78092" lon="-0.26329">
        <ele>44</ele>
        <time>2014-04-06T12:53:42Z</time>
      </trkpt>
      <trkpt lat="44.78095" lon="-0.26336">
        <ele>44</ele>
        <time>2014-04-06T12:53:43Z</time>
      </trkpt>
      <trkpt lat="44.78097" lon="-0.26343">
        <ele>43</ele>
        <time>2014-04-06T12:53:44Z</time>
      </trkpt>
      <trkpt lat="44.78098" lon="-0.2635">
        <ele>43</ele>
        <time>2014-04-06T12:53:45Z</time>
      </trkpt>
      <trkpt lat="44.78099" lon="-0.26357">
        <ele>42</ele>
        <time>2014-04-06T12:53:46Z</time>
      </trkpt>
      <trkpt lat="44.781" lon="-0.26364">
        <ele>42</ele>
        <time>2014-04-06T12:53:47Z</time>
      </trkpt>
      <trkpt lat="44.78102" lon="-0.2637">
        <ele>42</ele>
        <time>2014-04-06T12:53:48Z</time>
      </trkpt>
      <trkpt lat="44.78105" lon="-0.26375">
        <ele>41</ele>
        <time>2014-04-06T12:53:49Z</time>
      </trkpt>
      <trkpt lat="44.78109" lon="-0.26379">
        <ele>41</ele>
        <time>2014-04-06T12:53:50Z</time>
      </trkpt>
      <trkpt lat="44.78113" lon="-0.26381">
        <ele>41</ele>
        <time>2014-04-06T12:53:51Z</time>
      </trkpt>
      <trkpt lat="44.78117" lon="-0.26383">
        <ele>41</ele>
        <time>2014-04-06T12:53:52Z</time>
      </trkpt>
      <trkpt lat="44.78121" lon="-0.26384">
        <ele>41</ele>
        <time>2014-04-06T12:53:53Z</time>
      </trkpt>
      <trkpt lat="44.78129" lon="-0.26388">
        <ele>40</ele>
        <time>2014-04-06T12:53:55Z</time>
      </trkpt>
      <trkpt lat="44.7815" lon="-0.26409">
        <ele>39</ele>
        <time>2014-04-06T12:54:00Z</time>
      </trkpt>
      <trkpt lat="44.78158" lon="-0.26416">
        <ele>39</ele>
        <time>2014-04-06T12:54:02Z</time>
      </trkpt>
      <trkpt lat="44.78171" lon="-0.26431">
        <ele>41</ele>
        <time>2014-04-06T12:54:06Z</time>
      </trkpt>
      <trkpt lat="44.78175" lon="-0.26457">
        <ele>42</ele>
        <time>2014-04-06T12:54:11Z</time>
      </trkpt>
      <trkpt lat="44.78178" lon="-0.26502">
        <ele>43</ele>
        <time>2014-04-06T12:54:19Z</time>
      </trkpt>
      <trkpt lat="44.78185" lon="-0.26542">
        <ele>44</ele>
        <time>2014-04-06T12:54:26Z</time>
      </trkpt>
      <trkpt lat="44.78174" lon="-0.26559">
        <ele>43</ele>
        <time>2014-04-06T12:54:30Z</time>
      </trkpt>
      <trkpt lat="44.78154" lon="-0.26573">
        <ele>43</ele>
        <time>2014-04-06T12:54:35Z</time>
      </trkpt>
      <trkpt lat="44.7815" lon="-0.26576">
        <ele>43</ele>
        <time>2014-04-06T12:54:36Z</time>
      </trkpt>
      <trkpt lat="44.78146" lon="-0.26579">
        <ele>43</ele>
        <time>2014-04-06T12:54:37Z</time>
      </trkpt>
      <trkpt lat="44.78143" lon="-0.26582">
        <ele>43</ele>
        <time>2014-04-06T12:54:38Z</time>
      </trkpt>
      <trkpt lat="44.78139" lon="-0.26584">
        <ele>43</ele>
        <time>2014-04-06T12:54:39Z</time>
      </trkpt>
      <trkpt lat="44.78129" lon="-0.26593">
        <ele>44</ele>
        <time>2014-04-06T12:54:42Z</time>
      </trkpt>
      <trkpt lat="44.78125" lon="-0.26595">
        <ele>44</ele>
        <time>2014-04-06T12:54:43Z</time>
      </trkpt>
      <trkpt lat="44.78122" lon="-0.26597">
        <ele>44</ele>
        <time>2014-04-06T12:54:44Z</time>
      </trkpt>
      <trkpt lat="44.78119" lon="-0.266">
        <ele>44</ele>
        <time>2014-04-06T12:54:45Z</time>
      </trkpt>
      <trkpt lat="44.78116" lon="-0.26603">
        <ele>44</ele>
        <time>2014-04-06T12:54:46Z</time>
      </trkpt>
      <trkpt lat="44.78113" lon="-0.26605">
        <ele>44</ele>
        <time>2014-04-06T12:54:47Z</time>
      </trkpt>
      <trkpt lat="44.78111" lon="-0.26607">
        <ele>44</ele>
        <time>2014-04-06T12:54:48Z</time>
      </trkpt>
      <trkpt lat="44.78108" lon="-0.26609">
        <ele>45</ele>
        <time>2014-04-06T12:54:49Z</time>
      </trkpt>
      <trkpt lat="44.78089" lon="-0.26619">
        <ele>44</ele>
        <time>2014-04-06T12:54:56Z</time>
      </trkpt>
      <trkpt lat="44.78077" lon="-0.26632">
        <ele>44</ele>
        <time>2014-04-06T12:55:01Z</time>
      </trkpt>
      <trkpt lat="44.78075" lon="-0.2664">
        <ele>44</ele>
        <time>2014-04-06T12:55:03Z</time>
      </trkpt>
      <trkpt lat="44.78075" lon="-0.26644">
        <ele>45</ele>
        <time>2014-04-06T12:55:04Z</time>
      </trkpt>
      <trkpt lat="44.78076" lon="-0.26648">
        <ele>45</ele>
        <time>2014-04-06T12:55:05Z</time>
      </trkpt>
      <trkpt lat="44.78076" lon="-0.26651">
        <ele>45</ele>
        <time>2014-04-06T12:55:06Z</time>
      </trkpt>
      <trkpt lat="44.78076" lon="-0.26655">
        <ele>45</ele>
        <time>2014-04-06T12:55:07Z</time>
      </trkpt>
      <trkpt lat="44.78079" lon="-0.26684">
        <ele>47</ele>
        <time>2014-04-06T12:55:15Z</time>
      </trkpt>
      <trkpt lat="44.78086" lon="-0.26718">
        <ele>48</ele>
        <time>2014-04-06T12:55:25Z</time>
      </trkpt>
      <trkpt lat="44.78094" lon="-0.26746">
        <ele>49</ele>
        <time>2014-04-06T12:55:33Z</time>
      </trkpt>
      <trkpt lat="44.78103" lon="-0.26771">
        <ele>49</ele>
        <time>2014-04-06T12:55:41Z</time>
      </trkpt>
      <trkpt lat="44.78108" lon="-0.26792">
        <ele>49</ele>
        <time>2014-04-06T12:55:48Z</time>
      </trkpt>
      <trkpt lat="44.78117" lon="-0.2682">
        <ele>50</ele>
        <time>2014-04-06T12:55:57Z</time>
      </trkpt>
      <trkpt lat="44.7812" lon="-0.26832">
        <ele>50</ele>
        <time>2014-04-06T12:56:02Z</time>
      </trkpt>
      <trkpt lat="44.78121" lon="-0.26834">
        <ele>50</ele>
        <time>2014-04-06T12:56:03Z</time>
      </trkpt>
      <trkpt lat="44.78122" lon="-0.26836">
        <ele>50</ele>
        <time>2014-04-06T12:56:04Z</time>
      </trkpt>
      <trkpt lat="44.78122" lon="-0.26839">
        <ele>50</ele>
        <time>2014-04-06T12:56:05Z</time>
      </trkpt>
      <trkpt lat="44.78123" lon="-0.26841">
        <ele>50</ele>
        <time>2014-04-06T12:56:06Z</time>
      </trkpt>
      <trkpt lat="44.78124" lon="-0.26845">
        <ele>50</ele>
        <time>2014-04-06T12:56:12Z</time>
      </trkpt>
      <trkpt lat="44.78124" lon="-0.26846">
        <ele>50</ele>
        <time>2014-04-06T12:56:26Z</time>
      </trkpt>
      <trkpt lat="44.78125" lon="-0.26847">
        <ele>50</ele>
        <time>2014-04-06T12:56:40Z</time>
      </trkpt>
      <trkpt lat="44.78125" lon="-0.26848">
        <ele>50</ele>
        <time>2014-04-06T12:56:48Z</time>
      </trkpt>
      <trkpt lat="44.78125" lon="-0.26848">
        <ele>50</ele>
        <time>2014-04-06T12:57:05Z</time>
      </trkpt>
      <trkpt lat="44.78126" lon="-0.26849">
        <ele>50</ele>
        <time>2014-04-06T12:57:22Z</time>
      </trkpt>
      <trkpt lat="44.78125" lon="-0.26849">
        <ele>50</ele>
        <time>2014-04-06T12:57:39Z</time>
      </trkpt>
      <trkpt lat="44.78125" lon="-0.26849">
        <ele>50</ele>
        <time>2014-04-06T12:57:48Z</time>
      </trkpt>
      <trkpt lat="44.78126" lon="-0.26848">
        <ele>50</ele>
        <time>2014-04-06T12:58:04Z</time>
      </trkpt>
      <trkpt lat="44.78127" lon="-0.26848">
        <ele>50</ele>
        <time>2014-04-06T12:58:17Z</time>
      </trkpt>
      <trkpt lat="44.78127" lon="-0.26849">
        <ele>50</ele>
        <time>2014-04-06T12:58:29Z</time>
      </trkpt>
      <trkpt lat="44.78126" lon="-0.26849">
        <ele>50</ele>
        <time>2014-04-06T12:58:41Z</time>
      </trkpt>
      <trkpt lat="44.78127" lon="-0.26848">
        <ele>50</ele>
        <time>2014-04-06T12:58:58Z</time>
      </trkpt>
      <trkpt lat="44.78127" lon="-0.26849">
        <ele>50</ele>
        <time>2014-04-06T12:59:14Z</time>
      </trkpt>
      <trkpt lat="44.78127" lon="-0.26849">
        <ele>50</ele>
        <time>2014-04-06T12:59:31Z</time>
      </trkpt>
      <trkpt lat="44.78128" lon="-0.2685">
        <ele>50</ele>
        <time>2014-04-06T12:59:33Z</time>
      </trkpt>
      <trkpt lat="44.78129" lon="-0.26852">
        <ele>50</ele>
        <time>2014-04-06T12:59:34Z</time>
      </trkpt>
      <trkpt lat="44.7813" lon="-0.26854">
        <ele>50</ele>
        <time>2014-04-06T12:59:35Z</time>
      </trkpt>
      <trkpt lat="44.78132" lon="-0.26856">
        <ele>50</ele>
        <time>2014-04-06T12:59:36Z</time>
      </trkpt>
      <trkpt lat="44.78134" lon="-0.26857">
        <ele>50</ele>
        <time>2014-04-06T12:59:37Z</time>
      </trkpt>
      <trkpt lat="44.78136" lon="-0.26857">
        <ele>51</ele>
        <time>2014-04-06T12:59:38Z</time>
      </trkpt>
      <trkpt lat="44.78138" lon="-0.26858">
        <ele>51</ele>
        <time>2014-04-06T12:59:39Z</time>
      </trkpt>
      <trkpt lat="44.78141" lon="-0.26858">
        <ele>51</ele>
        <time>2014-04-06T12:59:40Z</time>
      </trkpt>
      <trkpt lat="44.78161" lon="-0.26857">
        <ele>52</ele>
        <time>2014-04-06T12:59:48Z</time>
      </trkpt>
      <trkpt lat="44.78175" lon="-0.26856">
        <ele>52</ele>
        <time>2014-04-06T12:59:53Z</time>
      </trkpt>
      <trkpt lat="44.78224" lon="-0.26833">
        <ele>53</ele>
        <time>2014-04-06T13:01:07Z</time>
      </trkpt>
      <trkpt lat="44.78226" lon="-0.26827">
        <ele>53</ele>
        <time>2014-04-06T13:01:08Z</time>
      </trkpt>
      <trkpt lat="44.78248" lon="-0.26791">
        <ele>53</ele>
        <time>2014-04-06T13:01:14Z</time>
      </trkpt>
      <trkpt lat="44.7829" lon="-0.26732">
        <ele>53</ele>
        <time>2014-04-06T13:01:24Z</time>
      </trkpt>
      <trkpt lat="44.78318" lon="-0.26701">
        <ele>55</ele>
        <time>2014-04-06T13:01:30Z</time>
      </trkpt>
      <trkpt lat="44.78352" lon="-0.26665">
        <ele>56</ele>
        <time>2014-04-06T13:01:38Z</time>
      </trkpt>
      <trkpt lat="44.78366" lon="-0.26651">
        <ele>57</ele>
        <time>2014-04-06T13:01:41Z</time>
      </trkpt>
      <trkpt lat="44.7837" lon="-0.26646">
        <ele>57</ele>
        <time>2014-04-06T13:01:42Z</time>
      </trkpt>
      <trkpt lat="44.78374" lon="-0.26641">
        <ele>57</ele>
        <time>2014-04-06T13:01:43Z</time>
      </trkpt>
      <trkpt lat="44.78408" lon="-0.26602">
        <ele>57</ele>
        <time>2014-04-06T13:01:51Z</time>
      </trkpt>
      <trkpt lat="44.78412" lon="-0.26598">
        <ele>56</ele>
        <time>2014-04-06T13:01:52Z</time>
      </trkpt>
      <trkpt lat="44.78421" lon="-0.26589">
        <ele>56</ele>
        <time>2014-04-06T13:01:54Z</time>
      </trkpt>
      <trkpt lat="44.7846" lon="-0.26549">
        <ele>53</ele>
        <time>2014-04-06T13:02:03Z</time>
      </trkpt>
      <trkpt lat="44.78489" lon="-0.26518">
        <ele>50</ele>
        <time>2014-04-06T13:02:10Z</time>
      </trkpt>
      <trkpt lat="44.78519" lon="-0.2649">
        <ele>49</ele>
        <time>2014-04-06T13:02:17Z</time>
      </trkpt>
      <trkpt lat="44.7855" lon="-0.26461">
        <ele>51</ele>
        <time>2014-04-06T13:02:24Z</time>
      </trkpt>
      <trkpt lat="44.78558" lon="-0.26453">
        <ele>51</ele>
        <time>2014-04-06T13:02:26Z</time>
      </trkpt>
      <trkpt lat="44.78576" lon="-0.26437">
        <ele>52</ele>
        <time>2014-04-06T13:02:30Z</time>
      </trkpt>
      <trkpt lat="44.78622" lon="-0.26396">
        <ele>54</ele>
        <time>2014-04-06T13:02:40Z</time>
      </trkpt>
      <trkpt lat="44.78657" lon="-0.26364">
        <ele>54</ele>
        <time>2014-04-06T13:02:48Z</time>
      </trkpt>
      <trkpt lat="44.78694" lon="-0.26333">
        <ele>55</ele>
        <time>2014-04-06T13:02:56Z</time>
      </trkpt>
      <trkpt lat="44.78713" lon="-0.26317">
        <ele>56</ele>
        <time>2014-04-06T13:03:02Z</time>
      </trkpt>
      <trkpt lat="44.7872" lon="-0.26311">
        <ele>56</ele>
        <time>2014-04-06T13:03:06Z</time>
      </trkpt>
      <trkpt lat="44.78722" lon="-0.26313">
        <ele>56</ele>
        <time>2014-04-06T13:03:07Z</time>
      </trkpt>
      <trkpt lat="44.78724" lon="-0.26317">
        <ele>56</ele>
        <time>2014-04-06T13:03:08Z</time>
      </trkpt>
      <trkpt lat="44.78725" lon="-0.2632">
        <ele>56</ele>
        <time>2014-04-06T13:03:09Z</time>
      </trkpt>
      <trkpt lat="44.78727" lon="-0.26324">
        <ele>56</ele>
        <time>2014-04-06T13:03:10Z</time>
      </trkpt>
      <trkpt lat="44.78728" lon="-0.26327">
        <ele>56</ele>
        <time>2014-04-06T13:03:11Z</time>
      </trkpt>
      <trkpt lat="44.78729" lon="-0.2633">
        <ele>56</ele>
        <time>2014-04-06T13:03:12Z</time>
      </trkpt>
      <trkpt lat="44.78731" lon="-0.26335">
        <ele>56</ele>
        <time>2014-04-06T13:03:13Z</time>
      </trkpt>
      <trkpt lat="44.78732" lon="-0.26339">
        <ele>57</ele>
        <time>2014-04-06T13:03:14Z</time>
      </trkpt>
      <trkpt lat="44.78742" lon="-0.26379">
        <ele>57</ele>
        <time>2014-04-06T13:03:23Z</time>
      </trkpt>
      <trkpt lat="44.78752" lon="-0.26421">
        <ele>58</ele>
        <time>2014-04-06T13:03:33Z</time>
      </trkpt>
      <trkpt lat="44.78758" lon="-0.26457">
        <ele>59</ele>
        <time>2014-04-06T13:03:43Z</time>
      </trkpt>
      <trkpt lat="44.78761" lon="-0.26477">
        <ele>59</ele>
        <time>2014-04-06T13:03:52Z</time>
      </trkpt>
      <trkpt lat="44.7876" lon="-0.26479">
        <ele>59</ele>
        <time>2014-04-06T13:03:53Z</time>
      </trkpt>
      <trkpt lat="44.78755" lon="-0.26504">
        <ele>59</ele>
        <time>2014-04-06T13:04:02Z</time>
      </trkpt>
      <trkpt lat="44.78746" lon="-0.26538">
        <ele>60</ele>
        <time>2014-04-06T13:04:12Z</time>
      </trkpt>
      <trkpt lat="44.7874" lon="-0.26572">
        <ele>60</ele>
        <time>2014-04-06T13:04:21Z</time>
      </trkpt>
      <trkpt lat="44.78736" lon="-0.26605">
        <ele>61</ele>
        <time>2014-04-06T13:04:29Z</time>
      </trkpt>
      <trkpt lat="44.78741" lon="-0.26608">
        <ele>61</ele>
        <time>2014-04-06T13:05:08Z</time>
      </trkpt>
      <trkpt lat="44.78743" lon="-0.26609">
        <ele>61</ele>
        <time>2014-04-06T13:05:09Z</time>
      </trkpt>
      <trkpt lat="44.78745" lon="-0.26611">
        <ele>61</ele>
        <time>2014-04-06T13:05:10Z</time>
      </trkpt>
      <trkpt lat="44.78747" lon="-0.26614">
        <ele>61</ele>
        <time>2014-04-06T13:05:11Z</time>
      </trkpt>
      <trkpt lat="44.78748" lon="-0.26617">
        <ele>61</ele>
        <time>2014-04-06T13:05:12Z</time>
      </trkpt>
      <trkpt lat="44.7875" lon="-0.2662">
        <ele>61</ele>
        <time>2014-04-06T13:05:13Z</time>
      </trkpt>
      <trkpt lat="44.78753" lon="-0.26623">
        <ele>61</ele>
        <time>2014-04-06T13:05:14Z</time>
      </trkpt>
      <trkpt lat="44.78768" lon="-0.26645">
        <ele>61</ele>
        <time>2014-04-06T13:05:22Z</time>
      </trkpt>
      <trkpt lat="44.78785" lon="-0.26667">
        <ele>62</ele>
        <time>2014-04-06T13:05:30Z</time>
      </trkpt>
      <trkpt lat="44.78801" lon="-0.26696">
        <ele>62</ele>
        <time>2014-04-06T13:05:38Z</time>
      </trkpt>
      <trkpt lat="44.78808" lon="-0.26726">
        <ele>62</ele>
        <time>2014-04-06T13:05:45Z</time>
      </trkpt>
      <trkpt lat="44.78818" lon="-0.26763">
        <ele>63</ele>
        <time>2014-04-06T13:05:53Z</time>
      </trkpt>
      <trkpt lat="44.78832" lon="-0.26819">
        <ele>64</ele>
        <time>2014-04-06T13:06:06Z</time>
      </trkpt>
      <trkpt lat="44.78838" lon="-0.26858">
        <ele>63</ele>
        <time>2014-04-06T13:06:14Z</time>
      </trkpt>
      <trkpt lat="44.78847" lon="-0.26904">
        <ele>63</ele>
        <time>2014-04-06T13:06:23Z</time>
      </trkpt>
      <trkpt lat="44.78854" lon="-0.26933">
        <ele>64</ele>
        <time>2014-04-06T13:06:29Z</time>
      </trkpt>
      <trkpt lat="44.78864" lon="-0.2696">
        <ele>65</ele>
        <time>2014-04-06T13:06:35Z</time>
      </trkpt>
      <trkpt lat="44.78875" lon="-0.26994">
        <ele>65</ele>
        <time>2014-04-06T13:06:42Z</time>
      </trkpt>
      <trkpt lat="44.78884" lon="-0.27027">
        <ele>65</ele>
        <time>2014-04-06T13:06:49Z</time>
      </trkpt>
      <trkpt lat="44.78892" lon="-0.27054">
        <ele>65</ele>
        <time>2014-04-06T13:06:55Z</time>
      </trkpt>
      <trkpt lat="44.78903" lon="-0.27086">
        <ele>65</ele>
        <time>2014-04-06T13:07:02Z</time>
      </trkpt>
      <trkpt lat="44.78916" lon="-0.27101">
        <ele>65</ele>
        <time>2014-04-06T13:07:07Z</time>
      </trkpt>
      <trkpt lat="44.78931" lon="-0.27126">
        <ele>64</ele>
        <time>2014-04-06T13:07:13Z</time>
      </trkpt>
      <trkpt lat="44.78937" lon="-0.27134">
        <ele>64</ele>
        <time>2014-04-06T13:07:15Z</time>
      </trkpt>
      <trkpt lat="44.7894" lon="-0.27138">
        <ele>64</ele>
        <time>2014-04-06T13:07:16Z</time>
      </trkpt>
      <trkpt lat="44.78943" lon="-0.27143">
        <ele>64</ele>
        <time>2014-04-06T13:07:17Z</time>
      </trkpt>
      <trkpt lat="44.7897" lon="-0.27187">
        <ele>63</ele>
        <time>2014-04-06T13:07:27Z</time>
      </trkpt>
      <trkpt lat="44.78997" lon="-0.2723">
        <ele>62</ele>
        <time>2014-04-06T13:07:37Z</time>
      </trkpt>
      <trkpt lat="44.79" lon="-0.27235">
        <ele>62</ele>
        <time>2014-04-06T13:07:38Z</time>
      </trkpt>
      <trkpt lat="44.79023" lon="-0.27275">
        <ele>61</ele>
        <time>2014-04-06T13:07:47Z</time>
      </trkpt>
      <trkpt lat="44.79055" lon="-0.27328">
        <ele>60</ele>
        <time>2014-04-06T13:07:57Z</time>
      </trkpt>
      <trkpt lat="44.79092" lon="-0.2739">
        <ele>58</ele>
        <time>2014-04-06T13:08:06Z</time>
      </trkpt>
      <trkpt lat="44.79115" lon="-0.27426">
        <ele>57</ele>
        <time>2014-04-06T13:08:12Z</time>
      </trkpt>
      <trkpt lat="44.79122" lon="-0.27435">
        <ele>56</ele>
        <time>2014-04-06T13:08:15Z</time>
      </trkpt>
      <trkpt lat="44.79124" lon="-0.27436">
        <ele>56</ele>
        <time>2014-04-06T13:08:16Z</time>
      </trkpt>
      <trkpt lat="44.79126" lon="-0.27435">
        <ele>56</ele>
        <time>2014-04-06T13:08:17Z</time>
      </trkpt>
      <trkpt lat="44.79142" lon="-0.27419">
        <ele>56</ele>
        <time>2014-04-06T13:08:24Z</time>
      </trkpt>
      <trkpt lat="44.79148" lon="-0.27412">
        <ele>56</ele>
        <time>2014-04-06T13:08:26Z</time>
      </trkpt>
      <trkpt lat="44.79151" lon="-0.27408">
        <ele>56</ele>
        <time>2014-04-06T13:08:27Z</time>
      </trkpt>
      <trkpt lat="44.79154" lon="-0.27404">
        <ele>56</ele>
        <time>2014-04-06T13:08:28Z</time>
      </trkpt>
      <trkpt lat="44.79184" lon="-0.27372">
        <ele>56</ele>
        <time>2014-04-06T13:08:36Z</time>
      </trkpt>
      <trkpt lat="44.79188" lon="-0.27369">
        <ele>56</ele>
        <time>2014-04-06T13:08:37Z</time>
      </trkpt>
      <trkpt lat="44.79192" lon="-0.27365">
        <ele>56</ele>
        <time>2014-04-06T13:08:38Z</time>
      </trkpt>
      <trkpt lat="44.79229" lon="-0.27325">
        <ele>56</ele>
        <time>2014-04-06T13:08:47Z</time>
      </trkpt>
      <trkpt lat="44.79271" lon="-0.27282">
        <ele>57</ele>
        <time>2014-04-06T13:08:57Z</time>
      </trkpt>
      <trkpt lat="44.79302" lon="-0.27251">
        <ele>57</ele>
        <time>2014-04-06T13:09:05Z</time>
      </trkpt>
      <trkpt lat="44.79327" lon="-0.27225">
        <ele>57</ele>
        <time>2014-04-06T13:09:12Z</time>
      </trkpt>
      <trkpt lat="44.79338" lon="-0.27214">
        <ele>56</ele>
        <time>2014-04-06T13:09:15Z</time>
      </trkpt>
      <trkpt lat="44.79342" lon="-0.27211">
        <ele>56</ele>
        <time>2014-04-06T13:09:16Z</time>
      </trkpt>
      <trkpt lat="44.79361" lon="-0.27191">
        <ele>55</ele>
        <time>2014-04-06T13:09:21Z</time>
      </trkpt>
      <trkpt lat="44.79373" lon="-0.27172">
        <ele>55</ele>
        <time>2014-04-06T13:09:26Z</time>
      </trkpt>
      <trkpt lat="44.79376" lon="-0.27166">
        <ele>54</ele>
        <time>2014-04-06T13:09:29Z</time>
      </trkpt>
      <trkpt lat="44.79378" lon="-0.27166">
        <ele>54</ele>
        <time>2014-04-06T13:09:30Z</time>
      </trkpt>
      <trkpt lat="44.79379" lon="-0.27167">
        <ele>54</ele>
        <time>2014-04-06T13:09:31Z</time>
      </trkpt>
      <trkpt lat="44.79392" lon="-0.27174">
        <ele>54</ele>
        <time>2014-04-06T13:09:38Z</time>
      </trkpt>
      <trkpt lat="44.79408" lon="-0.27184">
        <ele>54</ele>
        <time>2014-04-06T13:09:46Z</time>
      </trkpt>
      <trkpt lat="44.79425" lon="-0.27193">
        <ele>53</ele>
        <time>2014-04-06T13:09:56Z</time>
      </trkpt>
      <trkpt lat="44.79443" lon="-0.27202">
        <ele>52</ele>
        <time>2014-04-06T13:10:05Z</time>
      </trkpt>
      <trkpt lat="44.79454" lon="-0.27214">
        <ele>52</ele>
        <time>2014-04-06T13:10:11Z</time>
      </trkpt>
      <trkpt lat="44.7947" lon="-0.27235">
        <ele>51</ele>
        <time>2014-04-06T13:10:20Z</time>
      </trkpt>
      <trkpt lat="44.79476" lon="-0.27251">
        <ele>50</ele>
        <time>2014-04-06T13:10:25Z</time>
      </trkpt>
      <trkpt lat="44.79478" lon="-0.27261">
        <ele>49</ele>
        <time>2014-04-06T13:10:27Z</time>
      </trkpt>
      <trkpt lat="44.79479" lon="-0.27268">
        <ele>48</ele>
        <time>2014-04-06T13:10:28Z</time>
      </trkpt>
      <trkpt lat="44.79479" lon="-0.27281">
        <ele>47</ele>
        <time>2014-04-06T13:10:30Z</time>
      </trkpt>
      <trkpt lat="44.79479" lon="-0.27305">
        <ele>45</ele>
        <time>2014-04-06T13:10:33Z</time>
      </trkpt>
      <trkpt lat="44.79479" lon="-0.27312">
        <ele>45</ele>
        <time>2014-04-06T13:10:34Z</time>
      </trkpt>
      <trkpt lat="44.79476" lon="-0.27368">
        <ele>44</ele>
        <time>2014-04-06T13:10:40Z</time>
      </trkpt>
      <trkpt lat="44.7947" lon="-0.27429">
        <ele>44</ele>
        <time>2014-04-06T13:10:47Z</time>
      </trkpt>
      <trkpt lat="44.79468" lon="-0.2747">
        <ele>47</ele>
        <time>2014-04-06T13:10:53Z</time>
      </trkpt>
      <trkpt lat="44.79469" lon="-0.27476">
        <ele>47</ele>
        <time>2014-04-06T13:10:54Z</time>
      </trkpt>
      <trkpt lat="44.79468" lon="-0.27481">
        <ele>48</ele>
        <time>2014-04-06T13:10:55Z</time>
      </trkpt>
      <trkpt lat="44.79467" lon="-0.27486">
        <ele>48</ele>
        <time>2014-04-06T13:10:56Z</time>
      </trkpt>
      <trkpt lat="44.79467" lon="-0.27489">
        <ele>48</ele>
        <time>2014-04-06T13:10:57Z</time>
      </trkpt>
      <trkpt lat="44.79467" lon="-0.27493">
        <ele>48</ele>
        <time>2014-04-06T13:10:58Z</time>
      </trkpt>
      <trkpt lat="44.79474" lon="-0.27522">
        <ele>50</ele>
        <time>2014-04-06T13:11:04Z</time>
      </trkpt>
      <trkpt lat="44.79477" lon="-0.27524">
        <ele>50</ele>
        <time>2014-04-06T13:11:05Z</time>
      </trkpt>
      <trkpt lat="44.79479" lon="-0.27524">
        <ele>50</ele>
        <time>2014-04-06T13:11:06Z</time>
      </trkpt>
      <trkpt lat="44.79481" lon="-0.27525">
        <ele>50</ele>
        <time>2014-04-06T13:11:07Z</time>
      </trkpt>
      <trkpt lat="44.79484" lon="-0.27526">
        <ele>51</ele>
        <time>2014-04-06T13:11:08Z</time>
      </trkpt>
      <trkpt lat="44.79499" lon="-0.27534">
        <ele>52</ele>
        <time>2014-04-06T13:11:15Z</time>
      </trkpt>
      <trkpt lat="44.79514" lon="-0.27545">
        <ele>52</ele>
        <time>2014-04-06T13:11:23Z</time>
      </trkpt>
      <trkpt lat="44.79517" lon="-0.27548">
        <ele>53</ele>
        <time>2014-04-06T13:11:30Z</time>
      </trkpt>
      <trkpt lat="44.79516" lon="-0.27549">
        <ele>53</ele>
        <time>2014-04-06T13:11:39Z</time>
      </trkpt>
      <trkpt lat="44.7952" lon="-0.2755">
        <ele>53</ele>
        <time>2014-04-06T13:11:48Z</time>
      </trkpt>
      <trkpt lat="44.7953" lon="-0.27552">
        <ele>53</ele>
        <time>2014-04-06T13:11:56Z</time>
      </trkpt>
      <trkpt lat="44.79544" lon="-0.27553">
        <ele>53</ele>
        <time>2014-04-06T13:12:05Z</time>
      </trkpt>
      <trkpt lat="44.79556" lon="-0.27552">
        <ele>54</ele>
        <time>2014-04-06T13:12:11Z</time>
      </trkpt>
      <trkpt lat="44.79569" lon="-0.27551">
        <ele>54</ele>
        <time>2014-04-06T13:12:17Z</time>
      </trkpt>
      <trkpt lat="44.79587" lon="-0.27549">
        <ele>54</ele>
        <time>2014-04-06T13:12:25Z</time>
      </trkpt>
      <trkpt lat="44.79604" lon="-0.27544">
        <ele>55</ele>
        <time>2014-04-06T13:12:32Z</time>
      </trkpt>
      <trkpt lat="44.79623" lon="-0.2754">
        <ele>55</ele>
        <time>2014-04-06T13:12:39Z</time>
      </trkpt>
      <trkpt lat="44.79638" lon="-0.27538">
        <ele>55</ele>
        <time>2014-04-06T13:12:46Z</time>
      </trkpt>
      <trkpt lat="44.79655" lon="-0.27557">
        <ele>55</ele>
        <time>2014-04-06T13:12:52Z</time>
      </trkpt>
      <trkpt lat="44.7967" lon="-0.27595">
        <ele>55</ele>
        <time>2014-04-06T13:13:00Z</time>
      </trkpt>
      <trkpt lat="44.79685" lon="-0.27638">
        <ele>56</ele>
        <time>2014-04-06T13:13:09Z</time>
      </trkpt>
      <trkpt lat="44.79697" lon="-0.27671">
        <ele>56</ele>
        <time>2014-04-06T13:13:18Z</time>
      </trkpt>
      <trkpt lat="44.79709" lon="-0.27692">
        <ele>56</ele>
        <time>2014-04-06T13:13:27Z</time>
      </trkpt>
      <trkpt lat="44.79723" lon="-0.27716">
        <ele>56</ele>
        <time>2014-04-06T13:13:36Z</time>
      </trkpt>
      <trkpt lat="44.79733" lon="-0.2774">
        <ele>56</ele>
        <time>2014-04-06T13:13:44Z</time>
      </trkpt>
      <trkpt lat="44.79747" lon="-0.27773">
        <ele>56</ele>
        <time>2014-04-06T13:13:54Z</time>
      </trkpt>
      <trkpt lat="44.7976" lon="-0.27802">
        <ele>56</ele>
        <time>2014-04-06T13:14:04Z</time>
      </trkpt>
      <trkpt lat="44.79771" lon="-0.27827">
        <ele>57</ele>
        <time>2014-04-06T13:14:12Z</time>
      </trkpt>
      <trkpt lat="44.7978" lon="-0.27854">
        <ele>57</ele>
        <time>2014-04-06T13:14:20Z</time>
      </trkpt>
      <trkpt lat="44.79793" lon="-0.27883">
        <ele>57</ele>
        <time>2014-04-06T13:14:29Z</time>
      </trkpt>
      <trkpt lat="44.79803" lon="-0.27906">
        <ele>58</ele>
        <time>2014-04-06T13:14:37Z</time>
      </trkpt>
      <trkpt lat="44.79809" lon="-0.2792">
        <ele>58</ele>
        <time>2014-04-06T13:14:43Z</time>
      </trkpt>
      <trkpt lat="44.79816" lon="-0.27937">
        <ele>59</ele>
        <time>2014-04-06T13:14:51Z</time>
      </trkpt>
      <trkpt lat="44.79824" lon="-0.27957">
        <ele>59</ele>
        <time>2014-04-06T13:15:00Z</time>
      </trkpt>
      <trkpt lat="44.79831" lon="-0.27974">
        <ele>59</ele>
        <time>2014-04-06T13:15:08Z</time>
      </trkpt>
      <trkpt lat="44.79838" lon="-0.27993">
        <ele>59</ele>
        <time>2014-04-06T13:15:17Z</time>
      </trkpt>
      <trkpt lat="44.79841" lon="-0.28013">
        <ele>59</ele>
        <time>2014-04-06T13:15:25Z</time>
      </trkpt>
      <trkpt lat="44.79843" lon="-0.28035">
        <ele>60</ele>
        <time>2014-04-06T13:15:33Z</time>
      </trkpt>
      <trkpt lat="44.79841" lon="-0.28051">
        <ele>60</ele>
        <time>2014-04-06T13:15:39Z</time>
      </trkpt>
      <trkpt lat="44.7984" lon="-0.28057">
        <ele>61</ele>
        <time>2014-04-06T13:15:41Z</time>
      </trkpt>
      <trkpt lat="44.79847" lon="-0.28061">
        <ele>61</ele>
        <time>2014-04-06T13:15:47Z</time>
      </trkpt>
      <trkpt lat="44.79852" lon="-0.28059">
        <ele>61</ele>
        <time>2014-04-06T13:15:49Z</time>
      </trkpt>
      <trkpt lat="44.79871" lon="-0.28055">
        <ele>61</ele>
        <time>2014-04-06T13:15:58Z</time>
      </trkpt>
      <trkpt lat="44.79893" lon="-0.28053">
        <ele>62</ele>
        <time>2014-04-06T13:16:08Z</time>
      </trkpt>
      <trkpt lat="44.79908" lon="-0.28052">
        <ele>62</ele>
        <time>2014-04-06T13:16:15Z</time>
      </trkpt>
      <trkpt lat="44.79926" lon="-0.28054">
        <ele>63</ele>
        <time>2014-04-06T13:16:23Z</time>
      </trkpt>
      <trkpt lat="44.79947" lon="-0.2806">
        <ele>63</ele>
        <time>2014-04-06T13:16:31Z</time>
      </trkpt>
      <trkpt lat="44.79973" lon="-0.28066">
        <ele>64</ele>
        <time>2014-04-06T13:16:40Z</time>
      </trkpt>
      <trkpt lat="44.7999" lon="-0.28071">
        <ele>64</ele>
        <time>2014-04-06T13:16:46Z</time>
      </trkpt>
      <trkpt lat="44.79993" lon="-0.28072">
        <ele>65</ele>
        <time>2014-04-06T13:16:47Z</time>
      </trkpt>
      <trkpt lat="44.79997" lon="-0.28093">
        <ele>65</ele>
        <time>2014-04-06T13:16:53Z</time>
      </trkpt>
      <trkpt lat="44.80001" lon="-0.28105">
        <ele>65</ele>
        <time>2014-04-06T13:16:57Z</time>
      </trkpt>
      <trkpt lat="44.80009" lon="-0.28134">
        <ele>66</ele>
        <time>2014-04-06T13:17:06Z</time>
      </trkpt>
      <trkpt lat="44.80013" lon="-0.28156">
        <ele>66</ele>
        <time>2014-04-06T13:17:13Z</time>
      </trkpt>
      <trkpt lat="44.80021" lon="-0.28183">
        <ele>67</ele>
        <time>2014-04-06T13:17:22Z</time>
      </trkpt>
      <trkpt lat="44.80024" lon="-0.28205">
        <ele>67</ele>
        <time>2014-04-06T13:17:28Z</time>
      </trkpt>
      <trkpt lat="44.80031" lon="-0.28229">
        <ele>68</ele>
        <time>2014-04-06T13:17:36Z</time>
      </trkpt>
      <trkpt lat="44.80036" lon="-0.28253">
        <ele>69</ele>
        <time>2014-04-06T13:17:44Z</time>
      </trkpt>
      <trkpt lat="44.80041" lon="-0.28273">
        <ele>70</ele>
        <time>2014-04-06T13:17:51Z</time>
      </trkpt>
      <trkpt lat="44.80042" lon="-0.28284">
        <ele>70</ele>
        <time>2014-04-06T13:17:55Z</time>
      </trkpt>
      <trkpt lat="44.80046" lon="-0.28295">
        <ele>71</ele>
        <time>2014-04-06T13:17:59Z</time>
      </trkpt>
      <trkpt lat="44.80048" lon="-0.283">
        <ele>71</ele>
        <time>2014-04-06T13:18:02Z</time>
      </trkpt>
      <trkpt lat="44.80049" lon="-0.28315">
        <ele>72</ele>
        <time>2014-04-06T13:18:09Z</time>
      </trkpt>
      <trkpt lat="44.80053" lon="-0.28328">
        <ele>73</ele>
        <time>2014-04-06T13:18:16Z</time>
      </trkpt>
      <trkpt lat="44.80053" lon="-0.2833">
        <ele>73</ele>
        <time>2014-04-06T13:18:17Z</time>
      </trkpt>
      <trkpt lat="44.80061" lon="-0.28351">
        <ele>74</ele>
        <time>2014-04-06T13:18:25Z</time>
      </trkpt>
      <trkpt lat="44.80065" lon="-0.28368">
        <ele>74</ele>
        <time>2014-04-06T13:18:32Z</time>
      </trkpt>
      <trkpt lat="44.80066" lon="-0.28371">
        <ele>75</ele>
        <time>2014-04-06T13:18:33Z</time>
      </trkpt>
      <trkpt lat="44.80073" lon="-0.2839">
        <ele>75</ele>
        <time>2014-04-06T13:18:41Z</time>
      </trkpt>
      <trkpt lat="44.80077" lon="-0.28406">
        <ele>76</ele>
        <time>2014-04-06T13:18:47Z</time>
      </trkpt>
      <trkpt lat="44.8008" lon="-0.28425">
        <ele>77</ele>
        <time>2014-04-06T13:18:54Z</time>
      </trkpt>
      <trkpt lat="44.80087" lon="-0.2845">
        <ele>78</ele>
        <time>2014-04-06T13:19:03Z</time>
      </trkpt>
      <trkpt lat="44.80092" lon="-0.2847">
        <ele>78</ele>
        <time>2014-04-06T13:19:10Z</time>
      </trkpt>
      <trkpt lat="44.80094" lon="-0.28486">
        <ele>78</ele>
        <time>2014-04-06T13:19:15Z</time>
      </trkpt>
      <trkpt lat="44.80099" lon="-0.28506">
        <ele>79</ele>
        <time>2014-04-06T13:19:22Z</time>
      </trkpt>
      <trkpt lat="44.80102" lon="-0.28528">
        <ele>79</ele>
        <time>2014-04-06T13:19:29Z</time>
      </trkpt>
      <trkpt lat="44.80106" lon="-0.28549">
        <ele>79</ele>
        <time>2014-04-06T13:19:36Z</time>
      </trkpt>
      <trkpt lat="44.80107" lon="-0.28554">
        <ele>79</ele>
        <time>2014-04-06T13:19:38Z</time>
      </trkpt>
      <trkpt lat="44.80112" lon="-0.28567">
        <ele>79</ele>
        <time>2014-04-06T13:19:43Z</time>
      </trkpt>
      <trkpt lat="44.80118" lon="-0.28596">
        <ele>79</ele>
        <time>2014-04-06T13:19:52Z</time>
      </trkpt>
      <trkpt lat="44.80118" lon="-0.28599">
        <ele>79</ele>
        <time>2014-04-06T13:19:53Z</time>
      </trkpt>
      <trkpt lat="44.80132" lon="-0.2863">
        <ele>78</ele>
        <time>2014-04-06T13:21:44Z</time>
      </trkpt>
      <trkpt lat="44.80132" lon="-0.28636">
        <ele>78</ele>
        <time>2014-04-06T13:21:49Z</time>
      </trkpt>
      <trkpt lat="44.80132" lon="-0.28642">
        <ele>78</ele>
        <time>2014-04-06T13:21:53Z</time>
      </trkpt>
      <trkpt lat="44.80124" lon="-0.28653">
        <ele>78</ele>
        <time>2014-04-06T13:21:58Z</time>
      </trkpt>
      <trkpt lat="44.80112" lon="-0.28671">
        <ele>78</ele>
        <time>2014-04-06T13:22:06Z</time>
      </trkpt>
      <trkpt lat="44.80103" lon="-0.28683">
        <ele>78</ele>
        <time>2014-04-06T13:22:12Z</time>
      </trkpt>
      <trkpt lat="44.80084" lon="-0.28707">
        <ele>78</ele>
        <time>2014-04-06T13:22:20Z</time>
      </trkpt>
      <trkpt lat="44.80062" lon="-0.28739">
        <ele>77</ele>
        <time>2014-04-06T13:22:27Z</time>
      </trkpt>
      <trkpt lat="44.80029" lon="-0.28786">
        <ele>74</ele>
        <time>2014-04-06T13:22:34Z</time>
      </trkpt>
      <trkpt lat="44.79993" lon="-0.28842">
        <ele>71</ele>
        <time>2014-04-06T13:22:41Z</time>
      </trkpt>
      <trkpt lat="44.7996" lon="-0.28908">
        <ele>68</ele>
        <time>2014-04-06T13:22:48Z</time>
      </trkpt>
      <trkpt lat="44.7992" lon="-0.28997">
        <ele>65</ele>
        <time>2014-04-06T13:22:57Z</time>
      </trkpt>
      <trkpt lat="44.79908" lon="-0.29022">
        <ele>65</ele>
        <time>2014-04-06T13:23:01Z</time>
      </trkpt>
      <trkpt lat="44.79906" lon="-0.29027">
        <ele>65</ele>
        <time>2014-04-06T13:23:02Z</time>
      </trkpt>
      <trkpt lat="44.79906" lon="-0.29033">
        <ele>65</ele>
        <time>2014-04-06T13:23:03Z</time>
      </trkpt>
      <trkpt lat="44.79906" lon="-0.29038">
        <ele>65</ele>
        <time>2014-04-06T13:23:04Z</time>
      </trkpt>
      <trkpt lat="44.79906" lon="-0.29043">
        <ele>65</ele>
        <time>2014-04-06T13:23:05Z</time>
      </trkpt>
      <trkpt lat="44.79907" lon="-0.29093">
        <ele>65</ele>
        <time>2014-04-06T13:23:13Z</time>
      </trkpt>
      <trkpt lat="44.79907" lon="-0.29106">
        <ele>65</ele>
        <time>2014-04-06T13:23:15Z</time>
      </trkpt>
      <trkpt lat="44.79906" lon="-0.29112">
        <ele>66</ele>
        <time>2014-04-06T13:23:16Z</time>
      </trkpt>
      <trkpt lat="44.79905" lon="-0.29173">
        <ele>67</ele>
        <time>2014-04-06T13:23:26Z</time>
      </trkpt>
      <trkpt lat="44.79905" lon="-0.29215">
        <ele>67</ele>
        <time>2014-04-06T13:23:35Z</time>
      </trkpt>
      <trkpt lat="44.79907" lon="-0.29246">
        <ele>66</ele>
        <time>2014-04-06T13:23:44Z</time>
      </trkpt>
      <trkpt lat="44.79915" lon="-0.29273">
        <ele>66</ele>
        <time>2014-04-06T13:23:51Z</time>
      </trkpt>
      <trkpt lat="44.79938" lon="-0.29307">
        <ele>66</ele>
        <time>2014-04-06T13:23:59Z</time>
      </trkpt>
      <trkpt lat="44.79967" lon="-0.29346">
        <ele>65</ele>
        <time>2014-04-06T13:24:07Z</time>
      </trkpt>
      <trkpt lat="44.79997" lon="-0.29397">
        <ele>65</ele>
        <time>2014-04-06T13:24:14Z</time>
      </trkpt>
      <trkpt lat="44.80027" lon="-0.29433">
        <ele>63</ele>
        <time>2014-04-06T13:24:19Z</time>
      </trkpt>
      <trkpt lat="44.8004" lon="-0.29446">
        <ele>63</ele>
        <time>2014-04-06T13:24:21Z</time>
      </trkpt>
      <trkpt lat="44.80045" lon="-0.29454">
        <ele>63</ele>
        <time>2014-04-06T13:24:22Z</time>
      </trkpt>
      <trkpt lat="44.80051" lon="-0.29462">
        <ele>62</ele>
        <time>2014-04-06T13:24:23Z</time>
      </trkpt>
      <trkpt lat="44.80055" lon="-0.2947">
        <ele>62</ele>
        <time>2014-04-06T13:24:24Z</time>
      </trkpt>
      <trkpt lat="44.80059" lon="-0.29478">
        <ele>62</ele>
        <time>2014-04-06T13:24:25Z</time>
      </trkpt>
      <trkpt lat="44.80075" lon="-0.29518">
        <ele>63</ele>
        <time>2014-04-06T13:24:30Z</time>
      </trkpt>
      <trkpt lat="44.80077" lon="-0.29526">
        <ele>64</ele>
        <time>2014-04-06T13:24:31Z</time>
      </trkpt>
      <trkpt lat="44.80079" lon="-0.29533">
        <ele>64</ele>
        <time>2014-04-06T13:24:32Z</time>
      </trkpt>
      <trkpt lat="44.8008" lon="-0.29541">
        <ele>64</ele>
        <time>2014-04-06T13:24:33Z</time>
      </trkpt>
      <trkpt lat="44.80081" lon="-0.29548">
        <ele>65</ele>
        <time>2014-04-06T13:24:34Z</time>
      </trkpt>
      <trkpt lat="44.80079" lon="-0.29598">
        <ele>67</ele>
        <time>2014-04-06T13:24:41Z</time>
      </trkpt>
      <trkpt lat="44.80079" lon="-0.29619">
        <ele>69</ele>
        <time>2014-04-06T13:24:44Z</time>
      </trkpt>
      <trkpt lat="44.80078" lon="-0.29632">
        <ele>69</ele>
        <time>2014-04-06T13:24:46Z</time>
      </trkpt>
      <trkpt lat="44.8008" lon="-0.29674">
        <ele>71</ele>
        <time>2014-04-06T13:24:53Z</time>
      </trkpt>
      <trkpt lat="44.80085" lon="-0.29708">
        <ele>71</ele>
        <time>2014-04-06T13:24:59Z</time>
      </trkpt>
      <trkpt lat="44.80089" lon="-0.2973">
        <ele>72</ele>
        <time>2014-04-06T13:25:03Z</time>
      </trkpt>
      <trkpt lat="44.80091" lon="-0.29774">
        <ele>72</ele>
        <time>2014-04-06T13:25:10Z</time>
      </trkpt>
      <trkpt lat="44.80094" lon="-0.29845">
        <ele>71</ele>
        <time>2014-04-06T13:25:21Z</time>
      </trkpt>
      <trkpt lat="44.80095" lon="-0.29889">
        <ele>72</ele>
        <time>2014-04-06T13:25:28Z</time>
      </trkpt>
      <trkpt lat="44.80091" lon="-0.29941">
        <ele>72</ele>
        <time>2014-04-06T13:25:37Z</time>
      </trkpt>
      <trkpt lat="44.80086" lon="-0.29963">
        <ele>73</ele>
        <time>2014-04-06T13:25:41Z</time>
      </trkpt>
      <trkpt lat="44.80077" lon="-0.3003">
        <ele>75</ele>
        <time>2014-04-06T13:25:53Z</time>
      </trkpt>
      <trkpt lat="44.80075" lon="-0.30075">
        <ele>77</ele>
        <time>2014-04-06T13:26:01Z</time>
      </trkpt>
      <trkpt lat="44.80083" lon="-0.30119">
        <ele>79</ele>
        <time>2014-04-06T13:26:09Z</time>
      </trkpt>
      <trkpt lat="44.8009" lon="-0.30141">
        <ele>79</ele>
        <time>2014-04-06T13:26:13Z</time>
      </trkpt>
      <trkpt lat="44.80092" lon="-0.30146">
        <ele>79</ele>
        <time>2014-04-06T13:26:14Z</time>
      </trkpt>
      <trkpt lat="44.80101" lon="-0.30167">
        <ele>79</ele>
        <time>2014-04-06T13:26:18Z</time>
      </trkpt>
      <trkpt lat="44.80103" lon="-0.30172">
        <ele>79</ele>
        <time>2014-04-06T13:26:19Z</time>
      </trkpt>
      <trkpt lat="44.80125" lon="-0.30227">
        <ele>80</ele>
        <time>2014-04-06T13:26:29Z</time>
      </trkpt>
      <trkpt lat="44.80126" lon="-0.30234">
        <ele>80</ele>
        <time>2014-04-06T13:26:30Z</time>
      </trkpt>
      <trkpt lat="44.80128" lon="-0.3024">
        <ele>80</ele>
        <time>2014-04-06T13:26:31Z</time>
      </trkpt>
      <trkpt lat="44.80129" lon="-0.30245">
        <ele>80</ele>
        <time>2014-04-06T13:26:32Z</time>
      </trkpt>
      <trkpt lat="44.8013" lon="-0.3025">
        <ele>80</ele>
        <time>2014-04-06T13:26:33Z</time>
      </trkpt>
      <trkpt lat="44.80135" lon="-0.30274">
        <ele>81</ele>
        <time>2014-04-06T13:26:39Z</time>
      </trkpt>
      <trkpt lat="44.80138" lon="-0.30287">
        <ele>80</ele>
        <time>2014-04-06T13:26:46Z</time>
      </trkpt>
      <trkpt lat="44.80139" lon="-0.30289">
        <ele>80</ele>
        <time>2014-04-06T13:26:53Z</time>
      </trkpt>
      <trkpt lat="44.80139" lon="-0.30293">
        <ele>81</ele>
        <time>2014-04-06T13:27:01Z</time>
      </trkpt>
      <trkpt lat="44.80138" lon="-0.30295">
        <ele>81</ele>
        <time>2014-04-06T13:27:02Z</time>
      </trkpt>
      <trkpt lat="44.80138" lon="-0.30296">
        <ele>81</ele>
        <time>2014-04-06T13:27:03Z</time>
      </trkpt>
      <trkpt lat="44.80136" lon="-0.30297">
        <ele>81</ele>
        <time>2014-04-06T13:27:04Z</time>
      </trkpt>
      <trkpt lat="44.80131" lon="-0.30298">
        <ele>81</ele>
        <time>2014-04-06T13:27:09Z</time>
      </trkpt>
      <trkpt lat="44.80127" lon="-0.30302">
        <ele>81</ele>
        <time>2014-04-06T13:27:16Z</time>
      </trkpt>
      <trkpt lat="44.80128" lon="-0.30306">
        <ele>81</ele>
        <time>2014-04-06T13:27:19Z</time>
      </trkpt>
      <trkpt lat="44.80128" lon="-0.30308">
        <ele>81</ele>
        <time>2014-04-06T13:27:20Z</time>
      </trkpt>
      <trkpt lat="44.80126" lon="-0.30317">
        <ele>81</ele>
        <time>2014-04-06T13:27:28Z</time>
      </trkpt>
      <trkpt lat="44.80125" lon="-0.3032">
        <ele>81</ele>
        <time>2014-04-06T13:27:30Z</time>
      </trkpt>
      <trkpt lat="44.80126" lon="-0.30322">
        <ele>81</ele>
        <time>2014-04-06T13:27:31Z</time>
      </trkpt>
      <trkpt lat="44.80126" lon="-0.30324">
        <ele>81</ele>
        <time>2014-04-06T13:27:32Z</time>
      </trkpt>
      <trkpt lat="44.80126" lon="-0.30326">
        <ele>81</ele>
        <time>2014-04-06T13:27:33Z</time>
      </trkpt>
      <trkpt lat="44.80127" lon="-0.30328">
        <ele>81</ele>
        <time>2014-04-06T13:27:34Z</time>
      </trkpt>
      <trkpt lat="44.80127" lon="-0.3033">
        <ele>81</ele>
        <time>2014-04-06T13:27:35Z</time>
      </trkpt>
      <trkpt lat="44.80127" lon="-0.30333">
        <ele>81</ele>
        <time>2014-04-06T13:27:36Z</time>
      </trkpt>
      <trkpt lat="44.80127" lon="-0.30336">
        <ele>81</ele>
        <time>2014-04-06T13:27:37Z</time>
      </trkpt>
      <trkpt lat="44.80127" lon="-0.30359">
        <ele>80</ele>
        <time>2014-04-06T13:27:45Z</time>
      </trkpt>
      <trkpt lat="44.80131" lon="-0.30378">
        <ele>80</ele>
        <time>2014-04-06T13:27:52Z</time>
      </trkpt>
      <trkpt lat="44.80133" lon="-0.30382">
        <ele>80</ele>
        <time>2014-04-06T13:27:54Z</time>
      </trkpt>
      <trkpt lat="44.80135" lon="-0.3039">
        <ele>79</ele>
        <time>2014-04-06T13:28:01Z</time>
      </trkpt>
      <trkpt lat="44.80135" lon="-0.3039">
        <ele>79</ele>
        <time>2014-04-06T13:28:12Z</time>
      </trkpt>
      <trkpt lat="44.80134" lon="-0.30389">
        <ele>79</ele>
        <time>2014-04-06T13:28:17Z</time>
      </trkpt>
      <trkpt lat="44.80133" lon="-0.30389">
        <ele>80</ele>
        <time>2014-04-06T13:28:28Z</time>
      </trkpt>
      <trkpt lat="44.80134" lon="-0.30388">
        <ele>79</ele>
        <time>2014-04-06T13:28:47Z</time>
      </trkpt>
      <trkpt lat="44.80134" lon="-0.30388">
        <ele>80</ele>
        <time>2014-04-06T13:29:01Z</time>
      </trkpt>
      <trkpt lat="44.80134" lon="-0.30388">
        <ele>80</ele>
        <time>2014-04-06T13:29:11Z</time>
      </trkpt>
      <trkpt lat="44.80134" lon="-0.30388">
        <ele>80</ele>
        <time>2014-04-06T13:29:27Z</time>
      </trkpt>
      <trkpt lat="44.80134" lon="-0.30389">
        <ele>79</ele>
        <time>2014-04-06T13:29:33Z</time>
      </trkpt>
      <trkpt lat="44.80134" lon="-0.3039">
        <ele>79</ele>
        <time>2014-04-06T13:29:46Z</time>
      </trkpt>
      <trkpt lat="44.80135" lon="-0.30393">
        <ele>79</ele>
        <time>2014-04-06T13:29:52Z</time>
      </trkpt>
      <trkpt lat="44.80136" lon="-0.30397">
        <ele>79</ele>
        <time>2014-04-06T13:29:55Z</time>
      </trkpt>
      <trkpt lat="44.80137" lon="-0.30407">
        <ele>79</ele>
        <time>2014-04-06T13:30:00Z</time>
      </trkpt>
      <trkpt lat="44.80139" lon="-0.30423">
        <ele>79</ele>
        <time>2014-04-06T13:30:07Z</time>
      </trkpt>
      <trkpt lat="44.8014" lon="-0.30428">
        <ele>79</ele>
        <time>2014-04-06T13:30:09Z</time>
      </trkpt>
      <trkpt lat="44.80148" lon="-0.30446">
        <ele>78</ele>
        <time>2014-04-06T13:30:15Z</time>
      </trkpt>
      <trkpt lat="44.80151" lon="-0.30456">
        <ele>78</ele>
        <time>2014-04-06T13:30:19Z</time>
      </trkpt>
      <trkpt lat="44.80152" lon="-0.30458">
        <ele>78</ele>
        <time>2014-04-06T13:30:20Z</time>
      </trkpt>
      <trkpt lat="44.80158" lon="-0.30464">
        <ele>78</ele>
        <time>2014-04-06T13:30:26Z</time>
      </trkpt>
      <trkpt lat="44.8017" lon="-0.30482">
        <ele>77</ele>
        <time>2014-04-06T13:30:35Z</time>
      </trkpt>
      <trkpt lat="44.80179" lon="-0.30496">
        <ele>77</ele>
        <time>2014-04-06T13:30:42Z</time>
      </trkpt>
      <trkpt lat="44.80182" lon="-0.30506">
        <ele>77</ele>
        <time>2014-04-06T13:30:46Z</time>
      </trkpt>
      <trkpt lat="44.80186" lon="-0.30524">
        <ele>77</ele>
        <time>2014-04-06T13:30:53Z</time>
      </trkpt>
      <trkpt lat="44.80184" lon="-0.30532">
        <ele>78</ele>
        <time>2014-04-06T13:31:00Z</time>
      </trkpt>
      <trkpt lat="44.80184" lon="-0.30535">
        <ele>78</ele>
        <time>2014-04-06T13:31:05Z</time>
      </trkpt>
      <trkpt lat="44.80185" lon="-0.3054">
        <ele>78</ele>
        <time>2014-04-06T13:31:12Z</time>
      </trkpt>
      <trkpt lat="44.80184" lon="-0.30541">
        <ele>78</ele>
        <time>2014-04-06T13:31:20Z</time>
      </trkpt>
      <trkpt lat="44.80185" lon="-0.30541">
        <ele>78</ele>
        <time>2014-04-06T13:31:26Z</time>
      </trkpt>
      <trkpt lat="44.80185" lon="-0.30541">
        <ele>78</ele>
        <time>2014-04-06T13:31:33Z</time>
      </trkpt>
      <trkpt lat="44.80183" lon="-0.30542">
        <ele>78</ele>
        <time>2014-04-06T13:31:43Z</time>
      </trkpt>
      <trkpt lat="44.80183" lon="-0.3054">
        <ele>78</ele>
        <time>2014-04-06T13:31:51Z</time>
      </trkpt>
      <trkpt lat="44.80182" lon="-0.30538">
        <ele>78</ele>
        <time>2014-04-06T13:31:59Z</time>
      </trkpt>
      <trkpt lat="44.80182" lon="-0.30537">
        <ele>78</ele>
        <time>2014-04-06T13:32:09Z</time>
      </trkpt>
      <trkpt lat="44.80182" lon="-0.30534">
        <ele>78</ele>
        <time>2014-04-06T13:32:21Z</time>
      </trkpt>
      <trkpt lat="44.8018" lon="-0.30526">
        <ele>77</ele>
        <time>2014-04-06T13:32:27Z</time>
      </trkpt>
      <trkpt lat="44.8018" lon="-0.30524">
        <ele>77</ele>
        <time>2014-04-06T13:32:28Z</time>
      </trkpt>
      <trkpt lat="44.80178" lon="-0.30509">
        <ele>77</ele>
        <time>2014-04-06T13:32:36Z</time>
      </trkpt>
      <trkpt lat="44.80176" lon="-0.30503">
        <ele>77</ele>
        <time>2014-04-06T13:32:39Z</time>
      </trkpt>
      <trkpt lat="44.80178" lon="-0.305">
        <ele>77</ele>
        <time>2014-04-06T13:32:46Z</time>
      </trkpt>
      <trkpt lat="44.80182" lon="-0.30496">
        <ele>77</ele>
        <time>2014-04-06T13:32:53Z</time>
      </trkpt>
      <trkpt lat="44.80188" lon="-0.30492">
        <ele>77</ele>
        <time>2014-04-06T13:32:58Z</time>
      </trkpt>
      <trkpt lat="44.80191" lon="-0.3049">
        <ele>77</ele>
        <time>2014-04-06T13:33:05Z</time>
      </trkpt>
      <trkpt lat="44.80191" lon="-0.3049">
        <ele>77</ele>
        <time>2014-04-06T13:33:21Z</time>
      </trkpt>
      <trkpt lat="44.80192" lon="-0.30489">
        <ele>77</ele>
        <time>2014-04-06T13:33:32Z</time>
      </trkpt>
      <trkpt lat="44.80193" lon="-0.30488">
        <ele>77</ele>
        <time>2014-04-06T13:33:39Z</time>
      </trkpt>
      <trkpt lat="44.80195" lon="-0.30484">
        <ele>77</ele>
        <time>2014-04-06T13:33:45Z</time>
      </trkpt>
      <trkpt lat="44.80196" lon="-0.30475">
        <ele>77</ele>
        <time>2014-04-06T13:33:52Z</time>
      </trkpt>
      <trkpt lat="44.80194" lon="-0.3047">
        <ele>77</ele>
        <time>2014-04-06T13:33:58Z</time>
      </trkpt>
      <trkpt lat="44.80199" lon="-0.30468">
        <ele>76</ele>
        <time>2014-04-06T13:34:05Z</time>
      </trkpt>
      <trkpt lat="44.80201" lon="-0.30467">
        <ele>76</ele>
        <time>2014-04-06T13:34:12Z</time>
      </trkpt>
      <trkpt lat="44.80205" lon="-0.30469">
        <ele>76</ele>
        <time>2014-04-06T13:34:19Z</time>
      </trkpt>
      <trkpt lat="44.80207" lon="-0.30471">
        <ele>76</ele>
        <time>2014-04-06T13:34:25Z</time>
      </trkpt>
      <trkpt lat="44.8021" lon="-0.30475">
        <ele>76</ele>
        <time>2014-04-06T13:34:34Z</time>
      </trkpt>
      <trkpt lat="44.80212" lon="-0.30477">
        <ele>76</ele>
        <time>2014-04-06T13:34:43Z</time>
      </trkpt>
      <trkpt lat="44.80214" lon="-0.30476">
        <ele>76</ele>
        <time>2014-04-06T13:34:47Z</time>
      </trkpt>
      <trkpt lat="44.80228" lon="-0.30467">
        <ele>76</ele>
        <time>2014-04-06T13:34:55Z</time>
      </trkpt>
      <trkpt lat="44.80233" lon="-0.30463">
        <ele>75</ele>
        <time>2014-04-06T13:34:58Z</time>
      </trkpt>
      <trkpt lat="44.80242" lon="-0.30451">
        <ele>75</ele>
        <time>2014-04-06T13:35:04Z</time>
      </trkpt>
      <trkpt lat="44.80254" lon="-0.3044">
        <ele>74</ele>
        <time>2014-04-06T13:35:10Z</time>
      </trkpt>
      <trkpt lat="44.80268" lon="-0.30431">
        <ele>74</ele>
        <time>2014-04-06T13:35:16Z</time>
      </trkpt>
      <trkpt lat="44.80285" lon="-0.30421">
        <ele>74</ele>
        <time>2014-04-06T13:35:24Z</time>
      </trkpt>
      <trkpt lat="44.80292" lon="-0.30416">
        <ele>73</ele>
        <time>2014-04-06T13:35:30Z</time>
      </trkpt>
      <trkpt lat="44.80296" lon="-0.30413">
        <ele>73</ele>
        <time>2014-04-06T13:35:37Z</time>
      </trkpt>
      <trkpt lat="44.80299" lon="-0.30415">
        <ele>73</ele>
        <time>2014-04-06T13:35:44Z</time>
      </trkpt>
      <trkpt lat="44.80299" lon="-0.30416">
        <ele>73</ele>
        <time>2014-04-06T13:35:46Z</time>
      </trkpt>
      <trkpt lat="44.80306" lon="-0.30431">
        <ele>74</ele>
        <time>2014-04-06T13:35:54Z</time>
      </trkpt>
      <trkpt lat="44.80309" lon="-0.30438">
        <ele>74</ele>
        <time>2014-04-06T13:35:58Z</time>
      </trkpt>
      <trkpt lat="44.80317" lon="-0.30441">
        <ele>74</ele>
        <time>2014-04-06T13:36:04Z</time>
      </trkpt>
      <trkpt lat="44.80322" lon="-0.30443">
        <ele>74</ele>
        <time>2014-04-06T13:36:11Z</time>
      </trkpt>
      <trkpt lat="44.80324" lon="-0.30447">
        <ele>74</ele>
        <time>2014-04-06T13:36:18Z</time>
      </trkpt>
      <trkpt lat="44.80322" lon="-0.30456">
        <ele>75</ele>
        <time>2014-04-06T13:36:26Z</time>
      </trkpt>
      <trkpt lat="44.80321" lon="-0.30457">
        <ele>75</ele>
        <time>2014-04-06T13:36:37Z</time>
      </trkpt>
      <trkpt lat="44.80321" lon="-0.30458">
        <ele>75</ele>
        <time>2014-04-06T13:36:51Z</time>
      </trkpt>
      <trkpt lat="44.80321" lon="-0.30458">
        <ele>75</ele>
        <time>2014-04-06T13:37:10Z</time>
      </trkpt>
      <trkpt lat="44.80321" lon="-0.30459">
        <ele>75</ele>
        <time>2014-04-06T13:37:19Z</time>
      </trkpt>
      <trkpt lat="44.80321" lon="-0.30459">
        <ele>75</ele>
        <time>2014-04-06T13:37:38Z</time>
      </trkpt>
      <trkpt lat="44.80319" lon="-0.30456">
        <ele>75</ele>
        <time>2014-04-06T13:37:58Z</time>
      </trkpt>
      <trkpt lat="44.80318" lon="-0.30458">
        <ele>75</ele>
        <time>2014-04-06T13:38:18Z</time>
      </trkpt>
      <trkpt lat="44.80317" lon="-0.30459">
        <ele>75</ele>
        <time>2014-04-06T13:38:37Z</time>
      </trkpt>
      <trkpt lat="44.80318" lon="-0.3046">
        <ele>75</ele>
        <time>2014-04-06T13:38:55Z</time>
      </trkpt>
      <trkpt lat="44.80319" lon="-0.30459">
        <ele>75</ele>
        <time>2014-04-06T13:39:16Z</time>
      </trkpt>
      <trkpt lat="44.80319" lon="-0.30457">
        <ele>75</ele>
        <time>2014-04-06T13:39:39Z</time>
      </trkpt>
      <trkpt lat="44.80319" lon="-0.30458">
        <ele>75</ele>
        <time>2014-04-06T13:40:01Z</time>
      </trkpt>
      <trkpt lat="44.8032" lon="-0.30459">
        <ele>75</ele>
        <time>2014-04-06T13:40:19Z</time>
      </trkpt>
      <trkpt lat="44.8032" lon="-0.30458">
        <ele>75</ele>
        <time>2014-04-06T13:40:37Z</time>
      </trkpt>
      <trkpt lat="44.8032" lon="-0.30457">
        <ele>75</ele>
        <time>2014-04-06T13:40:57Z</time>
      </trkpt>
      <trkpt lat="44.80319" lon="-0.30457">
        <ele>75</ele>
        <time>2014-04-06T13:41:22Z</time>
      </trkpt>
      <trkpt lat="44.80319" lon="-0.30457">
        <ele>75</ele>
        <time>2014-04-06T13:41:45Z</time>
      </trkpt>
      <trkpt lat="44.80319" lon="-0.30457">
        <ele>75</ele>
        <time>2014-04-06T13:42:08Z</time>
      </trkpt>
      <trkpt lat="44.8032" lon="-0.30457">
        <ele>75</ele>
        <time>2014-04-06T13:42:29Z</time>
      </trkpt>
      <trkpt lat="44.80319" lon="-0.30457">
        <ele>75</ele>
        <time>2014-04-06T13:42:48Z</time>
      </trkpt>
      <trkpt lat="44.80319" lon="-0.30455">
        <ele>75</ele>
        <time>2014-04-06T13:43:07Z</time>
      </trkpt>
      <trkpt lat="44.80319" lon="-0.30457">
        <ele>75</ele>
        <time>2014-04-06T13:43:30Z</time>
      </trkpt>
      <trkpt lat="44.80319" lon="-0.30458">
        <ele>75</ele>
        <time>2014-04-06T13:43:51Z</time>
      </trkpt>
      <trkpt lat="44.80321" lon="-0.30458">
        <ele>75</ele>
        <time>2014-04-06T13:44:12Z</time>
      </trkpt>
      <trkpt lat="44.80321" lon="-0.30455">
        <ele>75</ele>
        <time>2014-04-06T13:44:19Z</time>
      </trkpt>
      <trkpt lat="44.80322" lon="-0.30455">
        <ele>75</ele>
        <time>2014-04-06T13:44:28Z</time>
      </trkpt>
      <trkpt lat="44.80322" lon="-0.30455">
        <ele>75</ele>
        <time>2014-04-06T13:44:39Z</time>
      </trkpt>
      <trkpt lat="44.80322" lon="-0.30456">
        <ele>75</ele>
        <time>2014-04-06T13:44:47Z</time>
      </trkpt>
      <trkpt lat="44.80322" lon="-0.30458">
        <ele>75</ele>
        <time>2014-04-06T13:44:54Z</time>
      </trkpt>
      <trkpt lat="44.8032" lon="-0.30478">
        <ele>75</ele>
        <time>2014-04-06T13:45:03Z</time>
      </trkpt>
      <trkpt lat="44.80318" lon="-0.30499">
        <ele>76</ele>
        <time>2014-04-06T13:45:11Z</time>
      </trkpt>
      <trkpt lat="44.80315" lon="-0.30513">
        <ele>76</ele>
        <time>2014-04-06T13:45:18Z</time>
      </trkpt>
      <trkpt lat="44.80313" lon="-0.30536">
        <ele>77</ele>
        <time>2014-04-06T13:45:26Z</time>
      </trkpt>
      <trkpt lat="44.80311" lon="-0.30561">
        <ele>78</ele>
        <time>2014-04-06T13:45:33Z</time>
      </trkpt>
      <trkpt lat="44.80313" lon="-0.30591">
        <ele>78</ele>
        <time>2014-04-06T13:45:42Z</time>
      </trkpt>
      <trkpt lat="44.80315" lon="-0.30618">
        <ele>78</ele>
        <time>2014-04-06T13:45:51Z</time>
      </trkpt>
      <trkpt lat="44.80318" lon="-0.30637">
        <ele>79</ele>
        <time>2014-04-06T13:45:59Z</time>
      </trkpt>
      <trkpt lat="44.80317" lon="-0.30648">
        <ele>79</ele>
        <time>2014-04-06T13:46:05Z</time>
      </trkpt>
      <trkpt lat="44.80314" lon="-0.30656">
        <ele>79</ele>
        <time>2014-04-06T13:46:09Z</time>
      </trkpt>
      <trkpt lat="44.80305" lon="-0.30664">
        <ele>80</ele>
        <time>2014-04-06T13:46:16Z</time>
      </trkpt>
      <trkpt lat="44.80304" lon="-0.30677">
        <ele>80</ele>
        <time>2014-04-06T13:46:24Z</time>
      </trkpt>
      <trkpt lat="44.80304" lon="-0.30683">
        <ele>80</ele>
        <time>2014-04-06T13:46:32Z</time>
      </trkpt>
      <trkpt lat="44.80304" lon="-0.30684">
        <ele>80</ele>
        <time>2014-04-06T13:46:42Z</time>
      </trkpt>
      <trkpt lat="44.80302" lon="-0.3068">
        <ele>80</ele>
        <time>2014-04-06T13:46:50Z</time>
      </trkpt>
      <trkpt lat="44.80303" lon="-0.3068">
        <ele>80</ele>
        <time>2014-04-06T13:46:57Z</time>
      </trkpt>
      <trkpt lat="44.80302" lon="-0.30678">
        <ele>80</ele>
        <time>2014-04-06T13:47:06Z</time>
      </trkpt>
      <trkpt lat="44.80303" lon="-0.30676">
        <ele>80</ele>
        <time>2014-04-06T13:47:12Z</time>
      </trkpt>
      <trkpt lat="44.80302" lon="-0.30674">
        <ele>80</ele>
        <time>2014-04-06T13:47:20Z</time>
      </trkpt>
      <trkpt lat="44.80301" lon="-0.30672">
        <ele>80</ele>
        <time>2014-04-06T13:47:31Z</time>
      </trkpt>
      <trkpt lat="44.803" lon="-0.30669">
        <ele>80</ele>
        <time>2014-04-06T13:47:34Z</time>
      </trkpt>
      <trkpt lat="44.80295" lon="-0.30662">
        <ele>80</ele>
        <time>2014-04-06T13:47:41Z</time>
      </trkpt>
      <trkpt lat="44.80293" lon="-0.30661">
        <ele>80</ele>
        <time>2014-04-06T13:47:43Z</time>
      </trkpt>
      <trkpt lat="44.80289" lon="-0.30661">
        <ele>80</ele>
        <time>2014-04-06T13:47:46Z</time>
      </trkpt>
      <trkpt lat="44.80286" lon="-0.30666">
        <ele>80</ele>
        <time>2014-04-06T13:47:51Z</time>
      </trkpt>
      <trkpt lat="44.80287" lon="-0.3067">
        <ele>80</ele>
        <time>2014-04-06T13:47:57Z</time>
      </trkpt>
      <trkpt lat="44.80287" lon="-0.30667">
        <ele>80</ele>
        <time>2014-04-06T13:48:03Z</time>
      </trkpt>
      <trkpt lat="44.80287" lon="-0.30666">
        <ele>80</ele>
        <time>2014-04-06T13:48:11Z</time>
      </trkpt>
      <trkpt lat="44.80288" lon="-0.30666">
        <ele>80</ele>
        <time>2014-04-06T13:48:23Z</time>
      </trkpt>
      <trkpt lat="44.80288" lon="-0.30665">
        <ele>80</ele>
        <time>2014-04-06T13:48:25Z</time>
      </trkpt>
      <trkpt lat="44.80289" lon="-0.30665">
        <ele>80</ele>
        <time>2014-04-06T13:48:31Z</time>
      </trkpt>
      <trkpt lat="44.80287" lon="-0.30667">
        <ele>80</ele>
        <time>2014-04-06T13:48:37Z</time>
      </trkpt>
      <trkpt lat="44.80287" lon="-0.30671">
        <ele>80</ele>
        <time>2014-04-06T13:48:42Z</time>
      </trkpt>
      <trkpt lat="44.80289" lon="-0.30676">
        <ele>80</ele>
        <time>2014-04-06T13:48:46Z</time>
      </trkpt>
      <trkpt lat="44.80291" lon="-0.30678">
        <ele>80</ele>
        <time>2014-04-06T13:48:48Z</time>
      </trkpt>
      <trkpt lat="44.80292" lon="-0.30698">
        <ele>80</ele>
        <time>2014-04-06T13:48:55Z</time>
      </trkpt>
      <trkpt lat="44.80296" lon="-0.30714">
        <ele>80</ele>
        <time>2014-04-06T13:49:02Z</time>
      </trkpt>
      <trkpt lat="44.803" lon="-0.30725">
        <ele>80</ele>
        <time>2014-04-06T13:49:07Z</time>
      </trkpt>
      <trkpt lat="44.80308" lon="-0.30747">
        <ele>80</ele>
        <time>2014-04-06T13:49:15Z</time>
      </trkpt>
      <trkpt lat="44.80312" lon="-0.30768">
        <ele>79</ele>
        <time>2014-04-06T13:49:22Z</time>
      </trkpt>
      <trkpt lat="44.80316" lon="-0.30789">
        <ele>79</ele>
        <time>2014-04-06T13:49:30Z</time>
      </trkpt>
      <trkpt lat="44.80324" lon="-0.30813">
        <ele>78</ele>
        <time>2014-04-06T13:49:38Z</time>
      </trkpt>
      <trkpt lat="44.80329" lon="-0.30834">
        <ele>78</ele>
        <time>2014-04-06T13:49:44Z</time>
      </trkpt>
      <trkpt lat="44.80338" lon="-0.30854">
        <ele>77</ele>
        <time>2014-04-06T13:49:51Z</time>
      </trkpt>
      <trkpt lat="44.80356" lon="-0.30882">
        <ele>75</ele>
        <time>2014-04-06T13:50:01Z</time>
      </trkpt>
      <trkpt lat="44.80372" lon="-0.30904">
        <ele>74</ele>
        <time>2014-04-06T13:50:09Z</time>
      </trkpt>
      <trkpt lat="44.80384" lon="-0.30927">
        <ele>73</ele>
        <time>2014-04-06T13:50:16Z</time>
      </trkpt>
      <trkpt lat="44.80397" lon="-0.30953">
        <ele>73</ele>
        <time>2014-04-06T13:50:23Z</time>
      </trkpt>
      <trkpt lat="44.80413" lon="-0.30984">
        <ele>72</ele>
        <time>2014-04-06T13:50:31Z</time>
      </trkpt>
      <trkpt lat="44.80426" lon="-0.31005">
        <ele>71</ele>
        <time>2014-04-06T13:50:38Z</time>
      </trkpt>
      <trkpt lat="44.80436" lon="-0.31018">
        <ele>71</ele>
        <time>2014-04-06T13:50:45Z</time>
      </trkpt>
      <trkpt lat="44.80439" lon="-0.3102">
        <ele>70</ele>
        <time>2014-04-06T13:50:52Z</time>
      </trkpt>
      <trkpt lat="44.80442" lon="-0.31025">
        <ele>70</ele>
        <time>2014-04-06T13:51:00Z</time>
      </trkpt>
      <trkpt lat="44.80444" lon="-0.31028">
        <ele>70</ele>
        <time>2014-04-06T13:51:07Z</time>
      </trkpt>
      <trkpt lat="44.80442" lon="-0.31031">
        <ele>70</ele>
        <time>2014-04-06T13:51:14Z</time>
      </trkpt>
      <trkpt lat="44.80442" lon="-0.31037">
        <ele>70</ele>
        <time>2014-04-06T13:51:21Z</time>
      </trkpt>
      <trkpt lat="44.80442" lon="-0.31041">
        <ele>70</ele>
        <time>2014-04-06T13:51:26Z</time>
      </trkpt>
      <trkpt lat="44.80438" lon="-0.31055">
        <ele>70</ele>
        <time>2014-04-06T13:51:34Z</time>
      </trkpt>
      <trkpt lat="44.80437" lon="-0.3106">
        <ele>70</ele>
        <time>2014-04-06T13:51:39Z</time>
      </trkpt>
      <trkpt lat="44.80425" lon="-0.31072">
        <ele>70</ele>
        <time>2014-04-06T13:51:48Z</time>
      </trkpt>
      <trkpt lat="44.80416" lon="-0.31081">
        <ele>71</ele>
        <time>2014-04-06T13:51:55Z</time>
      </trkpt>
      <trkpt lat="44.8041" lon="-0.31088">
        <ele>71</ele>
        <time>2014-04-06T13:52:02Z</time>
      </trkpt>
      <trkpt lat="44.80405" lon="-0.31093">
        <ele>71</ele>
        <time>2014-04-06T13:52:08Z</time>
      </trkpt>
      <trkpt lat="44.80405" lon="-0.31094">
        <ele>71</ele>
        <time>2014-04-06T13:52:17Z</time>
      </trkpt>
      <trkpt lat="44.80399" lon="-0.31101">
        <ele>71</ele>
        <time>2014-04-06T13:52:24Z</time>
      </trkpt>
      <trkpt lat="44.80397" lon="-0.31106">
        <ele>71</ele>
        <time>2014-04-06T13:52:33Z</time>
      </trkpt>
      <trkpt lat="44.80394" lon="-0.31109">
        <ele>71</ele>
        <time>2014-04-06T13:52:39Z</time>
      </trkpt>
      <trkpt lat="44.80385" lon="-0.3111">
        <ele>71</ele>
        <time>2014-04-06T13:52:45Z</time>
      </trkpt>
      <trkpt lat="44.80374" lon="-0.31107">
        <ele>72</ele>
        <time>2014-04-06T13:52:52Z</time>
      </trkpt>
      <trkpt lat="44.80368" lon="-0.31103">
        <ele>72</ele>
        <time>2014-04-06T13:52:57Z</time>
      </trkpt>
      <trkpt lat="44.80361" lon="-0.31091">
        <ele>73</ele>
        <time>2014-04-06T13:53:05Z</time>
      </trkpt>
      <trkpt lat="44.80354" lon="-0.31086">
        <ele>73</ele>
        <time>2014-04-06T13:53:11Z</time>
      </trkpt>
      <trkpt lat="44.80352" lon="-0.31085">
        <ele>73</ele>
        <time>2014-04-06T13:53:19Z</time>
      </trkpt>
      <trkpt lat="44.8035" lon="-0.31085">
        <ele>73</ele>
        <time>2014-04-06T13:53:21Z</time>
      </trkpt>
      <trkpt lat="44.80341" lon="-0.31076">
        <ele>74</ele>
        <time>2014-04-06T13:53:29Z</time>
      </trkpt>
      <trkpt lat="44.80334" lon="-0.3106">
        <ele>75</ele>
        <time>2014-04-06T13:53:36Z</time>
      </trkpt>
      <trkpt lat="44.80321" lon="-0.31045">
        <ele>76</ele>
        <time>2014-04-06T13:53:43Z</time>
      </trkpt>
      <trkpt lat="44.80312" lon="-0.31034">
        <ele>76</ele>
        <time>2014-04-06T13:53:51Z</time>
      </trkpt>
      <trkpt lat="44.80305" lon="-0.31027">
        <ele>77</ele>
        <time>2014-04-06T13:53:56Z</time>
      </trkpt>
      <trkpt lat="44.80302" lon="-0.31029">
        <ele>77</ele>
        <time>2014-04-06T13:54:01Z</time>
      </trkpt>
      <trkpt lat="44.80306" lon="-0.31027">
        <ele>77</ele>
        <time>2014-04-06T13:54:07Z</time>
      </trkpt>
      <trkpt lat="44.80309" lon="-0.31032">
        <ele>77</ele>
        <time>2014-04-06T13:54:14Z</time>
      </trkpt>
      <trkpt lat="44.80312" lon="-0.31037">
        <ele>76</ele>
        <time>2014-04-06T13:54:21Z</time>
      </trkpt>
      <trkpt lat="44.80312" lon="-0.31038">
        <ele>76</ele>
        <time>2014-04-06T13:54:22Z</time>
      </trkpt>
      <trkpt lat="44.80316" lon="-0.31042">
        <ele>76</ele>
        <time>2014-04-06T13:54:25Z</time>
      </trkpt>
      <trkpt lat="44.80318" lon="-0.31046">
        <ele>76</ele>
        <time>2014-04-06T13:54:27Z</time>
      </trkpt>
      <trkpt lat="44.80324" lon="-0.31056">
        <ele>75</ele>
        <time>2014-04-06T13:54:32Z</time>
      </trkpt>
      <trkpt lat="44.80331" lon="-0.31071">
        <ele>74</ele>
        <time>2014-04-06T13:54:40Z</time>
      </trkpt>
      <trkpt lat="44.80342" lon="-0.31081">
        <ele>74</ele>
        <time>2014-04-06T13:54:45Z</time>
      </trkpt>
      <trkpt lat="44.80354" lon="-0.31106">
        <ele>73</ele>
        <time>2014-04-06T13:54:52Z</time>
      </trkpt>
      <trkpt lat="44.80357" lon="-0.31122">
        <ele>72</ele>
        <time>2014-04-06T13:54:58Z</time>
      </trkpt>
      <trkpt lat="44.80358" lon="-0.31131">
        <ele>72</ele>
        <time>2014-04-06T13:55:09Z</time>
      </trkpt>
      <trkpt lat="44.80358" lon="-0.31134">
        <ele>72</ele>
        <time>2014-04-06T13:55:20Z</time>
      </trkpt>
      <trkpt lat="44.80358" lon="-0.31136">
        <ele>72</ele>
        <time>2014-04-06T13:55:34Z</time>
      </trkpt>
      <trkpt lat="44.80359" lon="-0.31136">
        <ele>72</ele>
        <time>2014-04-06T13:55:50Z</time>
      </trkpt>
      <trkpt lat="44.80359" lon="-0.31137">
        <ele>72</ele>
        <time>2014-04-06T13:56:04Z</time>
      </trkpt>
      <trkpt lat="44.80358" lon="-0.31139">
        <ele>72</ele>
        <time>2014-04-06T13:56:18Z</time>
      </trkpt>
      <trkpt lat="44.80358" lon="-0.3114">
        <ele>72</ele>
        <time>2014-04-06T13:56:27Z</time>
      </trkpt>
      <trkpt lat="44.80356" lon="-0.31143">
        <ele>72</ele>
        <time>2014-04-06T13:56:34Z</time>
      </trkpt>
      <trkpt lat="44.80356" lon="-0.31145">
        <ele>72</ele>
        <time>2014-04-06T13:56:41Z</time>
      </trkpt>
      <trkpt lat="44.80353" lon="-0.31148">
        <ele>72</ele>
        <time>2014-04-06T13:56:49Z</time>
      </trkpt>
      <trkpt lat="44.80352" lon="-0.31149">
        <ele>72</ele>
        <time>2014-04-06T13:56:50Z</time>
      </trkpt>
      <trkpt lat="44.80344" lon="-0.31162">
        <ele>72</ele>
        <time>2014-04-06T13:56:59Z</time>
      </trkpt>
      <trkpt lat="44.80337" lon="-0.31174">
        <ele>72</ele>
        <time>2014-04-06T13:57:05Z</time>
      </trkpt>
      <trkpt lat="44.80329" lon="-0.31183">
        <ele>73</ele>
        <time>2014-04-06T13:57:12Z</time>
      </trkpt>
      <trkpt lat="44.80327" lon="-0.31186">
        <ele>73</ele>
        <time>2014-04-06T13:57:14Z</time>
      </trkpt>
      <trkpt lat="44.80321" lon="-0.31193">
        <ele>73</ele>
        <time>2014-04-06T13:57:21Z</time>
      </trkpt>
      <trkpt lat="44.80318" lon="-0.31198">
        <ele>73</ele>
        <time>2014-04-06T13:57:28Z</time>
      </trkpt>
      <trkpt lat="44.80313" lon="-0.31204">
        <ele>73</ele>
        <time>2014-04-06T13:57:35Z</time>
      </trkpt>
      <trkpt lat="44.80297" lon="-0.31209">
        <ele>74</ele>
        <time>2014-04-06T13:57:42Z</time>
      </trkpt>
      <trkpt lat="44.80282" lon="-0.31216">
        <ele>75</ele>
        <time>2014-04-06T13:57:48Z</time>
      </trkpt>
      <trkpt lat="44.80271" lon="-0.31219">
        <ele>76</ele>
        <time>2014-04-06T13:57:55Z</time>
      </trkpt>
      <trkpt lat="44.80261" lon="-0.31222">
        <ele>77</ele>
        <time>2014-04-06T13:58:02Z</time>
      </trkpt>
      <trkpt lat="44.80257" lon="-0.31225">
        <ele>78</ele>
        <time>2014-04-06T13:58:10Z</time>
      </trkpt>
      <trkpt lat="44.80252" lon="-0.31234">
        <ele>78</ele>
        <time>2014-04-06T13:58:18Z</time>
      </trkpt>
      <trkpt lat="44.80252" lon="-0.31226">
        <ele>78</ele>
        <time>2014-04-06T13:58:26Z</time>
      </trkpt>
      <trkpt lat="44.80252" lon="-0.31237">
        <ele>78</ele>
        <time>2014-04-06T13:58:33Z</time>
      </trkpt>
      <trkpt lat="44.80238" lon="-0.31244">
        <ele>80</ele>
        <time>2014-04-06T13:58:42Z</time>
      </trkpt>
      <trkpt lat="44.80233" lon="-0.31246">
        <ele>81</ele>
        <time>2014-04-06T13:58:48Z</time>
      </trkpt>
      <trkpt lat="44.80221" lon="-0.3125">
        <ele>82</ele>
        <time>2014-04-06T13:58:49Z</time>
      </trkpt>
      <trkpt lat="44.80192" lon="-0.31307">
        <ele>86</ele>
        <time>2014-04-06T14:04:52Z</time>
      </trkpt>
      <trkpt lat="44.80197" lon="-0.31314">
        <ele>85</ele>
        <time>2014-04-06T14:04:59Z</time>
      </trkpt>
      <trkpt lat="44.80204" lon="-0.31319">
        <ele>84</ele>
        <time>2014-04-06T14:05:06Z</time>
      </trkpt>
      <trkpt lat="44.80208" lon="-0.31328">
        <ele>84</ele>
        <time>2014-04-06T14:05:11Z</time>
      </trkpt>
      <trkpt lat="44.80207" lon="-0.3133">
        <ele>84</ele>
        <time>2014-04-06T14:05:12Z</time>
      </trkpt>
      <trkpt lat="44.80204" lon="-0.31335">
        <ele>84</ele>
        <time>2014-04-06T14:05:15Z</time>
      </trkpt>
      <trkpt lat="44.8021" lon="-0.31338">
        <ele>84</ele>
        <time>2014-04-06T14:05:21Z</time>
      </trkpt>
      <trkpt lat="44.80211" lon="-0.31347">
        <ele>83</ele>
        <time>2014-04-06T14:05:22Z</time>
      </trkpt>
      <trkpt lat="44.80211" lon="-0.31352">
        <ele>83</ele>
        <time>2014-04-06T14:05:27Z</time>
      </trkpt>
      <trkpt lat="44.80215" lon="-0.31362">
        <ele>83</ele>
        <time>2014-04-06T14:05:30Z</time>
      </trkpt>
      <trkpt lat="44.80225" lon="-0.3137">
        <ele>82</ele>
        <time>2014-04-06T14:05:38Z</time>
      </trkpt>
      <trkpt lat="44.80231" lon="-0.3139">
        <ele>82</ele>
        <time>2014-04-06T14:05:45Z</time>
      </trkpt>
      <trkpt lat="44.80231" lon="-0.31413">
        <ele>81</ele>
        <time>2014-04-06T14:05:50Z</time>
      </trkpt>
      <trkpt lat="44.80234" lon="-0.31414">
        <ele>81</ele>
        <time>2014-04-06T14:05:51Z</time>
      </trkpt>
      <trkpt lat="44.80247" lon="-0.31428">
        <ele>80</ele>
        <time>2014-04-06T14:05:58Z</time>
      </trkpt>
      <trkpt lat="44.80249" lon="-0.31436">
        <ele>80</ele>
        <time>2014-04-06T14:06:04Z</time>
      </trkpt>
      <trkpt lat="44.80258" lon="-0.31445">
        <ele>79</ele>
        <time>2014-04-06T14:06:10Z</time>
      </trkpt>
      <trkpt lat="44.80261" lon="-0.31449">
        <ele>78</ele>
        <time>2014-04-06T14:06:12Z</time>
      </trkpt>
      <trkpt lat="44.80261" lon="-0.31451">
        <ele>78</ele>
        <time>2014-04-06T14:06:13Z</time>
      </trkpt>
      <trkpt lat="44.80259" lon="-0.31458">
        <ele>78</ele>
        <time>2014-04-06T14:06:19Z</time>
      </trkpt>
      <trkpt lat="44.80258" lon="-0.31464">
        <ele>78</ele>
        <time>2014-04-06T14:06:22Z</time>
      </trkpt>
      <trkpt lat="44.80257" lon="-0.31474">
        <ele>78</ele>
        <time>2014-04-06T14:06:28Z</time>
      </trkpt>
      <trkpt lat="44.8026" lon="-0.31478">
        <ele>77</ele>
        <time>2014-04-06T14:06:30Z</time>
      </trkpt>
      <trkpt lat="44.80266" lon="-0.31491">
        <ele>76</ele>
        <time>2014-04-06T14:06:34Z</time>
      </trkpt>
      <trkpt lat="44.80273" lon="-0.31505">
        <ele>76</ele>
        <time>2014-04-06T14:06:39Z</time>
      </trkpt>
      <trkpt lat="44.80275" lon="-0.3152">
        <ele>75</ele>
        <time>2014-04-06T14:06:45Z</time>
      </trkpt>
      <trkpt lat="44.80279" lon="-0.31534">
        <ele>75</ele>
        <time>2014-04-06T14:06:51Z</time>
      </trkpt>
      <trkpt lat="44.80276" lon="-0.3154">
        <ele>75</ele>
        <time>2014-04-06T14:06:54Z</time>
      </trkpt>
      <trkpt lat="44.80272" lon="-0.31548">
        <ele>75</ele>
        <time>2014-04-06T14:06:56Z</time>
      </trkpt>
      <trkpt lat="44.80271" lon="-0.31559">
        <ele>75</ele>
        <time>2014-04-06T14:07:00Z</time>
      </trkpt>
      <trkpt lat="44.80277" lon="-0.31585">
        <ele>75</ele>
        <time>2014-04-06T14:07:06Z</time>
      </trkpt>
      <trkpt lat="44.80278" lon="-0.31595">
        <ele>75</ele>
        <time>2014-04-06T14:07:08Z</time>
      </trkpt>
      <trkpt lat="44.80272" lon="-0.31619">
        <ele>76</ele>
        <time>2014-04-06T14:07:17Z</time>
      </trkpt>
      <trkpt lat="44.80272" lon="-0.31628">
        <ele>76</ele>
        <time>2014-04-06T14:07:24Z</time>
      </trkpt>
      <trkpt lat="44.80274" lon="-0.31632">
        <ele>76</ele>
        <time>2014-04-06T14:07:27Z</time>
      </trkpt>
      <trkpt lat="44.80274" lon="-0.31643">
        <ele>76</ele>
        <time>2014-04-06T14:07:31Z</time>
      </trkpt>
      <trkpt lat="44.80274" lon="-0.31652">
        <ele>77</ele>
        <time>2014-04-06T14:07:35Z</time>
      </trkpt>
      <trkpt lat="44.80271" lon="-0.3166">
        <ele>78</ele>
        <time>2014-04-06T14:07:42Z</time>
      </trkpt>
      <trkpt lat="44.80268" lon="-0.31665">
        <ele>78</ele>
        <time>2014-04-06T14:07:48Z</time>
      </trkpt>
      <trkpt lat="44.80268" lon="-0.31673">
        <ele>79</ele>
        <time>2014-04-06T14:07:54Z</time>
      </trkpt>
      <trkpt lat="44.80268" lon="-0.31675">
        <ele>79</ele>
        <time>2014-04-06T14:07:59Z</time>
      </trkpt>
      <trkpt lat="44.80269" lon="-0.31677">
        <ele>79</ele>
        <time>2014-04-06T14:08:06Z</time>
      </trkpt>
      <trkpt lat="44.80267" lon="-0.31684">
        <ele>79</ele>
        <time>2014-04-06T14:08:14Z</time>
      </trkpt>
      <trkpt lat="44.80266" lon="-0.31685">
        <ele>80</ele>
        <time>2014-04-06T14:08:16Z</time>
      </trkpt>
      <trkpt lat="44.80266" lon="-0.3169">
        <ele>80</ele>
        <time>2014-04-06T14:08:18Z</time>
      </trkpt>
      <trkpt lat="44.8026" lon="-0.31695">
        <ele>81</ele>
        <time>2014-04-06T14:08:22Z</time>
      </trkpt>
      <trkpt lat="44.80256" lon="-0.31709">
        <ele>82</ele>
        <time>2014-04-06T14:08:27Z</time>
      </trkpt>
      <trkpt lat="44.80254" lon="-0.31716">
        <ele>82</ele>
        <time>2014-04-06T14:08:31Z</time>
      </trkpt>
      <trkpt lat="44.80252" lon="-0.3172">
        <ele>83</ele>
        <time>2014-04-06T14:08:33Z</time>
      </trkpt>
      <trkpt lat="44.80252" lon="-0.31728">
        <ele>83</ele>
        <time>2014-04-06T14:08:36Z</time>
      </trkpt>
      <trkpt lat="44.80246" lon="-0.31733">
        <ele>84</ele>
        <time>2014-04-06T14:08:39Z</time>
      </trkpt>
      <trkpt lat="44.80239" lon="-0.31748">
        <ele>85</ele>
        <time>2014-04-06T14:08:46Z</time>
      </trkpt>
      <trkpt lat="44.80232" lon="-0.31759">
        <ele>86</ele>
        <time>2014-04-06T14:08:53Z</time>
      </trkpt>
      <trkpt lat="44.80227" lon="-0.31764">
        <ele>88</ele>
        <time>2014-04-06T14:09:02Z</time>
      </trkpt>
      <trkpt lat="44.80221" lon="-0.31769">
        <ele>89</ele>
        <time>2014-04-06T14:09:09Z</time>
      </trkpt>
      <trkpt lat="44.80218" lon="-0.31772">
        <ele>90</ele>
        <time>2014-04-06T14:09:17Z</time>
      </trkpt>
      <trkpt lat="44.80217" lon="-0.31776">
        <ele>90</ele>
        <time>2014-04-06T14:09:24Z</time>
      </trkpt>
      <trkpt lat="44.80217" lon="-0.31779">
        <ele>90</ele>
        <time>2014-04-06T14:09:28Z</time>
      </trkpt>
      <trkpt lat="44.80213" lon="-0.31781">
        <ele>91</ele>
        <time>2014-04-06T14:09:35Z</time>
      </trkpt>
      <trkpt lat="44.8021" lon="-0.31786">
        <ele>92</ele>
        <time>2014-04-06T14:09:41Z</time>
      </trkpt>
      <trkpt lat="44.80205" lon="-0.31788">
        <ele>93</ele>
        <time>2014-04-06T14:09:48Z</time>
      </trkpt>
      <trkpt lat="44.802" lon="-0.31789">
        <ele>94</ele>
        <time>2014-04-06T14:09:55Z</time>
      </trkpt>
      <trkpt lat="44.80196" lon="-0.31793">
        <ele>95</ele>
        <time>2014-04-06T14:10:04Z</time>
      </trkpt>
      <trkpt lat="44.80195" lon="-0.31796">
        <ele>95</ele>
        <time>2014-04-06T14:10:10Z</time>
      </trkpt>
      <trkpt lat="44.80194" lon="-0.31798">
        <ele>96</ele>
        <time>2014-04-06T14:10:17Z</time>
      </trkpt>
      <trkpt lat="44.8019" lon="-0.31798">
        <ele>97</ele>
        <time>2014-04-06T14:10:24Z</time>
      </trkpt>
      <trkpt lat="44.80182" lon="-0.31797">
        <ele>98</ele>
        <time>2014-04-06T14:10:32Z</time>
      </trkpt>
      <trkpt lat="44.8018" lon="-0.31799">
        <ele>98</ele>
        <time>2014-04-06T14:10:37Z</time>
      </trkpt>
      <trkpt lat="44.8018" lon="-0.31803">
        <ele>98</ele>
        <time>2014-04-06T14:10:44Z</time>
      </trkpt>
      <trkpt lat="44.80178" lon="-0.31807">
        <ele>99</ele>
        <time>2014-04-06T14:10:51Z</time>
      </trkpt>
      <trkpt lat="44.80174" lon="-0.31814">
        <ele>100</ele>
        <time>2014-04-06T14:10:59Z</time>
      </trkpt>
      <trkpt lat="44.80174" lon="-0.31818">
        <ele>100</ele>
        <time>2014-04-06T14:11:05Z</time>
      </trkpt>
      <trkpt lat="44.80179" lon="-0.31818">
        <ele>99</ele>
        <time>2014-04-06T14:11:12Z</time>
      </trkpt>
      <trkpt lat="44.80182" lon="-0.31816">
        <ele>99</ele>
        <time>2014-04-06T14:11:16Z</time>
      </trkpt>
      <trkpt lat="44.80186" lon="-0.31813">
        <ele>98</ele>
        <time>2014-04-06T14:11:19Z</time>
      </trkpt>
      <trkpt lat="44.80191" lon="-0.31812">
        <ele>97</ele>
        <time>2014-04-06T14:11:22Z</time>
      </trkpt>
      <trkpt lat="44.80202" lon="-0.31804">
        <ele>95</ele>
        <time>2014-04-06T14:11:28Z</time>
      </trkpt>
      <trkpt lat="44.80205" lon="-0.31802">
        <ele>94</ele>
        <time>2014-04-06T14:11:30Z</time>
      </trkpt>
      <trkpt lat="44.80215" lon="-0.31793">
        <ele>92</ele>
        <time>2014-04-06T14:11:37Z</time>
      </trkpt>
      <trkpt lat="44.80218" lon="-0.31793">
        <ele>91</ele>
        <time>2014-04-06T14:11:51Z</time>
      </trkpt>
      <trkpt lat="44.80217" lon="-0.31793">
        <ele>91</ele>
        <time>2014-04-06T14:12:08Z</time>
      </trkpt>
      <trkpt lat="44.80219" lon="-0.31795">
        <ele>91</ele>
        <time>2014-04-06T14:12:12Z</time>
      </trkpt>
      <trkpt lat="44.80224" lon="-0.31799">
        <ele>90</ele>
        <time>2014-04-06T14:12:18Z</time>
      </trkpt>
      <trkpt lat="44.80224" lon="-0.31802">
        <ele>90</ele>
        <time>2014-04-06T14:12:26Z</time>
      </trkpt>
      <trkpt lat="44.80224" lon="-0.31801">
        <ele>90</ele>
        <time>2014-04-06T14:12:32Z</time>
      </trkpt>
      <trkpt lat="44.80222" lon="-0.31801">
        <ele>91</ele>
        <time>2014-04-06T14:12:40Z</time>
      </trkpt>
      <trkpt lat="44.8022" lon="-0.31803">
        <ele>91</ele>
        <time>2014-04-06T14:12:48Z</time>
      </trkpt>
      <trkpt lat="44.80219" lon="-0.31804">
        <ele>91</ele>
        <time>2014-04-06T14:12:55Z</time>
      </trkpt>
      <trkpt lat="44.8022" lon="-0.3181">
        <ele>92</ele>
        <time>2014-04-06T14:13:03Z</time>
      </trkpt>
      <trkpt lat="44.8022" lon="-0.31816">
        <ele>92</ele>
        <time>2014-04-06T14:13:09Z</time>
      </trkpt>
      <trkpt lat="44.80216" lon="-0.31818">
        <ele>93</ele>
        <time>2014-04-06T14:13:15Z</time>
      </trkpt>
      <trkpt lat="44.80215" lon="-0.31819">
        <ele>93</ele>
        <time>2014-04-06T14:13:23Z</time>
      </trkpt>
      <trkpt lat="44.80214" lon="-0.31821">
        <ele>93</ele>
        <time>2014-04-06T14:13:32Z</time>
      </trkpt>
      <trkpt lat="44.80214" lon="-0.31822">
        <ele>93</ele>
        <time>2014-04-06T14:13:38Z</time>
      </trkpt>
      <trkpt lat="44.80213" lon="-0.31831">
        <ele>93</ele>
        <time>2014-04-06T14:13:45Z</time>
      </trkpt>
      <trkpt lat="44.80216" lon="-0.31834">
        <ele>93</ele>
        <time>2014-04-06T14:13:50Z</time>
      </trkpt>
      <trkpt lat="44.80218" lon="-0.31832">
        <ele>93</ele>
        <time>2014-04-06T14:13:52Z</time>
      </trkpt>
      <trkpt lat="44.8022" lon="-0.31825">
        <ele>92</ele>
        <time>2014-04-06T14:13:58Z</time>
      </trkpt>
      <trkpt lat="44.80219" lon="-0.31823">
        <ele>92</ele>
        <time>2014-04-06T14:14:01Z</time>
      </trkpt>
      <trkpt lat="44.80222" lon="-0.31817">
        <ele>92</ele>
        <time>2014-04-06T14:14:07Z</time>
      </trkpt>
      <trkpt lat="44.80223" lon="-0.31816">
        <ele>91</ele>
        <time>2014-04-06T14:14:14Z</time>
      </trkpt>
      <trkpt lat="44.80225" lon="-0.31814">
        <ele>91</ele>
        <time>2014-04-06T14:14:20Z</time>
      </trkpt>
      <trkpt lat="44.8023" lon="-0.31805">
        <ele>89</ele>
        <time>2014-04-06T14:14:27Z</time>
      </trkpt>
      <trkpt lat="44.80242" lon="-0.31799">
        <ele>88</ele>
        <time>2014-04-06T14:14:35Z</time>
      </trkpt>
      <trkpt lat="44.80245" lon="-0.31798">
        <ele>87</ele>
        <time>2014-04-06T14:14:42Z</time>
      </trkpt>
      <trkpt lat="44.80251" lon="-0.318">
        <ele>87</ele>
        <time>2014-04-06T14:14:48Z</time>
      </trkpt>
      <trkpt lat="44.80252" lon="-0.31796">
        <ele>87</ele>
        <time>2014-04-06T14:14:54Z</time>
      </trkpt>
      <trkpt lat="44.80256" lon="-0.31794">
        <ele>86</ele>
        <time>2014-04-06T14:14:57Z</time>
      </trkpt>
      <trkpt lat="44.80259" lon="-0.31805">
        <ele>86</ele>
        <time>2014-04-06T14:15:04Z</time>
      </trkpt>
      <trkpt lat="44.80263" lon="-0.3181">
        <ele>86</ele>
        <time>2014-04-06T14:15:11Z</time>
      </trkpt>
      <trkpt lat="44.80267" lon="-0.31818">
        <ele>86</ele>
        <time>2014-04-06T14:15:18Z</time>
      </trkpt>
      <trkpt lat="44.80269" lon="-0.31823">
        <ele>86</ele>
        <time>2014-04-06T14:15:21Z</time>
      </trkpt>
      <trkpt lat="44.8027" lon="-0.31841">
        <ele>86</ele>
        <time>2014-04-06T14:15:29Z</time>
      </trkpt>
      <trkpt lat="44.80269" lon="-0.31852">
        <ele>87</ele>
        <time>2014-04-06T14:15:36Z</time>
      </trkpt>
      <trkpt lat="44.80269" lon="-0.31862">
        <ele>87</ele>
        <time>2014-04-06T14:15:44Z</time>
      </trkpt>
      <trkpt lat="44.8027" lon="-0.31866">
        <ele>87</ele>
        <time>2014-04-06T14:15:52Z</time>
      </trkpt>
      <trkpt lat="44.8027" lon="-0.31871">
        <ele>87</ele>
        <time>2014-04-06T14:15:58Z</time>
      </trkpt>
      <trkpt lat="44.80272" lon="-0.31878">
        <ele>87</ele>
        <time>2014-04-06T14:16:02Z</time>
      </trkpt>
      <trkpt lat="44.80277" lon="-0.31884">
        <ele>87</ele>
        <time>2014-04-06T14:16:08Z</time>
      </trkpt>
      <trkpt lat="44.80284" lon="-0.31891">
        <ele>86</ele>
        <time>2014-04-06T14:16:15Z</time>
      </trkpt>
      <trkpt lat="44.80292" lon="-0.31893">
        <ele>85</ele>
        <time>2014-04-06T14:16:22Z</time>
      </trkpt>
      <trkpt lat="44.80302" lon="-0.31901">
        <ele>84</ele>
        <time>2014-04-06T14:16:29Z</time>
      </trkpt>
      <trkpt lat="44.80305" lon="-0.31904">
        <ele>83</ele>
        <time>2014-04-06T14:16:36Z</time>
      </trkpt>
      <trkpt lat="44.80307" lon="-0.31907">
        <ele>83</ele>
        <time>2014-04-06T14:16:44Z</time>
      </trkpt>
      <trkpt lat="44.80312" lon="-0.31906">
        <ele>82</ele>
        <time>2014-04-06T14:16:52Z</time>
      </trkpt>
      <trkpt lat="44.80314" lon="-0.31904">
        <ele>82</ele>
        <time>2014-04-06T14:16:58Z</time>
      </trkpt>
      <trkpt lat="44.80316" lon="-0.31901">
        <ele>81</ele>
        <time>2014-04-06T14:17:10Z</time>
      </trkpt>
      <trkpt lat="44.80315" lon="-0.31898">
        <ele>81</ele>
        <time>2014-04-06T14:17:13Z</time>
      </trkpt>
      <trkpt lat="44.80314" lon="-0.31894">
        <ele>81</ele>
        <time>2014-04-06T14:17:16Z</time>
      </trkpt>
      <trkpt lat="44.80319" lon="-0.31882">
        <ele>80</ele>
        <time>2014-04-06T14:17:23Z</time>
      </trkpt>
      <trkpt lat="44.80324" lon="-0.31875">
        <ele>80</ele>
        <time>2014-04-06T14:17:27Z</time>
      </trkpt>
      <trkpt lat="44.80324" lon="-0.31866">
        <ele>80</ele>
        <time>2014-04-06T14:17:31Z</time>
      </trkpt>
      <trkpt lat="44.80328" lon="-0.31859">
        <ele>79</ele>
        <time>2014-04-06T14:17:34Z</time>
      </trkpt>
      <trkpt lat="44.80347" lon="-0.31847">
        <ele>78</ele>
        <time>2014-04-06T14:17:43Z</time>
      </trkpt>
      <trkpt lat="44.8036" lon="-0.31839">
        <ele>77</ele>
        <time>2014-04-06T14:17:51Z</time>
      </trkpt>
      <trkpt lat="44.80372" lon="-0.31842">
        <ele>76</ele>
        <time>2014-04-06T14:18:00Z</time>
      </trkpt>
      <trkpt lat="44.80378" lon="-0.31843">
        <ele>76</ele>
        <time>2014-04-06T14:18:04Z</time>
      </trkpt>
      <trkpt lat="44.80389" lon="-0.31843">
        <ele>75</ele>
        <time>2014-04-06T14:18:11Z</time>
      </trkpt>
      <trkpt lat="44.80404" lon="-0.31838">
        <ele>74</ele>
        <time>2014-04-06T14:18:18Z</time>
      </trkpt>
      <trkpt lat="44.80406" lon="-0.31838">
        <ele>74</ele>
        <time>2014-04-06T14:18:19Z</time>
      </trkpt>
      <trkpt lat="44.80409" lon="-0.31843">
        <ele>74</ele>
        <time>2014-04-06T14:18:23Z</time>
      </trkpt>
      <trkpt lat="44.8041" lon="-0.31843">
        <ele>74</ele>
        <time>2014-04-06T14:18:29Z</time>
      </trkpt>
      <trkpt lat="44.80409" lon="-0.31844">
        <ele>74</ele>
        <time>2014-04-06T14:18:36Z</time>
      </trkpt>
      <trkpt lat="44.80409" lon="-0.31845">
        <ele>74</ele>
        <time>2014-04-06T14:18:49Z</time>
      </trkpt>
      <trkpt lat="44.80406" lon="-0.31847">
        <ele>75</ele>
        <time>2014-04-06T14:18:55Z</time>
      </trkpt>
      <trkpt lat="44.80404" lon="-0.31847">
        <ele>75</ele>
        <time>2014-04-06T14:19:01Z</time>
      </trkpt>
      <trkpt lat="44.80404" lon="-0.31848">
        <ele>75</ele>
        <time>2014-04-06T14:19:14Z</time>
      </trkpt>
      <trkpt lat="44.80403" lon="-0.31848">
        <ele>75</ele>
        <time>2014-04-06T14:19:27Z</time>
      </trkpt>
      <trkpt lat="44.80403" lon="-0.31849">
        <ele>75</ele>
        <time>2014-04-06T14:19:42Z</time>
      </trkpt>
      <trkpt lat="44.80404" lon="-0.3185">
        <ele>75</ele>
        <time>2014-04-06T14:19:47Z</time>
      </trkpt>
      <trkpt lat="44.80405" lon="-0.3185">
        <ele>75</ele>
        <time>2014-04-06T14:19:53Z</time>
      </trkpt>
      <trkpt lat="44.80405" lon="-0.3185">
        <ele>75</ele>
        <time>2014-04-06T14:20:02Z</time>
      </trkpt>
      <trkpt lat="44.80405" lon="-0.31849">
        <ele>75</ele>
        <time>2014-04-06T14:20:15Z</time>
      </trkpt>
      <trkpt lat="44.80406" lon="-0.31851">
        <ele>75</ele>
        <time>2014-04-06T14:20:21Z</time>
      </trkpt>
      <trkpt lat="44.80406" lon="-0.31863">
        <ele>75</ele>
        <time>2014-04-06T14:20:28Z</time>
      </trkpt>
      <trkpt lat="44.80406" lon="-0.31881">
        <ele>75</ele>
        <time>2014-04-06T14:20:36Z</time>
      </trkpt>
      <trkpt lat="44.80406" lon="-0.31899">
        <ele>75</ele>
        <time>2014-04-06T14:20:45Z</time>
      </trkpt>
      <trkpt lat="44.80408" lon="-0.31915">
        <ele>75</ele>
        <time>2014-04-06T14:20:53Z</time>
      </trkpt>
      <trkpt lat="44.80407" lon="-0.3193">
        <ele>76</ele>
        <time>2014-04-06T14:21:00Z</time>
      </trkpt>
      <trkpt lat="44.80407" lon="-0.31946">
        <ele>76</ele>
        <time>2014-04-06T14:21:08Z</time>
      </trkpt>
      <trkpt lat="44.80408" lon="-0.3196">
        <ele>76</ele>
        <time>2014-04-06T14:21:16Z</time>
      </trkpt>
      <trkpt lat="44.80413" lon="-0.31978">
        <ele>76</ele>
        <time>2014-04-06T14:21:24Z</time>
      </trkpt>
      <trkpt lat="44.80415" lon="-0.31984">
        <ele>77</ele>
        <time>2014-04-06T14:21:27Z</time>
      </trkpt>
      <trkpt lat="44.80414" lon="-0.31994">
        <ele>77</ele>
        <time>2014-04-06T14:21:33Z</time>
      </trkpt>
      <trkpt lat="44.80409" lon="-0.31998">
        <ele>77</ele>
        <time>2014-04-06T14:21:37Z</time>
      </trkpt>
      <trkpt lat="44.80403" lon="-0.32003">
        <ele>78</ele>
        <time>2014-04-06T14:21:42Z</time>
      </trkpt>
      <trkpt lat="44.80398" lon="-0.32006">
        <ele>78</ele>
        <time>2014-04-06T14:21:46Z</time>
      </trkpt>
      <trkpt lat="44.80386" lon="-0.32013">
        <ele>80</ele>
        <time>2014-04-06T14:21:55Z</time>
      </trkpt>
      <trkpt lat="44.80381" lon="-0.32015">
        <ele>80</ele>
        <time>2014-04-06T14:22:00Z</time>
      </trkpt>
      <trkpt lat="44.8038" lon="-0.32015">
        <ele>80</ele>
        <time>2014-04-06T14:22:01Z</time>
      </trkpt>
      <trkpt lat="44.8037" lon="-0.32021">
        <ele>82</ele>
        <time>2014-04-06T14:22:10Z</time>
      </trkpt>
      <trkpt lat="44.80362" lon="-0.32024">
        <ele>83</ele>
        <time>2014-04-06T14:22:17Z</time>
      </trkpt>
      <trkpt lat="44.80356" lon="-0.32025">
        <ele>83</ele>
        <time>2014-04-06T14:22:24Z</time>
      </trkpt>
      <trkpt lat="44.80351" lon="-0.32028">
        <ele>84</ele>
        <time>2014-04-06T14:22:31Z</time>
      </trkpt>
      <trkpt lat="44.80346" lon="-0.32029">
        <ele>85</ele>
        <time>2014-04-06T14:22:37Z</time>
      </trkpt>
      <trkpt lat="44.80344" lon="-0.32029">
        <ele>85</ele>
        <time>2014-04-06T14:22:43Z</time>
      </trkpt>
      <trkpt lat="44.80341" lon="-0.3203">
        <ele>85</ele>
        <time>2014-04-06T14:22:51Z</time>
      </trkpt>
      <trkpt lat="44.80336" lon="-0.32032">
        <ele>86</ele>
        <time>2014-04-06T14:22:58Z</time>
      </trkpt>
      <trkpt lat="44.80332" lon="-0.32034">
        <ele>87</ele>
        <time>2014-04-06T14:23:06Z</time>
      </trkpt>
      <trkpt lat="44.80326" lon="-0.32037">
        <ele>88</ele>
        <time>2014-04-06T14:23:15Z</time>
      </trkpt>
      <trkpt lat="44.80321" lon="-0.3204">
        <ele>88</ele>
        <time>2014-04-06T14:23:21Z</time>
      </trkpt>
      <trkpt lat="44.80319" lon="-0.32042">
        <ele>89</ele>
        <time>2014-04-06T14:23:25Z</time>
      </trkpt>
      <trkpt lat="44.80318" lon="-0.32047">
        <ele>89</ele>
        <time>2014-04-06T14:23:32Z</time>
      </trkpt>
      <trkpt lat="44.8032" lon="-0.32051">
        <ele>89</ele>
        <time>2014-04-06T14:23:38Z</time>
      </trkpt>
      <trkpt lat="44.80323" lon="-0.32052">
        <ele>89</ele>
        <time>2014-04-06T14:23:45Z</time>
      </trkpt>
      <trkpt lat="44.80335" lon="-0.32054">
        <ele>88</ele>
        <time>2014-04-06T14:23:52Z</time>
      </trkpt>
      <trkpt lat="44.80338" lon="-0.32059">
        <ele>88</ele>
        <time>2014-04-06T14:23:55Z</time>
      </trkpt>
      <trkpt lat="44.80346" lon="-0.32078">
        <ele>89</ele>
        <time>2014-04-06T14:24:04Z</time>
      </trkpt>
      <trkpt lat="44.80347" lon="-0.3208">
        <ele>89</ele>
        <time>2014-04-06T14:24:05Z</time>
      </trkpt>
      <trkpt lat="44.80356" lon="-0.32103">
        <ele>90</ele>
        <time>2014-04-06T14:24:15Z</time>
      </trkpt>
      <trkpt lat="44.80352" lon="-0.32116">
        <ele>92</ele>
        <time>2014-04-06T14:24:21Z</time>
      </trkpt>
      <trkpt lat="44.80341" lon="-0.32123">
        <ele>94</ele>
        <time>2014-04-06T14:24:29Z</time>
      </trkpt>
      <trkpt lat="44.80339" lon="-0.32124">
        <ele>94</ele>
        <time>2014-04-06T14:24:30Z</time>
      </trkpt>
      <trkpt lat="44.80335" lon="-0.32128">
        <ele>95</ele>
        <time>2014-04-06T14:24:37Z</time>
      </trkpt>
      <trkpt lat="44.80335" lon="-0.3213">
        <ele>95</ele>
        <time>2014-04-06T14:24:43Z</time>
      </trkpt>
      <trkpt lat="44.80335" lon="-0.32134">
        <ele>95</ele>
        <time>2014-04-06T14:24:49Z</time>
      </trkpt>
      <trkpt lat="44.80335" lon="-0.32138">
        <ele>96</ele>
        <time>2014-04-06T14:24:55Z</time>
      </trkpt>
      <trkpt lat="44.80327" lon="-0.32148">
        <ele>97</ele>
        <time>2014-04-06T14:25:02Z</time>
      </trkpt>
      <trkpt lat="44.80318" lon="-0.32156">
        <ele>99</ele>
        <time>2014-04-06T14:25:10Z</time>
      </trkpt>
      <trkpt lat="44.8032" lon="-0.32168">
        <ele>99</ele>
        <time>2014-04-06T14:25:16Z</time>
      </trkpt>
      <trkpt lat="44.80323" lon="-0.32175">
        <ele>99</ele>
        <time>2014-04-06T14:25:20Z</time>
      </trkpt>
      <trkpt lat="44.80331" lon="-0.32194">
        <ele>100</ele>
        <time>2014-04-06T14:25:28Z</time>
      </trkpt>
      <trkpt lat="44.80339" lon="-0.32214">
        <ele>101</ele>
        <time>2014-04-06T14:25:36Z</time>
      </trkpt>
      <trkpt lat="44.80344" lon="-0.3223">
        <ele>101</ele>
        <time>2014-04-06T14:25:43Z</time>
      </trkpt>
      <trkpt lat="44.80337" lon="-0.32243">
        <ele>101</ele>
        <time>2014-04-06T14:25:49Z</time>
      </trkpt>
      <trkpt lat="44.80333" lon="-0.32245">
        <ele>101</ele>
        <time>2014-04-06T14:25:51Z</time>
      </trkpt>
      <trkpt lat="44.80317" lon="-0.32258">
        <ele>100</ele>
        <time>2014-04-06T14:25:59Z</time>
      </trkpt>
      <trkpt lat="44.803" lon="-0.32273">
        <ele>98</ele>
        <time>2014-04-06T14:26:05Z</time>
      </trkpt>
      <trkpt lat="44.80297" lon="-0.32285">
        <ele>97</ele>
        <time>2014-04-06T14:26:10Z</time>
      </trkpt>
      <trkpt lat="44.80296" lon="-0.32286">
        <ele>97</ele>
        <time>2014-04-06T14:26:15Z</time>
      </trkpt>
      <trkpt lat="44.80295" lon="-0.32286">
        <ele>97</ele>
        <time>2014-04-06T14:26:21Z</time>
      </trkpt>
      <trkpt lat="44.80295" lon="-0.32286">
        <ele>97</ele>
        <time>2014-04-06T14:26:30Z</time>
      </trkpt>
      <trkpt lat="44.80291" lon="-0.32287">
        <ele>96</ele>
        <time>2014-04-06T14:26:40Z</time>
      </trkpt>
      <trkpt lat="44.8029" lon="-0.32287">
        <ele>96</ele>
        <time>2014-04-06T14:26:47Z</time>
      </trkpt>
      <trkpt lat="44.8029" lon="-0.32286">
        <ele>96</ele>
        <time>2014-04-06T14:26:56Z</time>
      </trkpt>
      <trkpt lat="44.8029" lon="-0.32287">
        <ele>96</ele>
        <time>2014-04-06T14:26:58Z</time>
      </trkpt>
      <trkpt lat="44.80284" lon="-0.32276">
        <ele>96</ele>
        <time>2014-04-06T14:27:04Z</time>
      </trkpt>
      <trkpt lat="44.80271" lon="-0.32255">
        <ele>96</ele>
        <time>2014-04-06T14:27:11Z</time>
      </trkpt>
      <trkpt lat="44.80255" lon="-0.32226">
        <ele>97</ele>
        <time>2014-04-06T14:27:20Z</time>
      </trkpt>
      <trkpt lat="44.80231" lon="-0.32209">
        <ele>96</ele>
        <time>2014-04-06T14:27:28Z</time>
      </trkpt>
      <trkpt lat="44.80213" lon="-0.32193">
        <ele>97</ele>
        <time>2014-04-06T14:27:34Z</time>
      </trkpt>
      <trkpt lat="44.80196" lon="-0.32187">
        <ele>97</ele>
        <time>2014-04-06T14:27:39Z</time>
      </trkpt>
      <trkpt lat="44.80193" lon="-0.32186">
        <ele>97</ele>
        <time>2014-04-06T14:27:40Z</time>
      </trkpt>
      <trkpt lat="44.80169" lon="-0.32196">
        <ele>96</ele>
        <time>2014-04-06T14:27:46Z</time>
      </trkpt>
      <trkpt lat="44.80163" lon="-0.322">
        <ele>96</ele>
        <time>2014-04-06T14:27:47Z</time>
      </trkpt>
      <trkpt lat="44.80136" lon="-0.32223">
        <ele>95</ele>
        <time>2014-04-06T14:27:54Z</time>
      </trkpt>
      <trkpt lat="44.80125" lon="-0.32241">
        <ele>94</ele>
        <time>2014-04-06T14:27:58Z</time>
      </trkpt>
      <trkpt lat="44.80103" lon="-0.32267">
        <ele>92</ele>
        <time>2014-04-06T14:28:05Z</time>
      </trkpt>
      <trkpt lat="44.80092" lon="-0.32284">
        <ele>92</ele>
        <time>2014-04-06T14:28:11Z</time>
      </trkpt>
      <trkpt lat="44.80084" lon="-0.32296">
        <ele>91</ele>
        <time>2014-04-06T14:28:15Z</time>
      </trkpt>
      <trkpt lat="44.80082" lon="-0.32299">
        <ele>91</ele>
        <time>2014-04-06T14:28:16Z</time>
      </trkpt>
      <trkpt lat="44.80066" lon="-0.32322">
        <ele>90</ele>
        <time>2014-04-06T14:28:22Z</time>
      </trkpt>
      <trkpt lat="44.80051" lon="-0.32343">
        <ele>89</ele>
        <time>2014-04-06T14:28:27Z</time>
      </trkpt>
      <trkpt lat="44.80035" lon="-0.32372">
        <ele>88</ele>
        <time>2014-04-06T14:28:33Z</time>
      </trkpt>
      <trkpt lat="44.80008" lon="-0.32405">
        <ele>88</ele>
        <time>2014-04-06T14:28:40Z</time>
      </trkpt>
      <trkpt lat="44.79994" lon="-0.32422">
        <ele>89</ele>
        <time>2014-04-06T14:28:45Z</time>
      </trkpt>
      <trkpt lat="44.79983" lon="-0.3245">
        <ele>88</ele>
        <time>2014-04-06T14:28:51Z</time>
      </trkpt>
      <trkpt lat="44.79974" lon="-0.32467">
        <ele>88</ele>
        <time>2014-04-06T14:28:54Z</time>
      </trkpt>
      <trkpt lat="44.79964" lon="-0.32513">
        <ele>86</ele>
        <time>2014-04-06T14:29:00Z</time>
      </trkpt>
      <trkpt lat="44.79951" lon="-0.32552">
        <ele>84</ele>
        <time>2014-04-06T14:29:06Z</time>
      </trkpt>
      <trkpt lat="44.79942" lon="-0.32566">
        <ele>83</ele>
        <time>2014-04-06T14:29:09Z</time>
      </trkpt>
      <trkpt lat="44.79931" lon="-0.32581">
        <ele>82</ele>
        <time>2014-04-06T14:29:13Z</time>
      </trkpt>
      <trkpt lat="44.7991" lon="-0.32601">
        <ele>82</ele>
        <time>2014-04-06T14:29:17Z</time>
      </trkpt>
      <trkpt lat="44.79902" lon="-0.32607">
        <ele>82</ele>
        <time>2014-04-06T14:29:19Z</time>
      </trkpt>
      <trkpt lat="44.79877" lon="-0.32619">
        <ele>83</ele>
        <time>2014-04-06T14:29:25Z</time>
      </trkpt>
      <trkpt lat="44.7987" lon="-0.32622">
        <ele>83</ele>
        <time>2014-04-06T14:29:27Z</time>
      </trkpt>
      <trkpt lat="44.79848" lon="-0.32637">
        <ele>84</ele>
        <time>2014-04-06T14:29:33Z</time>
      </trkpt>
      <trkpt lat="44.7984" lon="-0.32645">
        <ele>84</ele>
        <time>2014-04-06T14:29:35Z</time>
      </trkpt>
      <trkpt lat="44.79815" lon="-0.32677">
        <ele>85</ele>
        <time>2014-04-06T14:29:43Z</time>
      </trkpt>
      <trkpt lat="44.79799" lon="-0.32698">
        <ele>84</ele>
        <time>2014-04-06T14:29:48Z</time>
      </trkpt>
      <trkpt lat="44.79782" lon="-0.32726">
        <ele>82</ele>
        <time>2014-04-06T14:29:53Z</time>
      </trkpt>
      <trkpt lat="44.79779" lon="-0.32732">
        <ele>81</ele>
        <time>2014-04-06T14:29:54Z</time>
      </trkpt>
      <trkpt lat="44.79775" lon="-0.32738">
        <ele>81</ele>
        <time>2014-04-06T14:29:55Z</time>
      </trkpt>
      <trkpt lat="44.79772" lon="-0.32745">
        <ele>80</ele>
        <time>2014-04-06T14:29:56Z</time>
      </trkpt>
      <trkpt lat="44.79769" lon="-0.32751">
        <ele>79</ele>
        <time>2014-04-06T14:29:57Z</time>
      </trkpt>
      <trkpt lat="44.79751" lon="-0.32785">
        <ele>77</ele>
        <time>2014-04-06T14:30:04Z</time>
      </trkpt>
      <trkpt lat="44.79741" lon="-0.32805">
        <ele>75</ele>
        <time>2014-04-06T14:30:09Z</time>
      </trkpt>
      <trkpt lat="44.79734" lon="-0.32819">
        <ele>74</ele>
        <time>2014-04-06T14:30:12Z</time>
      </trkpt>
      <trkpt lat="44.79733" lon="-0.32823">
        <ele>73</ele>
        <time>2014-04-06T14:30:13Z</time>
      </trkpt>
      <trkpt lat="44.79732" lon="-0.32827">
        <ele>73</ele>
        <time>2014-04-06T14:30:14Z</time>
      </trkpt>
      <trkpt lat="44.79732" lon="-0.32832">
        <ele>72</ele>
        <time>2014-04-06T14:30:15Z</time>
      </trkpt>
      <trkpt lat="44.79733" lon="-0.32837">
        <ele>72</ele>
        <time>2014-04-06T14:30:16Z</time>
      </trkpt>
      <trkpt lat="44.79734" lon="-0.32843">
        <ele>71</ele>
        <time>2014-04-06T14:30:17Z</time>
      </trkpt>
      <trkpt lat="44.79735" lon="-0.32849">
        <ele>71</ele>
        <time>2014-04-06T14:30:18Z</time>
      </trkpt>
      <trkpt lat="44.79734" lon="-0.32856">
        <ele>70</ele>
        <time>2014-04-06T14:30:19Z</time>
      </trkpt>
      <trkpt lat="44.79732" lon="-0.32888">
        <ele>68</ele>
        <time>2014-04-06T14:30:25Z</time>
      </trkpt>
      <trkpt lat="44.79729" lon="-0.32922">
        <ele>65</ele>
        <time>2014-04-06T14:30:32Z</time>
      </trkpt>
      <trkpt lat="44.79728" lon="-0.32934">
        <ele>64</ele>
        <time>2014-04-06T14:30:34Z</time>
      </trkpt>
      <trkpt lat="44.79725" lon="-0.32963">
        <ele>62</ele>
        <time>2014-04-06T14:30:39Z</time>
      </trkpt>
      <trkpt lat="44.79722" lon="-0.32977">
        <ele>61</ele>
        <time>2014-04-06T14:30:41Z</time>
      </trkpt>
      <trkpt lat="44.79721" lon="-0.32985">
        <ele>60</ele>
        <time>2014-04-06T14:30:42Z</time>
      </trkpt>
      <trkpt lat="44.7972" lon="-0.32993">
        <ele>59</ele>
        <time>2014-04-06T14:30:43Z</time>
      </trkpt>
      <trkpt lat="44.79719" lon="-0.32999">
        <ele>59</ele>
        <time>2014-04-06T14:30:44Z</time>
      </trkpt>
      <trkpt lat="44.79717" lon="-0.33006">
        <ele>58</ele>
        <time>2014-04-06T14:30:45Z</time>
      </trkpt>
      <trkpt lat="44.79716" lon="-0.33013">
        <ele>58</ele>
        <time>2014-04-06T14:30:46Z</time>
      </trkpt>
      <trkpt lat="44.79715" lon="-0.3302">
        <ele>58</ele>
        <time>2014-04-06T14:30:47Z</time>
      </trkpt>
      <trkpt lat="44.79714" lon="-0.33026">
        <ele>57</ele>
        <time>2014-04-06T14:30:48Z</time>
      </trkpt>
      <trkpt lat="44.79713" lon="-0.33033">
        <ele>57</ele>
        <time>2014-04-06T14:30:49Z</time>
      </trkpt>
      <trkpt lat="44.79712" lon="-0.33039">
        <ele>56</ele>
        <time>2014-04-06T14:30:50Z</time>
      </trkpt>
      <trkpt lat="44.79715" lon="-0.33061">
        <ele>55</ele>
        <time>2014-04-06T14:30:55Z</time>
      </trkpt>
      <trkpt lat="44.79724" lon="-0.33091">
        <ele>54</ele>
        <time>2014-04-06T14:31:02Z</time>
      </trkpt>
      <trkpt lat="44.79726" lon="-0.33098">
        <ele>53</ele>
        <time>2014-04-06T14:31:03Z</time>
      </trkpt>
      <trkpt lat="44.79732" lon="-0.33122">
        <ele>52</ele>
        <time>2014-04-06T14:31:08Z</time>
      </trkpt>
      <trkpt lat="44.79731" lon="-0.33129">
        <ele>52</ele>
        <time>2014-04-06T14:31:12Z</time>
      </trkpt>
      <trkpt lat="44.7973" lon="-0.33131">
        <ele>52</ele>
        <time>2014-04-06T14:31:13Z</time>
      </trkpt>
      <trkpt lat="44.7973" lon="-0.33133">
        <ele>52</ele>
        <time>2014-04-06T14:31:14Z</time>
      </trkpt>
      <trkpt lat="44.79731" lon="-0.33138">
        <ele>52</ele>
        <time>2014-04-06T14:31:17Z</time>
      </trkpt>
      <trkpt lat="44.79737" lon="-0.33143">
        <ele>52</ele>
        <time>2014-04-06T14:31:22Z</time>
      </trkpt>
      <trkpt lat="44.7974" lon="-0.33152">
        <ele>53</ele>
        <time>2014-04-06T14:31:29Z</time>
      </trkpt>
      <trkpt lat="44.79742" lon="-0.33159">
        <ele>53</ele>
        <time>2014-04-06T14:31:38Z</time>
      </trkpt>
      <trkpt lat="44.79746" lon="-0.33167">
        <ele>53</ele>
        <time>2014-04-06T14:31:45Z</time>
      </trkpt>
      <trkpt lat="44.79751" lon="-0.33176">
        <ele>54</ele>
        <time>2014-04-06T14:31:51Z</time>
      </trkpt>
      <trkpt lat="44.79763" lon="-0.33195">
        <ele>55</ele>
        <time>2014-04-06T14:31:58Z</time>
      </trkpt>
      <trkpt lat="44.79772" lon="-0.33212">
        <ele>57</ele>
        <time>2014-04-06T14:32:05Z</time>
      </trkpt>
      <trkpt lat="44.79775" lon="-0.33219">
        <ele>58</ele>
        <time>2014-04-06T14:32:08Z</time>
      </trkpt>
      <trkpt lat="44.79778" lon="-0.33221">
        <ele>58</ele>
        <time>2014-04-06T14:32:09Z</time>
      </trkpt>
      <trkpt lat="44.7979" lon="-0.33238">
        <ele>60</ele>
        <time>2014-04-06T14:32:16Z</time>
      </trkpt>
      <trkpt lat="44.79796" lon="-0.33249">
        <ele>61</ele>
        <time>2014-04-06T14:32:23Z</time>
      </trkpt>
      <trkpt lat="44.79795" lon="-0.33251">
        <ele>61</ele>
        <time>2014-04-06T14:32:30Z</time>
      </trkpt>
      <trkpt lat="44.79796" lon="-0.3325">
        <ele>61</ele>
        <time>2014-04-06T14:32:40Z</time>
      </trkpt>
      <trkpt lat="44.79797" lon="-0.33249">
        <ele>61</ele>
        <time>2014-04-06T14:32:46Z</time>
      </trkpt>
      <trkpt lat="44.79797" lon="-0.33249">
        <ele>61</ele>
        <time>2014-04-06T14:33:01Z</time>
      </trkpt>
      <trkpt lat="44.79798" lon="-0.33249">
        <ele>61</ele>
        <time>2014-04-06T14:33:16Z</time>
      </trkpt>
      <trkpt lat="44.79798" lon="-0.33248">
        <ele>61</ele>
        <time>2014-04-06T14:33:30Z</time>
      </trkpt>
      <trkpt lat="44.79798" lon="-0.33248">
        <ele>61</ele>
        <time>2014-04-06T14:33:44Z</time>
      </trkpt>
      <trkpt lat="44.79798" lon="-0.33248">
        <ele>61</ele>
        <time>2014-04-06T14:34:00Z</time>
      </trkpt>
      <trkpt lat="44.79798" lon="-0.33248">
        <ele>61</ele>
        <time>2014-04-06T14:34:14Z</time>
      </trkpt>
      <trkpt lat="44.798" lon="-0.33249">
        <ele>61</ele>
        <time>2014-04-06T14:34:15Z</time>
      </trkpt>
      <trkpt lat="44.79801" lon="-0.33251">
        <ele>61</ele>
        <time>2014-04-06T14:34:16Z</time>
      </trkpt>
      <trkpt lat="44.79803" lon="-0.33253">
        <ele>61</ele>
        <time>2014-04-06T14:34:19Z</time>
      </trkpt>
      <trkpt lat="44.79805" lon="-0.33255">
        <ele>61</ele>
        <time>2014-04-06T14:34:20Z</time>
      </trkpt>
      <trkpt lat="44.79807" lon="-0.33257">
        <ele>61</ele>
        <time>2014-04-06T14:34:21Z</time>
      </trkpt>
      <trkpt lat="44.79808" lon="-0.3326">
        <ele>61</ele>
        <time>2014-04-06T14:34:22Z</time>
      </trkpt>
      <trkpt lat="44.7981" lon="-0.33263">
        <ele>61</ele>
        <time>2014-04-06T14:34:23Z</time>
      </trkpt>
      <trkpt lat="44.79812" lon="-0.33265">
        <ele>61</ele>
        <time>2014-04-06T14:34:24Z</time>
      </trkpt>
      <trkpt lat="44.79814" lon="-0.33268">
        <ele>60</ele>
        <time>2014-04-06T14:34:25Z</time>
      </trkpt>
      <trkpt lat="44.79816" lon="-0.3327">
        <ele>60</ele>
        <time>2014-04-06T14:34:26Z</time>
      </trkpt>
      <trkpt lat="44.7983" lon="-0.33292">
        <ele>60</ele>
        <time>2014-04-06T14:34:32Z</time>
      </trkpt>
      <trkpt lat="44.79856" lon="-0.33328">
        <ele>60</ele>
        <time>2014-04-06T14:34:40Z</time>
      </trkpt>
      <trkpt lat="44.7988" lon="-0.33359">
        <ele>61</ele>
        <time>2014-04-06T14:34:48Z</time>
      </trkpt>
      <trkpt lat="44.79903" lon="-0.33387">
        <ele>62</ele>
        <time>2014-04-06T14:34:56Z</time>
      </trkpt>
      <trkpt lat="44.79925" lon="-0.33414">
        <ele>62</ele>
        <time>2014-04-06T14:35:03Z</time>
      </trkpt>
      <trkpt lat="44.7994" lon="-0.33435">
        <ele>62</ele>
        <time>2014-04-06T14:35:09Z</time>
      </trkpt>
      <trkpt lat="44.79962" lon="-0.33461">
        <ele>62</ele>
        <time>2014-04-06T14:35:16Z</time>
      </trkpt>
      <trkpt lat="44.79983" lon="-0.33486">
        <ele>62</ele>
        <time>2014-04-06T14:35:23Z</time>
      </trkpt>
      <trkpt lat="44.80002" lon="-0.33512">
        <ele>62</ele>
        <time>2014-04-06T14:35:30Z</time>
      </trkpt>
      <trkpt lat="44.80019" lon="-0.33536">
        <ele>62</ele>
        <time>2014-04-06T14:35:37Z</time>
      </trkpt>
      <trkpt lat="44.80028" lon="-0.3355">
        <ele>61</ele>
        <time>2014-04-06T14:35:43Z</time>
      </trkpt>
      <trkpt lat="44.80043" lon="-0.33568">
        <ele>61</ele>
        <time>2014-04-06T14:35:49Z</time>
      </trkpt>
      <trkpt lat="44.80045" lon="-0.3357">
        <ele>61</ele>
        <time>2014-04-06T14:35:50Z</time>
      </trkpt>
      <trkpt lat="44.8006" lon="-0.33559">
        <ele>62</ele>
        <time>2014-04-06T14:35:56Z</time>
      </trkpt>
      <trkpt lat="44.80074" lon="-0.33533">
        <ele>64</ele>
        <time>2014-04-06T14:36:05Z</time>
      </trkpt>
      <trkpt lat="44.80084" lon="-0.33519">
        <ele>65</ele>
        <time>2014-04-06T14:36:12Z</time>
      </trkpt>
      <trkpt lat="44.80086" lon="-0.33512">
        <ele>66</ele>
        <time>2014-04-06T14:36:15Z</time>
      </trkpt>
      <trkpt lat="44.80089" lon="-0.33507">
        <ele>66</ele>
        <time>2014-04-06T14:36:18Z</time>
      </trkpt>
      <trkpt lat="44.80094" lon="-0.33493">
        <ele>67</ele>
        <time>2014-04-06T14:36:25Z</time>
      </trkpt>
      <trkpt lat="44.80096" lon="-0.33491">
        <ele>67</ele>
        <time>2014-04-06T14:36:26Z</time>
      </trkpt>
      <trkpt lat="44.80103" lon="-0.33487">
        <ele>67</ele>
        <time>2014-04-06T14:36:31Z</time>
      </trkpt>
      <trkpt lat="44.80114" lon="-0.33493">
        <ele>67</ele>
        <time>2014-04-06T14:36:36Z</time>
      </trkpt>
      <trkpt lat="44.80125" lon="-0.33504">
        <ele>66</ele>
        <time>2014-04-06T14:36:42Z</time>
      </trkpt>
      <trkpt lat="44.80136" lon="-0.33515">
        <ele>65</ele>
        <time>2014-04-06T14:36:47Z</time>
      </trkpt>
      <trkpt lat="44.80149" lon="-0.33528">
        <ele>64</ele>
        <time>2014-04-06T14:36:53Z</time>
      </trkpt>
      <trkpt lat="44.8015" lon="-0.3353">
        <ele>64</ele>
        <time>2014-04-06T14:36:54Z</time>
      </trkpt>
      <trkpt lat="44.80163" lon="-0.33541">
        <ele>65</ele>
        <time>2014-04-06T14:37:00Z</time>
      </trkpt>
      <trkpt lat="44.80165" lon="-0.33544">
        <ele>65</ele>
        <time>2014-04-06T14:37:01Z</time>
      </trkpt>
      <trkpt lat="44.80169" lon="-0.33549">
        <ele>65</ele>
        <time>2014-04-06T14:37:03Z</time>
      </trkpt>
      <trkpt lat="44.8018" lon="-0.33555">
        <ele>65</ele>
        <time>2014-04-06T14:37:08Z</time>
      </trkpt>
      <trkpt lat="44.80188" lon="-0.33566">
        <ele>65</ele>
        <time>2014-04-06T14:37:12Z</time>
      </trkpt>
      <trkpt lat="44.80199" lon="-0.33568">
        <ele>66</ele>
        <time>2014-04-06T14:37:17Z</time>
      </trkpt>
      <trkpt lat="44.80216" lon="-0.3357">
        <ele>67</ele>
        <time>2014-04-06T14:37:23Z</time>
      </trkpt>
      <trkpt lat="44.80231" lon="-0.33571">
        <ele>69</ele>
        <time>2014-04-06T14:37:31Z</time>
      </trkpt>
      <trkpt lat="44.80244" lon="-0.33571">
        <ele>70</ele>
        <time>2014-04-06T14:37:39Z</time>
      </trkpt>
      <trkpt lat="44.80256" lon="-0.33575">
        <ele>71</ele>
        <time>2014-04-06T14:37:48Z</time>
      </trkpt>
      <trkpt lat="44.80268" lon="-0.33582">
        <ele>72</ele>
        <time>2014-04-06T14:37:56Z</time>
      </trkpt>
      <trkpt lat="44.80272" lon="-0.33585">
        <ele>72</ele>
        <time>2014-04-06T14:37:59Z</time>
      </trkpt>
      <trkpt lat="44.80277" lon="-0.33585">
        <ele>72</ele>
        <time>2014-04-06T14:38:06Z</time>
      </trkpt>
      <trkpt lat="44.80271" lon="-0.33583">
        <ele>72</ele>
        <time>2014-04-06T14:38:13Z</time>
      </trkpt>
      <trkpt lat="44.80268" lon="-0.3357">
        <ele>73</ele>
        <time>2014-04-06T14:38:19Z</time>
      </trkpt>
      <trkpt lat="44.80272" lon="-0.33563">
        <ele>73</ele>
        <time>2014-04-06T14:38:25Z</time>
      </trkpt>
      <trkpt lat="44.80273" lon="-0.33562">
        <ele>74</ele>
        <time>2014-04-06T14:38:26Z</time>
      </trkpt>
      <trkpt lat="44.80276" lon="-0.33569">
        <ele>74</ele>
        <time>2014-04-06T14:38:30Z</time>
      </trkpt>
      <trkpt lat="44.80275" lon="-0.33584">
        <ele>72</ele>
        <time>2014-04-06T14:38:38Z</time>
      </trkpt>
      <trkpt lat="44.80268" lon="-0.33577">
        <ele>72</ele>
        <time>2014-04-06T14:38:46Z</time>
      </trkpt>
      <trkpt lat="44.80271" lon="-0.33566">
        <ele>73</ele>
        <time>2014-04-06T14:38:54Z</time>
      </trkpt>
      <trkpt lat="44.80271" lon="-0.33565">
        <ele>73</ele>
        <time>2014-04-06T14:38:55Z</time>
      </trkpt>
      <trkpt lat="44.80273" lon="-0.33565">
        <ele>73</ele>
        <time>2014-04-06T14:38:57Z</time>
      </trkpt>
      <trkpt lat="44.80275" lon="-0.33566">
        <ele>74</ele>
        <time>2014-04-06T14:38:59Z</time>
      </trkpt>
      <trkpt lat="44.80275" lon="-0.33577">
        <ele>73</ele>
        <time>2014-04-06T14:39:05Z</time>
      </trkpt>
      <trkpt lat="44.80273" lon="-0.33579">
        <ele>72</ele>
        <time>2014-04-06T14:39:07Z</time>
      </trkpt>
      <trkpt lat="44.80269" lon="-0.33574">
        <ele>72</ele>
        <time>2014-04-06T14:39:13Z</time>
      </trkpt>
      <trkpt lat="44.80272" lon="-0.33567">
        <ele>73</ele>
        <time>2014-04-06T14:39:19Z</time>
      </trkpt>
      <trkpt lat="44.80273" lon="-0.33579">
        <ele>72</ele>
        <time>2014-04-06T14:39:25Z</time>
      </trkpt>
      <trkpt lat="44.8027" lon="-0.33578">
        <ele>72</ele>
        <time>2014-04-06T14:39:28Z</time>
      </trkpt>
      <trkpt lat="44.80268" lon="-0.33575">
        <ele>72</ele>
        <time>2014-04-06T14:39:30Z</time>
      </trkpt>
      <trkpt lat="44.80272" lon="-0.33569">
        <ele>73</ele>
        <time>2014-04-06T14:39:36Z</time>
      </trkpt>
      <trkpt lat="44.80273" lon="-0.33576">
        <ele>73</ele>
        <time>2014-04-06T14:39:40Z</time>
      </trkpt>
      <trkpt lat="44.80279" lon="-0.33591">
        <ele>72</ele>
        <time>2014-04-06T14:39:49Z</time>
      </trkpt>
      <trkpt lat="44.80282" lon="-0.33603">
        <ele>72</ele>
        <time>2014-04-06T14:39:57Z</time>
      </trkpt>
      <trkpt lat="44.80287" lon="-0.33611">
        <ele>72</ele>
        <time>2014-04-06T14:40:06Z</time>
      </trkpt>
      <trkpt lat="44.80289" lon="-0.33614">
        <ele>72</ele>
        <time>2014-04-06T14:40:10Z</time>
      </trkpt>
      <trkpt lat="44.80298" lon="-0.33627">
        <ele>72</ele>
        <time>2014-04-06T14:40:20Z</time>
      </trkpt>
      <trkpt lat="44.803" lon="-0.3363">
        <ele>72</ele>
        <time>2014-04-06T14:40:22Z</time>
      </trkpt>
      <trkpt lat="44.80315" lon="-0.33651">
        <ele>72</ele>
        <time>2014-04-06T14:40:31Z</time>
      </trkpt>
      <trkpt lat="44.8033" lon="-0.33679">
        <ele>71</ele>
        <time>2014-04-06T14:40:38Z</time>
      </trkpt>
      <trkpt lat="44.80344" lon="-0.33711">
        <ele>70</ele>
        <time>2014-04-06T14:40:45Z</time>
      </trkpt>
      <trkpt lat="44.80351" lon="-0.33733">
        <ele>70</ele>
        <time>2014-04-06T14:40:49Z</time>
      </trkpt>
      <trkpt lat="44.80352" lon="-0.33739">
        <ele>70</ele>
        <time>2014-04-06T14:40:50Z</time>
      </trkpt>
      <trkpt lat="44.80351" lon="-0.33747">
        <ele>70</ele>
        <time>2014-04-06T14:40:51Z</time>
      </trkpt>
      <trkpt lat="44.80347" lon="-0.33755">
        <ele>69</ele>
        <time>2014-04-06T14:40:52Z</time>
      </trkpt>
      <trkpt lat="44.80342" lon="-0.33764">
        <ele>69</ele>
        <time>2014-04-06T14:40:53Z</time>
      </trkpt>
      <trkpt lat="44.80316" lon="-0.33817">
        <ele>64</ele>
        <time>2014-04-06T14:40:58Z</time>
      </trkpt>
      <trkpt lat="44.80293" lon="-0.33859">
        <ele>61</ele>
        <time>2014-04-06T14:41:03Z</time>
      </trkpt>
      <trkpt lat="44.80292" lon="-0.33863">
        <ele>61</ele>
        <time>2014-04-06T14:41:04Z</time>
      </trkpt>
      <trkpt lat="44.80293" lon="-0.33867">
        <ele>60</ele>
        <time>2014-04-06T14:41:05Z</time>
      </trkpt>
      <trkpt lat="44.80296" lon="-0.33869">
        <ele>60</ele>
        <time>2014-04-06T14:41:06Z</time>
      </trkpt>
      <trkpt lat="44.80299" lon="-0.33872">
        <ele>60</ele>
        <time>2014-04-06T14:41:07Z</time>
      </trkpt>
      <trkpt lat="44.80303" lon="-0.33874">
        <ele>60</ele>
        <time>2014-04-06T14:41:08Z</time>
      </trkpt>
      <trkpt lat="44.80316" lon="-0.33883">
        <ele>59</ele>
        <time>2014-04-06T14:41:11Z</time>
      </trkpt>
      <trkpt lat="44.80347" lon="-0.33905">
        <ele>56</ele>
        <time>2014-04-06T14:41:16Z</time>
      </trkpt>
      <trkpt lat="44.80398" lon="-0.3394">
        <ele>51</ele>
        <time>2014-04-06T14:41:22Z</time>
      </trkpt>
      <trkpt lat="44.80406" lon="-0.33948">
        <ele>51</ele>
        <time>2014-04-06T14:41:23Z</time>
      </trkpt>
      <trkpt lat="44.80413" lon="-0.33959">
        <ele>51</ele>
        <time>2014-04-06T14:41:24Z</time>
      </trkpt>
      <trkpt lat="44.80441" lon="-0.34005">
        <ele>54</ele>
        <time>2014-04-06T14:41:29Z</time>
      </trkpt>
      <trkpt lat="44.80449" lon="-0.3402">
        <ele>55</ele>
        <time>2014-04-06T14:41:31Z</time>
      </trkpt>
      <trkpt lat="44.80453" lon="-0.34026">
        <ele>56</ele>
        <time>2014-04-06T14:41:32Z</time>
      </trkpt>
      <trkpt lat="44.80468" lon="-0.34051">
        <ele>57</ele>
        <time>2014-04-06T14:41:38Z</time>
      </trkpt>
      <trkpt lat="44.80485" lon="-0.34092">
        <ele>56</ele>
        <time>2014-04-06T14:41:46Z</time>
      </trkpt>
      <trkpt lat="44.80503" lon="-0.34131">
        <ele>53</ele>
        <time>2014-04-06T14:41:51Z</time>
      </trkpt>
      <trkpt lat="44.80508" lon="-0.34141">
        <ele>52</ele>
        <time>2014-04-06T14:41:52Z</time>
      </trkpt>
      <trkpt lat="44.80515" lon="-0.34151">
        <ele>51</ele>
        <time>2014-04-06T14:41:53Z</time>
      </trkpt>
      <trkpt lat="44.80521" lon="-0.3416">
        <ele>51</ele>
        <time>2014-04-06T14:41:54Z</time>
      </trkpt>
      <trkpt lat="44.80549" lon="-0.34204">
        <ele>49</ele>
        <time>2014-04-06T14:41:59Z</time>
      </trkpt>
      <trkpt lat="44.80571" lon="-0.34248">
        <ele>50</ele>
        <time>2014-04-06T14:42:04Z</time>
      </trkpt>
      <trkpt lat="44.80585" lon="-0.34276">
        <ele>52</ele>
        <time>2014-04-06T14:42:08Z</time>
      </trkpt>
      <trkpt lat="44.80597" lon="-0.34296">
        <ele>54</ele>
        <time>2014-04-06T14:42:13Z</time>
      </trkpt>
      <trkpt lat="44.80605" lon="-0.34318">
        <ele>54</ele>
        <time>2014-04-06T14:42:21Z</time>
      </trkpt>
      <trkpt lat="44.8061" lon="-0.34324">
        <ele>55</ele>
        <time>2014-04-06T14:42:25Z</time>
      </trkpt>
      <trkpt lat="44.80611" lon="-0.34329">
        <ele>55</ele>
        <time>2014-04-06T14:42:28Z</time>
      </trkpt>
      <trkpt lat="44.80611" lon="-0.3433">
        <ele>55</ele>
        <time>2014-04-06T14:42:29Z</time>
      </trkpt>
      <trkpt lat="44.8061" lon="-0.34331">
        <ele>54</ele>
        <time>2014-04-06T14:42:30Z</time>
      </trkpt>
      <trkpt lat="44.80603" lon="-0.34336">
        <ele>53</ele>
        <time>2014-04-06T14:42:35Z</time>
      </trkpt>
      <trkpt lat="44.80602" lon="-0.34338">
        <ele>53</ele>
        <time>2014-04-06T14:42:36Z</time>
      </trkpt>
      <trkpt lat="44.80602" lon="-0.3434">
        <ele>53</ele>
        <time>2014-04-06T14:42:37Z</time>
      </trkpt>
      <trkpt lat="44.80601" lon="-0.34343">
        <ele>52</ele>
        <time>2014-04-06T14:42:38Z</time>
      </trkpt>
      <trkpt lat="44.80601" lon="-0.34347">
        <ele>52</ele>
        <time>2014-04-06T14:42:39Z</time>
      </trkpt>
      <trkpt lat="44.806" lon="-0.34351">
        <ele>52</ele>
        <time>2014-04-06T14:42:40Z</time>
      </trkpt>
      <trkpt lat="44.80598" lon="-0.34355">
        <ele>51</ele>
        <time>2014-04-06T14:42:41Z</time>
      </trkpt>
      <trkpt lat="44.80597" lon="-0.34359">
        <ele>51</ele>
        <time>2014-04-06T14:42:42Z</time>
      </trkpt>
      <trkpt lat="44.80595" lon="-0.34363">
        <ele>50</ele>
        <time>2014-04-06T14:42:43Z</time>
      </trkpt>
      <trkpt lat="44.80593" lon="-0.34368">
        <ele>50</ele>
        <time>2014-04-06T14:42:44Z</time>
      </trkpt>
      <trkpt lat="44.80591" lon="-0.34373">
        <ele>49</ele>
        <time>2014-04-06T14:42:45Z</time>
      </trkpt>
      <trkpt lat="44.80577" lon="-0.34403">
        <ele>46</ele>
        <time>2014-04-06T14:42:50Z</time>
      </trkpt>
      <trkpt lat="44.80561" lon="-0.34428">
        <ele>43</ele>
        <time>2014-04-06T14:42:56Z</time>
      </trkpt>
      <trkpt lat="44.80546" lon="-0.34454">
        <ele>42</ele>
        <time>2014-04-06T14:43:02Z</time>
      </trkpt>
      <trkpt lat="44.80543" lon="-0.3446">
        <ele>42</ele>
        <time>2014-04-06T14:43:03Z</time>
      </trkpt>
      <trkpt lat="44.80532" lon="-0.34479">
        <ele>41</ele>
        <time>2014-04-06T14:43:06Z</time>
      </trkpt>
      <trkpt lat="44.80522" lon="-0.34501">
        <ele>41</ele>
        <time>2014-04-06T14:43:10Z</time>
      </trkpt>
      <trkpt lat="44.80517" lon="-0.3451">
        <ele>42</ele>
        <time>2014-04-06T14:43:15Z</time>
      </trkpt>
      <trkpt lat="44.80516" lon="-0.34511">
        <ele>42</ele>
        <time>2014-04-06T14:43:16Z</time>
      </trkpt>
      <trkpt lat="44.80507" lon="-0.3452">
        <ele>42</ele>
        <time>2014-04-06T14:43:25Z</time>
      </trkpt>
      <trkpt lat="44.80495" lon="-0.34529">
        <ele>42</ele>
        <time>2014-04-06T14:43:32Z</time>
      </trkpt>
      <trkpt lat="44.80478" lon="-0.34548">
        <ele>43</ele>
        <time>2014-04-06T14:43:38Z</time>
      </trkpt>
      <trkpt lat="44.80458" lon="-0.34562">
        <ele>44</ele>
        <time>2014-04-06T14:43:44Z</time>
      </trkpt>
      <trkpt lat="44.80444" lon="-0.34576">
        <ele>45</ele>
        <time>2014-04-06T14:43:49Z</time>
      </trkpt>
      <trkpt lat="44.8044" lon="-0.34582">
        <ele>45</ele>
        <time>2014-04-06T14:43:51Z</time>
      </trkpt>
      <trkpt lat="44.80439" lon="-0.34598">
        <ele>45</ele>
        <time>2014-04-06T14:43:56Z</time>
      </trkpt>
      <trkpt lat="44.8045" lon="-0.3463">
        <ele>45</ele>
        <time>2014-04-06T14:44:03Z</time>
      </trkpt>
      <trkpt lat="44.80464" lon="-0.34669">
        <ele>45</ele>
        <time>2014-04-06T14:44:10Z</time>
      </trkpt>
      <trkpt lat="44.8048" lon="-0.34711">
        <ele>45</ele>
        <time>2014-04-06T14:44:18Z</time>
      </trkpt>
      <trkpt lat="44.80495" lon="-0.34746">
        <ele>44</ele>
        <time>2014-04-06T14:44:25Z</time>
      </trkpt>
      <trkpt lat="44.80496" lon="-0.34751">
        <ele>44</ele>
        <time>2014-04-06T14:44:26Z</time>
      </trkpt>
      <trkpt lat="44.80487" lon="-0.34768">
        <ele>45</ele>
        <time>2014-04-06T14:44:30Z</time>
      </trkpt>
      <trkpt lat="44.80471" lon="-0.34792">
        <ele>45</ele>
        <time>2014-04-06T14:44:37Z</time>
      </trkpt>
      <trkpt lat="44.80457" lon="-0.34806">
        <ele>46</ele>
        <time>2014-04-06T14:44:44Z</time>
      </trkpt>
      <trkpt lat="44.80451" lon="-0.3481">
        <ele>46</ele>
        <time>2014-04-06T14:44:49Z</time>
      </trkpt>
      <trkpt lat="44.8045" lon="-0.34811">
        <ele>46</ele>
        <time>2014-04-06T14:44:50Z</time>
      </trkpt>
      <trkpt lat="44.8044" lon="-0.34822">
        <ele>47</ele>
        <time>2014-04-06T14:44:57Z</time>
      </trkpt>
      <trkpt lat="44.80434" lon="-0.34838">
        <ele>47</ele>
        <time>2014-04-06T14:45:05Z</time>
      </trkpt>
      <trkpt lat="44.80432" lon="-0.34854">
        <ele>48</ele>
        <time>2014-04-06T14:45:10Z</time>
      </trkpt>
      <trkpt lat="44.80429" lon="-0.3487">
        <ele>48</ele>
        <time>2014-04-06T14:45:16Z</time>
      </trkpt>
      <trkpt lat="44.80428" lon="-0.34876">
        <ele>49</ele>
        <time>2014-04-06T14:45:19Z</time>
      </trkpt>
      <trkpt lat="44.80423" lon="-0.34891">
        <ele>49</ele>
        <time>2014-04-06T14:45:25Z</time>
      </trkpt>
      <trkpt lat="44.8042" lon="-0.34907">
        <ele>50</ele>
        <time>2014-04-06T14:45:33Z</time>
      </trkpt>
      <trkpt lat="44.80416" lon="-0.34914">
        <ele>50</ele>
        <time>2014-04-06T14:45:36Z</time>
      </trkpt>
      <trkpt lat="44.80408" lon="-0.34939">
        <ele>52</ele>
        <time>2014-04-06T14:45:45Z</time>
      </trkpt>
      <trkpt lat="44.80405" lon="-0.34946">
        <ele>52</ele>
        <time>2014-04-06T14:45:50Z</time>
      </trkpt>
      <trkpt lat="44.80402" lon="-0.34954">
        <ele>53</ele>
        <time>2014-04-06T14:45:55Z</time>
      </trkpt>
      <trkpt lat="44.80399" lon="-0.34963">
        <ele>53</ele>
        <time>2014-04-06T14:46:02Z</time>
      </trkpt>
      <trkpt lat="44.80398" lon="-0.34969">
        <ele>54</ele>
        <time>2014-04-06T14:46:09Z</time>
      </trkpt>
      <trkpt lat="44.80397" lon="-0.34973">
        <ele>54</ele>
        <time>2014-04-06T14:46:16Z</time>
      </trkpt>
      <trkpt lat="44.80395" lon="-0.34978">
        <ele>54</ele>
        <time>2014-04-06T14:46:22Z</time>
      </trkpt>
      <trkpt lat="44.80394" lon="-0.3498">
        <ele>54</ele>
        <time>2014-04-06T14:46:28Z</time>
      </trkpt>
      <trkpt lat="44.80393" lon="-0.34982">
        <ele>55</ele>
        <time>2014-04-06T14:46:31Z</time>
      </trkpt>
      <trkpt lat="44.80391" lon="-0.34984">
        <ele>55</ele>
        <time>2014-04-06T14:46:34Z</time>
      </trkpt>
      <trkpt lat="44.80384" lon="-0.34998">
        <ele>56</ele>
        <time>2014-04-06T14:46:41Z</time>
      </trkpt>
      <trkpt lat="44.80383" lon="-0.35007">
        <ele>56</ele>
        <time>2014-04-06T14:46:47Z</time>
      </trkpt>
      <trkpt lat="44.8038" lon="-0.35015">
        <ele>57</ele>
        <time>2014-04-06T14:46:54Z</time>
      </trkpt>
      <trkpt lat="44.8038" lon="-0.35015">
        <ele>57</ele>
        <time>2014-04-06T14:46:57Z</time>
      </trkpt>
      <trkpt lat="44.80375" lon="-0.35025">
        <ele>57</ele>
        <time>2014-04-06T14:47:04Z</time>
      </trkpt>
      <trkpt lat="44.80373" lon="-0.35029">
        <ele>57</ele>
        <time>2014-04-06T14:47:09Z</time>
      </trkpt>
      <trkpt lat="44.80372" lon="-0.3503">
        <ele>57</ele>
        <time>2014-04-06T14:47:16Z</time>
      </trkpt>
      <trkpt lat="44.80372" lon="-0.35032">
        <ele>57</ele>
        <time>2014-04-06T14:47:25Z</time>
      </trkpt>
      <trkpt lat="44.80369" lon="-0.35034">
        <ele>57</ele>
        <time>2014-04-06T14:47:31Z</time>
      </trkpt>
      <trkpt lat="44.80365" lon="-0.35036">
        <ele>57</ele>
        <time>2014-04-06T14:47:37Z</time>
      </trkpt>
      <trkpt lat="44.80364" lon="-0.35035">
        <ele>57</ele>
        <time>2014-04-06T14:47:46Z</time>
      </trkpt>
      <trkpt lat="44.80363" lon="-0.35036">
        <ele>57</ele>
        <time>2014-04-06T14:48:07Z</time>
      </trkpt>
      <trkpt lat="44.80364" lon="-0.35035">
        <ele>57</ele>
        <time>2014-04-06T14:48:22Z</time>
      </trkpt>
      <trkpt lat="44.80364" lon="-0.35034">
        <ele>57</ele>
        <time>2014-04-06T14:48:37Z</time>
      </trkpt>
      <trkpt lat="44.80364" lon="-0.35035">
        <ele>57</ele>
        <time>2014-04-06T14:48:55Z</time>
      </trkpt>
      <trkpt lat="44.80365" lon="-0.35034">
        <ele>57</ele>
        <time>2014-04-06T14:49:15Z</time>
      </trkpt>
      <trkpt lat="44.80364" lon="-0.35032">
        <ele>57</ele>
        <time>2014-04-06T14:49:34Z</time>
      </trkpt>
      <trkpt lat="44.80364" lon="-0.35034">
        <ele>57</ele>
        <time>2014-04-06T14:49:40Z</time>
      </trkpt>
      <trkpt lat="44.80363" lon="-0.35035">
        <ele>57</ele>
        <time>2014-04-06T14:49:53Z</time>
      </trkpt>
      <trkpt lat="44.80364" lon="-0.35037">
        <ele>57</ele>
        <time>2014-04-06T14:50:08Z</time>
      </trkpt>
      <trkpt lat="44.80365" lon="-0.35037">
        <ele>57</ele>
        <time>2014-04-06T14:50:24Z</time>
      </trkpt>
      <trkpt lat="44.80365" lon="-0.35038">
        <ele>57</ele>
        <time>2014-04-06T14:50:33Z</time>
      </trkpt>
      <trkpt lat="44.80366" lon="-0.35039">
        <ele>57</ele>
        <time>2014-04-06T14:50:47Z</time>
      </trkpt>
      <trkpt lat="44.80365" lon="-0.35039">
        <ele>57</ele>
        <time>2014-04-06T14:50:52Z</time>
      </trkpt>
      <trkpt lat="44.80365" lon="-0.35038">
        <ele>57</ele>
        <time>2014-04-06T14:51:04Z</time>
      </trkpt>
      <trkpt lat="44.80365" lon="-0.35038">
        <ele>57</ele>
        <time>2014-04-06T14:51:18Z</time>
      </trkpt>
      <trkpt lat="44.80365" lon="-0.35038">
        <ele>57</ele>
        <time>2014-04-06T14:51:29Z</time>
      </trkpt>
      <trkpt lat="44.80365" lon="-0.35038">
        <ele>57</ele>
        <time>2014-04-06T14:51:39Z</time>
      </trkpt>
      <trkpt lat="44.80365" lon="-0.3504">
        <ele>58</ele>
        <time>2014-04-06T14:51:46Z</time>
      </trkpt>
      <trkpt lat="44.80364" lon="-0.35047">
        <ele>58</ele>
        <time>2014-04-06T14:51:52Z</time>
      </trkpt>
      <trkpt lat="44.80358" lon="-0.35058">
        <ele>58</ele>
        <time>2014-04-06T14:51:59Z</time>
      </trkpt>
      <trkpt lat="44.80356" lon="-0.35061">
        <ele>58</ele>
        <time>2014-04-06T14:52:01Z</time>
      </trkpt>
      <trkpt lat="44.8035" lon="-0.35072">
        <ele>59</ele>
        <time>2014-04-06T14:52:09Z</time>
      </trkpt>
      <trkpt lat="44.80345" lon="-0.35085">
        <ele>59</ele>
        <time>2014-04-06T14:52:16Z</time>
      </trkpt>
      <trkpt lat="44.80343" lon="-0.35087">
        <ele>59</ele>
        <time>2014-04-06T14:52:23Z</time>
      </trkpt>
      <trkpt lat="44.80341" lon="-0.35091">
        <ele>60</ele>
        <time>2014-04-06T14:52:29Z</time>
      </trkpt>
      <trkpt lat="44.80338" lon="-0.35098">
        <ele>60</ele>
        <time>2014-04-06T14:52:36Z</time>
      </trkpt>
      <trkpt lat="44.80334" lon="-0.35109">
        <ele>61</ele>
        <time>2014-04-06T14:52:44Z</time>
      </trkpt>
      <trkpt lat="44.80331" lon="-0.35114">
        <ele>61</ele>
        <time>2014-04-06T14:52:51Z</time>
      </trkpt>
      <trkpt lat="44.80329" lon="-0.35118">
        <ele>61</ele>
        <time>2014-04-06T14:52:57Z</time>
      </trkpt>
      <trkpt lat="44.80326" lon="-0.35126">
        <ele>62</ele>
        <time>2014-04-06T14:53:01Z</time>
      </trkpt>
      <trkpt lat="44.80319" lon="-0.35137">
        <ele>63</ele>
        <time>2014-04-06T14:53:08Z</time>
      </trkpt>
      <trkpt lat="44.80318" lon="-0.35143">
        <ele>64</ele>
        <time>2014-04-06T14:53:12Z</time>
      </trkpt>
      <trkpt lat="44.80315" lon="-0.35147">
        <ele>64</ele>
        <time>2014-04-06T14:53:15Z</time>
      </trkpt>
      <trkpt lat="44.80312" lon="-0.35165">
        <ele>65</ele>
        <time>2014-04-06T14:53:24Z</time>
      </trkpt>
      <trkpt lat="44.80303" lon="-0.35175">
        <ele>66</ele>
        <time>2014-04-06T14:53:32Z</time>
      </trkpt>
      <trkpt lat="44.80302" lon="-0.35177">
        <ele>66</ele>
        <time>2014-04-06T14:53:33Z</time>
      </trkpt>
      <trkpt lat="44.803" lon="-0.35184">
        <ele>67</ele>
        <time>2014-04-06T14:53:39Z</time>
      </trkpt>
      <trkpt lat="44.80301" lon="-0.35185">
        <ele>67</ele>
        <time>2014-04-06T14:53:40Z</time>
      </trkpt>
      <trkpt lat="44.80302" lon="-0.35188">
        <ele>67</ele>
        <time>2014-04-06T14:53:48Z</time>
      </trkpt>
      <trkpt lat="44.80302" lon="-0.35188">
        <ele>67</ele>
        <time>2014-04-06T14:53:59Z</time>
      </trkpt>
      <trkpt lat="44.80301" lon="-0.35189">
        <ele>67</ele>
        <time>2014-04-06T14:54:08Z</time>
      </trkpt>
      <trkpt lat="44.803" lon="-0.35191">
        <ele>67</ele>
        <time>2014-04-06T14:54:15Z</time>
      </trkpt>
      <trkpt lat="44.80299" lon="-0.35194">
        <ele>67</ele>
        <time>2014-04-06T14:54:23Z</time>
      </trkpt>
      <trkpt lat="44.803" lon="-0.35204">
        <ele>68</ele>
        <time>2014-04-06T14:54:31Z</time>
      </trkpt>
      <trkpt lat="44.803" lon="-0.35212">
        <ele>69</ele>
        <time>2014-04-06T14:54:37Z</time>
      </trkpt>
      <trkpt lat="44.803" lon="-0.35215">
        <ele>69</ele>
        <time>2014-04-06T14:54:38Z</time>
      </trkpt>
      <trkpt lat="44.80297" lon="-0.35229">
        <ele>70</ele>
        <time>2014-04-06T14:54:43Z</time>
      </trkpt>
      <trkpt lat="44.80294" lon="-0.35241">
        <ele>71</ele>
        <time>2014-04-06T14:54:50Z</time>
      </trkpt>
      <trkpt lat="44.80293" lon="-0.35251">
        <ele>72</ele>
        <time>2014-04-06T14:54:57Z</time>
      </trkpt>
      <trkpt lat="44.80293" lon="-0.35255">
        <ele>72</ele>
        <time>2014-04-06T14:54:59Z</time>
      </trkpt>
      <trkpt lat="44.80295" lon="-0.35269">
        <ele>74</ele>
        <time>2014-04-06T14:55:07Z</time>
      </trkpt>
      <trkpt lat="44.80293" lon="-0.3528">
        <ele>74</ele>
        <time>2014-04-06T14:55:13Z</time>
      </trkpt>
      <trkpt lat="44.80293" lon="-0.35283">
        <ele>75</ele>
        <time>2014-04-06T14:55:21Z</time>
      </trkpt>
      <trkpt lat="44.80295" lon="-0.35286">
        <ele>75</ele>
        <time>2014-04-06T14:55:28Z</time>
      </trkpt>
      <trkpt lat="44.80293" lon="-0.35292">
        <ele>75</ele>
        <time>2014-04-06T14:55:37Z</time>
      </trkpt>
      <trkpt lat="44.80292" lon="-0.35292">
        <ele>75</ele>
        <time>2014-04-06T14:55:38Z</time>
      </trkpt>
      <trkpt lat="44.80289" lon="-0.35297">
        <ele>76</ele>
        <time>2014-04-06T14:55:45Z</time>
      </trkpt>
      <trkpt lat="44.80289" lon="-0.35302">
        <ele>76</ele>
        <time>2014-04-06T14:55:52Z</time>
      </trkpt>
      <trkpt lat="44.80286" lon="-0.3531">
        <ele>77</ele>
        <time>2014-04-06T14:55:59Z</time>
      </trkpt>
      <trkpt lat="44.80284" lon="-0.35316">
        <ele>78</ele>
        <time>2014-04-06T14:56:07Z</time>
      </trkpt>
      <trkpt lat="44.80282" lon="-0.35325">
        <ele>79</ele>
        <time>2014-04-06T14:56:14Z</time>
      </trkpt>
      <trkpt lat="44.8028" lon="-0.35334">
        <ele>80</ele>
        <time>2014-04-06T14:56:21Z</time>
      </trkpt>
      <trkpt lat="44.8028" lon="-0.35337">
        <ele>80</ele>
        <time>2014-04-06T14:56:28Z</time>
      </trkpt>
      <trkpt lat="44.80278" lon="-0.35343">
        <ele>81</ele>
        <time>2014-04-06T14:56:34Z</time>
      </trkpt>
      <trkpt lat="44.80278" lon="-0.35354">
        <ele>82</ele>
        <time>2014-04-06T14:56:43Z</time>
      </trkpt>
      <trkpt lat="44.80277" lon="-0.35362">
        <ele>83</ele>
        <time>2014-04-06T14:56:49Z</time>
      </trkpt>
      <trkpt lat="44.80277" lon="-0.35366">
        <ele>83</ele>
        <time>2014-04-06T14:56:55Z</time>
      </trkpt>
      <trkpt lat="44.80276" lon="-0.35369">
        <ele>83</ele>
        <time>2014-04-06T14:57:01Z</time>
      </trkpt>
      <trkpt lat="44.80274" lon="-0.35374">
        <ele>84</ele>
        <time>2014-04-06T14:57:04Z</time>
      </trkpt>
      <trkpt lat="44.80276" lon="-0.35378">
        <ele>84</ele>
        <time>2014-04-06T14:57:06Z</time>
      </trkpt>
      <trkpt lat="44.80277" lon="-0.35384">
        <ele>84</ele>
        <time>2014-04-06T14:57:09Z</time>
      </trkpt>
      <trkpt lat="44.80266" lon="-0.35396">
        <ele>85</ele>
        <time>2014-04-06T14:57:18Z</time>
      </trkpt>
      <trkpt lat="44.80258" lon="-0.35403">
        <ele>86</ele>
        <time>2014-04-06T14:57:25Z</time>
      </trkpt>
      <trkpt lat="44.80253" lon="-0.3541">
        <ele>87</ele>
        <time>2014-04-06T14:57:30Z</time>
      </trkpt>
      <trkpt lat="44.80243" lon="-0.35423">
        <ele>89</ele>
        <time>2014-04-06T14:57:37Z</time>
      </trkpt>
      <trkpt lat="44.80239" lon="-0.35427">
        <ele>90</ele>
        <time>2014-04-06T14:57:39Z</time>
      </trkpt>
      <trkpt lat="44.80227" lon="-0.35444">
        <ele>90</ele>
        <time>2014-04-06T14:57:46Z</time>
      </trkpt>
      <trkpt lat="44.80209" lon="-0.35471">
        <ele>91</ele>
        <time>2014-04-06T14:57:54Z</time>
      </trkpt>
      <trkpt lat="44.802" lon="-0.35487">
        <ele>91</ele>
        <time>2014-04-06T14:57:59Z</time>
      </trkpt>
      <trkpt lat="44.80181" lon="-0.35513">
        <ele>91</ele>
        <time>2014-04-06T14:58:06Z</time>
      </trkpt>
      <trkpt lat="44.8017" lon="-0.35531">
        <ele>91</ele>
        <time>2014-04-06T14:58:13Z</time>
      </trkpt>
      <trkpt lat="44.80163" lon="-0.35542">
        <ele>91</ele>
        <time>2014-04-06T14:58:19Z</time>
      </trkpt>
      <trkpt lat="44.80155" lon="-0.35557">
        <ele>90</ele>
        <time>2014-04-06T14:58:26Z</time>
      </trkpt>
      <trkpt lat="44.80145" lon="-0.35567">
        <ele>91</ele>
        <time>2014-04-06T14:58:33Z</time>
      </trkpt>
      <trkpt lat="44.80137" lon="-0.35575">
        <ele>91</ele>
        <time>2014-04-06T14:58:40Z</time>
      </trkpt>
      <trkpt lat="44.80124" lon="-0.35585">
        <ele>91</ele>
        <time>2014-04-06T14:58:46Z</time>
      </trkpt>
      <trkpt lat="44.80101" lon="-0.35605">
        <ele>93</ele>
        <time>2014-04-06T14:58:56Z</time>
      </trkpt>
      <trkpt lat="44.80081" lon="-0.35627">
        <ele>93</ele>
        <time>2014-04-06T14:59:05Z</time>
      </trkpt>
      <trkpt lat="44.80064" lon="-0.35646">
        <ele>93</ele>
        <time>2014-04-06T14:59:13Z</time>
      </trkpt>
      <trkpt lat="44.80049" lon="-0.35663">
        <ele>94</ele>
        <time>2014-04-06T14:59:20Z</time>
      </trkpt>
      <trkpt lat="44.80031" lon="-0.35683">
        <ele>95</ele>
        <time>2014-04-06T14:59:28Z</time>
      </trkpt>
      <trkpt lat="44.80014" lon="-0.35702">
        <ele>96</ele>
        <time>2014-04-06T14:59:36Z</time>
      </trkpt>
      <trkpt lat="44.79997" lon="-0.35723">
        <ele>97</ele>
        <time>2014-04-06T14:59:44Z</time>
      </trkpt>
      <trkpt lat="44.79981" lon="-0.35742">
        <ele>97</ele>
        <time>2014-04-06T14:59:51Z</time>
      </trkpt>
      <trkpt lat="44.79965" lon="-0.35762">
        <ele>97</ele>
        <time>2014-04-06T14:59:58Z</time>
      </trkpt>
      <trkpt lat="44.79942" lon="-0.35784">
        <ele>97</ele>
        <time>2014-04-06T15:00:07Z</time>
      </trkpt>
      <trkpt lat="44.79923" lon="-0.35798">
        <ele>97</ele>
        <time>2014-04-06T15:00:15Z</time>
      </trkpt>
      <trkpt lat="44.79912" lon="-0.3581">
        <ele>97</ele>
        <time>2014-04-06T15:00:22Z</time>
      </trkpt>
      <trkpt lat="44.7991" lon="-0.35813">
        <ele>97</ele>
        <time>2014-04-06T15:00:23Z</time>
      </trkpt>
      <trkpt lat="44.79913" lon="-0.35832">
        <ele>97</ele>
        <time>2014-04-06T15:00:30Z</time>
      </trkpt>
      <trkpt lat="44.79913" lon="-0.35835">
        <ele>97</ele>
        <time>2014-04-06T15:00:31Z</time>
      </trkpt>
      <trkpt lat="44.7992" lon="-0.35854">
        <ele>97</ele>
        <time>2014-04-06T15:00:39Z</time>
      </trkpt>
      <trkpt lat="44.79926" lon="-0.35865">
        <ele>97</ele>
        <time>2014-04-06T15:00:45Z</time>
      </trkpt>
      <trkpt lat="44.79936" lon="-0.35888">
        <ele>97</ele>
        <time>2014-04-06T15:00:53Z</time>
      </trkpt>
      <trkpt lat="44.79943" lon="-0.35908">
        <ele>96</ele>
        <time>2014-04-06T15:00:59Z</time>
      </trkpt>
      <trkpt lat="44.79943" lon="-0.35909">
        <ele>96</ele>
        <time>2014-04-06T15:01:00Z</time>
      </trkpt>
      <trkpt lat="44.79944" lon="-0.35915">
        <ele>96</ele>
        <time>2014-04-06T15:01:06Z</time>
      </trkpt>
      <trkpt lat="44.79943" lon="-0.35916">
        <ele>96</ele>
        <time>2014-04-06T15:01:20Z</time>
      </trkpt>
      <trkpt lat="44.79943" lon="-0.35916">
        <ele>96</ele>
        <time>2014-04-06T15:01:29Z</time>
      </trkpt>
      <trkpt lat="44.79944" lon="-0.35916">
        <ele>96</ele>
        <time>2014-04-06T15:01:41Z</time>
      </trkpt>
      <trkpt lat="44.79944" lon="-0.35915">
        <ele>96</ele>
        <time>2014-04-06T15:01:57Z</time>
      </trkpt>
      <trkpt lat="44.79944" lon="-0.35915">
        <ele>96</ele>
        <time>2014-04-06T15:02:05Z</time>
      </trkpt>
      <trkpt lat="44.79942" lon="-0.35913">
        <ele>96</ele>
        <time>2014-04-06T15:02:08Z</time>
      </trkpt>
      <trkpt lat="44.79941" lon="-0.35902">
        <ele>96</ele>
        <time>2014-04-06T15:02:14Z</time>
      </trkpt>
      <trkpt lat="44.79932" lon="-0.35879">
        <ele>97</ele>
        <time>2014-04-06T15:02:22Z</time>
      </trkpt>
      <trkpt lat="44.7992" lon="-0.35853">
        <ele>97</ele>
        <time>2014-04-06T15:02:30Z</time>
      </trkpt>
      <trkpt lat="44.79908" lon="-0.35831">
        <ele>97</ele>
        <time>2014-04-06T15:02:37Z</time>
      </trkpt>
      <trkpt lat="44.79909" lon="-0.35813">
        <ele>97</ele>
        <time>2014-04-06T15:02:42Z</time>
      </trkpt>
      <trkpt lat="44.79912" lon="-0.35807">
        <ele>97</ele>
        <time>2014-04-06T15:02:47Z</time>
      </trkpt>
      <trkpt lat="44.79914" lon="-0.35803">
        <ele>97</ele>
        <time>2014-04-06T15:02:50Z</time>
      </trkpt>
      <trkpt lat="44.79919" lon="-0.35799">
        <ele>97</ele>
        <time>2014-04-06T15:02:55Z</time>
      </trkpt>
      <trkpt lat="44.79924" lon="-0.35793">
        <ele>97</ele>
        <time>2014-04-06T15:03:01Z</time>
      </trkpt>
      <trkpt lat="44.79934" lon="-0.35789">
        <ele>97</ele>
        <time>2014-04-06T15:03:09Z</time>
      </trkpt>
      <trkpt lat="44.79931" lon="-0.35791">
        <ele>97</ele>
        <time>2014-04-06T15:03:13Z</time>
      </trkpt>
      <trkpt lat="44.79924" lon="-0.358">
        <ele>97</ele>
        <time>2014-04-06T15:03:20Z</time>
      </trkpt>
      <trkpt lat="44.7992" lon="-0.35802">
        <ele>97</ele>
        <time>2014-04-06T15:03:22Z</time>
      </trkpt>
      <trkpt lat="44.79911" lon="-0.35813">
        <ele>97</ele>
        <time>2014-04-06T15:03:27Z</time>
      </trkpt>
      <trkpt lat="44.79911" lon="-0.35822">
        <ele>97</ele>
        <time>2014-04-06T15:03:29Z</time>
      </trkpt>
      <trkpt lat="44.79917" lon="-0.3584">
        <ele>97</ele>
        <time>2014-04-06T15:03:33Z</time>
      </trkpt>
      <trkpt lat="44.79934" lon="-0.35877">
        <ele>97</ele>
        <time>2014-04-06T15:03:41Z</time>
      </trkpt>
      <trkpt lat="44.79942" lon="-0.35908">
        <ele>96</ele>
        <time>2014-04-06T15:03:48Z</time>
      </trkpt>
      <trkpt lat="44.79939" lon="-0.35922">
        <ele>96</ele>
        <time>2014-04-06T15:03:52Z</time>
      </trkpt>
      <trkpt lat="44.79936" lon="-0.35924">
        <ele>96</ele>
        <time>2014-04-06T15:03:53Z</time>
      </trkpt>
      <trkpt lat="44.79933" lon="-0.35926">
        <ele>96</ele>
        <time>2014-04-06T15:03:54Z</time>
      </trkpt>
      <trkpt lat="44.79898" lon="-0.3594">
        <ele>97</ele>
        <time>2014-04-06T15:04:05Z</time>
      </trkpt>
      <trkpt lat="44.79875" lon="-0.35949">
        <ele>97</ele>
        <time>2014-04-06T15:04:13Z</time>
      </trkpt>
      <trkpt lat="44.79855" lon="-0.35955">
        <ele>97</ele>
        <time>2014-04-06T15:04:19Z</time>
      </trkpt>
      <trkpt lat="44.7982" lon="-0.35963">
        <ele>97</ele>
        <time>2014-04-06T15:04:28Z</time>
      </trkpt>
      <trkpt lat="44.79807" lon="-0.35966">
        <ele>97</ele>
        <time>2014-04-06T15:04:31Z</time>
      </trkpt>
      <trkpt lat="44.79776" lon="-0.35971">
        <ele>97</ele>
        <time>2014-04-06T15:04:38Z</time>
      </trkpt>
      <trkpt lat="44.79733" lon="-0.35981">
        <ele>98</ele>
        <time>2014-04-06T15:04:46Z</time>
      </trkpt>
      <trkpt lat="44.79691" lon="-0.35999">
        <ele>99</ele>
        <time>2014-04-06T15:04:54Z</time>
      </trkpt>
      <trkpt lat="44.79653" lon="-0.36017">
        <ele>99</ele>
        <time>2014-04-06T15:05:02Z</time>
      </trkpt>
      <trkpt lat="44.79615" lon="-0.36032">
        <ele>100</ele>
        <time>2014-04-06T15:05:10Z</time>
      </trkpt>
      <trkpt lat="44.7959" lon="-0.36039">
        <ele>100</ele>
        <time>2014-04-06T15:05:15Z</time>
      </trkpt>
      <trkpt lat="44.79585" lon="-0.3604">
        <ele>99</ele>
        <time>2014-04-06T15:05:16Z</time>
      </trkpt>
      <trkpt lat="44.79544" lon="-0.36045">
        <ele>99</ele>
        <time>2014-04-06T15:05:24Z</time>
      </trkpt>
      <trkpt lat="44.79502" lon="-0.36048">
        <ele>100</ele>
        <time>2014-04-06T15:05:33Z</time>
      </trkpt>
      <trkpt lat="44.7948" lon="-0.36048">
        <ele>100</ele>
        <time>2014-04-06T15:05:38Z</time>
      </trkpt>
      <trkpt lat="44.79444" lon="-0.36047">
        <ele>101</ele>
        <time>2014-04-06T15:05:46Z</time>
      </trkpt>
      <trkpt lat="44.79402" lon="-0.36037">
        <ele>103</ele>
        <time>2014-04-06T15:05:55Z</time>
      </trkpt>
      <trkpt lat="44.79369" lon="-0.36022">
        <ele>105</ele>
        <time>2014-04-06T15:06:02Z</time>
      </trkpt>
      <trkpt lat="44.79335" lon="-0.36011">
        <ele>105</ele>
        <time>2014-04-06T15:06:09Z</time>
      </trkpt>
      <trkpt lat="44.79324" lon="-0.36009">
        <ele>105</ele>
        <time>2014-04-06T15:06:11Z</time>
      </trkpt>
      <trkpt lat="44.79278" lon="-0.3601">
        <ele>105</ele>
        <time>2014-04-06T15:06:20Z</time>
      </trkpt>
      <trkpt lat="44.79237" lon="-0.36011">
        <ele>104</ele>
        <time>2014-04-06T15:06:27Z</time>
      </trkpt>
      <trkpt lat="44.79181" lon="-0.36009">
        <ele>101</ele>
        <time>2014-04-06T15:06:35Z</time>
      </trkpt>
      <trkpt lat="44.79127" lon="-0.35998">
        <ele>99</ele>
        <time>2014-04-06T15:06:43Z</time>
      </trkpt>
      <trkpt lat="44.79074" lon="-0.35979">
        <ele>98</ele>
        <time>2014-04-06T15:06:51Z</time>
      </trkpt>
      <trkpt lat="44.79036" lon="-0.35961">
        <ele>97</ele>
        <time>2014-04-06T15:06:58Z</time>
      </trkpt>
      <trkpt lat="44.79027" lon="-0.35959">
        <ele>97</ele>
        <time>2014-04-06T15:07:00Z</time>
      </trkpt>
      <trkpt lat="44.79023" lon="-0.35959">
        <ele>97</ele>
        <time>2014-04-06T15:07:01Z</time>
      </trkpt>
      <trkpt lat="44.7902" lon="-0.35962">
        <ele>97</ele>
        <time>2014-04-06T15:07:02Z</time>
      </trkpt>
      <trkpt lat="44.79018" lon="-0.35967">
        <ele>96</ele>
        <time>2014-04-06T15:07:03Z</time>
      </trkpt>
      <trkpt lat="44.79017" lon="-0.35973">
        <ele>96</ele>
        <time>2014-04-06T15:07:04Z</time>
      </trkpt>
      <trkpt lat="44.79016" lon="-0.35979">
        <ele>96</ele>
        <time>2014-04-06T15:07:05Z</time>
      </trkpt>
      <trkpt lat="44.79013" lon="-0.36028">
        <ele>95</ele>
        <time>2014-04-06T15:07:11Z</time>
      </trkpt>
      <trkpt lat="44.79012" lon="-0.36059">
        <ele>95</ele>
        <time>2014-04-06T15:07:14Z</time>
      </trkpt>
      <trkpt lat="44.79013" lon="-0.3607">
        <ele>95</ele>
        <time>2014-04-06T15:07:15Z</time>
      </trkpt>
      <trkpt lat="44.79015" lon="-0.36079">
        <ele>95</ele>
        <time>2014-04-06T15:07:16Z</time>
      </trkpt>
      <trkpt lat="44.79017" lon="-0.36089">
        <ele>94</ele>
        <time>2014-04-06T15:07:17Z</time>
      </trkpt>
      <trkpt lat="44.79019" lon="-0.36097">
        <ele>94</ele>
        <time>2014-04-06T15:07:18Z</time>
      </trkpt>
      <trkpt lat="44.79022" lon="-0.36105">
        <ele>94</ele>
        <time>2014-04-06T15:07:19Z</time>
      </trkpt>
      <trkpt lat="44.79025" lon="-0.36113">
        <ele>93</ele>
        <time>2014-04-06T15:07:20Z</time>
      </trkpt>
      <trkpt lat="44.79054" lon="-0.36183">
        <ele>92</ele>
        <time>2014-04-06T15:07:28Z</time>
      </trkpt>
      <trkpt lat="44.7906" lon="-0.36201">
        <ele>91</ele>
        <time>2014-04-06T15:07:30Z</time>
      </trkpt>
      <trkpt lat="44.79063" lon="-0.3621">
        <ele>91</ele>
        <time>2014-04-06T15:07:31Z</time>
      </trkpt>
      <trkpt lat="44.79075" lon="-0.36272">
        <ele>89</ele>
        <time>2014-04-06T15:07:37Z</time>
      </trkpt>
      <trkpt lat="44.79077" lon="-0.36282">
        <ele>89</ele>
        <time>2014-04-06T15:07:38Z</time>
      </trkpt>
      <trkpt lat="44.79078" lon="-0.36292">
        <ele>89</ele>
        <time>2014-04-06T15:07:39Z</time>
      </trkpt>
      <trkpt lat="44.79082" lon="-0.36341">
        <ele>88</ele>
        <time>2014-04-06T15:07:44Z</time>
      </trkpt>
      <trkpt lat="44.79084" lon="-0.36351">
        <ele>87</ele>
        <time>2014-04-06T15:07:45Z</time>
      </trkpt>
      <trkpt lat="44.7909" lon="-0.3637">
        <ele>87</ele>
        <time>2014-04-06T15:07:47Z</time>
      </trkpt>
      <trkpt lat="44.79093" lon="-0.36378">
        <ele>86</ele>
        <time>2014-04-06T15:07:48Z</time>
      </trkpt>
      <trkpt lat="44.79113" lon="-0.36428">
        <ele>86</ele>
        <time>2014-04-06T15:07:54Z</time>
      </trkpt>
      <trkpt lat="44.79133" lon="-0.36487">
        <ele>87</ele>
        <time>2014-04-06T15:08:01Z</time>
      </trkpt>
      <trkpt lat="44.79136" lon="-0.36495">
        <ele>87</ele>
        <time>2014-04-06T15:08:02Z</time>
      </trkpt>
      <trkpt lat="44.7914" lon="-0.36502">
        <ele>87</ele>
        <time>2014-04-06T15:08:03Z</time>
      </trkpt>
      <trkpt lat="44.79145" lon="-0.36509">
        <ele>87</ele>
        <time>2014-04-06T15:08:04Z</time>
      </trkpt>
      <trkpt lat="44.79163" lon="-0.3654">
        <ele>85</ele>
        <time>2014-04-06T15:08:08Z</time>
      </trkpt>
      <trkpt lat="44.79169" lon="-0.3655">
        <ele>84</ele>
        <time>2014-04-06T15:08:11Z</time>
      </trkpt>
      <trkpt lat="44.79168" lon="-0.36555">
        <ele>85</ele>
        <time>2014-04-06T15:08:14Z</time>
      </trkpt>
      <trkpt lat="44.79167" lon="-0.36555">
        <ele>85</ele>
        <time>2014-04-06T15:08:15Z</time>
      </trkpt>
      <trkpt lat="44.79166" lon="-0.36555">
        <ele>85</ele>
        <time>2014-04-06T15:08:16Z</time>
      </trkpt>
      <trkpt lat="44.79165" lon="-0.36552">
        <ele>85</ele>
        <time>2014-04-06T15:08:21Z</time>
      </trkpt>
      <trkpt lat="44.79165" lon="-0.3655">
        <ele>85</ele>
        <time>2014-04-06T15:08:30Z</time>
      </trkpt>
      <trkpt lat="44.79165" lon="-0.36549">
        <ele>85</ele>
        <time>2014-04-06T15:08:31Z</time>
      </trkpt>
      <trkpt lat="44.79163" lon="-0.36546">
        <ele>85</ele>
        <time>2014-04-06T15:08:36Z</time>
      </trkpt>
      <trkpt lat="44.79157" lon="-0.36536">
        <ele>86</ele>
        <time>2014-04-06T15:08:42Z</time>
      </trkpt>
      <trkpt lat="44.7915" lon="-0.36526">
        <ele>87</ele>
        <time>2014-04-06T15:08:46Z</time>
      </trkpt>
      <trkpt lat="44.79148" lon="-0.36524">
        <ele>87</ele>
        <time>2014-04-06T15:08:47Z</time>
      </trkpt>
      <trkpt lat="44.79147" lon="-0.36521">
        <ele>87</ele>
        <time>2014-04-06T15:08:48Z</time>
      </trkpt>
      <trkpt lat="44.79145" lon="-0.36519">
        <ele>87</ele>
        <time>2014-04-06T15:08:49Z</time>
      </trkpt>
      <trkpt lat="44.79143" lon="-0.36517">
        <ele>88</ele>
        <time>2014-04-06T15:08:50Z</time>
      </trkpt>
      <trkpt lat="44.79135" lon="-0.36512">
        <ele>89</ele>
        <time>2014-04-06T15:08:55Z</time>
      </trkpt>
      <trkpt lat="44.79132" lon="-0.3651">
        <ele>89</ele>
        <time>2014-04-06T15:08:59Z</time>
      </trkpt>
      <trkpt lat="44.7913" lon="-0.36511">
        <ele>90</ele>
        <time>2014-04-06T15:09:00Z</time>
      </trkpt>
      <trkpt lat="44.79129" lon="-0.36512">
        <ele>90</ele>
        <time>2014-04-06T15:09:01Z</time>
      </trkpt>
      <trkpt lat="44.79128" lon="-0.36514">
        <ele>90</ele>
        <time>2014-04-06T15:09:02Z</time>
      </trkpt>
      <trkpt lat="44.79126" lon="-0.36515">
        <ele>91</ele>
        <time>2014-04-06T15:09:03Z</time>
      </trkpt>
      <trkpt lat="44.79124" lon="-0.36516">
        <ele>91</ele>
        <time>2014-04-06T15:09:04Z</time>
      </trkpt>
      <trkpt lat="44.79111" lon="-0.36528">
        <ele>93</ele>
        <time>2014-04-06T15:09:10Z</time>
      </trkpt>
      <trkpt lat="44.79101" lon="-0.36536">
        <ele>94</ele>
        <time>2014-04-06T15:09:15Z</time>
      </trkpt>
      <trkpt lat="44.79091" lon="-0.3655">
        <ele>96</ele>
        <time>2014-04-06T15:09:22Z</time>
      </trkpt>
      <trkpt lat="44.79078" lon="-0.36566">
        <ele>97</ele>
        <time>2014-04-06T15:09:29Z</time>
      </trkpt>
      <trkpt lat="44.79063" lon="-0.36584">
        <ele>96</ele>
        <time>2014-04-06T15:09:38Z</time>
      </trkpt>
      <trkpt lat="44.79057" lon="-0.36595">
        <ele>96</ele>
        <time>2014-04-06T15:09:43Z</time>
      </trkpt>
      <trkpt lat="44.79047" lon="-0.36605">
        <ele>96</ele>
        <time>2014-04-06T15:09:50Z</time>
      </trkpt>
      <trkpt lat="44.79033" lon="-0.36616">
        <ele>95</ele>
        <time>2014-04-06T15:09:58Z</time>
      </trkpt>
      <trkpt lat="44.79017" lon="-0.36633">
        <ele>95</ele>
        <time>2014-04-06T15:10:06Z</time>
      </trkpt>
      <trkpt lat="44.79001" lon="-0.36651">
        <ele>95</ele>
        <time>2014-04-06T15:10:13Z</time>
      </trkpt>
      <trkpt lat="44.78982" lon="-0.36669">
        <ele>94</ele>
        <time>2014-04-06T15:10:20Z</time>
      </trkpt>
      <trkpt lat="44.78954" lon="-0.36699">
        <ele>94</ele>
        <time>2014-04-06T15:10:27Z</time>
      </trkpt>
      <trkpt lat="44.78937" lon="-0.36717">
        <ele>94</ele>
        <time>2014-04-06T15:10:31Z</time>
      </trkpt>
      <trkpt lat="44.7891" lon="-0.36758">
        <ele>93</ele>
        <time>2014-04-06T15:10:39Z</time>
      </trkpt>
      <trkpt lat="44.78895" lon="-0.36774">
        <ele>92</ele>
        <time>2014-04-06T15:10:44Z</time>
      </trkpt>
      <trkpt lat="44.7889" lon="-0.36778">
        <ele>91</ele>
        <time>2014-04-06T15:10:51Z</time>
      </trkpt>
      <trkpt lat="44.78889" lon="-0.36782">
        <ele>91</ele>
        <time>2014-04-06T15:10:57Z</time>
      </trkpt>
      <trkpt lat="44.78888" lon="-0.36785">
        <ele>90</ele>
        <time>2014-04-06T15:11:03Z</time>
      </trkpt>
      <trkpt lat="44.78888" lon="-0.36787">
        <ele>90</ele>
        <time>2014-04-06T15:11:06Z</time>
      </trkpt>
      <trkpt lat="44.78888" lon="-0.3679">
        <ele>90</ele>
        <time>2014-04-06T15:11:07Z</time>
      </trkpt>
      <trkpt lat="44.78888" lon="-0.36793">
        <ele>90</ele>
        <time>2014-04-06T15:11:08Z</time>
      </trkpt>
      <trkpt lat="44.78889" lon="-0.36798">
        <ele>90</ele>
        <time>2014-04-06T15:11:09Z</time>
      </trkpt>
      <trkpt lat="44.78891" lon="-0.36803">
        <ele>89</ele>
        <time>2014-04-06T15:11:10Z</time>
      </trkpt>
      <trkpt lat="44.78893" lon="-0.36808">
        <ele>89</ele>
        <time>2014-04-06T15:11:11Z</time>
      </trkpt>
      <trkpt lat="44.78896" lon="-0.36812">
        <ele>89</ele>
        <time>2014-04-06T15:11:12Z</time>
      </trkpt>
      <trkpt lat="44.78898" lon="-0.36816">
        <ele>89</ele>
        <time>2014-04-06T15:11:13Z</time>
      </trkpt>
      <trkpt lat="44.78902" lon="-0.3682">
        <ele>88</ele>
        <time>2014-04-06T15:11:14Z</time>
      </trkpt>
      <trkpt lat="44.78912" lon="-0.36831">
        <ele>87</ele>
        <time>2014-04-06T15:11:18Z</time>
      </trkpt>
      <trkpt lat="44.78919" lon="-0.36838">
        <ele>86</ele>
        <time>2014-04-06T15:11:20Z</time>
      </trkpt>
      <trkpt lat="44.78936" lon="-0.36858">
        <ele>84</ele>
        <time>2014-04-06T15:11:26Z</time>
      </trkpt>
      <trkpt lat="44.78934" lon="-0.36871">
        <ele>82</ele>
        <time>2014-04-06T15:11:30Z</time>
      </trkpt>
      <trkpt lat="44.78927" lon="-0.36886">
        <ele>80</ele>
        <time>2014-04-06T15:11:36Z</time>
      </trkpt>
      <trkpt lat="44.78926" lon="-0.36891">
        <ele>80</ele>
        <time>2014-04-06T15:11:39Z</time>
      </trkpt>
      <trkpt lat="44.78926" lon="-0.36893">
        <ele>79</ele>
        <time>2014-04-06T15:11:40Z</time>
      </trkpt>
      <trkpt lat="44.78921" lon="-0.36903">
        <ele>79</ele>
        <time>2014-04-06T15:11:47Z</time>
      </trkpt>
      <trkpt lat="44.78917" lon="-0.3691">
        <ele>78</ele>
        <time>2014-04-06T15:11:52Z</time>
      </trkpt>
      <trkpt lat="44.7891" lon="-0.36924">
        <ele>77</ele>
        <time>2014-04-06T15:11:59Z</time>
      </trkpt>
      <trkpt lat="44.78908" lon="-0.36931">
        <ele>77</ele>
        <time>2014-04-06T15:12:05Z</time>
      </trkpt>
      <trkpt lat="44.78907" lon="-0.36933">
        <ele>77</ele>
        <time>2014-04-06T15:12:11Z</time>
      </trkpt>
      <trkpt lat="44.78907" lon="-0.36937">
        <ele>76</ele>
        <time>2014-04-06T15:12:17Z</time>
      </trkpt>
      <trkpt lat="44.78904" lon="-0.36943">
        <ele>77</ele>
        <time>2014-04-06T15:12:25Z</time>
      </trkpt>
      <trkpt lat="44.78904" lon="-0.36952">
        <ele>77</ele>
        <time>2014-04-06T15:12:32Z</time>
      </trkpt>
      <trkpt lat="44.78902" lon="-0.36957">
        <ele>78</ele>
        <time>2014-04-06T15:12:38Z</time>
      </trkpt>
      <trkpt lat="44.78899" lon="-0.36966">
        <ele>78</ele>
        <time>2014-04-06T15:12:46Z</time>
      </trkpt>
      <trkpt lat="44.78898" lon="-0.36968">
        <ele>79</ele>
        <time>2014-04-06T15:12:52Z</time>
      </trkpt>
      <trkpt lat="44.78898" lon="-0.36974">
        <ele>79</ele>
        <time>2014-04-06T15:12:58Z</time>
      </trkpt>
      <trkpt lat="44.78895" lon="-0.36986">
        <ele>80</ele>
        <time>2014-04-06T15:13:03Z</time>
      </trkpt>
      <trkpt lat="44.78893" lon="-0.36991">
        <ele>81</ele>
        <time>2014-04-06T15:13:05Z</time>
      </trkpt>
      <trkpt lat="44.7889" lon="-0.37007">
        <ele>82</ele>
        <time>2014-04-06T15:13:11Z</time>
      </trkpt>
      <trkpt lat="44.78886" lon="-0.37017">
        <ele>82</ele>
        <time>2014-04-06T15:13:14Z</time>
      </trkpt>
      <trkpt lat="44.78877" lon="-0.37034">
        <ele>83</ele>
        <time>2014-04-06T15:13:19Z</time>
      </trkpt>
      <trkpt lat="44.78868" lon="-0.37054">
        <ele>85</ele>
        <time>2014-04-06T15:13:25Z</time>
      </trkpt>
      <trkpt lat="44.78859" lon="-0.37072">
        <ele>86</ele>
        <time>2014-04-06T15:13:31Z</time>
      </trkpt>
      <trkpt lat="44.78848" lon="-0.37088">
        <ele>87</ele>
        <time>2014-04-06T15:13:37Z</time>
      </trkpt>
      <trkpt lat="44.78839" lon="-0.37099">
        <ele>87</ele>
        <time>2014-04-06T15:13:44Z</time>
      </trkpt>
      <trkpt lat="44.78837" lon="-0.37103">
        <ele>87</ele>
        <time>2014-04-06T15:13:53Z</time>
      </trkpt>
      <trkpt lat="44.78836" lon="-0.37104">
        <ele>87</ele>
        <time>2014-04-06T15:14:02Z</time>
      </trkpt>
      <trkpt lat="44.78833" lon="-0.37105">
        <ele>87</ele>
        <time>2014-04-06T15:14:09Z</time>
      </trkpt>
      <trkpt lat="44.78831" lon="-0.37108">
        <ele>87</ele>
        <time>2014-04-06T15:14:14Z</time>
      </trkpt>
      <trkpt lat="44.78823" lon="-0.37113">
        <ele>87</ele>
        <time>2014-04-06T15:14:21Z</time>
      </trkpt>
      <trkpt lat="44.78816" lon="-0.37121">
        <ele>88</ele>
        <time>2014-04-06T15:14:28Z</time>
      </trkpt>
      <trkpt lat="44.78807" lon="-0.37129">
        <ele>88</ele>
        <time>2014-04-06T15:14:34Z</time>
      </trkpt>
      <trkpt lat="44.78796" lon="-0.37139">
        <ele>88</ele>
        <time>2014-04-06T15:14:39Z</time>
      </trkpt>
      <trkpt lat="44.78781" lon="-0.37149">
        <ele>88</ele>
        <time>2014-04-06T15:14:46Z</time>
      </trkpt>
      <trkpt lat="44.78778" lon="-0.3715">
        <ele>88</ele>
        <time>2014-04-06T15:14:47Z</time>
      </trkpt>
      <trkpt lat="44.7877" lon="-0.37156">
        <ele>87</ele>
        <time>2014-04-06T15:14:51Z</time>
      </trkpt>
      <trkpt lat="44.78755" lon="-0.37167">
        <ele>87</ele>
        <time>2014-04-06T15:14:59Z</time>
      </trkpt>
      <trkpt lat="44.78739" lon="-0.37182">
        <ele>87</ele>
        <time>2014-04-06T15:15:08Z</time>
      </trkpt>
      <trkpt lat="44.78734" lon="-0.37182">
        <ele>87</ele>
        <time>2014-04-06T15:15:10Z</time>
      </trkpt>
      <trkpt lat="44.78734" lon="-0.37194">
        <ele>87</ele>
        <time>2014-04-06T15:15:14Z</time>
      </trkpt>
      <trkpt lat="44.78736" lon="-0.37212">
        <ele>87</ele>
        <time>2014-04-06T15:15:19Z</time>
      </trkpt>
      <trkpt lat="44.78736" lon="-0.37221">
        <ele>87</ele>
        <time>2014-04-06T15:15:21Z</time>
      </trkpt>
      <trkpt lat="44.78722" lon="-0.37237">
        <ele>88</ele>
        <time>2014-04-06T15:15:28Z</time>
      </trkpt>
      <trkpt lat="44.78697" lon="-0.37256">
        <ele>90</ele>
        <time>2014-04-06T15:15:37Z</time>
      </trkpt>
      <trkpt lat="44.78682" lon="-0.37266">
        <ele>91</ele>
        <time>2014-04-06T15:15:43Z</time>
      </trkpt>
      <trkpt lat="44.78669" lon="-0.37276">
        <ele>92</ele>
        <time>2014-04-06T15:15:49Z</time>
      </trkpt>
      <trkpt lat="44.78667" lon="-0.37278">
        <ele>93</ele>
        <time>2014-04-06T15:15:50Z</time>
      </trkpt>
      <trkpt lat="44.78669" lon="-0.37296">
        <ele>93</ele>
        <time>2014-04-06T15:15:56Z</time>
      </trkpt>
      <trkpt lat="44.78676" lon="-0.37321">
        <ele>94</ele>
        <time>2014-04-06T15:16:03Z</time>
      </trkpt>
      <trkpt lat="44.78684" lon="-0.3735">
        <ele>95</ele>
        <time>2014-04-06T15:16:11Z</time>
      </trkpt>
      <trkpt lat="44.78692" lon="-0.37377">
        <ele>96</ele>
        <time>2014-04-06T15:16:19Z</time>
      </trkpt>
      <trkpt lat="44.787" lon="-0.37401">
        <ele>96</ele>
        <time>2014-04-06T15:16:26Z</time>
      </trkpt>
      <trkpt lat="44.7871" lon="-0.37417">
        <ele>95</ele>
        <time>2014-04-06T15:16:32Z</time>
      </trkpt>
      <trkpt lat="44.78718" lon="-0.37447">
        <ele>95</ele>
        <time>2014-04-06T15:16:39Z</time>
      </trkpt>
      <trkpt lat="44.78717" lon="-0.37468">
        <ele>95</ele>
        <time>2014-04-06T15:16:44Z</time>
      </trkpt>
      <trkpt lat="44.7871" lon="-0.37488">
        <ele>96</ele>
        <time>2014-04-06T15:16:50Z</time>
      </trkpt>
      <trkpt lat="44.787" lon="-0.37512">
        <ele>96</ele>
        <time>2014-04-06T15:16:57Z</time>
      </trkpt>
      <trkpt lat="44.7869" lon="-0.37536">
        <ele>98</ele>
        <time>2014-04-06T15:17:05Z</time>
      </trkpt>
      <trkpt lat="44.78678" lon="-0.37548">
        <ele>99</ele>
        <time>2014-04-06T15:17:12Z</time>
      </trkpt>
      <trkpt lat="44.78669" lon="-0.37558">
        <ele>100</ele>
        <time>2014-04-06T15:17:19Z</time>
      </trkpt>
      <trkpt lat="44.78665" lon="-0.37565">
        <ele>100</ele>
        <time>2014-04-06T15:17:22Z</time>
      </trkpt>
      <trkpt lat="44.78657" lon="-0.37583">
        <ele>101</ele>
        <time>2014-04-06T15:17:31Z</time>
      </trkpt>
      <trkpt lat="44.78648" lon="-0.37592">
        <ele>102</ele>
        <time>2014-04-06T15:17:37Z</time>
      </trkpt>
      <trkpt lat="44.78639" lon="-0.37607">
        <ele>103</ele>
        <time>2014-04-06T15:17:43Z</time>
      </trkpt>
      <trkpt lat="44.78638" lon="-0.3761">
        <ele>103</ele>
        <time>2014-04-06T15:17:48Z</time>
      </trkpt>
      <trkpt lat="44.78638" lon="-0.37611">
        <ele>103</ele>
        <time>2014-04-06T15:17:59Z</time>
      </trkpt>
      <trkpt lat="44.78638" lon="-0.37611">
        <ele>103</ele>
        <time>2014-04-06T15:18:08Z</time>
      </trkpt>
      <trkpt lat="44.78638" lon="-0.37611">
        <ele>103</ele>
        <time>2014-04-06T15:18:24Z</time>
      </trkpt>
      <trkpt lat="44.78638" lon="-0.37611">
        <ele>103</ele>
        <time>2014-04-06T15:18:36Z</time>
      </trkpt>
      <trkpt lat="44.78637" lon="-0.37612">
        <ele>103</ele>
        <time>2014-04-06T15:18:48Z</time>
      </trkpt>
      <trkpt lat="44.78637" lon="-0.37611">
        <ele>103</ele>
        <time>2014-04-06T15:19:02Z</time>
      </trkpt>
      <trkpt lat="44.78636" lon="-0.37611">
        <ele>103</ele>
        <time>2014-04-06T15:19:15Z</time>
      </trkpt>
      <trkpt lat="44.78637" lon="-0.3761">
        <ele>103</ele>
        <time>2014-04-06T15:19:27Z</time>
      </trkpt>
      <trkpt lat="44.78637" lon="-0.3761">
        <ele>103</ele>
        <time>2014-04-06T15:19:34Z</time>
      </trkpt>
      <trkpt lat="44.78637" lon="-0.3761">
        <ele>103</ele>
        <time>2014-04-06T15:19:46Z</time>
      </trkpt>
      <trkpt lat="44.78637" lon="-0.3761">
        <ele>103</ele>
        <time>2014-04-06T15:19:56Z</time>
      </trkpt>
      <trkpt lat="44.78636" lon="-0.3761">
        <ele>103</ele>
        <time>2014-04-06T15:20:09Z</time>
      </trkpt>
      <trkpt lat="44.78637" lon="-0.3761">
        <ele>103</ele>
        <time>2014-04-06T15:20:23Z</time>
      </trkpt>
      <trkpt lat="44.78637" lon="-0.3761">
        <ele>103</ele>
        <time>2014-04-06T15:20:35Z</time>
      </trkpt>
      <trkpt lat="44.78637" lon="-0.3761">
        <ele>103</ele>
        <time>2014-04-06T15:20:46Z</time>
      </trkpt>
      <trkpt lat="44.78637" lon="-0.3761">
        <ele>103</ele>
        <time>2014-04-06T15:20:57Z</time>
      </trkpt>
      <trkpt lat="44.78637" lon="-0.3761">
        <ele>103</ele>
        <time>2014-04-06T15:21:11Z</time>
      </trkpt>
      <trkpt lat="44.78636" lon="-0.37612">
        <ele>103</ele>
        <time>2014-04-06T15:21:18Z</time>
      </trkpt>
      <trkpt lat="44.78626" lon="-0.37623">
        <ele>104</ele>
        <time>2014-04-06T15:21:25Z</time>
      </trkpt>
      <trkpt lat="44.78612" lon="-0.37645">
        <ele>105</ele>
        <time>2014-04-06T15:21:33Z</time>
      </trkpt>
      <trkpt lat="44.78609" lon="-0.37665">
        <ele>105</ele>
        <time>2014-04-06T15:21:39Z</time>
      </trkpt>
      <trkpt lat="44.78603" lon="-0.37686">
        <ele>106</ele>
        <time>2014-04-06T15:21:45Z</time>
      </trkpt>
      <trkpt lat="44.78588" lon="-0.37706">
        <ele>106</ele>
        <time>2014-04-06T15:21:51Z</time>
      </trkpt>
      <trkpt lat="44.78558" lon="-0.37725">
        <ele>107</ele>
        <time>2014-04-06T15:21:59Z</time>
      </trkpt>
      <trkpt lat="44.78525" lon="-0.37746">
        <ele>107</ele>
        <time>2014-04-06T15:22:08Z</time>
      </trkpt>
      <trkpt lat="44.78493" lon="-0.37776">
        <ele>107</ele>
        <time>2014-04-06T15:22:17Z</time>
      </trkpt>
      <trkpt lat="44.78489" lon="-0.3778">
        <ele>106</ele>
        <time>2014-04-06T15:22:18Z</time>
      </trkpt>
      <trkpt lat="44.78484" lon="-0.37782">
        <ele>106</ele>
        <time>2014-04-06T15:22:19Z</time>
      </trkpt>
      <trkpt lat="44.78441" lon="-0.37802">
        <ele>105</ele>
        <time>2014-04-06T15:22:28Z</time>
      </trkpt>
      <trkpt lat="44.78431" lon="-0.37809">
        <ele>105</ele>
        <time>2014-04-06T15:22:30Z</time>
      </trkpt>
      <trkpt lat="44.78427" lon="-0.37812">
        <ele>105</ele>
        <time>2014-04-06T15:22:31Z</time>
      </trkpt>
      <trkpt lat="44.78422" lon="-0.37812">
        <ele>105</ele>
        <time>2014-04-06T15:22:32Z</time>
      </trkpt>
      <trkpt lat="44.78419" lon="-0.37809">
        <ele>105</ele>
        <time>2014-04-06T15:22:33Z</time>
      </trkpt>
      <trkpt lat="44.78416" lon="-0.37806">
        <ele>105</ele>
        <time>2014-04-06T15:22:34Z</time>
      </trkpt>
      <trkpt lat="44.78414" lon="-0.37803">
        <ele>105</ele>
        <time>2014-04-06T15:22:35Z</time>
      </trkpt>
      <trkpt lat="44.78411" lon="-0.37799">
        <ele>105</ele>
        <time>2014-04-06T15:22:36Z</time>
      </trkpt>
      <trkpt lat="44.78409" lon="-0.37794">
        <ele>105</ele>
        <time>2014-04-06T15:22:37Z</time>
      </trkpt>
      <trkpt lat="44.78407" lon="-0.3779">
        <ele>105</ele>
        <time>2014-04-06T15:22:38Z</time>
      </trkpt>
      <trkpt lat="44.78395" lon="-0.37756">
        <ele>104</ele>
        <time>2014-04-06T15:22:45Z</time>
      </trkpt>
      <trkpt lat="44.78387" lon="-0.37736">
        <ele>104</ele>
        <time>2014-04-06T15:22:50Z</time>
      </trkpt>
      <trkpt lat="44.7838" lon="-0.37712">
        <ele>104</ele>
        <time>2014-04-06T15:22:56Z</time>
      </trkpt>
      <trkpt lat="44.78368" lon="-0.37682">
        <ele>104</ele>
        <time>2014-04-06T15:23:03Z</time>
      </trkpt>
      <trkpt lat="44.7836" lon="-0.37661">
        <ele>104</ele>
        <time>2014-04-06T15:23:07Z</time>
      </trkpt>
      <trkpt lat="44.78345" lon="-0.37623">
        <ele>103</ele>
        <time>2014-04-06T15:23:15Z</time>
      </trkpt>
      <trkpt lat="44.78342" lon="-0.37619">
        <ele>103</ele>
        <time>2014-04-06T15:23:16Z</time>
      </trkpt>
      <trkpt lat="44.78339" lon="-0.37617">
        <ele>103</ele>
        <time>2014-04-06T15:23:17Z</time>
      </trkpt>
      <trkpt lat="44.78335" lon="-0.37615">
        <ele>103</ele>
        <time>2014-04-06T15:23:18Z</time>
      </trkpt>
      <trkpt lat="44.78331" lon="-0.37615">
        <ele>103</ele>
        <time>2014-04-06T15:23:19Z</time>
      </trkpt>
      <trkpt lat="44.78327" lon="-0.37616">
        <ele>103</ele>
        <time>2014-04-06T15:23:20Z</time>
      </trkpt>
      <trkpt lat="44.78322" lon="-0.37617">
        <ele>102</ele>
        <time>2014-04-06T15:23:21Z</time>
      </trkpt>
      <trkpt lat="44.78317" lon="-0.37619">
        <ele>102</ele>
        <time>2014-04-06T15:23:22Z</time>
      </trkpt>
      <trkpt lat="44.78287" lon="-0.37633">
        <ele>100</ele>
        <time>2014-04-06T15:23:28Z</time>
      </trkpt>
      <trkpt lat="44.78271" lon="-0.37638">
        <ele>99</ele>
        <time>2014-04-06T15:23:31Z</time>
      </trkpt>
      <trkpt lat="44.78251" lon="-0.37647">
        <ele>97</ele>
        <time>2014-04-06T15:23:35Z</time>
      </trkpt>
      <trkpt lat="44.78246" lon="-0.3765">
        <ele>97</ele>
        <time>2014-04-06T15:23:36Z</time>
      </trkpt>
      <trkpt lat="44.78241" lon="-0.37652">
        <ele>97</ele>
        <time>2014-04-06T15:23:37Z</time>
      </trkpt>
      <trkpt lat="44.78235" lon="-0.37655">
        <ele>96</ele>
        <time>2014-04-06T15:23:38Z</time>
      </trkpt>
      <trkpt lat="44.7823" lon="-0.37658">
        <ele>96</ele>
        <time>2014-04-06T15:23:39Z</time>
      </trkpt>
      <trkpt lat="44.78226" lon="-0.37661">
        <ele>96</ele>
        <time>2014-04-06T15:23:40Z</time>
      </trkpt>
      <trkpt lat="44.7821" lon="-0.37669">
        <ele>95</ele>
        <time>2014-04-06T15:23:43Z</time>
      </trkpt>
      <trkpt lat="44.78179" lon="-0.37681">
        <ele>95</ele>
        <time>2014-04-06T15:23:48Z</time>
      </trkpt>
      <trkpt lat="44.78152" lon="-0.37689">
        <ele>95</ele>
        <time>2014-04-06T15:23:53Z</time>
      </trkpt>
      <trkpt lat="44.78141" lon="-0.37703">
        <ele>94</ele>
        <time>2014-04-06T15:24:52Z</time>
      </trkpt>
      <trkpt lat="44.78141" lon="-0.37714">
        <ele>94</ele>
        <time>2014-04-06T15:24:54Z</time>
      </trkpt>
      <trkpt lat="44.78146" lon="-0.37744">
        <ele>93</ele>
        <time>2014-04-06T15:24:58Z</time>
      </trkpt>
      <trkpt lat="44.78144" lon="-0.37814">
        <ele>93</ele>
        <time>2014-04-06T15:25:06Z</time>
      </trkpt>
      <trkpt lat="44.78141" lon="-0.37856">
        <ele>96</ele>
        <time>2014-04-06T15:25:11Z</time>
      </trkpt>
      <trkpt lat="44.78136" lon="-0.37911">
        <ele>98</ele>
        <time>2014-04-06T15:25:18Z</time>
      </trkpt>
      <trkpt lat="44.78135" lon="-0.37954">
        <ele>98</ele>
        <time>2014-04-06T15:25:25Z</time>
      </trkpt>
      <trkpt lat="44.78134" lon="-0.37983">
        <ele>98</ele>
        <time>2014-04-06T15:25:32Z</time>
      </trkpt>
      <trkpt lat="44.78133" lon="-0.38021">
        <ele>98</ele>
        <time>2014-04-06T15:25:38Z</time>
      </trkpt>
      <trkpt lat="44.78134" lon="-0.38028">
        <ele>98</ele>
        <time>2014-04-06T15:25:39Z</time>
      </trkpt>
      <trkpt lat="44.78136" lon="-0.38053">
        <ele>98</ele>
        <time>2014-04-06T15:25:43Z</time>
      </trkpt>
      <trkpt lat="44.78137" lon="-0.38059">
        <ele>98</ele>
        <time>2014-04-06T15:25:44Z</time>
      </trkpt>
      <trkpt lat="44.78138" lon="-0.38064">
        <ele>98</ele>
        <time>2014-04-06T15:25:45Z</time>
      </trkpt>
      <trkpt lat="44.78139" lon="-0.38068">
        <ele>98</ele>
        <time>2014-04-06T15:25:46Z</time>
      </trkpt>
      <trkpt lat="44.78139" lon="-0.38073">
        <ele>98</ele>
        <time>2014-04-06T15:25:47Z</time>
      </trkpt>
      <trkpt lat="44.78138" lon="-0.38076">
        <ele>98</ele>
        <time>2014-04-06T15:25:48Z</time>
      </trkpt>
      <trkpt lat="44.78135" lon="-0.38078">
        <ele>98</ele>
        <time>2014-04-06T15:25:49Z</time>
      </trkpt>
      <trkpt lat="44.78133" lon="-0.3808">
        <ele>98</ele>
        <time>2014-04-06T15:25:50Z</time>
      </trkpt>
      <trkpt lat="44.78129" lon="-0.38082">
        <ele>98</ele>
        <time>2014-04-06T15:25:51Z</time>
      </trkpt>
      <trkpt lat="44.78097" lon="-0.3811">
        <ele>97</ele>
        <time>2014-04-06T15:25:58Z</time>
      </trkpt>
      <trkpt lat="44.78064" lon="-0.38144">
        <ele>95</ele>
        <time>2014-04-06T15:26:04Z</time>
      </trkpt>
      <trkpt lat="44.78041" lon="-0.38167">
        <ele>95</ele>
        <time>2014-04-06T15:26:09Z</time>
      </trkpt>
      <trkpt lat="44.78024" lon="-0.38184">
        <ele>96</ele>
        <time>2014-04-06T15:26:15Z</time>
      </trkpt>
      <trkpt lat="44.77999" lon="-0.38207">
        <ele>97</ele>
        <time>2014-04-06T15:26:22Z</time>
      </trkpt>
      <trkpt lat="44.77988" lon="-0.38218">
        <ele>97</ele>
        <time>2014-04-06T15:26:25Z</time>
      </trkpt>
      <trkpt lat="44.77959" lon="-0.38249">
        <ele>97</ele>
        <time>2014-04-06T15:26:34Z</time>
      </trkpt>
      <trkpt lat="44.77939" lon="-0.38274">
        <ele>97</ele>
        <time>2014-04-06T15:26:43Z</time>
      </trkpt>
      <trkpt lat="44.77924" lon="-0.3829">
        <ele>97</ele>
        <time>2014-04-06T15:26:49Z</time>
      </trkpt>
      <trkpt lat="44.77907" lon="-0.38313">
        <ele>96</ele>
        <time>2014-04-06T15:26:56Z</time>
      </trkpt>
      <trkpt lat="44.77899" lon="-0.38322">
        <ele>96</ele>
        <time>2014-04-06T15:26:59Z</time>
      </trkpt>
      <trkpt lat="44.77896" lon="-0.38323">
        <ele>95</ele>
        <time>2014-04-06T15:27:00Z</time>
      </trkpt>
      <trkpt lat="44.77894" lon="-0.38322">
        <ele>95</ele>
        <time>2014-04-06T15:27:01Z</time>
      </trkpt>
      <trkpt lat="44.77891" lon="-0.3832">
        <ele>95</ele>
        <time>2014-04-06T15:27:02Z</time>
      </trkpt>
      <trkpt lat="44.77889" lon="-0.38318">
        <ele>95</ele>
        <time>2014-04-06T15:27:03Z</time>
      </trkpt>
      <trkpt lat="44.7787" lon="-0.38299">
        <ele>95</ele>
        <time>2014-04-06T15:27:10Z</time>
      </trkpt>
      <trkpt lat="44.77847" lon="-0.38283">
        <ele>95</ele>
        <time>2014-04-06T15:27:19Z</time>
      </trkpt>
      <trkpt lat="44.77837" lon="-0.38276">
        <ele>95</ele>
        <time>2014-04-06T15:27:24Z</time>
      </trkpt>
      <trkpt lat="44.7783" lon="-0.38267">
        <ele>95</ele>
        <time>2014-04-06T15:27:29Z</time>
      </trkpt>
      <trkpt lat="44.7783" lon="-0.38266">
        <ele>95</ele>
        <time>2014-04-06T15:27:35Z</time>
      </trkpt>
      <trkpt lat="44.77831" lon="-0.38261">
        <ele>95</ele>
        <time>2014-04-06T15:27:43Z</time>
      </trkpt>
      <trkpt lat="44.77831" lon="-0.38259">
        <ele>95</ele>
        <time>2014-04-06T15:27:50Z</time>
      </trkpt>
      <trkpt lat="44.77831" lon="-0.38259">
        <ele>95</ele>
        <time>2014-04-06T15:27:57Z</time>
      </trkpt>
      <trkpt lat="44.77831" lon="-0.38259">
        <ele>95</ele>
        <time>2014-04-06T15:28:10Z</time>
      </trkpt>
      <trkpt lat="44.77831" lon="-0.38259">
        <ele>95</ele>
        <time>2014-04-06T15:28:19Z</time>
      </trkpt>
      <trkpt lat="44.77831" lon="-0.38259">
        <ele>95</ele>
        <time>2014-04-06T15:28:32Z</time>
      </trkpt>
      <trkpt lat="44.77831" lon="-0.38258">
        <ele>95</ele>
        <time>2014-04-06T15:28:43Z</time>
      </trkpt>
      <trkpt lat="44.7783" lon="-0.3825">
        <ele>96</ele>
        <time>2014-04-06T15:28:50Z</time>
      </trkpt>
      <trkpt lat="44.77829" lon="-0.38249">
        <ele>96</ele>
        <time>2014-04-06T15:28:51Z</time>
      </trkpt>
      <trkpt lat="44.77831" lon="-0.38244">
        <ele>96</ele>
        <time>2014-04-06T15:28:54Z</time>
      </trkpt>
      <trkpt lat="44.77831" lon="-0.38242">
        <ele>96</ele>
        <time>2014-04-06T15:28:55Z</time>
      </trkpt>
      <trkpt lat="44.77826" lon="-0.38218">
        <ele>96</ele>
        <time>2014-04-06T15:29:01Z</time>
      </trkpt>
      <trkpt lat="44.77823" lon="-0.38197">
        <ele>96</ele>
        <time>2014-04-06T15:29:06Z</time>
      </trkpt>
      <trkpt lat="44.77815" lon="-0.38164">
        <ele>96</ele>
        <time>2014-04-06T15:29:13Z</time>
      </trkpt>
      <trkpt lat="44.77805" lon="-0.38139">
        <ele>96</ele>
        <time>2014-04-06T15:29:19Z</time>
      </trkpt>
      <trkpt lat="44.77795" lon="-0.38115">
        <ele>96</ele>
        <time>2014-04-06T15:29:25Z</time>
      </trkpt>
      <trkpt lat="44.7778" lon="-0.3808">
        <ele>96</ele>
        <time>2014-04-06T15:29:32Z</time>
      </trkpt>
      <trkpt lat="44.77767" lon="-0.38053">
        <ele>95</ele>
        <time>2014-04-06T15:29:36Z</time>
      </trkpt>
      <trkpt lat="44.77757" lon="-0.38041">
        <ele>95</ele>
        <time>2014-04-06T15:29:38Z</time>
      </trkpt>
      <trkpt lat="44.77722" lon="-0.3798">
        <ele>93</ele>
        <time>2014-04-06T15:29:46Z</time>
      </trkpt>
      <trkpt lat="44.7768" lon="-0.37891">
        <ele>91</ele>
        <time>2014-04-06T15:29:56Z</time>
      </trkpt>
      <trkpt lat="44.77664" lon="-0.37846">
        <ele>90</ele>
        <time>2014-04-06T15:30:02Z</time>
      </trkpt>
      <trkpt lat="44.77661" lon="-0.37839">
        <ele>90</ele>
        <time>2014-04-06T15:30:03Z</time>
      </trkpt>
      <trkpt lat="44.77657" lon="-0.37833">
        <ele>90</ele>
        <time>2014-04-06T15:30:04Z</time>
      </trkpt>
      <trkpt lat="44.77653" lon="-0.37826">
        <ele>90</ele>
        <time>2014-04-06T15:30:05Z</time>
      </trkpt>
      <trkpt lat="44.77632" lon="-0.37791">
        <ele>90</ele>
        <time>2014-04-06T15:30:10Z</time>
      </trkpt>
      <trkpt lat="44.77628" lon="-0.37784">
        <ele>90</ele>
        <time>2014-04-06T15:30:11Z</time>
      </trkpt>
      <trkpt lat="44.77611" lon="-0.37761">
        <ele>90</ele>
        <time>2014-04-06T15:30:15Z</time>
      </trkpt>
      <trkpt lat="44.77605" lon="-0.37755">
        <ele>90</ele>
        <time>2014-04-06T15:30:16Z</time>
      </trkpt>
      <trkpt lat="44.776" lon="-0.37749">
        <ele>90</ele>
        <time>2014-04-06T15:30:17Z</time>
      </trkpt>
      <trkpt lat="44.77587" lon="-0.37729">
        <ele>90</ele>
        <time>2014-04-06T15:30:20Z</time>
      </trkpt>
      <trkpt lat="44.77586" lon="-0.37722">
        <ele>90</ele>
        <time>2014-04-06T15:30:21Z</time>
      </trkpt>
      <trkpt lat="44.77585" lon="-0.37714">
        <ele>90</ele>
        <time>2014-04-06T15:30:22Z</time>
      </trkpt>
      <trkpt lat="44.77585" lon="-0.37707">
        <ele>90</ele>
        <time>2014-04-06T15:30:23Z</time>
      </trkpt>
      <trkpt lat="44.77584" lon="-0.377">
        <ele>90</ele>
        <time>2014-04-06T15:30:24Z</time>
      </trkpt>
      <trkpt lat="44.77584" lon="-0.37693">
        <ele>90</ele>
        <time>2014-04-06T15:30:25Z</time>
      </trkpt>
      <trkpt lat="44.77583" lon="-0.37686">
        <ele>90</ele>
        <time>2014-04-06T15:30:26Z</time>
      </trkpt>
      <trkpt lat="44.77578" lon="-0.37661">
        <ele>89</ele>
        <time>2014-04-06T15:30:31Z</time>
      </trkpt>
      <trkpt lat="44.77569" lon="-0.37631">
        <ele>88</ele>
        <time>2014-04-06T15:30:38Z</time>
      </trkpt>
      <trkpt lat="44.7756" lon="-0.37616">
        <ele>87</ele>
        <time>2014-04-06T15:30:43Z</time>
      </trkpt>
      <trkpt lat="44.77553" lon="-0.37608">
        <ele>87</ele>
        <time>2014-04-06T15:30:49Z</time>
      </trkpt>
      <trkpt lat="44.77553" lon="-0.37606">
        <ele>87</ele>
        <time>2014-04-06T15:30:50Z</time>
      </trkpt>
      <trkpt lat="44.77553" lon="-0.37604">
        <ele>87</ele>
        <time>2014-04-06T15:30:51Z</time>
      </trkpt>
      <trkpt lat="44.77553" lon="-0.37602">
        <ele>87</ele>
        <time>2014-04-06T15:30:52Z</time>
      </trkpt>
      <trkpt lat="44.77553" lon="-0.37599">
        <ele>86</ele>
        <time>2014-04-06T15:30:53Z</time>
      </trkpt>
      <trkpt lat="44.77553" lon="-0.37596">
        <ele>86</ele>
        <time>2014-04-06T15:30:54Z</time>
      </trkpt>
      <trkpt lat="44.77552" lon="-0.37593">
        <ele>86</ele>
        <time>2014-04-06T15:30:55Z</time>
      </trkpt>
      <trkpt lat="44.77546" lon="-0.37576">
        <ele>85</ele>
        <time>2014-04-06T15:31:02Z</time>
      </trkpt>
      <trkpt lat="44.77545" lon="-0.37564">
        <ele>84</ele>
        <time>2014-04-06T15:31:05Z</time>
      </trkpt>
      <trkpt lat="44.77544" lon="-0.3756">
        <ele>84</ele>
        <time>2014-04-06T15:31:06Z</time>
      </trkpt>
      <trkpt lat="44.77541" lon="-0.37535">
        <ele>82</ele>
        <time>2014-04-06T15:31:13Z</time>
      </trkpt>
      <trkpt lat="44.77546" lon="-0.37525">
        <ele>81</ele>
        <time>2014-04-06T15:31:20Z</time>
      </trkpt>
      <trkpt lat="44.77546" lon="-0.37523">
        <ele>81</ele>
        <time>2014-04-06T15:31:21Z</time>
      </trkpt>
      <trkpt lat="44.77546" lon="-0.37521">
        <ele>81</ele>
        <time>2014-04-06T15:31:22Z</time>
      </trkpt>
      <trkpt lat="44.77545" lon="-0.37519">
        <ele>81</ele>
        <time>2014-04-06T15:31:23Z</time>
      </trkpt>
      <trkpt lat="44.77543" lon="-0.37516">
        <ele>81</ele>
        <time>2014-04-06T15:31:24Z</time>
      </trkpt>
      <trkpt lat="44.77543" lon="-0.37513">
        <ele>81</ele>
        <time>2014-04-06T15:31:25Z</time>
      </trkpt>
      <trkpt lat="44.77542" lon="-0.37509">
        <ele>80</ele>
        <time>2014-04-06T15:31:26Z</time>
      </trkpt>
      <trkpt lat="44.77542" lon="-0.37505">
        <ele>80</ele>
        <time>2014-04-06T15:31:27Z</time>
      </trkpt>
      <trkpt lat="44.77534" lon="-0.37484">
        <ele>79</ele>
        <time>2014-04-06T15:31:32Z</time>
      </trkpt>
      <trkpt lat="44.77522" lon="-0.37454">
        <ele>76</ele>
        <time>2014-04-06T15:31:38Z</time>
      </trkpt>
      <trkpt lat="44.77515" lon="-0.37434">
        <ele>75</ele>
        <time>2014-04-06T15:31:43Z</time>
      </trkpt>
      <trkpt lat="44.77512" lon="-0.37432">
        <ele>75</ele>
        <time>2014-04-06T15:31:44Z</time>
      </trkpt>
      <trkpt lat="44.77511" lon="-0.3743">
        <ele>75</ele>
        <time>2014-04-06T15:31:45Z</time>
      </trkpt>
      <trkpt lat="44.77503" lon="-0.37419">
        <ele>74</ele>
        <time>2014-04-06T15:31:52Z</time>
      </trkpt>
      <trkpt lat="44.77502" lon="-0.37414">
        <ele>74</ele>
        <time>2014-04-06T15:31:58Z</time>
      </trkpt>
      <trkpt lat="44.77502" lon="-0.37413">
        <ele>74</ele>
        <time>2014-04-06T15:31:59Z</time>
      </trkpt>
      <trkpt lat="44.775" lon="-0.3741">
        <ele>74</ele>
        <time>2014-04-06T15:32:00Z</time>
      </trkpt>
      <trkpt lat="44.77498" lon="-0.37408">
        <ele>74</ele>
        <time>2014-04-06T15:32:01Z</time>
      </trkpt>
      <trkpt lat="44.77496" lon="-0.37405">
        <ele>73</ele>
        <time>2014-04-06T15:32:02Z</time>
      </trkpt>
      <trkpt lat="44.77489" lon="-0.37394">
        <ele>73</ele>
        <time>2014-04-06T15:32:06Z</time>
      </trkpt>
      <trkpt lat="44.77487" lon="-0.37389">
        <ele>72</ele>
        <time>2014-04-06T15:32:08Z</time>
      </trkpt>
      <trkpt lat="44.77486" lon="-0.37385">
        <ele>72</ele>
        <time>2014-04-06T15:32:09Z</time>
      </trkpt>
      <trkpt lat="44.77485" lon="-0.37382">
        <ele>72</ele>
        <time>2014-04-06T15:32:10Z</time>
      </trkpt>
      <trkpt lat="44.77483" lon="-0.37379">
        <ele>71</ele>
        <time>2014-04-06T15:32:11Z</time>
      </trkpt>
      <trkpt lat="44.77481" lon="-0.37376">
        <ele>71</ele>
        <time>2014-04-06T15:32:12Z</time>
      </trkpt>
      <trkpt lat="44.7748" lon="-0.37374">
        <ele>71</ele>
        <time>2014-04-06T15:32:13Z</time>
      </trkpt>
      <trkpt lat="44.77477" lon="-0.37368">
        <ele>71</ele>
        <time>2014-04-06T15:32:17Z</time>
      </trkpt>
      <trkpt lat="44.77471" lon="-0.37357">
        <ele>71</ele>
        <time>2014-04-06T15:32:23Z</time>
      </trkpt>
      <trkpt lat="44.77467" lon="-0.37347">
        <ele>70</ele>
        <time>2014-04-06T15:32:26Z</time>
      </trkpt>
      <trkpt lat="44.77464" lon="-0.37343">
        <ele>70</ele>
        <time>2014-04-06T15:32:32Z</time>
      </trkpt>
      <trkpt lat="44.77463" lon="-0.37341">
        <ele>70</ele>
        <time>2014-04-06T15:32:39Z</time>
      </trkpt>
      <trkpt lat="44.77462" lon="-0.37339">
        <ele>70</ele>
        <time>2014-04-06T15:32:45Z</time>
      </trkpt>
      <trkpt lat="44.77462" lon="-0.3734">
        <ele>70</ele>
        <time>2014-04-06T15:32:52Z</time>
      </trkpt>
      <trkpt lat="44.77462" lon="-0.37338">
        <ele>70</ele>
        <time>2014-04-06T15:33:02Z</time>
      </trkpt>
      <trkpt lat="44.7746" lon="-0.37337">
        <ele>70</ele>
        <time>2014-04-06T15:33:14Z</time>
      </trkpt>
      <trkpt lat="44.77455" lon="-0.37331">
        <ele>70</ele>
        <time>2014-04-06T15:33:28Z</time>
      </trkpt>
      <trkpt lat="44.77451" lon="-0.37325">
        <ele>70</ele>
        <time>2014-04-06T15:33:39Z</time>
      </trkpt>
      <trkpt lat="44.7745" lon="-0.37323">
        <ele>70</ele>
        <time>2014-04-06T15:33:47Z</time>
      </trkpt>
      <trkpt lat="44.77449" lon="-0.37323">
        <ele>69</ele>
        <time>2014-04-06T15:33:59Z</time>
      </trkpt>
      <trkpt lat="44.77449" lon="-0.37323">
        <ele>69</ele>
        <time>2014-04-06T15:34:13Z</time>
      </trkpt>
      <trkpt lat="44.77449" lon="-0.37323">
        <ele>69</ele>
        <time>2014-04-06T15:34:27Z</time>
      </trkpt>
      <trkpt lat="44.77449" lon="-0.37323">
        <ele>69</ele>
        <time>2014-04-06T15:34:34Z</time>
      </trkpt>
      <trkpt lat="44.77449" lon="-0.37323">
        <ele>69</ele>
        <time>2014-04-06T15:34:44Z</time>
      </trkpt>
      <trkpt lat="44.77449" lon="-0.37323">
        <ele>69</ele>
        <time>2014-04-06T15:34:56Z</time>
      </trkpt>
      <trkpt lat="44.77449" lon="-0.37323">
        <ele>69</ele>
        <time>2014-04-06T15:35:10Z</time>
      </trkpt>
      <trkpt lat="44.77448" lon="-0.37322">
        <ele>69</ele>
        <time>2014-04-06T15:35:21Z</time>
      </trkpt>
      <trkpt lat="44.77448" lon="-0.37323">
        <ele>69</ele>
        <time>2014-04-06T15:35:27Z</time>
      </trkpt>
      <trkpt lat="44.77448" lon="-0.37323">
        <ele>69</ele>
        <time>2014-04-06T15:35:32Z</time>
      </trkpt>
      <trkpt lat="44.77448" lon="-0.37323">
        <ele>69</ele>
        <time>2014-04-06T15:35:48Z</time>
      </trkpt>
      <trkpt lat="44.77448" lon="-0.37322">
        <ele>69</ele>
        <time>2014-04-06T15:36:07Z</time>
      </trkpt>
      <trkpt lat="44.77448" lon="-0.37322">
        <ele>69</ele>
        <time>2014-04-06T15:36:18Z</time>
      </trkpt>
      <trkpt lat="44.77448" lon="-0.37322">
        <ele>69</ele>
        <time>2014-04-06T15:36:31Z</time>
      </trkpt>
      <trkpt lat="44.77447" lon="-0.37323">
        <ele>69</ele>
        <time>2014-04-06T15:36:46Z</time>
      </trkpt>
      <trkpt lat="44.77447" lon="-0.37323">
        <ele>69</ele>
        <time>2014-04-06T15:37:00Z</time>
      </trkpt>
      <trkpt lat="44.77446" lon="-0.37323">
        <ele>69</ele>
        <time>2014-04-06T15:37:20Z</time>
      </trkpt>
      <trkpt lat="44.77446" lon="-0.37323">
        <ele>69</ele>
        <time>2014-04-06T15:37:31Z</time>
      </trkpt>
      <trkpt lat="44.77445" lon="-0.37322">
        <ele>69</ele>
        <time>2014-04-06T15:37:37Z</time>
      </trkpt>
      <trkpt lat="44.77443" lon="-0.3732">
        <ele>69</ele>
        <time>2014-04-06T15:37:38Z</time>
      </trkpt>
      <trkpt lat="44.77435" lon="-0.37312">
        <ele>69</ele>
        <time>2014-04-06T15:37:43Z</time>
      </trkpt>
      <trkpt lat="44.77425" lon="-0.37301">
        <ele>69</ele>
        <time>2014-04-06T15:37:48Z</time>
      </trkpt>
      <trkpt lat="44.77418" lon="-0.37299">
        <ele>68</ele>
        <time>2014-04-06T15:37:55Z</time>
      </trkpt>
      <trkpt lat="44.77416" lon="-0.37299">
        <ele>68</ele>
        <time>2014-04-06T15:37:59Z</time>
      </trkpt>
      <trkpt lat="44.77403" lon="-0.37292">
        <ele>68</ele>
        <time>2014-04-06T15:38:06Z</time>
      </trkpt>
      <trkpt lat="44.77399" lon="-0.37291">
        <ele>68</ele>
        <time>2014-04-06T15:38:08Z</time>
      </trkpt>
      <trkpt lat="44.77394" lon="-0.37291">
        <ele>68</ele>
        <time>2014-04-06T15:38:12Z</time>
      </trkpt>
      <trkpt lat="44.77384" lon="-0.37292">
        <ele>68</ele>
        <time>2014-04-06T15:38:18Z</time>
      </trkpt>
      <trkpt lat="44.77375" lon="-0.37316">
        <ele>68</ele>
        <time>2014-04-06T15:38:25Z</time>
      </trkpt>
      <trkpt lat="44.77373" lon="-0.37324">
        <ele>68</ele>
        <time>2014-04-06T15:38:27Z</time>
      </trkpt>
      <trkpt lat="44.77371" lon="-0.37351">
        <ele>68</ele>
        <time>2014-04-06T15:38:33Z</time>
      </trkpt>
      <trkpt lat="44.7737" lon="-0.37358">
        <ele>68</ele>
        <time>2014-04-06T15:38:34Z</time>
      </trkpt>
      <trkpt lat="44.77367" lon="-0.37364">
        <ele>68</ele>
        <time>2014-04-06T15:38:35Z</time>
      </trkpt>
      <trkpt lat="44.77365" lon="-0.3737">
        <ele>68</ele>
        <time>2014-04-06T15:38:36Z</time>
      </trkpt>
      <trkpt lat="44.77363" lon="-0.37375">
        <ele>68</ele>
        <time>2014-04-06T15:38:37Z</time>
      </trkpt>
      <trkpt lat="44.77349" lon="-0.37421">
        <ele>68</ele>
        <time>2014-04-06T15:38:44Z</time>
      </trkpt>
      <trkpt lat="44.77344" lon="-0.37438">
        <ele>68</ele>
        <time>2014-04-06T15:38:47Z</time>
      </trkpt>
      <trkpt lat="44.77343" lon="-0.37445">
        <ele>68</ele>
        <time>2014-04-06T15:38:48Z</time>
      </trkpt>
      <trkpt lat="44.77343" lon="-0.37451">
        <ele>68</ele>
        <time>2014-04-06T15:38:49Z</time>
      </trkpt>
      <trkpt lat="44.77341" lon="-0.37457">
        <ele>68</ele>
        <time>2014-04-06T15:38:50Z</time>
      </trkpt>
      <trkpt lat="44.7734" lon="-0.37462">
        <ele>68</ele>
        <time>2014-04-06T15:38:51Z</time>
      </trkpt>
      <trkpt lat="44.77338" lon="-0.37468">
        <ele>68</ele>
        <time>2014-04-06T15:38:52Z</time>
      </trkpt>
      <trkpt lat="44.77336" lon="-0.37473">
        <ele>68</ele>
        <time>2014-04-06T15:38:53Z</time>
      </trkpt>
      <trkpt lat="44.77324" lon="-0.375">
        <ele>68</ele>
        <time>2014-04-06T15:38:58Z</time>
      </trkpt>
      <trkpt lat="44.77321" lon="-0.37513">
        <ele>68</ele>
        <time>2014-04-06T15:39:00Z</time>
      </trkpt>
      <trkpt lat="44.77314" lon="-0.37554">
        <ele>68</ele>
        <time>2014-04-06T15:39:06Z</time>
      </trkpt>
      <trkpt lat="44.77314" lon="-0.37561">
        <ele>68</ele>
        <time>2014-04-06T15:39:07Z</time>
      </trkpt>
      <trkpt lat="44.77313" lon="-0.37567">
        <ele>68</ele>
        <time>2014-04-06T15:39:08Z</time>
      </trkpt>
      <trkpt lat="44.77312" lon="-0.37572">
        <ele>68</ele>
        <time>2014-04-06T15:39:09Z</time>
      </trkpt>
      <trkpt lat="44.77312" lon="-0.37578">
        <ele>67</ele>
        <time>2014-04-06T15:39:10Z</time>
      </trkpt>
      <trkpt lat="44.77311" lon="-0.37583">
        <ele>67</ele>
        <time>2014-04-06T15:39:11Z</time>
      </trkpt>
      <trkpt lat="44.7731" lon="-0.37588">
        <ele>67</ele>
        <time>2014-04-06T15:39:12Z</time>
      </trkpt>
      <trkpt lat="44.77304" lon="-0.37611">
        <ele>66</ele>
        <time>2014-04-06T15:39:17Z</time>
      </trkpt>
      <trkpt lat="44.773" lon="-0.37649">
        <ele>66</ele>
        <time>2014-04-06T15:39:23Z</time>
      </trkpt>
      <trkpt lat="44.77299" lon="-0.37657">
        <ele>66</ele>
        <time>2014-04-06T15:39:24Z</time>
      </trkpt>
      <trkpt lat="44.77294" lon="-0.37677">
        <ele>66</ele>
        <time>2014-04-06T15:39:27Z</time>
      </trkpt>
      <trkpt lat="44.77292" lon="-0.37683">
        <ele>66</ele>
        <time>2014-04-06T15:39:28Z</time>
      </trkpt>
      <trkpt lat="44.77282" lon="-0.37732">
        <ele>66</ele>
        <time>2014-04-06T15:39:35Z</time>
      </trkpt>
      <trkpt lat="44.77275" lon="-0.37768">
        <ele>66</ele>
        <time>2014-04-06T15:39:41Z</time>
      </trkpt>
      <trkpt lat="44.77274" lon="-0.37776">
        <ele>66</ele>
        <time>2014-04-06T15:39:42Z</time>
      </trkpt>
      <trkpt lat="44.77272" lon="-0.37783">
        <ele>66</ele>
        <time>2014-04-06T15:39:43Z</time>
      </trkpt>
      <trkpt lat="44.77266" lon="-0.3783">
        <ele>66</ele>
        <time>2014-04-06T15:39:50Z</time>
      </trkpt>
      <trkpt lat="44.77269" lon="-0.37861">
        <ele>66</ele>
        <time>2014-04-06T15:39:55Z</time>
      </trkpt>
      <trkpt lat="44.77269" lon="-0.37868">
        <ele>66</ele>
        <time>2014-04-06T15:39:56Z</time>
      </trkpt>
      <trkpt lat="44.77267" lon="-0.37873">
        <ele>66</ele>
        <time>2014-04-06T15:39:57Z</time>
      </trkpt>
      <trkpt lat="44.77266" lon="-0.3788">
        <ele>66</ele>
        <time>2014-04-06T15:39:58Z</time>
      </trkpt>
      <trkpt lat="44.77266" lon="-0.37887">
        <ele>66</ele>
        <time>2014-04-06T15:39:59Z</time>
      </trkpt>
      <trkpt lat="44.77265" lon="-0.37892">
        <ele>66</ele>
        <time>2014-04-06T15:40:00Z</time>
      </trkpt>
      <trkpt lat="44.77264" lon="-0.37897">
        <ele>66</ele>
        <time>2014-04-06T15:40:01Z</time>
      </trkpt>
      <trkpt lat="44.77264" lon="-0.37905">
        <ele>65</ele>
        <time>2014-04-06T15:40:02Z</time>
      </trkpt>
      <trkpt lat="44.77263" lon="-0.37912">
        <ele>65</ele>
        <time>2014-04-06T15:40:03Z</time>
      </trkpt>
      <trkpt lat="44.77264" lon="-0.37919">
        <ele>65</ele>
        <time>2014-04-06T15:40:04Z</time>
      </trkpt>
      <trkpt lat="44.77265" lon="-0.37957">
        <ele>65</ele>
        <time>2014-04-06T15:40:08Z</time>
      </trkpt>
      <trkpt lat="44.77263" lon="-0.37995">
        <ele>64</ele>
        <time>2014-04-06T15:40:14Z</time>
      </trkpt>
      <trkpt lat="44.77263" lon="-0.38007">
        <ele>64</ele>
        <time>2014-04-06T15:40:16Z</time>
      </trkpt>
      <trkpt lat="44.77264" lon="-0.38038">
        <ele>64</ele>
        <time>2014-04-06T15:40:22Z</time>
      </trkpt>
      <trkpt lat="44.77257" lon="-0.38056">
        <ele>63</ele>
        <time>2014-04-06T15:40:27Z</time>
      </trkpt>
      <trkpt lat="44.77253" lon="-0.38078">
        <ele>63</ele>
        <time>2014-04-06T15:40:32Z</time>
      </trkpt>
      <trkpt lat="44.77255" lon="-0.38114">
        <ele>63</ele>
        <time>2014-04-06T15:40:38Z</time>
      </trkpt>
      <trkpt lat="44.77257" lon="-0.3812">
        <ele>63</ele>
        <time>2014-04-06T15:40:39Z</time>
      </trkpt>
      <trkpt lat="44.77261" lon="-0.38128">
        <ele>63</ele>
        <time>2014-04-06T15:40:40Z</time>
      </trkpt>
      <trkpt lat="44.77275" lon="-0.3814">
        <ele>62</ele>
        <time>2014-04-06T15:40:45Z</time>
      </trkpt>
      <trkpt lat="44.77297" lon="-0.38155">
        <ele>62</ele>
        <time>2014-04-06T15:40:53Z</time>
      </trkpt>
      <trkpt lat="44.77306" lon="-0.38167">
        <ele>63</ele>
        <time>2014-04-06T15:40:59Z</time>
      </trkpt>
      <trkpt lat="44.77309" lon="-0.38182">
        <ele>63</ele>
        <time>2014-04-06T15:41:05Z</time>
      </trkpt>
      <trkpt lat="44.77308" lon="-0.3819">
        <ele>62</ele>
        <time>2014-04-06T15:41:08Z</time>
      </trkpt>
      <trkpt lat="44.77312" lon="-0.38205">
        <ele>63</ele>
        <time>2014-04-06T15:41:13Z</time>
      </trkpt>
      <trkpt lat="44.7731" lon="-0.38217">
        <ele>63</ele>
        <time>2014-04-06T15:41:17Z</time>
      </trkpt>
      <trkpt lat="44.7731" lon="-0.38227">
        <ele>63</ele>
        <time>2014-04-06T15:41:23Z</time>
      </trkpt>
      <trkpt lat="44.77309" lon="-0.38228">
        <ele>63</ele>
        <time>2014-04-06T15:41:34Z</time>
      </trkpt>
      <trkpt lat="44.77309" lon="-0.38228">
        <ele>63</ele>
        <time>2014-04-06T15:41:41Z</time>
      </trkpt>
      <trkpt lat="44.77309" lon="-0.38229">
        <ele>63</ele>
        <time>2014-04-06T15:41:42Z</time>
      </trkpt>
      <trkpt lat="44.7731" lon="-0.3825">
        <ele>63</ele>
        <time>2014-04-06T15:41:48Z</time>
      </trkpt>
      <trkpt lat="44.77314" lon="-0.38303">
        <ele>63</ele>
        <time>2014-04-06T15:41:57Z</time>
      </trkpt>
      <trkpt lat="44.77316" lon="-0.38352">
        <ele>63</ele>
        <time>2014-04-06T15:42:02Z</time>
      </trkpt>
      <trkpt lat="44.77319" lon="-0.38415">
        <ele>62</ele>
        <time>2014-04-06T15:42:08Z</time>
      </trkpt>
      <trkpt lat="44.77319" lon="-0.38434">
        <ele>62</ele>
        <time>2014-04-06T15:42:11Z</time>
      </trkpt>
      <trkpt lat="44.77315" lon="-0.38437">
        <ele>62</ele>
        <time>2014-04-06T15:42:12Z</time>
      </trkpt>
      <trkpt lat="44.7731" lon="-0.38439">
        <ele>62</ele>
        <time>2014-04-06T15:42:13Z</time>
      </trkpt>
      <trkpt lat="44.77282" lon="-0.38446">
        <ele>61</ele>
        <time>2014-04-06T15:42:18Z</time>
      </trkpt>
      <trkpt lat="44.77277" lon="-0.38447">
        <ele>61</ele>
        <time>2014-04-06T15:42:19Z</time>
      </trkpt>
      <trkpt lat="44.77272" lon="-0.38447">
        <ele>61</ele>
        <time>2014-04-06T15:42:20Z</time>
      </trkpt>
      <trkpt lat="44.77267" lon="-0.38448">
        <ele>61</ele>
        <time>2014-04-06T15:42:21Z</time>
      </trkpt>
      <trkpt lat="44.77263" lon="-0.38448">
        <ele>61</ele>
        <time>2014-04-06T15:42:22Z</time>
      </trkpt>
      <trkpt lat="44.77259" lon="-0.38449">
        <ele>60</ele>
        <time>2014-04-06T15:42:23Z</time>
      </trkpt>
      <trkpt lat="44.77235" lon="-0.38453">
        <ele>60</ele>
        <time>2014-04-06T15:42:29Z</time>
      </trkpt>
      <trkpt lat="44.77223" lon="-0.38455">
        <ele>61</ele>
        <time>2014-04-06T15:42:36Z</time>
      </trkpt>
      <trkpt lat="44.77221" lon="-0.38455">
        <ele>61</ele>
        <time>2014-04-06T15:42:44Z</time>
      </trkpt>
      <trkpt lat="44.77218" lon="-0.38457">
        <ele>61</ele>
        <time>2014-04-06T15:42:55Z</time>
      </trkpt>
      <trkpt lat="44.77215" lon="-0.38457">
        <ele>61</ele>
        <time>2014-04-06T15:43:03Z</time>
      </trkpt>
      <trkpt lat="44.77212" lon="-0.38457">
        <ele>61</ele>
        <time>2014-04-06T15:43:11Z</time>
      </trkpt>
      <trkpt lat="44.77209" lon="-0.38457">
        <ele>61</ele>
        <time>2014-04-06T15:43:21Z</time>
      </trkpt>
      <trkpt lat="44.77206" lon="-0.38459">
        <ele>61</ele>
        <time>2014-04-06T15:43:28Z</time>
      </trkpt>
      <trkpt lat="44.77204" lon="-0.38461">
        <ele>61</ele>
        <time>2014-04-06T15:43:35Z</time>
      </trkpt>
      <trkpt lat="44.77203" lon="-0.38466">
        <ele>61</ele>
        <time>2014-04-06T15:43:41Z</time>
      </trkpt>
      <trkpt lat="44.77202" lon="-0.3847">
        <ele>61</ele>
        <time>2014-04-06T15:43:50Z</time>
      </trkpt>
      <trkpt lat="44.77203" lon="-0.38473">
        <ele>61</ele>
        <time>2014-04-06T15:44:00Z</time>
      </trkpt>
      <trkpt lat="44.77201" lon="-0.38474">
        <ele>62</ele>
        <time>2014-04-06T15:44:08Z</time>
      </trkpt>
      <trkpt lat="44.772" lon="-0.38475">
        <ele>62</ele>
        <time>2014-04-06T15:44:19Z</time>
      </trkpt>
      <trkpt lat="44.77199" lon="-0.38474">
        <ele>62</ele>
        <time>2014-04-06T15:44:30Z</time>
      </trkpt>
      <trkpt lat="44.77198" lon="-0.38474">
        <ele>62</ele>
        <time>2014-04-06T15:44:36Z</time>
      </trkpt>
      <trkpt lat="44.77197" lon="-0.38474">
        <ele>62</ele>
        <time>2014-04-06T15:44:44Z</time>
      </trkpt>
      <trkpt lat="44.77192" lon="-0.38476">
        <ele>62</ele>
        <time>2014-04-06T15:44:47Z</time>
      </trkpt>
      <trkpt lat="44.77182" lon="-0.38476">
        <ele>63</ele>
        <time>2014-04-06T15:44:55Z</time>
      </trkpt>
      <trkpt lat="44.77178" lon="-0.38478">
        <ele>63</ele>
        <time>2014-04-06T15:44:58Z</time>
      </trkpt>
      <trkpt lat="44.77176" lon="-0.38479">
        <ele>63</ele>
        <time>2014-04-06T15:44:59Z</time>
      </trkpt>
      <trkpt lat="44.77174" lon="-0.3848">
        <ele>63</ele>
        <time>2014-04-06T15:45:00Z</time>
      </trkpt>
      <trkpt lat="44.77172" lon="-0.3848">
        <ele>63</ele>
        <time>2014-04-06T15:45:01Z</time>
      </trkpt>
      <trkpt lat="44.7717" lon="-0.38479">
        <ele>64</ele>
        <time>2014-04-06T15:45:02Z</time>
      </trkpt>
      <trkpt lat="44.77168" lon="-0.38479">
        <ele>64</ele>
        <time>2014-04-06T15:45:03Z</time>
      </trkpt>
      <trkpt lat="44.7716" lon="-0.3848">
        <ele>64</ele>
        <time>2014-04-06T15:45:08Z</time>
      </trkpt>
      <trkpt lat="44.77148" lon="-0.38488">
        <ele>66</ele>
        <time>2014-04-06T15:45:15Z</time>
      </trkpt>
      <trkpt lat="44.77136" lon="-0.38493">
        <ele>67</ele>
        <time>2014-04-06T15:45:22Z</time>
      </trkpt>
      <trkpt lat="44.77136" lon="-0.38497">
        <ele>67</ele>
        <time>2014-04-06T15:45:28Z</time>
      </trkpt>
      <trkpt lat="44.77137" lon="-0.38499">
        <ele>67</ele>
        <time>2014-04-06T15:45:29Z</time>
      </trkpt>
      <trkpt lat="44.77141" lon="-0.38504">
        <ele>67</ele>
        <time>2014-04-06T15:45:32Z</time>
      </trkpt>
      <trkpt lat="44.77143" lon="-0.38505">
        <ele>66</ele>
        <time>2014-04-06T15:45:33Z</time>
      </trkpt>
      <trkpt lat="44.77145" lon="-0.38506">
        <ele>66</ele>
        <time>2014-04-06T15:45:34Z</time>
      </trkpt>
      <trkpt lat="44.77156" lon="-0.38516">
        <ele>66</ele>
        <time>2014-04-06T15:45:42Z</time>
      </trkpt>
      <trkpt lat="44.77159" lon="-0.38524">
        <ele>66</ele>
        <time>2014-04-06T15:45:48Z</time>
      </trkpt>
      <trkpt lat="44.7716" lon="-0.3853">
        <ele>66</ele>
        <time>2014-04-06T15:45:51Z</time>
      </trkpt>
      <trkpt lat="44.77161" lon="-0.38533">
        <ele>66</ele>
        <time>2014-04-06T15:45:52Z</time>
      </trkpt>
      <trkpt lat="44.77167" lon="-0.38542">
        <ele>66</ele>
        <time>2014-04-06T15:45:57Z</time>
      </trkpt>
      <trkpt lat="44.77174" lon="-0.38568">
        <ele>66</ele>
        <time>2014-04-06T15:46:04Z</time>
      </trkpt>
      <trkpt lat="44.77179" lon="-0.38582">
        <ele>66</ele>
        <time>2014-04-06T15:46:09Z</time>
      </trkpt>
      <trkpt lat="44.77177" lon="-0.38588">
        <ele>67</ele>
        <time>2014-04-06T15:46:11Z</time>
      </trkpt>
      <trkpt lat="44.77179" lon="-0.38603">
        <ele>67</ele>
        <time>2014-04-06T15:46:18Z</time>
      </trkpt>
      <trkpt lat="44.77179" lon="-0.38608">
        <ele>67</ele>
        <time>2014-04-06T15:46:26Z</time>
      </trkpt>
      <trkpt lat="44.77177" lon="-0.38612">
        <ele>67</ele>
        <time>2014-04-06T15:46:30Z</time>
      </trkpt>
      <trkpt lat="44.77179" lon="-0.38622">
        <ele>68</ele>
        <time>2014-04-06T15:46:35Z</time>
      </trkpt>
      <trkpt lat="44.77181" lon="-0.38633">
        <ele>68</ele>
        <time>2014-04-06T15:46:39Z</time>
      </trkpt>
      <trkpt lat="44.77181" lon="-0.38637">
        <ele>68</ele>
        <time>2014-04-06T15:46:41Z</time>
      </trkpt>
      <trkpt lat="44.7718" lon="-0.38658">
        <ele>69</ele>
        <time>2014-04-06T15:46:47Z</time>
      </trkpt>
      <trkpt lat="44.77182" lon="-0.38669">
        <ele>69</ele>
        <time>2014-04-06T15:46:51Z</time>
      </trkpt>
      <trkpt lat="44.77188" lon="-0.38692">
        <ele>70</ele>
        <time>2014-04-06T15:46:58Z</time>
      </trkpt>
      <trkpt lat="44.77185" lon="-0.38708">
        <ele>71</ele>
        <time>2014-04-06T15:47:05Z</time>
      </trkpt>
      <trkpt lat="44.77181" lon="-0.38721">
        <ele>71</ele>
        <time>2014-04-06T15:47:12Z</time>
      </trkpt>
      <trkpt lat="44.77182" lon="-0.38723">
        <ele>71</ele>
        <time>2014-04-06T15:47:18Z</time>
      </trkpt>
      <trkpt lat="44.77185" lon="-0.38734">
        <ele>71</ele>
        <time>2014-04-06T15:47:24Z</time>
      </trkpt>
      <trkpt lat="44.77185" lon="-0.38738">
        <ele>71</ele>
        <time>2014-04-06T15:47:26Z</time>
      </trkpt>
      <trkpt lat="44.77202" lon="-0.38755">
        <ele>69</ele>
        <time>2014-04-06T15:47:34Z</time>
      </trkpt>
      <trkpt lat="44.7721" lon="-0.38765">
        <ele>68</ele>
        <time>2014-04-06T15:47:38Z</time>
      </trkpt>
      <trkpt lat="44.77216" lon="-0.38784">
        <ele>67</ele>
        <time>2014-04-06T15:47:43Z</time>
      </trkpt>
      <trkpt lat="44.77226" lon="-0.38805">
        <ele>65</ele>
        <time>2014-04-06T15:47:48Z</time>
      </trkpt>
      <trkpt lat="44.77228" lon="-0.38807">
        <ele>65</ele>
        <time>2014-04-06T15:47:49Z</time>
      </trkpt>
      <trkpt lat="44.77236" lon="-0.38825">
        <ele>64</ele>
        <time>2014-04-06T15:47:54Z</time>
      </trkpt>
      <trkpt lat="44.77238" lon="-0.3884">
        <ele>63</ele>
        <time>2014-04-06T15:48:00Z</time>
      </trkpt>
      <trkpt lat="44.77236" lon="-0.38851">
        <ele>63</ele>
        <time>2014-04-06T15:48:05Z</time>
      </trkpt>
      <trkpt lat="44.77235" lon="-0.38863">
        <ele>63</ele>
        <time>2014-04-06T15:48:11Z</time>
      </trkpt>
      <trkpt lat="44.77232" lon="-0.38867">
        <ele>64</ele>
        <time>2014-04-06T15:48:13Z</time>
      </trkpt>
      <trkpt lat="44.77234" lon="-0.3887">
        <ele>63</ele>
        <time>2014-04-06T15:48:17Z</time>
      </trkpt>
      <trkpt lat="44.77242" lon="-0.38892">
        <ele>62</ele>
        <time>2014-04-06T15:48:23Z</time>
      </trkpt>
      <trkpt lat="44.77277" lon="-0.38946">
        <ele>59</ele>
        <time>2014-04-06T15:48:28Z</time>
      </trkpt>
      <trkpt lat="44.77271" lon="-0.38951">
        <ele>59</ele>
        <time>2014-04-06T15:48:35Z</time>
      </trkpt>
      <trkpt lat="44.77272" lon="-0.38957">
        <ele>59</ele>
        <time>2014-04-06T15:48:41Z</time>
      </trkpt>
      <trkpt lat="44.77275" lon="-0.3897">
        <ele>60</ele>
        <time>2014-04-06T15:48:48Z</time>
      </trkpt>
      <trkpt lat="44.7728" lon="-0.38977">
        <ele>60</ele>
        <time>2014-04-06T15:48:55Z</time>
      </trkpt>
      <trkpt lat="44.77284" lon="-0.38989">
        <ele>60</ele>
        <time>2014-04-06T15:49:01Z</time>
      </trkpt>
      <trkpt lat="44.77289" lon="-0.39002">
        <ele>59</ele>
        <time>2014-04-06T15:49:07Z</time>
      </trkpt>
      <trkpt lat="44.77296" lon="-0.39014">
        <ele>59</ele>
        <time>2014-04-06T15:49:15Z</time>
      </trkpt>
      <trkpt lat="44.77299" lon="-0.3902">
        <ele>59</ele>
        <time>2014-04-06T15:49:18Z</time>
      </trkpt>
      <trkpt lat="44.77316" lon="-0.3904">
        <ele>57</ele>
        <time>2014-04-06T15:49:26Z</time>
      </trkpt>
      <trkpt lat="44.77321" lon="-0.39047">
        <ele>57</ele>
        <time>2014-04-06T15:49:28Z</time>
      </trkpt>
      <trkpt lat="44.77324" lon="-0.39057">
        <ele>57</ele>
        <time>2014-04-06T15:49:31Z</time>
      </trkpt>
      <trkpt lat="44.77325" lon="-0.39077">
        <ele>57</ele>
        <time>2014-04-06T15:49:40Z</time>
      </trkpt>
      <trkpt lat="44.77327" lon="-0.39084">
        <ele>57</ele>
        <time>2014-04-06T15:49:47Z</time>
      </trkpt>
      <trkpt lat="44.77328" lon="-0.39092">
        <ele>57</ele>
        <time>2014-04-06T15:49:55Z</time>
      </trkpt>
      <trkpt lat="44.77326" lon="-0.39105">
        <ele>57</ele>
        <time>2014-04-06T15:50:02Z</time>
      </trkpt>
      <trkpt lat="44.77325" lon="-0.39113">
        <ele>57</ele>
        <time>2014-04-06T15:50:05Z</time>
      </trkpt>
      <trkpt lat="44.7732" lon="-0.39121">
        <ele>58</ele>
        <time>2014-04-06T15:50:12Z</time>
      </trkpt>
      <trkpt lat="44.7732" lon="-0.39122">
        <ele>58</ele>
        <time>2014-04-06T15:50:13Z</time>
      </trkpt>
      <trkpt lat="44.77324" lon="-0.39138">
        <ele>58</ele>
        <time>2014-04-06T15:50:19Z</time>
      </trkpt>
      <trkpt lat="44.77328" lon="-0.39141">
        <ele>57</ele>
        <time>2014-04-06T15:50:22Z</time>
      </trkpt>
      <trkpt lat="44.77332" lon="-0.39148">
        <ele>57</ele>
        <time>2014-04-06T15:50:29Z</time>
      </trkpt>
      <trkpt lat="44.77332" lon="-0.3915">
        <ele>57</ele>
        <time>2014-04-06T15:50:37Z</time>
      </trkpt>
      <trkpt lat="44.77332" lon="-0.39154">
        <ele>57</ele>
        <time>2014-04-06T15:50:50Z</time>
      </trkpt>
      <trkpt lat="44.77331" lon="-0.39158">
        <ele>57</ele>
        <time>2014-04-06T15:51:07Z</time>
      </trkpt>
      <trkpt lat="44.7733" lon="-0.3916">
        <ele>58</ele>
        <time>2014-04-06T15:51:18Z</time>
      </trkpt>
      <trkpt lat="44.7733" lon="-0.39161">
        <ele>58</ele>
        <time>2014-04-06T15:51:33Z</time>
      </trkpt>
      <trkpt lat="44.7733" lon="-0.39162">
        <ele>58</ele>
        <time>2014-04-06T15:51:45Z</time>
      </trkpt>
      <trkpt lat="44.77331" lon="-0.39164">
        <ele>57</ele>
        <time>2014-04-06T15:52:01Z</time>
      </trkpt>
      <trkpt lat="44.77333" lon="-0.39166">
        <ele>57</ele>
        <time>2014-04-06T15:52:18Z</time>
      </trkpt>
      <trkpt lat="44.77333" lon="-0.39166">
        <ele>57</ele>
        <time>2014-04-06T15:52:26Z</time>
      </trkpt>
      <trkpt lat="44.77334" lon="-0.39167">
        <ele>57</ele>
        <time>2014-04-06T15:52:39Z</time>
      </trkpt>
      <trkpt lat="44.77334" lon="-0.39166">
        <ele>57</ele>
        <time>2014-04-06T15:52:52Z</time>
      </trkpt>
      <trkpt lat="44.77335" lon="-0.39166">
        <ele>57</ele>
        <time>2014-04-06T15:53:06Z</time>
      </trkpt>
      <trkpt lat="44.77334" lon="-0.39167">
        <ele>57</ele>
        <time>2014-04-06T15:53:23Z</time>
      </trkpt>
      <trkpt lat="44.77334" lon="-0.39167">
        <ele>57</ele>
        <time>2014-04-06T15:53:34Z</time>
      </trkpt>
      <trkpt lat="44.77334" lon="-0.39167">
        <ele>57</ele>
        <time>2014-04-06T15:53:47Z</time>
      </trkpt>
      <trkpt lat="44.77335" lon="-0.39167">
        <ele>57</ele>
        <time>2014-04-06T15:53:59Z</time>
      </trkpt>
      <trkpt lat="44.77335" lon="-0.39167">
        <ele>57</ele>
        <time>2014-04-06T15:54:12Z</time>
      </trkpt>
      <trkpt lat="44.77336" lon="-0.39167">
        <ele>57</ele>
        <time>2014-04-06T15:54:20Z</time>
      </trkpt>
      <trkpt lat="44.77335" lon="-0.39168">
        <ele>57</ele>
        <time>2014-04-06T15:54:34Z</time>
      </trkpt>
      <trkpt lat="44.77337" lon="-0.39169">
        <ele>57</ele>
        <time>2014-04-06T15:54:40Z</time>
      </trkpt>
      <trkpt lat="44.77342" lon="-0.39172">
        <ele>56</ele>
        <time>2014-04-06T15:54:45Z</time>
      </trkpt>
      <trkpt lat="44.77348" lon="-0.39183">
        <ele>55</ele>
        <time>2014-04-06T15:54:49Z</time>
      </trkpt>
      <trkpt lat="44.7735" lon="-0.39199">
        <ele>55</ele>
        <time>2014-04-06T15:54:55Z</time>
      </trkpt>
      <trkpt lat="44.77351" lon="-0.39207">
        <ele>55</ele>
        <time>2014-04-06T15:54:58Z</time>
      </trkpt>
      <trkpt lat="44.77357" lon="-0.39219">
        <ele>55</ele>
        <time>2014-04-06T15:55:02Z</time>
      </trkpt>
      <trkpt lat="44.77357" lon="-0.39222">
        <ele>55</ele>
        <time>2014-04-06T15:55:03Z</time>
      </trkpt>
      <trkpt lat="44.77361" lon="-0.39236">
        <ele>55</ele>
        <time>2014-04-06T15:55:07Z</time>
      </trkpt>
      <trkpt lat="44.7736" lon="-0.39241">
        <ele>55</ele>
        <time>2014-04-06T15:55:09Z</time>
      </trkpt>
      <trkpt lat="44.77368" lon="-0.39259">
        <ele>55</ele>
        <time>2014-04-06T15:55:15Z</time>
      </trkpt>
      <trkpt lat="44.77367" lon="-0.3927">
        <ele>55</ele>
        <time>2014-04-06T15:55:20Z</time>
      </trkpt>
      <trkpt lat="44.77373" lon="-0.39284">
        <ele>55</ele>
        <time>2014-04-06T15:55:26Z</time>
      </trkpt>
      <trkpt lat="44.77375" lon="-0.3929">
        <ele>55</ele>
        <time>2014-04-06T15:55:31Z</time>
      </trkpt>
      <trkpt lat="44.7738" lon="-0.39301">
        <ele>55</ele>
        <time>2014-04-06T15:55:38Z</time>
      </trkpt>
      <trkpt lat="44.77388" lon="-0.39317">
        <ele>54</ele>
        <time>2014-04-06T15:55:46Z</time>
      </trkpt>
      <trkpt lat="44.77393" lon="-0.39332">
        <ele>54</ele>
        <time>2014-04-06T15:55:52Z</time>
      </trkpt>
      <trkpt lat="44.77397" lon="-0.39342">
        <ele>54</ele>
        <time>2014-04-06T15:55:57Z</time>
      </trkpt>
      <trkpt lat="44.77399" lon="-0.39351">
        <ele>54</ele>
        <time>2014-04-06T15:56:01Z</time>
      </trkpt>
      <trkpt lat="44.7739" lon="-0.39367">
        <ele>55</ele>
        <time>2014-04-06T15:56:08Z</time>
      </trkpt>
      <trkpt lat="44.77389" lon="-0.39375">
        <ele>55</ele>
        <time>2014-04-06T15:56:12Z</time>
      </trkpt>
      <trkpt lat="44.77387" lon="-0.39392">
        <ele>56</ele>
        <time>2014-04-06T15:56:20Z</time>
      </trkpt>
      <trkpt lat="44.77386" lon="-0.39399">
        <ele>56</ele>
        <time>2014-04-06T15:56:26Z</time>
      </trkpt>
      <trkpt lat="44.77393" lon="-0.39411">
        <ele>55</ele>
        <time>2014-04-06T15:56:29Z</time>
      </trkpt>
      <trkpt lat="44.77393" lon="-0.39432">
        <ele>56</ele>
        <time>2014-04-06T15:56:33Z</time>
      </trkpt>
      <trkpt lat="44.77394" lon="-0.39455">
        <ele>56</ele>
        <time>2014-04-06T15:56:41Z</time>
      </trkpt>
      <trkpt lat="44.77389" lon="-0.39465">
        <ele>56</ele>
        <time>2014-04-06T15:56:47Z</time>
      </trkpt>
      <trkpt lat="44.77391" lon="-0.39472">
        <ele>56</ele>
        <time>2014-04-06T15:56:52Z</time>
      </trkpt>
      <trkpt lat="44.77389" lon="-0.39485">
        <ele>56</ele>
        <time>2014-04-06T15:56:59Z</time>
      </trkpt>
      <trkpt lat="44.7739" lon="-0.39487">
        <ele>56</ele>
        <time>2014-04-06T15:57:00Z</time>
      </trkpt>
      <trkpt lat="44.77391" lon="-0.39511">
        <ele>56</ele>
        <time>2014-04-06T15:57:07Z</time>
      </trkpt>
      <trkpt lat="44.77391" lon="-0.39514">
        <ele>56</ele>
        <time>2014-04-06T15:57:08Z</time>
      </trkpt>
      <trkpt lat="44.77391" lon="-0.39534">
        <ele>56</ele>
        <time>2014-04-06T15:57:15Z</time>
      </trkpt>
      <trkpt lat="44.77392" lon="-0.39544">
        <ele>56</ele>
        <time>2014-04-06T15:57:22Z</time>
      </trkpt>
      <trkpt lat="44.77393" lon="-0.39553">
        <ele>56</ele>
        <time>2014-04-06T15:57:27Z</time>
      </trkpt>
      <trkpt lat="44.77394" lon="-0.39557">
        <ele>55</ele>
        <time>2014-04-06T15:57:29Z</time>
      </trkpt>
      <trkpt lat="44.77395" lon="-0.39569">
        <ele>55</ele>
        <time>2014-04-06T15:57:35Z</time>
      </trkpt>
      <trkpt lat="44.77396" lon="-0.3957">
        <ele>55</ele>
        <time>2014-04-06T15:57:36Z</time>
      </trkpt>
      <trkpt lat="44.77412" lon="-0.39605">
        <ele>54</ele>
        <time>2014-04-06T15:57:44Z</time>
      </trkpt>
      <trkpt lat="44.77419" lon="-0.39622">
        <ele>54</ele>
        <time>2014-04-06T15:57:50Z</time>
      </trkpt>
      <trkpt lat="44.77423" lon="-0.39635">
        <ele>54</ele>
        <time>2014-04-06T15:57:54Z</time>
      </trkpt>
      <trkpt lat="44.77425" lon="-0.39639">
        <ele>54</ele>
        <time>2014-04-06T15:57:56Z</time>
      </trkpt>
      <trkpt lat="44.77427" lon="-0.39656">
        <ele>53</ele>
        <time>2014-04-06T15:58:04Z</time>
      </trkpt>
      <trkpt lat="44.77438" lon="-0.39681">
        <ele>53</ele>
        <time>2014-04-06T15:58:11Z</time>
      </trkpt>
      <trkpt lat="44.77436" lon="-0.39694">
        <ele>53</ele>
        <time>2014-04-06T15:58:20Z</time>
      </trkpt>
      <trkpt lat="44.77454" lon="-0.39706">
        <ele>51</ele>
        <time>2014-04-06T16:26:53Z</time>
      </trkpt>
      <trkpt lat="44.77456" lon="-0.39705">
        <ele>51</ele>
        <time>2014-04-06T16:27:00Z</time>
      </trkpt>
      <trkpt lat="44.77461" lon="-0.39705">
        <ele>51</ele>
        <time>2014-04-06T16:27:06Z</time>
      </trkpt>
      <trkpt lat="44.77465" lon="-0.39703">
        <ele>51</ele>
        <time>2014-04-06T16:27:13Z</time>
      </trkpt>
      <trkpt lat="44.77466" lon="-0.39702">
        <ele>51</ele>
        <time>2014-04-06T16:27:15Z</time>
      </trkpt>
      <trkpt lat="44.77469" lon="-0.39697">
        <ele>51</ele>
        <time>2014-04-06T16:27:18Z</time>
      </trkpt>
      <trkpt lat="44.77471" lon="-0.39692">
        <ele>51</ele>
        <time>2014-04-06T16:27:20Z</time>
      </trkpt>
      <trkpt lat="44.77475" lon="-0.3969">
        <ele>50</ele>
        <time>2014-04-06T16:27:22Z</time>
      </trkpt>
      <trkpt lat="44.77481" lon="-0.39684">
        <ele>51</ele>
        <time>2014-04-06T16:27:26Z</time>
      </trkpt>
      <trkpt lat="44.77486" lon="-0.39678">
        <ele>51</ele>
        <time>2014-04-06T16:27:29Z</time>
      </trkpt>
      <trkpt lat="44.77488" lon="-0.39675">
        <ele>51</ele>
        <time>2014-04-06T16:27:31Z</time>
      </trkpt>
      <trkpt lat="44.77504" lon="-0.39662">
        <ele>51</ele>
        <time>2014-04-06T16:27:36Z</time>
      </trkpt>
      <trkpt lat="44.77523" lon="-0.39659">
        <ele>52</ele>
        <time>2014-04-06T16:27:42Z</time>
      </trkpt>
      <trkpt lat="44.77525" lon="-0.39656">
        <ele>52</ele>
        <time>2014-04-06T16:27:43Z</time>
      </trkpt>
      <trkpt lat="44.77527" lon="-0.39652">
        <ele>53</ele>
        <time>2014-04-06T16:27:45Z</time>
      </trkpt>
      <trkpt lat="44.77522" lon="-0.3963">
        <ele>52</ele>
        <time>2014-04-06T16:27:53Z</time>
      </trkpt>
      <trkpt lat="44.7752" lon="-0.39624">
        <ele>52</ele>
        <time>2014-04-06T16:27:55Z</time>
      </trkpt>
      <trkpt lat="44.7752" lon="-0.39611">
        <ele>53</ele>
        <time>2014-04-06T16:27:59Z</time>
      </trkpt>
      <trkpt lat="44.77514" lon="-0.39584">
        <ele>53</ele>
        <time>2014-04-06T16:28:07Z</time>
      </trkpt>
      <trkpt lat="44.77511" lon="-0.39561">
        <ele>53</ele>
        <time>2014-04-06T16:28:13Z</time>
      </trkpt>
      <trkpt lat="44.77511" lon="-0.39544">
        <ele>54</ele>
        <time>2014-04-06T16:28:18Z</time>
      </trkpt>
      <trkpt lat="44.77511" lon="-0.3952">
        <ele>54</ele>
        <time>2014-04-06T16:28:24Z</time>
      </trkpt>
      <trkpt lat="44.77507" lon="-0.39506">
        <ele>54</ele>
        <time>2014-04-06T16:28:27Z</time>
      </trkpt>
      <trkpt lat="44.77502" lon="-0.39495">
        <ele>54</ele>
        <time>2014-04-06T16:28:29Z</time>
      </trkpt>
      <trkpt lat="44.77495" lon="-0.39483">
        <ele>53</ele>
        <time>2014-04-06T16:28:31Z</time>
      </trkpt>
      <trkpt lat="44.77479" lon="-0.39439">
        <ele>53</ele>
        <time>2014-04-06T16:28:39Z</time>
      </trkpt>
      <trkpt lat="44.77473" lon="-0.39418">
        <ele>53</ele>
        <time>2014-04-06T16:28:43Z</time>
      </trkpt>
      <trkpt lat="44.77469" lon="-0.39407">
        <ele>53</ele>
        <time>2014-04-06T16:28:45Z</time>
      </trkpt>
      <trkpt lat="44.77467" lon="-0.39401">
        <ele>53</ele>
        <time>2014-04-06T16:28:46Z</time>
      </trkpt>
      <trkpt lat="44.77459" lon="-0.39362">
        <ele>53</ele>
        <time>2014-04-06T16:28:53Z</time>
      </trkpt>
      <trkpt lat="44.77457" lon="-0.39351">
        <ele>53</ele>
        <time>2014-04-06T16:28:55Z</time>
      </trkpt>
      <trkpt lat="44.77455" lon="-0.39346">
        <ele>53</ele>
        <time>2014-04-06T16:28:56Z</time>
      </trkpt>
      <trkpt lat="44.7745" lon="-0.39333">
        <ele>53</ele>
        <time>2014-04-06T16:28:58Z</time>
      </trkpt>
      <trkpt lat="44.77448" lon="-0.39327">
        <ele>53</ele>
        <time>2014-04-06T16:28:59Z</time>
      </trkpt>
      <trkpt lat="44.77447" lon="-0.39322">
        <ele>53</ele>
        <time>2014-04-06T16:29:00Z</time>
      </trkpt>
      <trkpt lat="44.77446" lon="-0.39316">
        <ele>53</ele>
        <time>2014-04-06T16:29:01Z</time>
      </trkpt>
      <trkpt lat="44.77446" lon="-0.39311">
        <ele>54</ele>
        <time>2014-04-06T16:29:02Z</time>
      </trkpt>
      <trkpt lat="44.77445" lon="-0.39305">
        <ele>54</ele>
        <time>2014-04-06T16:29:03Z</time>
      </trkpt>
      <trkpt lat="44.77445" lon="-0.39299">
        <ele>54</ele>
        <time>2014-04-06T16:29:04Z</time>
      </trkpt>
      <trkpt lat="44.77444" lon="-0.39293">
        <ele>54</ele>
        <time>2014-04-06T16:29:05Z</time>
      </trkpt>
      <trkpt lat="44.77442" lon="-0.39287">
        <ele>54</ele>
        <time>2014-04-06T16:29:06Z</time>
      </trkpt>
      <trkpt lat="44.7744" lon="-0.39282">
        <ele>54</ele>
        <time>2014-04-06T16:29:07Z</time>
      </trkpt>
      <trkpt lat="44.77439" lon="-0.39276">
        <ele>54</ele>
        <time>2014-04-06T16:29:08Z</time>
      </trkpt>
      <trkpt lat="44.77436" lon="-0.3927">
        <ele>54</ele>
        <time>2014-04-06T16:29:09Z</time>
      </trkpt>
      <trkpt lat="44.77435" lon="-0.39264">
        <ele>54</ele>
        <time>2014-04-06T16:29:10Z</time>
      </trkpt>
      <trkpt lat="44.77431" lon="-0.39253">
        <ele>54</ele>
        <time>2014-04-06T16:29:12Z</time>
      </trkpt>
      <trkpt lat="44.7743" lon="-0.39247">
        <ele>54</ele>
        <time>2014-04-06T16:29:13Z</time>
      </trkpt>
      <trkpt lat="44.77428" lon="-0.39242">
        <ele>54</ele>
        <time>2014-04-06T16:29:14Z</time>
      </trkpt>
      <trkpt lat="44.77427" lon="-0.39236">
        <ele>54</ele>
        <time>2014-04-06T16:29:15Z</time>
      </trkpt>
      <trkpt lat="44.77426" lon="-0.3923">
        <ele>54</ele>
        <time>2014-04-06T16:29:16Z</time>
      </trkpt>
      <trkpt lat="44.77425" lon="-0.39224">
        <ele>54</ele>
        <time>2014-04-06T16:29:17Z</time>
      </trkpt>
      <trkpt lat="44.77424" lon="-0.39218">
        <ele>54</ele>
        <time>2014-04-06T16:29:18Z</time>
      </trkpt>
      <trkpt lat="44.77423" lon="-0.39212">
        <ele>54</ele>
        <time>2014-04-06T16:29:19Z</time>
      </trkpt>
      <trkpt lat="44.7742" lon="-0.39194">
        <ele>55</ele>
        <time>2014-04-06T16:29:22Z</time>
      </trkpt>
      <trkpt lat="44.77418" lon="-0.39189">
        <ele>55</ele>
        <time>2014-04-06T16:29:23Z</time>
      </trkpt>
      <trkpt lat="44.77415" lon="-0.39177">
        <ele>55</ele>
        <time>2014-04-06T16:29:25Z</time>
      </trkpt>
      <trkpt lat="44.77407" lon="-0.39128">
        <ele>56</ele>
        <time>2014-04-06T16:29:33Z</time>
      </trkpt>
      <trkpt lat="44.77405" lon="-0.39092">
        <ele>57</ele>
        <time>2014-04-06T16:29:39Z</time>
      </trkpt>
      <trkpt lat="44.77396" lon="-0.39059">
        <ele>57</ele>
        <time>2014-04-06T16:29:45Z</time>
      </trkpt>
      <trkpt lat="44.77395" lon="-0.39054">
        <ele>57</ele>
        <time>2014-04-06T16:29:46Z</time>
      </trkpt>
      <trkpt lat="44.77394" lon="-0.39048">
        <ele>58</ele>
        <time>2014-04-06T16:29:47Z</time>
      </trkpt>
      <trkpt lat="44.77393" lon="-0.39043">
        <ele>58</ele>
        <time>2014-04-06T16:29:48Z</time>
      </trkpt>
      <trkpt lat="44.77391" lon="-0.39038">
        <ele>58</ele>
        <time>2014-04-06T16:29:49Z</time>
      </trkpt>
      <trkpt lat="44.77382" lon="-0.38996">
        <ele>58</ele>
        <time>2014-04-06T16:29:57Z</time>
      </trkpt>
      <trkpt lat="44.77381" lon="-0.38991">
        <ele>58</ele>
        <time>2014-04-06T16:29:58Z</time>
      </trkpt>
      <trkpt lat="44.77382" lon="-0.38985">
        <ele>58</ele>
        <time>2014-04-06T16:29:59Z</time>
      </trkpt>
      <trkpt lat="44.77383" lon="-0.38973">
        <ele>58</ele>
        <time>2014-04-06T16:30:01Z</time>
      </trkpt>
      <trkpt lat="44.77383" lon="-0.38968">
        <ele>58</ele>
        <time>2014-04-06T16:30:02Z</time>
      </trkpt>
      <trkpt lat="44.7737" lon="-0.38935">
        <ele>58</ele>
        <time>2014-04-06T16:30:08Z</time>
      </trkpt>
      <trkpt lat="44.77368" lon="-0.38923">
        <ele>58</ele>
        <time>2014-04-06T16:30:10Z</time>
      </trkpt>
      <trkpt lat="44.77368" lon="-0.38918">
        <ele>58</ele>
        <time>2014-04-06T16:30:11Z</time>
      </trkpt>
      <trkpt lat="44.77368" lon="-0.38913">
        <ele>57</ele>
        <time>2014-04-06T16:30:12Z</time>
      </trkpt>
      <trkpt lat="44.77368" lon="-0.38907">
        <ele>57</ele>
        <time>2014-04-06T16:30:13Z</time>
      </trkpt>
      <trkpt lat="44.7737" lon="-0.38883">
        <ele>57</ele>
        <time>2014-04-06T16:30:17Z</time>
      </trkpt>
      <trkpt lat="44.7737" lon="-0.38871">
        <ele>58</ele>
        <time>2014-04-06T16:30:19Z</time>
      </trkpt>
      <trkpt lat="44.77369" lon="-0.38865">
        <ele>57</ele>
        <time>2014-04-06T16:30:20Z</time>
      </trkpt>
      <trkpt lat="44.77369" lon="-0.38859">
        <ele>57</ele>
        <time>2014-04-06T16:30:21Z</time>
      </trkpt>
      <trkpt lat="44.77368" lon="-0.38853">
        <ele>57</ele>
        <time>2014-04-06T16:30:22Z</time>
      </trkpt>
      <trkpt lat="44.77369" lon="-0.38848">
        <ele>58</ele>
        <time>2014-04-06T16:30:23Z</time>
      </trkpt>
      <trkpt lat="44.7737" lon="-0.38842">
        <ele>58</ele>
        <time>2014-04-06T16:30:24Z</time>
      </trkpt>
      <trkpt lat="44.7737" lon="-0.38835">
        <ele>58</ele>
        <time>2014-04-06T16:30:25Z</time>
      </trkpt>
      <trkpt lat="44.77371" lon="-0.38829">
        <ele>58</ele>
        <time>2014-04-06T16:30:26Z</time>
      </trkpt>
      <trkpt lat="44.77373" lon="-0.38823">
        <ele>58</ele>
        <time>2014-04-06T16:30:27Z</time>
      </trkpt>
      <trkpt lat="44.77372" lon="-0.38818">
        <ele>58</ele>
        <time>2014-04-06T16:30:28Z</time>
      </trkpt>
      <trkpt lat="44.7737" lon="-0.38812">
        <ele>58</ele>
        <time>2014-04-06T16:30:29Z</time>
      </trkpt>
      <trkpt lat="44.77369" lon="-0.38807">
        <ele>58</ele>
        <time>2014-04-06T16:30:30Z</time>
      </trkpt>
      <trkpt lat="44.77366" lon="-0.38796">
        <ele>58</ele>
        <time>2014-04-06T16:30:32Z</time>
      </trkpt>
      <trkpt lat="44.77365" lon="-0.3879">
        <ele>58</ele>
        <time>2014-04-06T16:30:33Z</time>
      </trkpt>
      <trkpt lat="44.77362" lon="-0.38784">
        <ele>58</ele>
        <time>2014-04-06T16:30:34Z</time>
      </trkpt>
      <trkpt lat="44.77354" lon="-0.38767">
        <ele>59</ele>
        <time>2014-04-06T16:30:37Z</time>
      </trkpt>
      <trkpt lat="44.77332" lon="-0.38717">
        <ele>60</ele>
        <time>2014-04-06T16:30:46Z</time>
      </trkpt>
      <trkpt lat="44.77322" lon="-0.3865">
        <ele>61</ele>
        <time>2014-04-06T16:30:57Z</time>
      </trkpt>
      <trkpt lat="44.77322" lon="-0.38605">
        <ele>61</ele>
        <time>2014-04-06T16:31:05Z</time>
      </trkpt>
      <trkpt lat="44.77321" lon="-0.3856">
        <ele>62</ele>
        <time>2014-04-06T16:31:13Z</time>
      </trkpt>
      <trkpt lat="44.77323" lon="-0.38528">
        <ele>62</ele>
        <time>2014-04-06T16:31:19Z</time>
      </trkpt>
      <trkpt lat="44.77321" lon="-0.38485">
        <ele>62</ele>
        <time>2014-04-06T16:31:27Z</time>
      </trkpt>
      <trkpt lat="44.77318" lon="-0.38437">
        <ele>62</ele>
        <time>2014-04-06T16:31:36Z</time>
      </trkpt>
      <trkpt lat="44.77316" lon="-0.38399">
        <ele>62</ele>
        <time>2014-04-06T16:31:43Z</time>
      </trkpt>
      <trkpt lat="44.77316" lon="-0.38337">
        <ele>63</ele>
        <time>2014-04-06T16:31:54Z</time>
      </trkpt>
      <trkpt lat="44.77313" lon="-0.38272">
        <ele>63</ele>
        <time>2014-04-06T16:32:05Z</time>
      </trkpt>
      <trkpt lat="44.77311" lon="-0.38237">
        <ele>63</ele>
        <time>2014-04-06T16:32:11Z</time>
      </trkpt>
      <trkpt lat="44.77309" lon="-0.3819">
        <ele>62</ele>
        <time>2014-04-06T16:32:19Z</time>
      </trkpt>
      <trkpt lat="44.77308" lon="-0.38178">
        <ele>63</ele>
        <time>2014-04-06T16:32:21Z</time>
      </trkpt>
      <trkpt lat="44.7731" lon="-0.38148">
        <ele>63</ele>
        <time>2014-04-06T16:32:26Z</time>
      </trkpt>
      <trkpt lat="44.77314" lon="-0.38137">
        <ele>63</ele>
        <time>2014-04-06T16:32:28Z</time>
      </trkpt>
      <trkpt lat="44.77312" lon="-0.38119">
        <ele>63</ele>
        <time>2014-04-06T16:32:31Z</time>
      </trkpt>
      <trkpt lat="44.77312" lon="-0.38113">
        <ele>63</ele>
        <time>2014-04-06T16:32:32Z</time>
      </trkpt>
      <trkpt lat="44.7731" lon="-0.38082">
        <ele>64</ele>
        <time>2014-04-06T16:32:37Z</time>
      </trkpt>
      <trkpt lat="44.77309" lon="-0.38075">
        <ele>64</ele>
        <time>2014-04-06T16:32:38Z</time>
      </trkpt>
      <trkpt lat="44.77309" lon="-0.38069">
        <ele>64</ele>
        <time>2014-04-06T16:32:39Z</time>
      </trkpt>
      <trkpt lat="44.77311" lon="-0.38057">
        <ele>64</ele>
        <time>2014-04-06T16:32:41Z</time>
      </trkpt>
      <trkpt lat="44.77311" lon="-0.38051">
        <ele>64</ele>
        <time>2014-04-06T16:32:42Z</time>
      </trkpt>
      <trkpt lat="44.7731" lon="-0.38045">
        <ele>64</ele>
        <time>2014-04-06T16:32:43Z</time>
      </trkpt>
      <trkpt lat="44.77312" lon="-0.37995">
        <ele>66</ele>
        <time>2014-04-06T16:32:51Z</time>
      </trkpt>
      <trkpt lat="44.7731" lon="-0.37983">
        <ele>66</ele>
        <time>2014-04-06T16:32:53Z</time>
      </trkpt>
      <trkpt lat="44.7731" lon="-0.37976">
        <ele>66</ele>
        <time>2014-04-06T16:32:54Z</time>
      </trkpt>
      <trkpt lat="44.77309" lon="-0.3797">
        <ele>67</ele>
        <time>2014-04-06T16:32:55Z</time>
      </trkpt>
      <trkpt lat="44.77309" lon="-0.37958">
        <ele>67</ele>
        <time>2014-04-06T16:32:57Z</time>
      </trkpt>
      <trkpt lat="44.77312" lon="-0.37941">
        <ele>68</ele>
        <time>2014-04-06T16:33:00Z</time>
      </trkpt>
      <trkpt lat="44.77314" lon="-0.37928">
        <ele>68</ele>
        <time>2014-04-06T16:33:02Z</time>
      </trkpt>
      <trkpt lat="44.77314" lon="-0.37922">
        <ele>68</ele>
        <time>2014-04-06T16:33:03Z</time>
      </trkpt>
      <trkpt lat="44.77312" lon="-0.37916">
        <ele>68</ele>
        <time>2014-04-06T16:33:04Z</time>
      </trkpt>
      <trkpt lat="44.77303" lon="-0.37897">
        <ele>68</ele>
        <time>2014-04-06T16:33:07Z</time>
      </trkpt>
      <trkpt lat="44.77297" lon="-0.37886">
        <ele>67</ele>
        <time>2014-04-06T16:33:09Z</time>
      </trkpt>
      <trkpt lat="44.77293" lon="-0.37874">
        <ele>67</ele>
        <time>2014-04-06T16:33:11Z</time>
      </trkpt>
      <trkpt lat="44.77291" lon="-0.37856">
        <ele>67</ele>
        <time>2014-04-06T16:33:14Z</time>
      </trkpt>
      <trkpt lat="44.77291" lon="-0.3785">
        <ele>67</ele>
        <time>2014-04-06T16:33:15Z</time>
      </trkpt>
      <trkpt lat="44.77291" lon="-0.37844">
        <ele>67</ele>
        <time>2014-04-06T16:33:16Z</time>
      </trkpt>
      <trkpt lat="44.77291" lon="-0.37831">
        <ele>67</ele>
        <time>2014-04-06T16:33:18Z</time>
      </trkpt>
      <trkpt lat="44.77292" lon="-0.37825">
        <ele>67</ele>
        <time>2014-04-06T16:33:19Z</time>
      </trkpt>
      <trkpt lat="44.77294" lon="-0.37799">
        <ele>68</ele>
        <time>2014-04-06T16:33:23Z</time>
      </trkpt>
      <trkpt lat="44.77295" lon="-0.37793">
        <ele>67</ele>
        <time>2014-04-06T16:33:24Z</time>
      </trkpt>
      <trkpt lat="44.77296" lon="-0.37787">
        <ele>67</ele>
        <time>2014-04-06T16:33:25Z</time>
      </trkpt>
      <trkpt lat="44.77295" lon="-0.37781">
        <ele>67</ele>
        <time>2014-04-06T16:33:26Z</time>
      </trkpt>
      <trkpt lat="44.77295" lon="-0.37774">
        <ele>67</ele>
        <time>2014-04-06T16:33:27Z</time>
      </trkpt>
      <trkpt lat="44.77295" lon="-0.37769">
        <ele>67</ele>
        <time>2014-04-06T16:33:28Z</time>
      </trkpt>
      <trkpt lat="44.77294" lon="-0.37763">
        <ele>66</ele>
        <time>2014-04-06T16:33:29Z</time>
      </trkpt>
      <trkpt lat="44.77299" lon="-0.37725">
        <ele>66</ele>
        <time>2014-04-06T16:33:36Z</time>
      </trkpt>
      <trkpt lat="44.77299" lon="-0.37712">
        <ele>66</ele>
        <time>2014-04-06T16:33:38Z</time>
      </trkpt>
      <trkpt lat="44.773" lon="-0.37701">
        <ele>66</ele>
        <time>2014-04-06T16:33:40Z</time>
      </trkpt>
      <trkpt lat="44.77302" lon="-0.3769">
        <ele>66</ele>
        <time>2014-04-06T16:33:42Z</time>
      </trkpt>
      <trkpt lat="44.77303" lon="-0.37684">
        <ele>66</ele>
        <time>2014-04-06T16:33:43Z</time>
      </trkpt>
      <trkpt lat="44.77317" lon="-0.37639">
        <ele>68</ele>
        <time>2014-04-06T16:33:50Z</time>
      </trkpt>
      <trkpt lat="44.7732" lon="-0.37633">
        <ele>68</ele>
        <time>2014-04-06T16:33:51Z</time>
      </trkpt>
      <trkpt lat="44.77325" lon="-0.37616">
        <ele>68</ele>
        <time>2014-04-06T16:33:54Z</time>
      </trkpt>
      <trkpt lat="44.77326" lon="-0.3761">
        <ele>68</ele>
        <time>2014-04-06T16:33:55Z</time>
      </trkpt>
      <trkpt lat="44.77327" lon="-0.37603">
        <ele>68</ele>
        <time>2014-04-06T16:33:56Z</time>
      </trkpt>
      <trkpt lat="44.77327" lon="-0.37597">
        <ele>68</ele>
        <time>2014-04-06T16:33:57Z</time>
      </trkpt>
      <trkpt lat="44.77327" lon="-0.37593">
        <ele>68</ele>
        <time>2014-04-06T16:33:58Z</time>
      </trkpt>
      <trkpt lat="44.77329" lon="-0.37574">
        <ele>69</ele>
        <time>2014-04-06T16:34:01Z</time>
      </trkpt>
      <trkpt lat="44.7733" lon="-0.37568">
        <ele>69</ele>
        <time>2014-04-06T16:34:02Z</time>
      </trkpt>
      <trkpt lat="44.77342" lon="-0.3754">
        <ele>69</ele>
        <time>2014-04-06T16:34:07Z</time>
      </trkpt>
      <trkpt lat="44.77347" lon="-0.37528">
        <ele>69</ele>
        <time>2014-04-06T16:34:09Z</time>
      </trkpt>
      <trkpt lat="44.77353" lon="-0.37517">
        <ele>70</ele>
        <time>2014-04-06T16:34:11Z</time>
      </trkpt>
      <trkpt lat="44.77355" lon="-0.37511">
        <ele>70</ele>
        <time>2014-04-06T16:34:12Z</time>
      </trkpt>
      <trkpt lat="44.77357" lon="-0.37505">
        <ele>70</ele>
        <time>2014-04-06T16:34:13Z</time>
      </trkpt>
      <trkpt lat="44.77363" lon="-0.37483">
        <ele>70</ele>
        <time>2014-04-06T16:34:17Z</time>
      </trkpt>
      <trkpt lat="44.77366" lon="-0.37477">
        <ele>70</ele>
        <time>2014-04-06T16:34:18Z</time>
      </trkpt>
      <trkpt lat="44.77368" lon="-0.37471">
        <ele>70</ele>
        <time>2014-04-06T16:34:19Z</time>
      </trkpt>
      <trkpt lat="44.7737" lon="-0.37465">
        <ele>70</ele>
        <time>2014-04-06T16:34:20Z</time>
      </trkpt>
      <trkpt lat="44.77371" lon="-0.37459">
        <ele>70</ele>
        <time>2014-04-06T16:34:21Z</time>
      </trkpt>
      <trkpt lat="44.77376" lon="-0.37442">
        <ele>70</ele>
        <time>2014-04-06T16:34:24Z</time>
      </trkpt>
      <trkpt lat="44.77391" lon="-0.37402">
        <ele>70</ele>
        <time>2014-04-06T16:34:31Z</time>
      </trkpt>
      <trkpt lat="44.77394" lon="-0.37397">
        <ele>70</ele>
        <time>2014-04-06T16:34:32Z</time>
      </trkpt>
      <trkpt lat="44.77396" lon="-0.37391">
        <ele>70</ele>
        <time>2014-04-06T16:34:33Z</time>
      </trkpt>
      <trkpt lat="44.77398" lon="-0.37386">
        <ele>70</ele>
        <time>2014-04-06T16:34:34Z</time>
      </trkpt>
      <trkpt lat="44.774" lon="-0.3738">
        <ele>69</ele>
        <time>2014-04-06T16:34:35Z</time>
      </trkpt>
      <trkpt lat="44.77402" lon="-0.37375">
        <ele>69</ele>
        <time>2014-04-06T16:34:36Z</time>
      </trkpt>
      <trkpt lat="44.77404" lon="-0.37369">
        <ele>69</ele>
        <time>2014-04-06T16:34:37Z</time>
      </trkpt>
      <trkpt lat="44.77406" lon="-0.37364">
        <ele>69</ele>
        <time>2014-04-06T16:34:38Z</time>
      </trkpt>
      <trkpt lat="44.77408" lon="-0.37358">
        <ele>69</ele>
        <time>2014-04-06T16:34:39Z</time>
      </trkpt>
      <trkpt lat="44.7741" lon="-0.37353">
        <ele>69</ele>
        <time>2014-04-06T16:34:40Z</time>
      </trkpt>
      <trkpt lat="44.77423" lon="-0.37317">
        <ele>69</ele>
        <time>2014-04-06T16:34:47Z</time>
      </trkpt>
      <trkpt lat="44.77426" lon="-0.37303">
        <ele>69</ele>
        <time>2014-04-06T16:34:50Z</time>
      </trkpt>
      <trkpt lat="44.77428" lon="-0.37299">
        <ele>69</ele>
        <time>2014-04-06T16:34:51Z</time>
      </trkpt>
      <trkpt lat="44.77429" lon="-0.37294">
        <ele>69</ele>
        <time>2014-04-06T16:34:52Z</time>
      </trkpt>
      <trkpt lat="44.77431" lon="-0.3729">
        <ele>69</ele>
        <time>2014-04-06T16:34:53Z</time>
      </trkpt>
      <trkpt lat="44.77432" lon="-0.37286">
        <ele>69</ele>
        <time>2014-04-06T16:34:54Z</time>
      </trkpt>
      <trkpt lat="44.77433" lon="-0.37265">
        <ele>69</ele>
        <time>2014-04-06T16:34:59Z</time>
      </trkpt>
      <trkpt lat="44.77443" lon="-0.37243">
        <ele>70</ele>
        <time>2014-04-06T16:35:04Z</time>
      </trkpt>
      <trkpt lat="44.77448" lon="-0.37233">
        <ele>70</ele>
        <time>2014-04-06T16:35:06Z</time>
      </trkpt>
      <trkpt lat="44.77458" lon="-0.37206">
        <ele>71</ele>
        <time>2014-04-06T16:35:11Z</time>
      </trkpt>
      <trkpt lat="44.77471" lon="-0.37167">
        <ele>72</ele>
        <time>2014-04-06T16:35:19Z</time>
      </trkpt>
      <trkpt lat="44.7749" lon="-0.3714">
        <ele>73</ele>
        <time>2014-04-06T16:35:25Z</time>
      </trkpt>
      <trkpt lat="44.77501" lon="-0.3712">
        <ele>74</ele>
        <time>2014-04-06T16:35:31Z</time>
      </trkpt>
      <trkpt lat="44.77507" lon="-0.37107">
        <ele>74</ele>
        <time>2014-04-06T16:35:35Z</time>
      </trkpt>
      <trkpt lat="44.77517" lon="-0.37091">
        <ele>74</ele>
        <time>2014-04-06T16:35:41Z</time>
      </trkpt>
      <trkpt lat="44.77524" lon="-0.37073">
        <ele>75</ele>
        <time>2014-04-06T16:35:47Z</time>
      </trkpt>
      <trkpt lat="44.77525" lon="-0.37071">
        <ele>75</ele>
        <time>2014-04-06T16:35:48Z</time>
      </trkpt>
      <trkpt lat="44.77527" lon="-0.37068">
        <ele>75</ele>
        <time>2014-04-06T16:35:49Z</time>
      </trkpt>
      <trkpt lat="44.77528" lon="-0.37065">
        <ele>75</ele>
        <time>2014-04-06T16:35:50Z</time>
      </trkpt>
      <trkpt lat="44.77529" lon="-0.37063">
        <ele>75</ele>
        <time>2014-04-06T16:35:51Z</time>
      </trkpt>
      <trkpt lat="44.77535" lon="-0.37044">
        <ele>75</ele>
        <time>2014-04-06T16:35:56Z</time>
      </trkpt>
      <trkpt lat="44.77545" lon="-0.37023">
        <ele>75</ele>
        <time>2014-04-06T16:36:00Z</time>
      </trkpt>
      <trkpt lat="44.77558" lon="-0.36995">
        <ele>76</ele>
        <time>2014-04-06T16:36:06Z</time>
      </trkpt>
      <trkpt lat="44.77564" lon="-0.36981">
        <ele>76</ele>
        <time>2014-04-06T16:36:09Z</time>
      </trkpt>
      <trkpt lat="44.77566" lon="-0.36976">
        <ele>76</ele>
        <time>2014-04-06T16:36:10Z</time>
      </trkpt>
      <trkpt lat="44.77577" lon="-0.36955">
        <ele>76</ele>
        <time>2014-04-06T16:36:16Z</time>
      </trkpt>
      <trkpt lat="44.77587" lon="-0.36933">
        <ele>76</ele>
        <time>2014-04-06T16:36:22Z</time>
      </trkpt>
      <trkpt lat="44.77594" lon="-0.36911">
        <ele>76</ele>
        <time>2014-04-06T16:36:28Z</time>
      </trkpt>
      <trkpt lat="44.77606" lon="-0.36886">
        <ele>77</ele>
        <time>2014-04-06T16:36:36Z</time>
      </trkpt>
      <trkpt lat="44.77615" lon="-0.36859">
        <ele>78</ele>
        <time>2014-04-06T16:36:43Z</time>
      </trkpt>
      <trkpt lat="44.77624" lon="-0.36837">
        <ele>78</ele>
        <time>2014-04-06T16:36:49Z</time>
      </trkpt>
      <trkpt lat="44.77633" lon="-0.368">
        <ele>78</ele>
        <time>2014-04-06T16:36:57Z</time>
      </trkpt>
      <trkpt lat="44.77638" lon="-0.36774">
        <ele>79</ele>
        <time>2014-04-06T16:37:03Z</time>
      </trkpt>
      <trkpt lat="44.77644" lon="-0.36746">
        <ele>79</ele>
        <time>2014-04-06T16:37:09Z</time>
      </trkpt>
      <trkpt lat="44.77646" lon="-0.36725">
        <ele>79</ele>
        <time>2014-04-06T16:37:14Z</time>
      </trkpt>
      <trkpt lat="44.77644" lon="-0.36695">
        <ele>79</ele>
        <time>2014-04-06T16:37:21Z</time>
      </trkpt>
      <trkpt lat="44.77646" lon="-0.36664">
        <ele>79</ele>
        <time>2014-04-06T16:37:28Z</time>
      </trkpt>
      <trkpt lat="44.77648" lon="-0.36638">
        <ele>80</ele>
        <time>2014-04-06T16:37:34Z</time>
      </trkpt>
      <trkpt lat="44.77649" lon="-0.36623">
        <ele>80</ele>
        <time>2014-04-06T16:37:39Z</time>
      </trkpt>
      <trkpt lat="44.7765" lon="-0.3662">
        <ele>80</ele>
        <time>2014-04-06T16:37:40Z</time>
      </trkpt>
      <trkpt lat="44.77651" lon="-0.36601">
        <ele>80</ele>
        <time>2014-04-06T16:37:47Z</time>
      </trkpt>
      <trkpt lat="44.77654" lon="-0.36574">
        <ele>81</ele>
        <time>2014-04-06T16:37:54Z</time>
      </trkpt>
      <trkpt lat="44.77658" lon="-0.36548">
        <ele>81</ele>
        <time>2014-04-06T16:38:00Z</time>
      </trkpt>
      <trkpt lat="44.77659" lon="-0.3652">
        <ele>81</ele>
        <time>2014-04-06T16:38:07Z</time>
      </trkpt>
      <trkpt lat="44.77659" lon="-0.36516">
        <ele>81</ele>
        <time>2014-04-06T16:38:08Z</time>
      </trkpt>
      <trkpt lat="44.77658" lon="-0.36512">
        <ele>81</ele>
        <time>2014-04-06T16:38:09Z</time>
      </trkpt>
      <trkpt lat="44.77657" lon="-0.36507">
        <ele>81</ele>
        <time>2014-04-06T16:38:10Z</time>
      </trkpt>
      <trkpt lat="44.77657" lon="-0.36502">
        <ele>80</ele>
        <time>2014-04-06T16:38:11Z</time>
      </trkpt>
      <trkpt lat="44.77657" lon="-0.36498">
        <ele>80</ele>
        <time>2014-04-06T16:38:12Z</time>
      </trkpt>
      <trkpt lat="44.77657" lon="-0.36493">
        <ele>80</ele>
        <time>2014-04-06T16:38:13Z</time>
      </trkpt>
      <trkpt lat="44.77658" lon="-0.36488">
        <ele>80</ele>
        <time>2014-04-06T16:38:14Z</time>
      </trkpt>
      <trkpt lat="44.77662" lon="-0.36454">
        <ele>80</ele>
        <time>2014-04-06T16:38:21Z</time>
      </trkpt>
      <trkpt lat="44.77665" lon="-0.36411">
        <ele>78</ele>
        <time>2014-04-06T16:38:30Z</time>
      </trkpt>
      <trkpt lat="44.77668" lon="-0.36374">
        <ele>76</ele>
        <time>2014-04-06T16:38:38Z</time>
      </trkpt>
      <trkpt lat="44.77669" lon="-0.36342">
        <ele>77</ele>
        <time>2014-04-06T16:38:45Z</time>
      </trkpt>
      <trkpt lat="44.77674" lon="-0.36298">
        <ele>78</ele>
        <time>2014-04-06T16:38:54Z</time>
      </trkpt>
      <trkpt lat="44.7768" lon="-0.36255">
        <ele>80</ele>
        <time>2014-04-06T16:39:03Z</time>
      </trkpt>
      <trkpt lat="44.77682" lon="-0.3623">
        <ele>81</ele>
        <time>2014-04-06T16:39:09Z</time>
      </trkpt>
      <trkpt lat="44.77689" lon="-0.36195">
        <ele>83</ele>
        <time>2014-04-06T16:39:16Z</time>
      </trkpt>
      <trkpt lat="44.77692" lon="-0.36158">
        <ele>82</ele>
        <time>2014-04-06T16:39:24Z</time>
      </trkpt>
      <trkpt lat="44.77694" lon="-0.3613">
        <ele>81</ele>
        <time>2014-04-06T16:39:29Z</time>
      </trkpt>
      <trkpt lat="44.77697" lon="-0.36097">
        <ele>82</ele>
        <time>2014-04-06T16:39:36Z</time>
      </trkpt>
      <trkpt lat="44.77696" lon="-0.36056">
        <ele>84</ele>
        <time>2014-04-06T16:39:45Z</time>
      </trkpt>
      <trkpt lat="44.77693" lon="-0.36031">
        <ele>86</ele>
        <time>2014-04-06T16:39:51Z</time>
      </trkpt>
      <trkpt lat="44.77686" lon="-0.35992">
        <ele>89</ele>
        <time>2014-04-06T16:39:59Z</time>
      </trkpt>
      <trkpt lat="44.77679" lon="-0.35951">
        <ele>90</ele>
        <time>2014-04-06T16:40:07Z</time>
      </trkpt>
      <trkpt lat="44.77668" lon="-0.35904">
        <ele>90</ele>
        <time>2014-04-06T16:40:16Z</time>
      </trkpt>
      <trkpt lat="44.77666" lon="-0.35893">
        <ele>90</ele>
        <time>2014-04-06T16:40:18Z</time>
      </trkpt>
      <trkpt lat="44.77655" lon="-0.35842">
        <ele>91</ele>
        <time>2014-04-06T16:40:28Z</time>
      </trkpt>
      <trkpt lat="44.77645" lon="-0.35803">
        <ele>92</ele>
        <time>2014-04-06T16:40:36Z</time>
      </trkpt>
      <trkpt lat="44.77638" lon="-0.3577">
        <ele>92</ele>
        <time>2014-04-06T16:40:43Z</time>
      </trkpt>
      <trkpt lat="44.77629" lon="-0.35727">
        <ele>93</ele>
        <time>2014-04-06T16:40:52Z</time>
      </trkpt>
      <trkpt lat="44.77619" lon="-0.3568">
        <ele>93</ele>
        <time>2014-04-06T16:41:01Z</time>
      </trkpt>
      <trkpt lat="44.77612" lon="-0.35637">
        <ele>92</ele>
        <time>2014-04-06T16:41:09Z</time>
      </trkpt>
      <trkpt lat="44.77606" lon="-0.35589">
        <ele>90</ele>
        <time>2014-04-06T16:41:18Z</time>
      </trkpt>
      <trkpt lat="44.77607" lon="-0.35547">
        <ele>90</ele>
        <time>2014-04-06T16:41:26Z</time>
      </trkpt>
      <trkpt lat="44.77606" lon="-0.35505">
        <ele>90</ele>
        <time>2014-04-06T16:41:33Z</time>
      </trkpt>
      <trkpt lat="44.77603" lon="-0.35472">
        <ele>90</ele>
        <time>2014-04-06T16:41:40Z</time>
      </trkpt>
      <trkpt lat="44.77605" lon="-0.35446">
        <ele>90</ele>
        <time>2014-04-06T16:41:46Z</time>
      </trkpt>
      <trkpt lat="44.77606" lon="-0.35409">
        <ele>91</ele>
        <time>2014-04-06T16:41:53Z</time>
      </trkpt>
      <trkpt lat="44.77605" lon="-0.35377">
        <ele>91</ele>
        <time>2014-04-06T16:41:59Z</time>
      </trkpt>
      <trkpt lat="44.77604" lon="-0.35321">
        <ele>93</ele>
        <time>2014-04-06T16:42:08Z</time>
      </trkpt>
      <trkpt lat="44.77601" lon="-0.35269">
        <ele>94</ele>
        <time>2014-04-06T16:42:16Z</time>
      </trkpt>
      <trkpt lat="44.77601" lon="-0.35257">
        <ele>94</ele>
        <time>2014-04-06T16:42:18Z</time>
      </trkpt>
      <trkpt lat="44.77602" lon="-0.35211">
        <ele>95</ele>
        <time>2014-04-06T16:42:27Z</time>
      </trkpt>
      <trkpt lat="44.77601" lon="-0.35176">
        <ele>95</ele>
        <time>2014-04-06T16:42:34Z</time>
      </trkpt>
      <trkpt lat="44.776" lon="-0.35147">
        <ele>95</ele>
        <time>2014-04-06T16:42:40Z</time>
      </trkpt>
      <trkpt lat="44.77601" lon="-0.35128">
        <ele>95</ele>
        <time>2014-04-06T16:42:46Z</time>
      </trkpt>
      <trkpt lat="44.77602" lon="-0.35126">
        <ele>95</ele>
        <time>2014-04-06T16:42:47Z</time>
      </trkpt>
      <trkpt lat="44.77603" lon="-0.3512">
        <ele>95</ele>
        <time>2014-04-06T16:42:52Z</time>
      </trkpt>
      <trkpt lat="44.7761" lon="-0.35095">
        <ele>95</ele>
        <time>2014-04-06T16:42:58Z</time>
      </trkpt>
      <trkpt lat="44.77618" lon="-0.35053">
        <ele>96</ele>
        <time>2014-04-06T16:43:06Z</time>
      </trkpt>
      <trkpt lat="44.77626" lon="-0.35006">
        <ele>96</ele>
        <time>2014-04-06T16:43:15Z</time>
      </trkpt>
      <trkpt lat="44.77627" lon="-0.34983">
        <ele>96</ele>
        <time>2014-04-06T16:43:20Z</time>
      </trkpt>
      <trkpt lat="44.77632" lon="-0.34957">
        <ele>97</ele>
        <time>2014-04-06T16:43:27Z</time>
      </trkpt>
      <trkpt lat="44.77635" lon="-0.34939">
        <ele>97</ele>
        <time>2014-04-06T16:43:32Z</time>
      </trkpt>
      <trkpt lat="44.77639" lon="-0.34917">
        <ele>98</ele>
        <time>2014-04-06T16:43:38Z</time>
      </trkpt>
      <trkpt lat="44.7764" lon="-0.34912">
        <ele>98</ele>
        <time>2014-04-06T16:43:40Z</time>
      </trkpt>
      <trkpt lat="44.7764" lon="-0.3491">
        <ele>98</ele>
        <time>2014-04-06T16:43:41Z</time>
      </trkpt>
      <trkpt lat="44.77641" lon="-0.34907">
        <ele>98</ele>
        <time>2014-04-06T16:43:47Z</time>
      </trkpt>
      <trkpt lat="44.77642" lon="-0.34906">
        <ele>99</ele>
        <time>2014-04-06T16:43:58Z</time>
      </trkpt>
    </trkseg>
  </trk>
</gpx>